<?xml version="1.0" encoding="UTF-8" standalone="no" ?>
<gpx xmlns="http://www.topografix.com/GPX/1/1" xmlns:xsi="http://www.w3.org/2001/XMLSchema-instance" xsi:schemaLocation="http://www.topografix.com/GPX/1/1 http://www.topografix.com/GPX/1/1/gpx.xsd" version="1.1" creator="VisuGPX - https://www.visugpx.com">
  <metadata>
    <name>Champagnat Cyclisme sur route</name>
  </metadata>
  <trk>
    <name><![CDATA[Champagnat Cyclisme sur route_1]]></name>
    <trkseg>
      <trkpt lat="46.48272" lon="5.36838">
        <ele>269</ele>
        <time>2022-03-22T12:10:42Z</time>
      </trkpt>
      <trkpt lat="46.48263" lon="5.36825">
        <ele>267.8</ele>
        <time>2022-03-22T12:10:43Z</time>
      </trkpt>
      <trkpt lat="46.48242" lon="5.36805">
        <ele>266.6</ele>
        <time>2022-03-22T12:10:45Z</time>
      </trkpt>
      <trkpt lat="46.48221" lon="5.36788">
        <ele>264.8</ele>
        <time>2022-03-22T12:10:47Z</time>
      </trkpt>
      <trkpt lat="46.482" lon="5.36771">
        <ele>262.6</ele>
        <time>2022-03-22T12:10:49Z</time>
      </trkpt>
      <trkpt lat="46.48189" lon="5.36762">
        <ele>261.6</ele>
        <time>2022-03-22T12:10:50Z</time>
      </trkpt>
      <trkpt lat="46.48169" lon="5.36745">
        <ele>260.6</ele>
        <time>2022-03-22T12:10:52Z</time>
      </trkpt>
      <trkpt lat="46.48159" lon="5.36737">
        <ele>260.2</ele>
        <time>2022-03-22T12:10:53Z</time>
      </trkpt>
      <trkpt lat="46.48139" lon="5.36722">
        <ele>259</ele>
        <time>2022-03-22T12:10:55Z</time>
      </trkpt>
      <trkpt lat="46.48129" lon="5.36716">
        <ele>258</ele>
        <time>2022-03-22T12:10:56Z</time>
      </trkpt>
      <trkpt lat="46.48121" lon="5.36711">
        <ele>257.2</ele>
        <time>2022-03-22T12:10:57Z</time>
      </trkpt>
      <trkpt lat="46.48114" lon="5.36705">
        <ele>256.8</ele>
        <time>2022-03-22T12:10:58Z</time>
      </trkpt>
      <trkpt lat="46.48111" lon="5.36696">
        <ele>256.2</ele>
        <time>2022-03-22T12:10:59Z</time>
      </trkpt>
      <trkpt lat="46.4811" lon="5.36687">
        <ele>255.8</ele>
        <time>2022-03-22T12:11:00Z</time>
      </trkpt>
      <trkpt lat="46.48113" lon="5.36678">
        <ele>255</ele>
        <time>2022-03-22T12:11:01Z</time>
      </trkpt>
      <trkpt lat="46.48118" lon="5.3667">
        <ele>254.8</ele>
        <time>2022-03-22T12:11:02Z</time>
      </trkpt>
      <trkpt lat="46.48132" lon="5.36657">
        <ele>253.2</ele>
        <time>2022-03-22T12:11:04Z</time>
      </trkpt>
      <trkpt lat="46.48184" lon="5.3661">
        <ele>250.2</ele>
        <time>2022-03-22T12:11:11Z</time>
      </trkpt>
      <trkpt lat="46.48191" lon="5.36606">
        <ele>250</ele>
        <time>2022-03-22T12:11:12Z</time>
      </trkpt>
      <trkpt lat="46.48199" lon="5.36603">
        <ele>249.8</ele>
        <time>2022-03-22T12:11:13Z</time>
      </trkpt>
      <trkpt lat="46.48207" lon="5.366">
        <ele>249.6</ele>
        <time>2022-03-22T12:11:14Z</time>
      </trkpt>
      <trkpt lat="46.4822" lon="5.36587">
        <ele>249.4</ele>
        <time>2022-03-22T12:11:16Z</time>
      </trkpt>
      <trkpt lat="46.48223" lon="5.36576">
        <ele>249.2</ele>
        <time>2022-03-22T12:11:17Z</time>
      </trkpt>
      <trkpt lat="46.48226" lon="5.36566">
        <ele>249.2</ele>
        <time>2022-03-22T12:11:18Z</time>
      </trkpt>
      <trkpt lat="46.48231" lon="5.36556">
        <ele>249</ele>
        <time>2022-03-22T12:11:19Z</time>
      </trkpt>
      <trkpt lat="46.48236" lon="5.36548">
        <ele>248.8</ele>
        <time>2022-03-22T12:11:20Z</time>
      </trkpt>
      <trkpt lat="46.48243" lon="5.36541">
        <ele>248.8</ele>
        <time>2022-03-22T12:11:21Z</time>
      </trkpt>
      <trkpt lat="46.48256" lon="5.36528">
        <ele>248.6</ele>
        <time>2022-03-22T12:11:23Z</time>
      </trkpt>
      <trkpt lat="46.48283" lon="5.36498">
        <ele>247.6</ele>
        <time>2022-03-22T12:11:27Z</time>
      </trkpt>
      <trkpt lat="46.48311" lon="5.36467">
        <ele>246.6</ele>
        <time>2022-03-22T12:11:31Z</time>
      </trkpt>
      <trkpt lat="46.48333" lon="5.36444">
        <ele>245.8</ele>
        <time>2022-03-22T12:11:34Z</time>
      </trkpt>
      <trkpt lat="46.4834" lon="5.36436">
        <ele>245.4</ele>
        <time>2022-03-22T12:11:35Z</time>
      </trkpt>
      <trkpt lat="46.48376" lon="5.36397">
        <ele>244.4</ele>
        <time>2022-03-22T12:11:40Z</time>
      </trkpt>
      <trkpt lat="46.48398" lon="5.36375">
        <ele>243.2</ele>
        <time>2022-03-22T12:11:43Z</time>
      </trkpt>
      <trkpt lat="46.48413" lon="5.36362">
        <ele>242.8</ele>
        <time>2022-03-22T12:11:45Z</time>
      </trkpt>
      <trkpt lat="46.48428" lon="5.36354">
        <ele>242.4</ele>
        <time>2022-03-22T12:11:47Z</time>
      </trkpt>
      <trkpt lat="46.48452" lon="5.36347">
        <ele>242.2</ele>
        <time>2022-03-22T12:11:50Z</time>
      </trkpt>
      <trkpt lat="46.48467" lon="5.36345">
        <ele>242.2</ele>
        <time>2022-03-22T12:11:52Z</time>
      </trkpt>
      <trkpt lat="46.4852" lon="5.36336">
        <ele>242.2</ele>
        <time>2022-03-22T12:11:59Z</time>
      </trkpt>
      <trkpt lat="46.48542" lon="5.36332">
        <ele>241.8</ele>
        <time>2022-03-22T12:12:02Z</time>
      </trkpt>
      <trkpt lat="46.48589" lon="5.36325">
        <ele>241.2</ele>
        <time>2022-03-22T12:12:08Z</time>
      </trkpt>
      <trkpt lat="46.48597" lon="5.36324">
        <ele>241</ele>
        <time>2022-03-22T12:12:09Z</time>
      </trkpt>
      <trkpt lat="46.48614" lon="5.36319">
        <ele>240.6</ele>
        <time>2022-03-22T12:12:11Z</time>
      </trkpt>
      <trkpt lat="46.48622" lon="5.36313">
        <ele>240.4</ele>
        <time>2022-03-22T12:12:12Z</time>
      </trkpt>
      <trkpt lat="46.48629" lon="5.36304">
        <ele>240</ele>
        <time>2022-03-22T12:12:13Z</time>
      </trkpt>
      <trkpt lat="46.48633" lon="5.36292">
        <ele>239.8</ele>
        <time>2022-03-22T12:12:14Z</time>
      </trkpt>
      <trkpt lat="46.48637" lon="5.36279">
        <ele>239.6</ele>
        <time>2022-03-22T12:12:15Z</time>
      </trkpt>
      <trkpt lat="46.4864" lon="5.36252">
        <ele>238.8</ele>
        <time>2022-03-22T12:12:17Z</time>
      </trkpt>
      <trkpt lat="46.48641" lon="5.36239">
        <ele>238</ele>
        <time>2022-03-22T12:12:18Z</time>
      </trkpt>
      <trkpt lat="46.48643" lon="5.36225">
        <ele>237.8</ele>
        <time>2022-03-22T12:12:19Z</time>
      </trkpt>
      <trkpt lat="46.48646" lon="5.36185">
        <ele>236.4</ele>
        <time>2022-03-22T12:12:22Z</time>
      </trkpt>
      <trkpt lat="46.48649" lon="5.36147">
        <ele>235.4</ele>
        <time>2022-03-22T12:12:25Z</time>
      </trkpt>
      <trkpt lat="46.48651" lon="5.36134">
        <ele>235.2</ele>
        <time>2022-03-22T12:12:26Z</time>
      </trkpt>
      <trkpt lat="46.48663" lon="5.36076">
        <ele>234.2</ele>
        <time>2022-03-22T12:12:31Z</time>
      </trkpt>
      <trkpt lat="46.48672" lon="5.36035">
        <ele>234</ele>
        <time>2022-03-22T12:12:35Z</time>
      </trkpt>
      <trkpt lat="46.48674" lon="5.36017">
        <ele>234</ele>
        <time>2022-03-22T12:12:37Z</time>
      </trkpt>
      <trkpt lat="46.48676" lon="5.35988">
        <ele>234.2</ele>
        <time>2022-03-22T12:12:40Z</time>
      </trkpt>
      <trkpt lat="46.4868" lon="5.35971">
        <ele>234.4</ele>
        <time>2022-03-22T12:12:42Z</time>
      </trkpt>
      <trkpt lat="46.48684" lon="5.35947">
        <ele>235.2</ele>
        <time>2022-03-22T12:12:45Z</time>
      </trkpt>
      <trkpt lat="46.48683" lon="5.35933">
        <ele>235.4</ele>
        <time>2022-03-22T12:12:47Z</time>
      </trkpt>
      <trkpt lat="46.48677" lon="5.35926">
        <ele>235.4</ele>
        <time>2022-03-22T12:12:49Z</time>
      </trkpt>
      <trkpt lat="46.48667" lon="5.35933">
        <ele>235.6</ele>
        <time>2022-03-22T12:12:52Z</time>
      </trkpt>
      <trkpt lat="46.48661" lon="5.3594">
        <ele>235.8</ele>
        <time>2022-03-22T12:12:54Z</time>
      </trkpt>
      <trkpt lat="46.48648" lon="5.35948">
        <ele>236</ele>
        <time>2022-03-22T12:12:58Z</time>
      </trkpt>
      <trkpt lat="46.48644" lon="5.35949">
        <ele>236.4</ele>
        <time>2022-03-22T12:12:59Z</time>
      </trkpt>
      <trkpt lat="46.4863" lon="5.35945">
        <ele>237</ele>
        <time>2022-03-22T12:13:03Z</time>
      </trkpt>
      <trkpt lat="46.48623" lon="5.35943">
        <ele>237.4</ele>
        <time>2022-03-22T12:13:05Z</time>
      </trkpt>
      <trkpt lat="46.48614" lon="5.35937">
        <ele>238.4</ele>
        <time>2022-03-22T12:13:08Z</time>
      </trkpt>
      <trkpt lat="46.48611" lon="5.35935">
        <ele>238.6</ele>
        <time>2022-03-22T12:13:09Z</time>
      </trkpt>
      <trkpt lat="46.48596" lon="5.35926">
        <ele>239.6</ele>
        <time>2022-03-22T12:13:14Z</time>
      </trkpt>
      <trkpt lat="46.48594" lon="5.35923">
        <ele>239.8</ele>
        <time>2022-03-22T12:13:15Z</time>
      </trkpt>
      <trkpt lat="46.48578" lon="5.35918">
        <ele>241</ele>
        <time>2022-03-22T12:13:20Z</time>
      </trkpt>
      <trkpt lat="46.4857" lon="5.35915">
        <ele>241.6</ele>
        <time>2022-03-22T12:13:23Z</time>
      </trkpt>
      <trkpt lat="46.48566" lon="5.35913">
        <ele>242</ele>
        <time>2022-03-22T12:13:25Z</time>
      </trkpt>
      <trkpt lat="46.48564" lon="5.35912">
        <ele>242</ele>
        <time>2022-03-22T12:13:26Z</time>
      </trkpt>
      <trkpt lat="46.48553" lon="5.35909">
        <ele>243.4</ele>
        <time>2022-03-22T12:13:30Z</time>
      </trkpt>
      <trkpt lat="46.48537" lon="5.35904">
        <ele>244.6</ele>
        <time>2022-03-22T12:13:34Z</time>
      </trkpt>
      <trkpt lat="46.48531" lon="5.35901">
        <ele>244.8</ele>
        <time>2022-03-22T12:13:36Z</time>
      </trkpt>
      <trkpt lat="46.48517" lon="5.35896">
        <ele>245.4</ele>
        <time>2022-03-22T12:13:41Z</time>
      </trkpt>
      <trkpt lat="46.48515" lon="5.35894">
        <ele>245.6</ele>
        <time>2022-03-22T12:13:42Z</time>
      </trkpt>
      <trkpt lat="46.48506" lon="5.35892">
        <ele>246.6</ele>
        <time>2022-03-22T12:13:45Z</time>
      </trkpt>
      <trkpt lat="46.48493" lon="5.35891">
        <ele>247.6</ele>
        <time>2022-03-22T12:13:50Z</time>
      </trkpt>
      <trkpt lat="46.48491" lon="5.35891">
        <ele>247.8</ele>
        <time>2022-03-22T12:13:51Z</time>
      </trkpt>
      <trkpt lat="46.48477" lon="5.35891">
        <ele>248.6</ele>
        <time>2022-03-22T12:13:56Z</time>
      </trkpt>
      <trkpt lat="46.48474" lon="5.35892">
        <ele>248.8</ele>
        <time>2022-03-22T12:13:57Z</time>
      </trkpt>
      <trkpt lat="46.48466" lon="5.35893">
        <ele>249.6</ele>
        <time>2022-03-22T12:14:00Z</time>
      </trkpt>
      <trkpt lat="46.48454" lon="5.359">
        <ele>250.6</ele>
        <time>2022-03-22T12:14:05Z</time>
      </trkpt>
      <trkpt lat="46.48451" lon="5.35902">
        <ele>250.6</ele>
        <time>2022-03-22T12:14:06Z</time>
      </trkpt>
      <trkpt lat="46.48438" lon="5.35912">
        <ele>251.8</ele>
        <time>2022-03-22T12:14:11Z</time>
      </trkpt>
      <trkpt lat="46.48431" lon="5.35917">
        <ele>252.4</ele>
        <time>2022-03-22T12:14:14Z</time>
      </trkpt>
      <trkpt lat="46.48423" lon="5.35922">
        <ele>252.8</ele>
        <time>2022-03-22T12:14:17Z</time>
      </trkpt>
      <trkpt lat="46.48411" lon="5.35927">
        <ele>254</ele>
        <time>2022-03-22T12:14:21Z</time>
      </trkpt>
      <trkpt lat="46.48403" lon="5.35929">
        <ele>254.6</ele>
        <time>2022-03-22T12:14:24Z</time>
      </trkpt>
      <trkpt lat="46.48395" lon="5.35928">
        <ele>255.4</ele>
        <time>2022-03-22T12:14:27Z</time>
      </trkpt>
      <trkpt lat="46.48384" lon="5.35927">
        <ele>256.4</ele>
        <time>2022-03-22T12:14:31Z</time>
      </trkpt>
      <trkpt lat="46.48378" lon="5.35926">
        <ele>256.8</ele>
        <time>2022-03-22T12:14:33Z</time>
      </trkpt>
      <trkpt lat="46.48367" lon="5.35925">
        <ele>257.6</ele>
        <time>2022-03-22T12:14:37Z</time>
      </trkpt>
      <trkpt lat="46.48346" lon="5.35922">
        <ele>258.6</ele>
        <time>2022-03-22T12:14:44Z</time>
      </trkpt>
      <trkpt lat="46.48327" lon="5.35919">
        <ele>259.8</ele>
        <time>2022-03-22T12:14:50Z</time>
      </trkpt>
      <trkpt lat="46.48311" lon="5.35916">
        <ele>260.2</ele>
        <time>2022-03-22T12:14:54Z</time>
      </trkpt>
      <trkpt lat="46.48292" lon="5.35912">
        <ele>260.8</ele>
        <time>2022-03-22T12:14:59Z</time>
      </trkpt>
      <trkpt lat="46.48284" lon="5.35908">
        <ele>261</ele>
        <time>2022-03-22T12:15:01Z</time>
      </trkpt>
      <trkpt lat="46.48279" lon="5.35905">
        <ele>261</ele>
        <time>2022-03-22T12:15:02Z</time>
      </trkpt>
      <trkpt lat="46.48275" lon="5.35901">
        <ele>261</ele>
        <time>2022-03-22T12:15:03Z</time>
      </trkpt>
      <trkpt lat="46.48264" lon="5.35885">
        <ele>261</ele>
        <time>2022-03-22T12:15:06Z</time>
      </trkpt>
      <trkpt lat="46.48237" lon="5.35845">
        <ele>260.8</ele>
        <time>2022-03-22T12:15:12Z</time>
      </trkpt>
      <trkpt lat="46.48232" lon="5.35839">
        <ele>260.6</ele>
        <time>2022-03-22T12:15:13Z</time>
      </trkpt>
      <trkpt lat="46.48212" lon="5.35821">
        <ele>259.8</ele>
        <time>2022-03-22T12:15:16Z</time>
      </trkpt>
      <trkpt lat="46.48205" lon="5.35815">
        <ele>259.6</ele>
        <time>2022-03-22T12:15:17Z</time>
      </trkpt>
      <trkpt lat="46.48186" lon="5.35795">
        <ele>258.8</ele>
        <time>2022-03-22T12:15:20Z</time>
      </trkpt>
      <trkpt lat="46.48168" lon="5.35774">
        <ele>258.2</ele>
        <time>2022-03-22T12:15:23Z</time>
      </trkpt>
      <trkpt lat="46.48153" lon="5.35754">
        <ele>258</ele>
        <time>2022-03-22T12:15:26Z</time>
      </trkpt>
      <trkpt lat="46.48142" lon="5.35743">
        <ele>257.8</ele>
        <time>2022-03-22T12:15:28Z</time>
      </trkpt>
      <trkpt lat="46.4813" lon="5.35732">
        <ele>257.8</ele>
        <time>2022-03-22T12:15:30Z</time>
      </trkpt>
      <trkpt lat="46.48122" lon="5.35723">
        <ele>258</ele>
        <time>2022-03-22T12:15:32Z</time>
      </trkpt>
      <trkpt lat="46.48101" lon="5.35709">
        <ele>258.6</ele>
        <time>2022-03-22T12:15:36Z</time>
      </trkpt>
      <trkpt lat="46.48091" lon="5.35701">
        <ele>258.8</ele>
        <time>2022-03-22T12:15:38Z</time>
      </trkpt>
      <trkpt lat="46.4807" lon="5.35691">
        <ele>259</ele>
        <time>2022-03-22T12:15:42Z</time>
      </trkpt>
      <trkpt lat="46.48059" lon="5.35689">
        <ele>259.2</ele>
        <time>2022-03-22T12:15:44Z</time>
      </trkpt>
      <trkpt lat="46.48053" lon="5.3569">
        <ele>259.2</ele>
        <time>2022-03-22T12:15:45Z</time>
      </trkpt>
      <trkpt lat="46.48031" lon="5.35697">
        <ele>259.6</ele>
        <time>2022-03-22T12:15:49Z</time>
      </trkpt>
      <trkpt lat="46.48012" lon="5.35705">
        <ele>260</ele>
        <time>2022-03-22T12:15:53Z</time>
      </trkpt>
      <trkpt lat="46.47996" lon="5.3571">
        <ele>260.6</ele>
        <time>2022-03-22T12:15:56Z</time>
      </trkpt>
      <trkpt lat="46.47985" lon="5.35712">
        <ele>260.8</ele>
        <time>2022-03-22T12:15:58Z</time>
      </trkpt>
      <trkpt lat="46.47974" lon="5.35713">
        <ele>261</ele>
        <time>2022-03-22T12:16:00Z</time>
      </trkpt>
      <trkpt lat="46.47963" lon="5.35712">
        <ele>261.2</ele>
        <time>2022-03-22T12:16:02Z</time>
      </trkpt>
      <trkpt lat="46.47932" lon="5.35703">
        <ele>261.2</ele>
        <time>2022-03-22T12:16:07Z</time>
      </trkpt>
      <trkpt lat="46.47885" lon="5.35692">
        <ele>260.8</ele>
        <time>2022-03-22T12:16:14Z</time>
      </trkpt>
      <trkpt lat="46.47855" lon="5.35683">
        <ele>260.8</ele>
        <time>2022-03-22T12:16:19Z</time>
      </trkpt>
      <trkpt lat="46.47839" lon="5.35679">
        <ele>260.8</ele>
        <time>2022-03-22T12:16:22Z</time>
      </trkpt>
      <trkpt lat="46.47816" lon="5.35673">
        <ele>261.6</ele>
        <time>2022-03-22T12:16:26Z</time>
      </trkpt>
      <trkpt lat="46.47804" lon="5.35669">
        <ele>261.8</ele>
        <time>2022-03-22T12:16:28Z</time>
      </trkpt>
      <trkpt lat="46.4779" lon="5.35664">
        <ele>262.2</ele>
        <time>2022-03-22T12:16:31Z</time>
      </trkpt>
      <trkpt lat="46.47771" lon="5.35656">
        <ele>263.2</ele>
        <time>2022-03-22T12:16:35Z</time>
      </trkpt>
      <trkpt lat="46.47735" lon="5.35652">
        <ele>264</ele>
        <time>2022-03-22T12:16:42Z</time>
      </trkpt>
      <trkpt lat="46.47725" lon="5.35659">
        <ele>264.2</ele>
        <time>2022-03-22T12:16:44Z</time>
      </trkpt>
      <trkpt lat="46.47721" lon="5.35664">
        <ele>264.2</ele>
        <time>2022-03-22T12:16:45Z</time>
      </trkpt>
      <trkpt lat="46.47717" lon="5.3567">
        <ele>264.2</ele>
        <time>2022-03-22T12:16:46Z</time>
      </trkpt>
      <trkpt lat="46.47711" lon="5.35682">
        <ele>264.4</ele>
        <time>2022-03-22T12:16:48Z</time>
      </trkpt>
      <trkpt lat="46.47703" lon="5.357">
        <ele>264.8</ele>
        <time>2022-03-22T12:16:51Z</time>
      </trkpt>
      <trkpt lat="46.477" lon="5.35706">
        <ele>264.8</ele>
        <time>2022-03-22T12:16:52Z</time>
      </trkpt>
      <trkpt lat="46.47694" lon="5.35719">
        <ele>265</ele>
        <time>2022-03-22T12:16:54Z</time>
      </trkpt>
      <trkpt lat="46.47687" lon="5.35728">
        <ele>265.2</ele>
        <time>2022-03-22T12:16:56Z</time>
      </trkpt>
      <trkpt lat="46.47678" lon="5.35744">
        <ele>265.4</ele>
        <time>2022-03-22T12:16:59Z</time>
      </trkpt>
      <trkpt lat="46.47666" lon="5.35765">
        <ele>266</ele>
        <time>2022-03-22T12:17:03Z</time>
      </trkpt>
      <trkpt lat="46.47653" lon="5.35782">
        <ele>266.4</ele>
        <time>2022-03-22T12:17:07Z</time>
      </trkpt>
      <trkpt lat="46.4765" lon="5.35787">
        <ele>266.6</ele>
        <time>2022-03-22T12:17:08Z</time>
      </trkpt>
      <trkpt lat="46.4764" lon="5.35801">
        <ele>267</ele>
        <time>2022-03-22T12:17:11Z</time>
      </trkpt>
      <trkpt lat="46.47637" lon="5.35805">
        <ele>267.2</ele>
        <time>2022-03-22T12:17:12Z</time>
      </trkpt>
      <trkpt lat="46.47632" lon="5.35811">
        <ele>267.4</ele>
        <time>2022-03-22T12:17:14Z</time>
      </trkpt>
      <trkpt lat="46.47628" lon="5.35816">
        <ele>267.6</ele>
        <time>2022-03-22T12:17:15Z</time>
      </trkpt>
      <trkpt lat="46.4762" lon="5.35827">
        <ele>268</ele>
        <time>2022-03-22T12:17:18Z</time>
      </trkpt>
      <trkpt lat="46.47618" lon="5.35831">
        <ele>268.6</ele>
        <time>2022-03-22T12:17:19Z</time>
      </trkpt>
      <trkpt lat="46.47614" lon="5.35834">
        <ele>268.8</ele>
        <time>2022-03-22T12:17:20Z</time>
      </trkpt>
      <trkpt lat="46.47607" lon="5.35835">
        <ele>269.2</ele>
        <time>2022-03-22T12:17:22Z</time>
      </trkpt>
      <trkpt lat="46.47603" lon="5.35835">
        <ele>269.6</ele>
        <time>2022-03-22T12:17:23Z</time>
      </trkpt>
      <trkpt lat="46.476" lon="5.35834">
        <ele>269.8</ele>
        <time>2022-03-22T12:17:24Z</time>
      </trkpt>
      <trkpt lat="46.47587" lon="5.35835">
        <ele>270.4</ele>
        <time>2022-03-22T12:17:28Z</time>
      </trkpt>
      <trkpt lat="46.47584" lon="5.35835">
        <ele>270.4</ele>
        <time>2022-03-22T12:17:29Z</time>
      </trkpt>
      <trkpt lat="46.47576" lon="5.35835">
        <ele>271</ele>
        <time>2022-03-22T12:17:31Z</time>
      </trkpt>
      <trkpt lat="46.47573" lon="5.35834">
        <ele>271</ele>
        <time>2022-03-22T12:17:32Z</time>
      </trkpt>
      <trkpt lat="46.47554" lon="5.35831">
        <ele>272.2</ele>
        <time>2022-03-22T12:17:37Z</time>
      </trkpt>
      <trkpt lat="46.4755" lon="5.3583">
        <ele>272.4</ele>
        <time>2022-03-22T12:17:38Z</time>
      </trkpt>
      <trkpt lat="46.47533" lon="5.35827">
        <ele>273</ele>
        <time>2022-03-22T12:17:43Z</time>
      </trkpt>
      <trkpt lat="46.47531" lon="5.35826">
        <ele>273.4</ele>
        <time>2022-03-22T12:17:44Z</time>
      </trkpt>
      <trkpt lat="46.47521" lon="5.35826">
        <ele>274.2</ele>
        <time>2022-03-22T12:17:47Z</time>
      </trkpt>
      <trkpt lat="46.47505" lon="5.35822">
        <ele>274.6</ele>
        <time>2022-03-22T12:17:52Z</time>
      </trkpt>
      <trkpt lat="46.47497" lon="5.35818">
        <ele>275.6</ele>
        <time>2022-03-22T12:17:54Z</time>
      </trkpt>
      <trkpt lat="46.47489" lon="5.35814">
        <ele>276</ele>
        <time>2022-03-22T12:17:56Z</time>
      </trkpt>
      <trkpt lat="46.47465" lon="5.35783">
        <ele>276.4</ele>
        <time>2022-03-22T12:18:02Z</time>
      </trkpt>
      <trkpt lat="46.4743" lon="5.35744">
        <ele>275.6</ele>
        <time>2022-03-22T12:18:09Z</time>
      </trkpt>
      <trkpt lat="46.4739" lon="5.35699">
        <ele>274.8</ele>
        <time>2022-03-22T12:18:17Z</time>
      </trkpt>
      <trkpt lat="46.47369" lon="5.35675">
        <ele>274.8</ele>
        <time>2022-03-22T12:18:22Z</time>
      </trkpt>
      <trkpt lat="46.47362" lon="5.35669">
        <ele>275.2</ele>
        <time>2022-03-22T12:18:24Z</time>
      </trkpt>
      <trkpt lat="46.47347" lon="5.35653">
        <ele>275.4</ele>
        <time>2022-03-22T12:18:28Z</time>
      </trkpt>
      <trkpt lat="46.47339" lon="5.35646">
        <ele>276</ele>
        <time>2022-03-22T12:18:30Z</time>
      </trkpt>
      <trkpt lat="46.47326" lon="5.35634">
        <ele>276.6</ele>
        <time>2022-03-22T12:18:33Z</time>
      </trkpt>
      <trkpt lat="46.47317" lon="5.35627">
        <ele>277</ele>
        <time>2022-03-22T12:18:35Z</time>
      </trkpt>
      <trkpt lat="46.47297" lon="5.35615">
        <ele>277.4</ele>
        <time>2022-03-22T12:18:39Z</time>
      </trkpt>
      <trkpt lat="46.47291" lon="5.35611">
        <ele>277.6</ele>
        <time>2022-03-22T12:18:40Z</time>
      </trkpt>
      <trkpt lat="46.47248" lon="5.35592">
        <ele>278</ele>
        <time>2022-03-22T12:18:48Z</time>
      </trkpt>
      <trkpt lat="46.47196" lon="5.35568">
        <ele>277.8</ele>
        <time>2022-03-22T12:18:58Z</time>
      </trkpt>
      <trkpt lat="46.47186" lon="5.35565">
        <ele>277.8</ele>
        <time>2022-03-22T12:19:00Z</time>
      </trkpt>
      <trkpt lat="46.47143" lon="5.35545">
        <ele>277.6</ele>
        <time>2022-03-22T12:19:08Z</time>
      </trkpt>
      <trkpt lat="46.471" lon="5.35515">
        <ele>277.2</ele>
        <time>2022-03-22T12:19:16Z</time>
      </trkpt>
      <trkpt lat="46.47066" lon="5.35493">
        <ele>276.6</ele>
        <time>2022-03-22T12:19:22Z</time>
      </trkpt>
      <trkpt lat="46.47053" lon="5.35487">
        <ele>276</ele>
        <time>2022-03-22T12:19:24Z</time>
      </trkpt>
      <trkpt lat="46.47028" lon="5.35476">
        <ele>275.4</ele>
        <time>2022-03-22T12:19:28Z</time>
      </trkpt>
      <trkpt lat="46.46996" lon="5.35467">
        <ele>275</ele>
        <time>2022-03-22T12:19:33Z</time>
      </trkpt>
      <trkpt lat="46.46957" lon="5.35459">
        <ele>274.4</ele>
        <time>2022-03-22T12:19:39Z</time>
      </trkpt>
      <trkpt lat="46.46919" lon="5.3545">
        <ele>273.4</ele>
        <time>2022-03-22T12:19:45Z</time>
      </trkpt>
      <trkpt lat="46.46871" lon="5.35439">
        <ele>272.4</ele>
        <time>2022-03-22T12:19:52Z</time>
      </trkpt>
      <trkpt lat="46.46858" lon="5.35433">
        <ele>272</ele>
        <time>2022-03-22T12:19:54Z</time>
      </trkpt>
      <trkpt lat="46.46829" lon="5.35421">
        <ele>271.2</ele>
        <time>2022-03-22T12:19:58Z</time>
      </trkpt>
      <trkpt lat="46.46815" lon="5.35414">
        <ele>270.8</ele>
        <time>2022-03-22T12:20:00Z</time>
      </trkpt>
      <trkpt lat="46.46806" lon="5.354">
        <ele>270.2</ele>
        <time>2022-03-22T12:20:02Z</time>
      </trkpt>
      <trkpt lat="46.46805" lon="5.3539">
        <ele>269.8</ele>
        <time>2022-03-22T12:20:03Z</time>
      </trkpt>
      <trkpt lat="46.46806" lon="5.35379">
        <ele>269.4</ele>
        <time>2022-03-22T12:20:04Z</time>
      </trkpt>
      <trkpt lat="46.46814" lon="5.3536">
        <ele>268.2</ele>
        <time>2022-03-22T12:20:06Z</time>
      </trkpt>
      <trkpt lat="46.46821" lon="5.35351">
        <ele>268</ele>
        <time>2022-03-22T12:20:07Z</time>
      </trkpt>
      <trkpt lat="46.46827" lon="5.35341">
        <ele>267</ele>
        <time>2022-03-22T12:20:08Z</time>
      </trkpt>
      <trkpt lat="46.46839" lon="5.3532">
        <ele>266</ele>
        <time>2022-03-22T12:20:10Z</time>
      </trkpt>
      <trkpt lat="46.46845" lon="5.35309">
        <ele>265.4</ele>
        <time>2022-03-22T12:20:11Z</time>
      </trkpt>
      <trkpt lat="46.4685" lon="5.35297">
        <ele>265</ele>
        <time>2022-03-22T12:20:12Z</time>
      </trkpt>
      <trkpt lat="46.46854" lon="5.35282">
        <ele>264.2</ele>
        <time>2022-03-22T12:20:13Z</time>
      </trkpt>
      <trkpt lat="46.46857" lon="5.35267">
        <ele>263.8</ele>
        <time>2022-03-22T12:20:14Z</time>
      </trkpt>
      <trkpt lat="46.46858" lon="5.35252">
        <ele>262.4</ele>
        <time>2022-03-22T12:20:15Z</time>
      </trkpt>
      <trkpt lat="46.46857" lon="5.35219">
        <ele>260.6</ele>
        <time>2022-03-22T12:20:17Z</time>
      </trkpt>
      <trkpt lat="46.46854" lon="5.35187">
        <ele>259</ele>
        <time>2022-03-22T12:20:19Z</time>
      </trkpt>
      <trkpt lat="46.4685" lon="5.35154">
        <ele>257.6</ele>
        <time>2022-03-22T12:20:21Z</time>
      </trkpt>
      <trkpt lat="46.46845" lon="5.35123">
        <ele>256</ele>
        <time>2022-03-22T12:20:23Z</time>
      </trkpt>
      <trkpt lat="46.46843" lon="5.35109">
        <ele>255</ele>
        <time>2022-03-22T12:20:24Z</time>
      </trkpt>
      <trkpt lat="46.4684" lon="5.35096">
        <ele>254.2</ele>
        <time>2022-03-22T12:20:25Z</time>
      </trkpt>
      <trkpt lat="46.46837" lon="5.35084">
        <ele>253.2</ele>
        <time>2022-03-22T12:20:26Z</time>
      </trkpt>
      <trkpt lat="46.46832" lon="5.35074">
        <ele>252.2</ele>
        <time>2022-03-22T12:20:27Z</time>
      </trkpt>
      <trkpt lat="46.46825" lon="5.35068">
        <ele>251.6</ele>
        <time>2022-03-22T12:20:28Z</time>
      </trkpt>
      <trkpt lat="46.46818" lon="5.35068">
        <ele>250.6</ele>
        <time>2022-03-22T12:20:29Z</time>
      </trkpt>
      <trkpt lat="46.46811" lon="5.3507">
        <ele>250.2</ele>
        <time>2022-03-22T12:20:30Z</time>
      </trkpt>
      <trkpt lat="46.46805" lon="5.35075">
        <ele>249.2</ele>
        <time>2022-03-22T12:20:31Z</time>
      </trkpt>
      <trkpt lat="46.46798" lon="5.35079">
        <ele>249</ele>
        <time>2022-03-22T12:20:32Z</time>
      </trkpt>
      <trkpt lat="46.46745" lon="5.35111">
        <ele>248.4</ele>
        <time>2022-03-22T12:20:40Z</time>
      </trkpt>
      <trkpt lat="46.46697" lon="5.35143">
        <ele>249</ele>
        <time>2022-03-22T12:20:48Z</time>
      </trkpt>
      <trkpt lat="46.46688" lon="5.35156">
        <ele>249</ele>
        <time>2022-03-22T12:20:50Z</time>
      </trkpt>
      <trkpt lat="46.46681" lon="5.35171">
        <ele>249.2</ele>
        <time>2022-03-22T12:20:52Z</time>
      </trkpt>
      <trkpt lat="46.46675" lon="5.35204">
        <ele>249.6</ele>
        <time>2022-03-22T12:20:56Z</time>
      </trkpt>
      <trkpt lat="46.4667" lon="5.35234">
        <ele>249.8</ele>
        <time>2022-03-22T12:21:00Z</time>
      </trkpt>
      <trkpt lat="46.46667" lon="5.3524">
        <ele>249.8</ele>
        <time>2022-03-22T12:21:01Z</time>
      </trkpt>
      <trkpt lat="46.46661" lon="5.3524">
        <ele>249.8</ele>
        <time>2022-03-22T12:21:02Z</time>
      </trkpt>
      <trkpt lat="46.46655" lon="5.35238">
        <ele>250</ele>
        <time>2022-03-22T12:21:03Z</time>
      </trkpt>
      <trkpt lat="46.4665" lon="5.35231">
        <ele>249.8</ele>
        <time>2022-03-22T12:21:04Z</time>
      </trkpt>
      <trkpt lat="46.46644" lon="5.35222">
        <ele>249.8</ele>
        <time>2022-03-22T12:21:05Z</time>
      </trkpt>
      <trkpt lat="46.46615" lon="5.35167">
        <ele>248.4</ele>
        <time>2022-03-22T12:21:10Z</time>
      </trkpt>
      <trkpt lat="46.46608" lon="5.35156">
        <ele>247.4</ele>
        <time>2022-03-22T12:21:11Z</time>
      </trkpt>
      <trkpt lat="46.46592" lon="5.35138">
        <ele>246</ele>
        <time>2022-03-22T12:21:13Z</time>
      </trkpt>
      <trkpt lat="46.46577" lon="5.35122">
        <ele>244.6</ele>
        <time>2022-03-22T12:21:15Z</time>
      </trkpt>
      <trkpt lat="46.46565" lon="5.35101">
        <ele>243.6</ele>
        <time>2022-03-22T12:21:17Z</time>
      </trkpt>
      <trkpt lat="46.46555" lon="5.35081">
        <ele>243.2</ele>
        <time>2022-03-22T12:21:19Z</time>
      </trkpt>
      <trkpt lat="46.46544" lon="5.35067">
        <ele>243</ele>
        <time>2022-03-22T12:21:21Z</time>
      </trkpt>
      <trkpt lat="46.46505" lon="5.35023">
        <ele>243.6</ele>
        <time>2022-03-22T12:21:28Z</time>
      </trkpt>
      <trkpt lat="46.46478" lon="5.35">
        <ele>243.6</ele>
        <time>2022-03-22T12:21:32Z</time>
      </trkpt>
      <trkpt lat="46.46471" lon="5.34996">
        <ele>243.4</ele>
        <time>2022-03-22T12:21:33Z</time>
      </trkpt>
      <trkpt lat="46.46445" lon="5.34984">
        <ele>242.2</ele>
        <time>2022-03-22T12:21:36Z</time>
      </trkpt>
      <trkpt lat="46.46437" lon="5.34978">
        <ele>242</ele>
        <time>2022-03-22T12:21:37Z</time>
      </trkpt>
      <trkpt lat="46.46423" lon="5.34961">
        <ele>241.4</ele>
        <time>2022-03-22T12:21:39Z</time>
      </trkpt>
      <trkpt lat="46.46419" lon="5.3495">
        <ele>241.2</ele>
        <time>2022-03-22T12:21:40Z</time>
      </trkpt>
      <trkpt lat="46.46403" lon="5.34907">
        <ele>240</ele>
        <time>2022-03-22T12:21:44Z</time>
      </trkpt>
      <trkpt lat="46.46394" lon="5.34878">
        <ele>239.8</ele>
        <time>2022-03-22T12:21:47Z</time>
      </trkpt>
      <trkpt lat="46.4638" lon="5.34826">
        <ele>240.4</ele>
        <time>2022-03-22T12:21:53Z</time>
      </trkpt>
      <trkpt lat="46.46374" lon="5.34805">
        <ele>240.6</ele>
        <time>2022-03-22T12:21:56Z</time>
      </trkpt>
      <trkpt lat="46.46371" lon="5.34795">
        <ele>241</ele>
        <time>2022-03-22T12:21:58Z</time>
      </trkpt>
      <trkpt lat="46.46365" lon="5.34779">
        <ele>241.8</ele>
        <time>2022-03-22T12:22:02Z</time>
      </trkpt>
      <trkpt lat="46.46364" lon="5.34776">
        <ele>242</ele>
        <time>2022-03-22T12:22:03Z</time>
      </trkpt>
      <trkpt lat="46.46362" lon="5.34771">
        <ele>242.8</ele>
        <time>2022-03-22T12:22:05Z</time>
      </trkpt>
      <trkpt lat="46.4636" lon="5.34767">
        <ele>243.4</ele>
        <time>2022-03-22T12:22:06Z</time>
      </trkpt>
      <trkpt lat="46.46359" lon="5.34763">
        <ele>243.6</ele>
        <time>2022-03-22T12:22:07Z</time>
      </trkpt>
      <trkpt lat="46.46353" lon="5.34756">
        <ele>244.4</ele>
        <time>2022-03-22T12:22:10Z</time>
      </trkpt>
      <trkpt lat="46.46347" lon="5.34752">
        <ele>245</ele>
        <time>2022-03-22T12:22:12Z</time>
      </trkpt>
      <trkpt lat="46.46345" lon="5.3475">
        <ele>245.6</ele>
        <time>2022-03-22T12:22:13Z</time>
      </trkpt>
      <trkpt lat="46.46338" lon="5.34741">
        <ele>246.2</ele>
        <time>2022-03-22T12:22:16Z</time>
      </trkpt>
      <trkpt lat="46.46336" lon="5.34739">
        <ele>246.8</ele>
        <time>2022-03-22T12:22:17Z</time>
      </trkpt>
      <trkpt lat="46.46326" lon="5.34733">
        <ele>247.8</ele>
        <time>2022-03-22T12:22:21Z</time>
      </trkpt>
      <trkpt lat="46.46315" lon="5.34723">
        <ele>249</ele>
        <time>2022-03-22T12:22:25Z</time>
      </trkpt>
      <trkpt lat="46.4631" lon="5.34719">
        <ele>250</ele>
        <time>2022-03-22T12:22:27Z</time>
      </trkpt>
      <trkpt lat="46.46295" lon="5.34715">
        <ele>251</ele>
        <time>2022-03-22T12:22:31Z</time>
      </trkpt>
      <trkpt lat="46.4629" lon="5.3471">
        <ele>251.6</ele>
        <time>2022-03-22T12:22:33Z</time>
      </trkpt>
      <trkpt lat="46.46282" lon="5.34704">
        <ele>252.2</ele>
        <time>2022-03-22T12:22:36Z</time>
      </trkpt>
      <trkpt lat="46.46267" lon="5.34698">
        <ele>252.8</ele>
        <time>2022-03-22T12:22:40Z</time>
      </trkpt>
      <trkpt lat="46.46252" lon="5.34693">
        <ele>253.2</ele>
        <time>2022-03-22T12:22:44Z</time>
      </trkpt>
      <trkpt lat="46.4624" lon="5.34689">
        <ele>253.4</ele>
        <time>2022-03-22T12:22:47Z</time>
      </trkpt>
      <trkpt lat="46.46222" lon="5.34681">
        <ele>254.2</ele>
        <time>2022-03-22T12:22:53Z</time>
      </trkpt>
      <trkpt lat="46.46215" lon="5.34677">
        <ele>254.8</ele>
        <time>2022-03-22T12:22:56Z</time>
      </trkpt>
      <trkpt lat="46.46203" lon="5.34673">
        <ele>255.4</ele>
        <time>2022-03-22T12:23:00Z</time>
      </trkpt>
      <trkpt lat="46.462" lon="5.34672">
        <ele>255.6</ele>
        <time>2022-03-22T12:23:01Z</time>
      </trkpt>
      <trkpt lat="46.4618" lon="5.34663">
        <ele>256.4</ele>
        <time>2022-03-22T12:23:06Z</time>
      </trkpt>
      <trkpt lat="46.46159" lon="5.34651">
        <ele>256.8</ele>
        <time>2022-03-22T12:23:11Z</time>
      </trkpt>
      <trkpt lat="46.46143" lon="5.34639">
        <ele>257</ele>
        <time>2022-03-22T12:23:15Z</time>
      </trkpt>
      <trkpt lat="46.46135" lon="5.34633">
        <ele>257.2</ele>
        <time>2022-03-22T12:23:17Z</time>
      </trkpt>
      <trkpt lat="46.46131" lon="5.34631">
        <ele>257.2</ele>
        <time>2022-03-22T12:23:18Z</time>
      </trkpt>
      <trkpt lat="46.46123" lon="5.34627">
        <ele>257.4</ele>
        <time>2022-03-22T12:23:20Z</time>
      </trkpt>
      <trkpt lat="46.46114" lon="5.34624">
        <ele>257.6</ele>
        <time>2022-03-22T12:23:22Z</time>
      </trkpt>
      <trkpt lat="46.4611" lon="5.34623">
        <ele>257.6</ele>
        <time>2022-03-22T12:23:23Z</time>
      </trkpt>
      <trkpt lat="46.46105" lon="5.34622">
        <ele>257.8</ele>
        <time>2022-03-22T12:23:24Z</time>
      </trkpt>
      <trkpt lat="46.461" lon="5.34622">
        <ele>257.8</ele>
        <time>2022-03-22T12:23:25Z</time>
      </trkpt>
      <trkpt lat="46.46078" lon="5.34622">
        <ele>258.2</ele>
        <time>2022-03-22T12:23:29Z</time>
      </trkpt>
      <trkpt lat="46.46051" lon="5.34621">
        <ele>258.4</ele>
        <time>2022-03-22T12:23:33Z</time>
      </trkpt>
      <trkpt lat="46.46045" lon="5.3462">
        <ele>258.2</ele>
        <time>2022-03-22T12:23:34Z</time>
      </trkpt>
      <trkpt lat="46.46002" lon="5.34614">
        <ele>257.8</ele>
        <time>2022-03-22T12:23:40Z</time>
      </trkpt>
      <trkpt lat="46.45973" lon="5.34611">
        <ele>256.6</ele>
        <time>2022-03-22T12:23:44Z</time>
      </trkpt>
      <trkpt lat="46.4596" lon="5.34608">
        <ele>256.4</ele>
        <time>2022-03-22T12:23:46Z</time>
      </trkpt>
      <trkpt lat="46.45953" lon="5.34606">
        <ele>256.2</ele>
        <time>2022-03-22T12:23:47Z</time>
      </trkpt>
      <trkpt lat="46.45902" lon="5.34595">
        <ele>256.2</ele>
        <time>2022-03-22T12:23:55Z</time>
      </trkpt>
      <trkpt lat="46.45897" lon="5.34595">
        <ele>256.4</ele>
        <time>2022-03-22T12:23:56Z</time>
      </trkpt>
      <trkpt lat="46.45892" lon="5.34595">
        <ele>256.8</ele>
        <time>2022-03-22T12:23:57Z</time>
      </trkpt>
      <trkpt lat="46.45881" lon="5.34598">
        <ele>257</ele>
        <time>2022-03-22T12:23:59Z</time>
      </trkpt>
      <trkpt lat="46.45876" lon="5.346">
        <ele>257.2</ele>
        <time>2022-03-22T12:24:00Z</time>
      </trkpt>
      <trkpt lat="46.45866" lon="5.34607">
        <ele>257.2</ele>
        <time>2022-03-22T12:24:02Z</time>
      </trkpt>
      <trkpt lat="46.45854" lon="5.3461">
        <ele>257.4</ele>
        <time>2022-03-22T12:24:04Z</time>
      </trkpt>
      <trkpt lat="46.45848" lon="5.34611">
        <ele>257.6</ele>
        <time>2022-03-22T12:24:05Z</time>
      </trkpt>
      <trkpt lat="46.45818" lon="5.34601">
        <ele>258.2</ele>
        <time>2022-03-22T12:24:10Z</time>
      </trkpt>
      <trkpt lat="46.45807" lon="5.34597">
        <ele>258.6</ele>
        <time>2022-03-22T12:24:12Z</time>
      </trkpt>
      <trkpt lat="46.45786" lon="5.34588">
        <ele>259</ele>
        <time>2022-03-22T12:24:16Z</time>
      </trkpt>
      <trkpt lat="46.4574" lon="5.34571">
        <ele>259.2</ele>
        <time>2022-03-22T12:24:25Z</time>
      </trkpt>
      <trkpt lat="46.45726" lon="5.34566">
        <ele>259.2</ele>
        <time>2022-03-22T12:24:28Z</time>
      </trkpt>
      <trkpt lat="46.45711" lon="5.34564">
        <ele>259.8</ele>
        <time>2022-03-22T12:24:31Z</time>
      </trkpt>
      <trkpt lat="46.45702" lon="5.34566">
        <ele>260</ele>
        <time>2022-03-22T12:24:33Z</time>
      </trkpt>
      <trkpt lat="46.45694" lon="5.34571">
        <ele>260.6</ele>
        <time>2022-03-22T12:24:35Z</time>
      </trkpt>
      <trkpt lat="46.4569" lon="5.34574">
        <ele>260.8</ele>
        <time>2022-03-22T12:24:36Z</time>
      </trkpt>
      <trkpt lat="46.45687" lon="5.34578">
        <ele>261</ele>
        <time>2022-03-22T12:24:37Z</time>
      </trkpt>
      <trkpt lat="46.45675" lon="5.34597">
        <ele>261.8</ele>
        <time>2022-03-22T12:24:41Z</time>
      </trkpt>
      <trkpt lat="46.45667" lon="5.34599">
        <ele>262</ele>
        <time>2022-03-22T12:24:43Z</time>
      </trkpt>
      <trkpt lat="46.45663" lon="5.34597">
        <ele>262</ele>
        <time>2022-03-22T12:24:44Z</time>
      </trkpt>
      <trkpt lat="46.45643" lon="5.34578">
        <ele>262.4</ele>
        <time>2022-03-22T12:24:48Z</time>
      </trkpt>
      <trkpt lat="46.456" lon="5.34536">
        <ele>262</ele>
        <time>2022-03-22T12:24:56Z</time>
      </trkpt>
      <trkpt lat="46.45595" lon="5.3453">
        <ele>262</ele>
        <time>2022-03-22T12:24:57Z</time>
      </trkpt>
      <trkpt lat="46.45588" lon="5.34513">
        <ele>262</ele>
        <time>2022-03-22T12:24:59Z</time>
      </trkpt>
      <trkpt lat="46.45589" lon="5.34495">
        <ele>262</ele>
        <time>2022-03-22T12:25:01Z</time>
      </trkpt>
      <trkpt lat="46.4559" lon="5.34486">
        <ele>261.8</ele>
        <time>2022-03-22T12:25:02Z</time>
      </trkpt>
      <trkpt lat="46.45596" lon="5.34443">
        <ele>261.8</ele>
        <time>2022-03-22T12:25:07Z</time>
      </trkpt>
      <trkpt lat="46.45599" lon="5.34421">
        <ele>262.2</ele>
        <time>2022-03-22T12:25:10Z</time>
      </trkpt>
      <trkpt lat="46.45599" lon="5.34381">
        <ele>262.6</ele>
        <time>2022-03-22T12:25:15Z</time>
      </trkpt>
      <trkpt lat="46.45586" lon="5.34331">
        <ele>262.8</ele>
        <time>2022-03-22T12:25:21Z</time>
      </trkpt>
      <trkpt lat="46.45577" lon="5.34283">
        <ele>262.6</ele>
        <time>2022-03-22T12:25:26Z</time>
      </trkpt>
      <trkpt lat="46.4557" lon="5.34219">
        <ele>261</ele>
        <time>2022-03-22T12:25:31Z</time>
      </trkpt>
      <trkpt lat="46.4557" lon="5.34206">
        <ele>260.4</ele>
        <time>2022-03-22T12:25:32Z</time>
      </trkpt>
      <trkpt lat="46.4557" lon="5.34178">
        <ele>259.2</ele>
        <time>2022-03-22T12:25:34Z</time>
      </trkpt>
      <trkpt lat="46.4557" lon="5.3415">
        <ele>258</ele>
        <time>2022-03-22T12:25:36Z</time>
      </trkpt>
      <trkpt lat="46.45571" lon="5.34121">
        <ele>257</ele>
        <time>2022-03-22T12:25:38Z</time>
      </trkpt>
      <trkpt lat="46.45572" lon="5.34092">
        <ele>255.8</ele>
        <time>2022-03-22T12:25:40Z</time>
      </trkpt>
      <trkpt lat="46.45572" lon="5.34077">
        <ele>254.8</ele>
        <time>2022-03-22T12:25:41Z</time>
      </trkpt>
      <trkpt lat="46.45572" lon="5.34047">
        <ele>253.6</ele>
        <time>2022-03-22T12:25:43Z</time>
      </trkpt>
      <trkpt lat="46.4557" lon="5.34034">
        <ele>253.2</ele>
        <time>2022-03-22T12:25:44Z</time>
      </trkpt>
      <trkpt lat="46.45561" lon="5.34009">
        <ele>252.4</ele>
        <time>2022-03-22T12:25:46Z</time>
      </trkpt>
      <trkpt lat="46.45551" lon="5.33993">
        <ele>251.6</ele>
        <time>2022-03-22T12:25:48Z</time>
      </trkpt>
      <trkpt lat="46.45548" lon="5.33988">
        <ele>251.2</ele>
        <time>2022-03-22T12:25:49Z</time>
      </trkpt>
      <trkpt lat="46.45545" lon="5.33985">
        <ele>250.6</ele>
        <time>2022-03-22T12:25:50Z</time>
      </trkpt>
      <trkpt lat="46.45537" lon="5.33981">
        <ele>250</ele>
        <time>2022-03-22T12:25:52Z</time>
      </trkpt>
      <trkpt lat="46.45526" lon="5.33982">
        <ele>249.4</ele>
        <time>2022-03-22T12:25:54Z</time>
      </trkpt>
      <trkpt lat="46.45516" lon="5.33989">
        <ele>249.4</ele>
        <time>2022-03-22T12:25:56Z</time>
      </trkpt>
      <trkpt lat="46.45494" lon="5.34009">
        <ele>249.4</ele>
        <time>2022-03-22T12:26:01Z</time>
      </trkpt>
      <trkpt lat="46.45485" lon="5.34017">
        <ele>249.8</ele>
        <time>2022-03-22T12:26:03Z</time>
      </trkpt>
      <trkpt lat="46.45466" lon="5.34026">
        <ele>250.6</ele>
        <time>2022-03-22T12:26:07Z</time>
      </trkpt>
      <trkpt lat="46.45461" lon="5.34028">
        <ele>250.6</ele>
        <time>2022-03-22T12:26:08Z</time>
      </trkpt>
      <trkpt lat="46.45456" lon="5.34031">
        <ele>251</ele>
        <time>2022-03-22T12:26:09Z</time>
      </trkpt>
      <trkpt lat="46.45443" lon="5.34036">
        <ele>251.6</ele>
        <time>2022-03-22T12:26:12Z</time>
      </trkpt>
      <trkpt lat="46.45439" lon="5.34037">
        <ele>251.8</ele>
        <time>2022-03-22T12:26:13Z</time>
      </trkpt>
      <trkpt lat="46.45424" lon="5.34041">
        <ele>253</ele>
        <time>2022-03-22T12:26:17Z</time>
      </trkpt>
      <trkpt lat="46.4542" lon="5.34042">
        <ele>253.4</ele>
        <time>2022-03-22T12:26:18Z</time>
      </trkpt>
      <trkpt lat="46.45411" lon="5.34044">
        <ele>253.8</ele>
        <time>2022-03-22T12:26:20Z</time>
      </trkpt>
      <trkpt lat="46.45403" lon="5.34045">
        <ele>254.2</ele>
        <time>2022-03-22T12:26:22Z</time>
      </trkpt>
      <trkpt lat="46.45367" lon="5.34051">
        <ele>255.4</ele>
        <time>2022-03-22T12:26:30Z</time>
      </trkpt>
      <trkpt lat="46.45358" lon="5.34053">
        <ele>255.6</ele>
        <time>2022-03-22T12:26:32Z</time>
      </trkpt>
      <trkpt lat="46.45338" lon="5.34058">
        <ele>256.2</ele>
        <time>2022-03-22T12:26:37Z</time>
      </trkpt>
      <trkpt lat="46.45319" lon="5.34063">
        <ele>256.6</ele>
        <time>2022-03-22T12:26:41Z</time>
      </trkpt>
      <trkpt lat="46.4531" lon="5.34066">
        <ele>256.8</ele>
        <time>2022-03-22T12:26:43Z</time>
      </trkpt>
      <trkpt lat="46.45285" lon="5.34071">
        <ele>257.2</ele>
        <time>2022-03-22T12:26:48Z</time>
      </trkpt>
      <trkpt lat="46.4528" lon="5.34072">
        <ele>257.2</ele>
        <time>2022-03-22T12:26:49Z</time>
      </trkpt>
      <trkpt lat="46.45255" lon="5.34078">
        <ele>257.2</ele>
        <time>2022-03-22T12:26:54Z</time>
      </trkpt>
      <trkpt lat="46.45251" lon="5.34079">
        <ele>257.4</ele>
        <time>2022-03-22T12:26:55Z</time>
      </trkpt>
      <trkpt lat="46.45243" lon="5.3408">
        <ele>257.6</ele>
        <time>2022-03-22T12:26:57Z</time>
      </trkpt>
      <trkpt lat="46.45199" lon="5.3409">
        <ele>258.4</ele>
        <time>2022-03-22T12:27:07Z</time>
      </trkpt>
      <trkpt lat="46.45158" lon="5.34099">
        <ele>259.4</ele>
        <time>2022-03-22T12:27:17Z</time>
      </trkpt>
      <trkpt lat="46.45153" lon="5.341">
        <ele>259.4</ele>
        <time>2022-03-22T12:27:18Z</time>
      </trkpt>
      <trkpt lat="46.4511" lon="5.34109">
        <ele>260.2</ele>
        <time>2022-03-22T12:27:28Z</time>
      </trkpt>
      <trkpt lat="46.4506" lon="5.34119">
        <ele>260.2</ele>
        <time>2022-03-22T12:27:37Z</time>
      </trkpt>
      <trkpt lat="46.45023" lon="5.34121">
        <ele>259.4</ele>
        <time>2022-03-22T12:27:43Z</time>
      </trkpt>
      <trkpt lat="46.44987" lon="5.34117">
        <ele>258.2</ele>
        <time>2022-03-22T12:27:48Z</time>
      </trkpt>
      <trkpt lat="46.44973" lon="5.34113">
        <ele>257.6</ele>
        <time>2022-03-22T12:27:50Z</time>
      </trkpt>
      <trkpt lat="46.44958" lon="5.34108">
        <ele>256.8</ele>
        <time>2022-03-22T12:27:52Z</time>
      </trkpt>
      <trkpt lat="46.4492" lon="5.34098">
        <ele>255.6</ele>
        <time>2022-03-22T12:27:57Z</time>
      </trkpt>
      <trkpt lat="46.44912" lon="5.34095">
        <ele>255.2</ele>
        <time>2022-03-22T12:27:58Z</time>
      </trkpt>
      <trkpt lat="46.44889" lon="5.3409">
        <ele>254.6</ele>
        <time>2022-03-22T12:28:01Z</time>
      </trkpt>
      <trkpt lat="46.44862" lon="5.34089">
        <ele>253.8</ele>
        <time>2022-03-22T12:28:04Z</time>
      </trkpt>
      <trkpt lat="46.44848" lon="5.34094">
        <ele>253.2</ele>
        <time>2022-03-22T12:28:06Z</time>
      </trkpt>
      <trkpt lat="46.44833" lon="5.34106">
        <ele>252.4</ele>
        <time>2022-03-22T12:28:08Z</time>
      </trkpt>
      <trkpt lat="46.4482" lon="5.34121">
        <ele>251.4</ele>
        <time>2022-03-22T12:28:10Z</time>
      </trkpt>
      <trkpt lat="46.44807" lon="5.34134">
        <ele>250.4</ele>
        <time>2022-03-22T12:28:12Z</time>
      </trkpt>
      <trkpt lat="46.448" lon="5.34134">
        <ele>250.4</ele>
        <time>2022-03-22T12:28:13Z</time>
      </trkpt>
      <trkpt lat="46.44794" lon="5.3413">
        <ele>249.8</ele>
        <time>2022-03-22T12:28:14Z</time>
      </trkpt>
      <trkpt lat="46.4479" lon="5.34115">
        <ele>249.6</ele>
        <time>2022-03-22T12:28:16Z</time>
      </trkpt>
      <trkpt lat="46.4479" lon="5.34107">
        <ele>249.4</ele>
        <time>2022-03-22T12:28:17Z</time>
      </trkpt>
      <trkpt lat="46.44791" lon="5.34099">
        <ele>249</ele>
        <time>2022-03-22T12:28:18Z</time>
      </trkpt>
      <trkpt lat="46.44788" lon="5.34068">
        <ele>248.8</ele>
        <time>2022-03-22T12:28:22Z</time>
      </trkpt>
      <trkpt lat="46.44785" lon="5.34047">
        <ele>249.2</ele>
        <time>2022-03-22T12:28:25Z</time>
      </trkpt>
      <trkpt lat="46.44783" lon="5.34027">
        <ele>250.4</ele>
        <time>2022-03-22T12:28:28Z</time>
      </trkpt>
      <trkpt lat="46.44781" lon="5.34014">
        <ele>251</ele>
        <time>2022-03-22T12:28:30Z</time>
      </trkpt>
      <trkpt lat="46.44779" lon="5.34002">
        <ele>251.8</ele>
        <time>2022-03-22T12:28:32Z</time>
      </trkpt>
      <trkpt lat="46.44777" lon="5.33984">
        <ele>252.6</ele>
        <time>2022-03-22T12:28:35Z</time>
      </trkpt>
      <trkpt lat="46.44776" lon="5.33978">
        <ele>253</ele>
        <time>2022-03-22T12:28:36Z</time>
      </trkpt>
      <trkpt lat="46.44774" lon="5.33966">
        <ele>253.8</ele>
        <time>2022-03-22T12:28:38Z</time>
      </trkpt>
      <trkpt lat="46.44773" lon="5.33953">
        <ele>254</ele>
        <time>2022-03-22T12:28:40Z</time>
      </trkpt>
      <trkpt lat="46.44771" lon="5.33939">
        <ele>254.4</ele>
        <time>2022-03-22T12:28:42Z</time>
      </trkpt>
      <trkpt lat="46.44771" lon="5.33932">
        <ele>254.4</ele>
        <time>2022-03-22T12:28:43Z</time>
      </trkpt>
      <trkpt lat="46.4477" lon="5.33909">
        <ele>255.2</ele>
        <time>2022-03-22T12:28:46Z</time>
      </trkpt>
      <trkpt lat="46.44768" lon="5.33901">
        <ele>255.2</ele>
        <time>2022-03-22T12:28:47Z</time>
      </trkpt>
      <trkpt lat="46.44765" lon="5.33894">
        <ele>255.4</ele>
        <time>2022-03-22T12:28:48Z</time>
      </trkpt>
      <trkpt lat="46.44755" lon="5.33885">
        <ele>255.4</ele>
        <time>2022-03-22T12:28:50Z</time>
      </trkpt>
      <trkpt lat="46.44727" lon="5.33872">
        <ele>255.2</ele>
        <time>2022-03-22T12:28:54Z</time>
      </trkpt>
      <trkpt lat="46.4468" lon="5.33848">
        <ele>254.2</ele>
        <time>2022-03-22T12:29:01Z</time>
      </trkpt>
      <trkpt lat="46.44674" lon="5.33843">
        <ele>254</ele>
        <time>2022-03-22T12:29:02Z</time>
      </trkpt>
      <trkpt lat="46.4467" lon="5.33839">
        <ele>253.8</ele>
        <time>2022-03-22T12:29:03Z</time>
      </trkpt>
      <trkpt lat="46.44659" lon="5.33824">
        <ele>253.6</ele>
        <time>2022-03-22T12:29:05Z</time>
      </trkpt>
      <trkpt lat="46.44641" lon="5.3378">
        <ele>253.2</ele>
        <time>2022-03-22T12:29:10Z</time>
      </trkpt>
      <trkpt lat="46.44634" lon="5.3376">
        <ele>252.8</ele>
        <time>2022-03-22T12:29:12Z</time>
      </trkpt>
      <trkpt lat="46.44623" lon="5.33729">
        <ele>252</ele>
        <time>2022-03-22T12:29:15Z</time>
      </trkpt>
      <trkpt lat="46.44614" lon="5.33706">
        <ele>251.6</ele>
        <time>2022-03-22T12:29:17Z</time>
      </trkpt>
      <trkpt lat="46.44596" lon="5.33659">
        <ele>249.8</ele>
        <time>2022-03-22T12:29:21Z</time>
      </trkpt>
      <trkpt lat="46.44591" lon="5.33646">
        <ele>249.4</ele>
        <time>2022-03-22T12:29:22Z</time>
      </trkpt>
      <trkpt lat="46.44587" lon="5.33633">
        <ele>248.6</ele>
        <time>2022-03-22T12:29:23Z</time>
      </trkpt>
      <trkpt lat="46.44572" lon="5.33595">
        <ele>247</ele>
        <time>2022-03-22T12:29:26Z</time>
      </trkpt>
      <trkpt lat="46.44563" lon="5.33571">
        <ele>245.6</ele>
        <time>2022-03-22T12:29:28Z</time>
      </trkpt>
      <trkpt lat="46.44555" lon="5.33548">
        <ele>244.6</ele>
        <time>2022-03-22T12:29:30Z</time>
      </trkpt>
      <trkpt lat="46.44551" lon="5.33537">
        <ele>244.4</ele>
        <time>2022-03-22T12:29:31Z</time>
      </trkpt>
      <trkpt lat="46.44527" lon="5.33475">
        <ele>243.6</ele>
        <time>2022-03-22T12:29:37Z</time>
      </trkpt>
      <trkpt lat="46.44509" lon="5.33427">
        <ele>243.6</ele>
        <time>2022-03-22T12:29:42Z</time>
      </trkpt>
      <trkpt lat="46.44498" lon="5.33399">
        <ele>243.4</ele>
        <time>2022-03-22T12:29:45Z</time>
      </trkpt>
      <trkpt lat="46.44475" lon="5.33352">
        <ele>243</ele>
        <time>2022-03-22T12:29:51Z</time>
      </trkpt>
      <trkpt lat="46.44471" lon="5.33345">
        <ele>243</ele>
        <time>2022-03-22T12:29:52Z</time>
      </trkpt>
      <trkpt lat="46.44455" lon="5.33329">
        <ele>243</ele>
        <time>2022-03-22T12:29:55Z</time>
      </trkpt>
      <trkpt lat="46.44408" lon="5.3328">
        <ele>242.6</ele>
        <time>2022-03-22T12:30:04Z</time>
      </trkpt>
      <trkpt lat="46.44403" lon="5.33274">
        <ele>242.6</ele>
        <time>2022-03-22T12:30:05Z</time>
      </trkpt>
      <trkpt lat="46.44392" lon="5.33263">
        <ele>242.4</ele>
        <time>2022-03-22T12:30:07Z</time>
      </trkpt>
      <trkpt lat="46.44359" lon="5.33225">
        <ele>241.8</ele>
        <time>2022-03-22T12:30:13Z</time>
      </trkpt>
      <trkpt lat="46.44327" lon="5.33193">
        <ele>241.4</ele>
        <time>2022-03-22T12:30:18Z</time>
      </trkpt>
      <trkpt lat="46.44319" lon="5.33188">
        <ele>241.2</ele>
        <time>2022-03-22T12:30:19Z</time>
      </trkpt>
      <trkpt lat="46.44311" lon="5.33184">
        <ele>241</ele>
        <time>2022-03-22T12:30:20Z</time>
      </trkpt>
      <trkpt lat="46.44287" lon="5.3318">
        <ele>239.8</ele>
        <time>2022-03-22T12:30:23Z</time>
      </trkpt>
      <trkpt lat="46.44241" lon="5.33182">
        <ele>238.8</ele>
        <time>2022-03-22T12:30:29Z</time>
      </trkpt>
      <trkpt lat="46.44234" lon="5.33183">
        <ele>238.8</ele>
        <time>2022-03-22T12:30:30Z</time>
      </trkpt>
      <trkpt lat="46.4422" lon="5.33186">
        <ele>238.6</ele>
        <time>2022-03-22T12:30:32Z</time>
      </trkpt>
      <trkpt lat="46.44207" lon="5.33193">
        <ele>238.4</ele>
        <time>2022-03-22T12:30:34Z</time>
      </trkpt>
      <trkpt lat="46.44179" lon="5.33213">
        <ele>238.2</ele>
        <time>2022-03-22T12:30:39Z</time>
      </trkpt>
      <trkpt lat="46.44152" lon="5.33234">
        <ele>238.6</ele>
        <time>2022-03-22T12:30:45Z</time>
      </trkpt>
      <trkpt lat="46.44148" lon="5.33235">
        <ele>239</ele>
        <time>2022-03-22T12:30:46Z</time>
      </trkpt>
      <trkpt lat="46.44138" lon="5.33228">
        <ele>239.2</ele>
        <time>2022-03-22T12:30:49Z</time>
      </trkpt>
      <trkpt lat="46.4413" lon="5.33207">
        <ele>239.4</ele>
        <time>2022-03-22T12:30:52Z</time>
      </trkpt>
      <trkpt lat="46.44126" lon="5.33199">
        <ele>239.4</ele>
        <time>2022-03-22T12:30:53Z</time>
      </trkpt>
      <trkpt lat="46.44121" lon="5.33194">
        <ele>239.4</ele>
        <time>2022-03-22T12:30:54Z</time>
      </trkpt>
      <trkpt lat="46.44109" lon="5.33191">
        <ele>239.4</ele>
        <time>2022-03-22T12:30:56Z</time>
      </trkpt>
      <trkpt lat="46.44098" lon="5.33195">
        <ele>239.4</ele>
        <time>2022-03-22T12:30:58Z</time>
      </trkpt>
      <trkpt lat="46.44088" lon="5.33202">
        <ele>239.4</ele>
        <time>2022-03-22T12:31:00Z</time>
      </trkpt>
      <trkpt lat="46.44063" lon="5.33219">
        <ele>240</ele>
        <time>2022-03-22T12:31:05Z</time>
      </trkpt>
      <trkpt lat="46.44041" lon="5.33234">
        <ele>240.4</ele>
        <time>2022-03-22T12:31:09Z</time>
      </trkpt>
      <trkpt lat="46.44008" lon="5.33251">
        <ele>240.2</ele>
        <time>2022-03-22T12:31:14Z</time>
      </trkpt>
      <trkpt lat="46.43971" lon="5.33254">
        <ele>239.4</ele>
        <time>2022-03-22T12:31:19Z</time>
      </trkpt>
      <trkpt lat="46.43942" lon="5.33251">
        <ele>238.8</ele>
        <time>2022-03-22T12:31:23Z</time>
      </trkpt>
      <trkpt lat="46.43916" lon="5.33245">
        <ele>238.8</ele>
        <time>2022-03-22T12:31:27Z</time>
      </trkpt>
      <trkpt lat="46.43865" lon="5.3324">
        <ele>238.8</ele>
        <time>2022-03-22T12:31:35Z</time>
      </trkpt>
      <trkpt lat="46.43811" lon="5.33242">
        <ele>239.4</ele>
        <time>2022-03-22T12:31:44Z</time>
      </trkpt>
      <trkpt lat="46.43776" lon="5.33245">
        <ele>240.2</ele>
        <time>2022-03-22T12:31:50Z</time>
      </trkpt>
      <trkpt lat="46.43764" lon="5.33246">
        <ele>240.2</ele>
        <time>2022-03-22T12:31:52Z</time>
      </trkpt>
      <trkpt lat="46.43758" lon="5.33247">
        <ele>240.2</ele>
        <time>2022-03-22T12:31:53Z</time>
      </trkpt>
      <trkpt lat="46.43746" lon="5.33251">
        <ele>240.2</ele>
        <time>2022-03-22T12:31:55Z</time>
      </trkpt>
      <trkpt lat="46.4374" lon="5.33255">
        <ele>240.2</ele>
        <time>2022-03-22T12:31:56Z</time>
      </trkpt>
      <trkpt lat="46.43702" lon="5.33291">
        <ele>239.8</ele>
        <time>2022-03-22T12:32:02Z</time>
      </trkpt>
      <trkpt lat="46.43672" lon="5.33314">
        <ele>239</ele>
        <time>2022-03-22T12:32:06Z</time>
      </trkpt>
      <trkpt lat="46.43666" lon="5.33317">
        <ele>238.6</ele>
        <time>2022-03-22T12:32:07Z</time>
      </trkpt>
      <trkpt lat="46.43648" lon="5.33326">
        <ele>238</ele>
        <time>2022-03-22T12:32:09Z</time>
      </trkpt>
      <trkpt lat="46.43631" lon="5.33331">
        <ele>237.2</ele>
        <time>2022-03-22T12:32:11Z</time>
      </trkpt>
      <trkpt lat="46.43622" lon="5.33332">
        <ele>236.4</ele>
        <time>2022-03-22T12:32:12Z</time>
      </trkpt>
      <trkpt lat="46.43614" lon="5.3333">
        <ele>236</ele>
        <time>2022-03-22T12:32:13Z</time>
      </trkpt>
      <trkpt lat="46.43607" lon="5.33326">
        <ele>235.4</ele>
        <time>2022-03-22T12:32:14Z</time>
      </trkpt>
      <trkpt lat="46.436" lon="5.33321">
        <ele>235</ele>
        <time>2022-03-22T12:32:15Z</time>
      </trkpt>
      <trkpt lat="46.43587" lon="5.3332">
        <ele>233.8</ele>
        <time>2022-03-22T12:32:17Z</time>
      </trkpt>
      <trkpt lat="46.43579" lon="5.33336">
        <ele>233.2</ele>
        <time>2022-03-22T12:32:19Z</time>
      </trkpt>
      <trkpt lat="46.43574" lon="5.33357">
        <ele>233</ele>
        <time>2022-03-22T12:32:21Z</time>
      </trkpt>
      <trkpt lat="46.43562" lon="5.33374">
        <ele>232.4</ele>
        <time>2022-03-22T12:32:23Z</time>
      </trkpt>
      <trkpt lat="46.43544" lon="5.33381">
        <ele>231.6</ele>
        <time>2022-03-22T12:32:25Z</time>
      </trkpt>
      <trkpt lat="46.43535" lon="5.33381">
        <ele>231</ele>
        <time>2022-03-22T12:32:26Z</time>
      </trkpt>
      <trkpt lat="46.43526" lon="5.33379">
        <ele>230.8</ele>
        <time>2022-03-22T12:32:27Z</time>
      </trkpt>
      <trkpt lat="46.43511" lon="5.33371">
        <ele>229.4</ele>
        <time>2022-03-22T12:32:29Z</time>
      </trkpt>
      <trkpt lat="46.4349" lon="5.33361">
        <ele>228.4</ele>
        <time>2022-03-22T12:32:32Z</time>
      </trkpt>
      <trkpt lat="46.43478" lon="5.33353">
        <ele>228.4</ele>
        <time>2022-03-22T12:32:34Z</time>
      </trkpt>
      <trkpt lat="46.43453" lon="5.33334">
        <ele>229.6</ele>
        <time>2022-03-22T12:32:39Z</time>
      </trkpt>
      <trkpt lat="46.43449" lon="5.3333">
        <ele>230</ele>
        <time>2022-03-22T12:32:40Z</time>
      </trkpt>
      <trkpt lat="46.43442" lon="5.33323">
        <ele>230.6</ele>
        <time>2022-03-22T12:32:42Z</time>
      </trkpt>
      <trkpt lat="46.43439" lon="5.3332">
        <ele>230.8</ele>
        <time>2022-03-22T12:32:43Z</time>
      </trkpt>
      <trkpt lat="46.43433" lon="5.33312">
        <ele>232</ele>
        <time>2022-03-22T12:32:45Z</time>
      </trkpt>
      <trkpt lat="46.4343" lon="5.33308">
        <ele>232.4</ele>
        <time>2022-03-22T12:32:46Z</time>
      </trkpt>
      <trkpt lat="46.43422" lon="5.333">
        <ele>233.6</ele>
        <time>2022-03-22T12:32:49Z</time>
      </trkpt>
      <trkpt lat="46.4342" lon="5.33296">
        <ele>233.8</ele>
        <time>2022-03-22T12:32:50Z</time>
      </trkpt>
      <trkpt lat="46.43418" lon="5.33292">
        <ele>234.6</ele>
        <time>2022-03-22T12:32:51Z</time>
      </trkpt>
      <trkpt lat="46.43416" lon="5.33289">
        <ele>235</ele>
        <time>2022-03-22T12:32:52Z</time>
      </trkpt>
      <trkpt lat="46.43412" lon="5.33268">
        <ele>236.4</ele>
        <time>2022-03-22T12:32:56Z</time>
      </trkpt>
      <trkpt lat="46.43406" lon="5.33243">
        <ele>237.4</ele>
        <time>2022-03-22T12:33:00Z</time>
      </trkpt>
      <trkpt lat="46.43399" lon="5.33233">
        <ele>238</ele>
        <time>2022-03-22T12:33:02Z</time>
      </trkpt>
      <trkpt lat="46.43385" lon="5.33223">
        <ele>238.6</ele>
        <time>2022-03-22T12:33:05Z</time>
      </trkpt>
      <trkpt lat="46.43377" lon="5.33219">
        <ele>239</ele>
        <time>2022-03-22T12:33:07Z</time>
      </trkpt>
      <trkpt lat="46.43353" lon="5.33209">
        <ele>239.6</ele>
        <time>2022-03-22T12:33:12Z</time>
      </trkpt>
      <trkpt lat="46.43331" lon="5.33204">
        <ele>239.8</ele>
        <time>2022-03-22T12:33:16Z</time>
      </trkpt>
      <trkpt lat="46.43279" lon="5.33188">
        <ele>240.2</ele>
        <time>2022-03-22T12:33:26Z</time>
      </trkpt>
      <trkpt lat="46.4322" lon="5.33176">
        <ele>240.4</ele>
        <time>2022-03-22T12:33:36Z</time>
      </trkpt>
      <trkpt lat="46.43171" lon="5.33163">
        <ele>240.4</ele>
        <time>2022-03-22T12:33:44Z</time>
      </trkpt>
      <trkpt lat="46.43142" lon="5.3315">
        <ele>240.4</ele>
        <time>2022-03-22T12:33:49Z</time>
      </trkpt>
      <trkpt lat="46.43124" lon="5.33138">
        <ele>240.2</ele>
        <time>2022-03-22T12:33:52Z</time>
      </trkpt>
      <trkpt lat="46.43107" lon="5.33121">
        <ele>240</ele>
        <time>2022-03-22T12:33:55Z</time>
      </trkpt>
      <trkpt lat="46.43072" lon="5.3306">
        <ele>238.8</ele>
        <time>2022-03-22T12:34:03Z</time>
      </trkpt>
      <trkpt lat="46.43051" lon="5.33014">
        <ele>238.4</ele>
        <time>2022-03-22T12:34:08Z</time>
      </trkpt>
      <trkpt lat="46.43048" lon="5.33004">
        <ele>238.2</ele>
        <time>2022-03-22T12:34:09Z</time>
      </trkpt>
      <trkpt lat="46.43038" lon="5.32963">
        <ele>237.4</ele>
        <time>2022-03-22T12:34:13Z</time>
      </trkpt>
      <trkpt lat="46.43028" lon="5.32935">
        <ele>236.4</ele>
        <time>2022-03-22T12:34:16Z</time>
      </trkpt>
      <trkpt lat="46.43023" lon="5.32924">
        <ele>236.2</ele>
        <time>2022-03-22T12:34:17Z</time>
      </trkpt>
      <trkpt lat="46.43004" lon="5.32878">
        <ele>235.4</ele>
        <time>2022-03-22T12:34:22Z</time>
      </trkpt>
      <trkpt lat="46.42996" lon="5.3286">
        <ele>235.2</ele>
        <time>2022-03-22T12:34:24Z</time>
      </trkpt>
      <trkpt lat="46.42974" lon="5.32807">
        <ele>234.2</ele>
        <time>2022-03-22T12:34:30Z</time>
      </trkpt>
      <trkpt lat="46.4297" lon="5.32798">
        <ele>234</ele>
        <time>2022-03-22T12:34:31Z</time>
      </trkpt>
      <trkpt lat="46.42948" lon="5.32744">
        <ele>233</ele>
        <time>2022-03-22T12:34:37Z</time>
      </trkpt>
      <trkpt lat="46.42941" lon="5.32726">
        <ele>232.6</ele>
        <time>2022-03-22T12:34:39Z</time>
      </trkpt>
      <trkpt lat="46.4293" lon="5.32697">
        <ele>232</ele>
        <time>2022-03-22T12:34:42Z</time>
      </trkpt>
      <trkpt lat="46.42916" lon="5.32654">
        <ele>231</ele>
        <time>2022-03-22T12:34:46Z</time>
      </trkpt>
      <trkpt lat="46.42913" lon="5.32643">
        <ele>230.6</ele>
        <time>2022-03-22T12:34:47Z</time>
      </trkpt>
      <trkpt lat="46.42899" lon="5.32596">
        <ele>229.4</ele>
        <time>2022-03-22T12:34:51Z</time>
      </trkpt>
      <trkpt lat="46.42893" lon="5.32574">
        <ele>228.8</ele>
        <time>2022-03-22T12:34:53Z</time>
      </trkpt>
      <trkpt lat="46.42889" lon="5.32559">
        <ele>227.6</ele>
        <time>2022-03-22T12:34:54Z</time>
      </trkpt>
      <trkpt lat="46.42882" lon="5.32533">
        <ele>226.2</ele>
        <time>2022-03-22T12:34:56Z</time>
      </trkpt>
      <trkpt lat="46.42871" lon="5.32496">
        <ele>224.6</ele>
        <time>2022-03-22T12:34:59Z</time>
      </trkpt>
      <trkpt lat="46.42854" lon="5.32459">
        <ele>223.4</ele>
        <time>2022-03-22T12:35:02Z</time>
      </trkpt>
      <trkpt lat="46.4284" lon="5.32435">
        <ele>222</ele>
        <time>2022-03-22T12:35:04Z</time>
      </trkpt>
      <trkpt lat="46.42829" lon="5.32416">
        <ele>220.6</ele>
        <time>2022-03-22T12:35:06Z</time>
      </trkpt>
      <trkpt lat="46.42815" lon="5.32394">
        <ele>219.6</ele>
        <time>2022-03-22T12:35:08Z</time>
      </trkpt>
      <trkpt lat="46.4281" lon="5.32382">
        <ele>219.2</ele>
        <time>2022-03-22T12:35:09Z</time>
      </trkpt>
      <trkpt lat="46.42805" lon="5.32371">
        <ele>218.8</ele>
        <time>2022-03-22T12:35:10Z</time>
      </trkpt>
      <trkpt lat="46.42799" lon="5.32348">
        <ele>218</ele>
        <time>2022-03-22T12:35:12Z</time>
      </trkpt>
      <trkpt lat="46.4279" lon="5.3231">
        <ele>217.2</ele>
        <time>2022-03-22T12:35:15Z</time>
      </trkpt>
      <trkpt lat="46.42788" lon="5.32301">
        <ele>217</ele>
        <time>2022-03-22T12:35:16Z</time>
      </trkpt>
      <trkpt lat="46.42775" lon="5.32247">
        <ele>216.4</ele>
        <time>2022-03-22T12:35:21Z</time>
      </trkpt>
      <trkpt lat="46.42763" lon="5.32197">
        <ele>216.4</ele>
        <time>2022-03-22T12:35:26Z</time>
      </trkpt>
      <trkpt lat="46.42753" lon="5.32185">
        <ele>216.4</ele>
        <time>2022-03-22T12:35:28Z</time>
      </trkpt>
      <trkpt lat="46.42748" lon="5.32184">
        <ele>216.4</ele>
        <time>2022-03-22T12:35:29Z</time>
      </trkpt>
      <trkpt lat="46.42742" lon="5.32185">
        <ele>216.2</ele>
        <time>2022-03-22T12:35:30Z</time>
      </trkpt>
      <trkpt lat="46.42732" lon="5.32196">
        <ele>216.2</ele>
        <time>2022-03-22T12:35:32Z</time>
      </trkpt>
      <trkpt lat="46.42727" lon="5.32212">
        <ele>216.2</ele>
        <time>2022-03-22T12:35:34Z</time>
      </trkpt>
      <trkpt lat="46.42722" lon="5.32234">
        <ele>216</ele>
        <time>2022-03-22T12:35:36Z</time>
      </trkpt>
      <trkpt lat="46.4272" lon="5.32244">
        <ele>216</ele>
        <time>2022-03-22T12:35:37Z</time>
      </trkpt>
      <trkpt lat="46.42707" lon="5.32293">
        <ele>216.4</ele>
        <time>2022-03-22T12:35:42Z</time>
      </trkpt>
      <trkpt lat="46.42696" lon="5.32357">
        <ele>216.6</ele>
        <time>2022-03-22T12:35:49Z</time>
      </trkpt>
      <trkpt lat="46.4268" lon="5.32438">
        <ele>216.8</ele>
        <time>2022-03-22T12:35:58Z</time>
      </trkpt>
      <trkpt lat="46.42665" lon="5.3252">
        <ele>217</ele>
        <time>2022-03-22T12:36:07Z</time>
      </trkpt>
      <trkpt lat="46.42664" lon="5.32531">
        <ele>217</ele>
        <time>2022-03-22T12:36:08Z</time>
      </trkpt>
      <trkpt lat="46.42656" lon="5.32604">
        <ele>217.2</ele>
        <time>2022-03-22T12:36:16Z</time>
      </trkpt>
      <trkpt lat="46.42649" lon="5.3268">
        <ele>217.2</ele>
        <time>2022-03-22T12:36:24Z</time>
      </trkpt>
      <trkpt lat="46.42648" lon="5.32689">
        <ele>217.2</ele>
        <time>2022-03-22T12:36:25Z</time>
      </trkpt>
      <trkpt lat="46.42646" lon="5.32728">
        <ele>217.2</ele>
        <time>2022-03-22T12:36:29Z</time>
      </trkpt>
      <trkpt lat="46.42647" lon="5.32747">
        <ele>217.4</ele>
        <time>2022-03-22T12:36:31Z</time>
      </trkpt>
      <trkpt lat="46.42648" lon="5.32755">
        <ele>217.4</ele>
        <time>2022-03-22T12:36:32Z</time>
      </trkpt>
      <trkpt lat="46.4265" lon="5.32764">
        <ele>217.4</ele>
        <time>2022-03-22T12:36:33Z</time>
      </trkpt>
      <trkpt lat="46.42662" lon="5.32796">
        <ele>217.6</ele>
        <time>2022-03-22T12:36:37Z</time>
      </trkpt>
      <trkpt lat="46.42679" lon="5.32835">
        <ele>217.6</ele>
        <time>2022-03-22T12:36:42Z</time>
      </trkpt>
      <trkpt lat="46.4268" lon="5.32851">
        <ele>217.6</ele>
        <time>2022-03-22T12:36:44Z</time>
      </trkpt>
      <trkpt lat="46.42674" lon="5.32867">
        <ele>217.6</ele>
        <time>2022-03-22T12:36:46Z</time>
      </trkpt>
      <trkpt lat="46.42664" lon="5.32872">
        <ele>217.6</ele>
        <time>2022-03-22T12:36:48Z</time>
      </trkpt>
      <trkpt lat="46.42658" lon="5.32872">
        <ele>217.6</ele>
        <time>2022-03-22T12:36:49Z</time>
      </trkpt>
      <trkpt lat="46.42642" lon="5.3287">
        <ele>217.6</ele>
        <time>2022-03-22T12:36:52Z</time>
      </trkpt>
      <trkpt lat="46.42631" lon="5.32874">
        <ele>217.6</ele>
        <time>2022-03-22T12:36:54Z</time>
      </trkpt>
      <trkpt lat="46.42622" lon="5.32881">
        <ele>217.8</ele>
        <time>2022-03-22T12:36:56Z</time>
      </trkpt>
      <trkpt lat="46.42615" lon="5.32892">
        <ele>217.8</ele>
        <time>2022-03-22T12:36:58Z</time>
      </trkpt>
      <trkpt lat="46.42601" lon="5.32913">
        <ele>217.8</ele>
        <time>2022-03-22T12:37:02Z</time>
      </trkpt>
      <trkpt lat="46.426" lon="5.32929">
        <ele>218</ele>
        <time>2022-03-22T12:37:04Z</time>
      </trkpt>
      <trkpt lat="46.42595" lon="5.32942">
        <ele>218.6</ele>
        <time>2022-03-22T12:37:06Z</time>
      </trkpt>
      <trkpt lat="46.42591" lon="5.32957">
        <ele>219</ele>
        <time>2022-03-22T12:37:08Z</time>
      </trkpt>
      <trkpt lat="46.42589" lon="5.32973">
        <ele>219.2</ele>
        <time>2022-03-22T12:37:10Z</time>
      </trkpt>
      <trkpt lat="46.42586" lon="5.33021">
        <ele>219.6</ele>
        <time>2022-03-22T12:37:16Z</time>
      </trkpt>
      <trkpt lat="46.42586" lon="5.33029">
        <ele>219.8</ele>
        <time>2022-03-22T12:37:17Z</time>
      </trkpt>
      <trkpt lat="46.42586" lon="5.33039">
        <ele>220</ele>
        <time>2022-03-22T12:37:18Z</time>
      </trkpt>
      <trkpt lat="46.42589" lon="5.33052">
        <ele>220.4</ele>
        <time>2022-03-22T12:37:20Z</time>
      </trkpt>
      <trkpt lat="46.42592" lon="5.33059">
        <ele>220.6</ele>
        <time>2022-03-22T12:37:21Z</time>
      </trkpt>
      <trkpt lat="46.42595" lon="5.33066">
        <ele>220.6</ele>
        <time>2022-03-22T12:37:22Z</time>
      </trkpt>
      <trkpt lat="46.426" lon="5.33074">
        <ele>220.8</ele>
        <time>2022-03-22T12:37:23Z</time>
      </trkpt>
      <trkpt lat="46.42616" lon="5.331">
        <ele>221</ele>
        <time>2022-03-22T12:37:28Z</time>
      </trkpt>
      <trkpt lat="46.4262" lon="5.33106">
        <ele>221</ele>
        <time>2022-03-22T12:37:30Z</time>
      </trkpt>
      <trkpt lat="46.42621" lon="5.33111">
        <ele>221</ele>
        <time>2022-03-22T12:37:31Z</time>
      </trkpt>
      <trkpt lat="46.42622" lon="5.33115">
        <ele>221.2</ele>
        <time>2022-03-22T12:37:33Z</time>
      </trkpt>
      <trkpt lat="46.42623" lon="5.33115">
        <ele>221.2</ele>
        <time>2022-03-22T12:37:34Z</time>
      </trkpt>
      <trkpt lat="46.42623" lon="5.33115">
        <ele>221.2</ele>
        <time>2022-03-22T12:37:36Z</time>
      </trkpt>
      <trkpt lat="46.42629" lon="5.33122">
        <ele>221.2</ele>
        <time>2022-03-22T12:38:17Z</time>
      </trkpt>
      <trkpt lat="46.42632" lon="5.33128">
        <ele>221.2</ele>
        <time>2022-03-22T12:38:18Z</time>
      </trkpt>
      <trkpt lat="46.42646" lon="5.33152">
        <ele>221.4</ele>
        <time>2022-03-22T12:38:22Z</time>
      </trkpt>
      <trkpt lat="46.42672" lon="5.33198">
        <ele>221.4</ele>
        <time>2022-03-22T12:38:28Z</time>
      </trkpt>
      <trkpt lat="46.42676" lon="5.33203">
        <ele>221.4</ele>
        <time>2022-03-22T12:38:29Z</time>
      </trkpt>
      <trkpt lat="46.42688" lon="5.33214">
        <ele>221.2</ele>
        <time>2022-03-22T12:38:31Z</time>
      </trkpt>
      <trkpt lat="46.42694" lon="5.33217">
        <ele>221.2</ele>
        <time>2022-03-22T12:38:32Z</time>
      </trkpt>
      <trkpt lat="46.42702" lon="5.33222">
        <ele>221.2</ele>
        <time>2022-03-22T12:38:33Z</time>
      </trkpt>
      <trkpt lat="46.42726" lon="5.33242">
        <ele>220.8</ele>
        <time>2022-03-22T12:38:37Z</time>
      </trkpt>
      <trkpt lat="46.42774" lon="5.33281">
        <ele>220.8</ele>
        <time>2022-03-22T12:38:45Z</time>
      </trkpt>
      <trkpt lat="46.42804" lon="5.33304">
        <ele>220.8</ele>
        <time>2022-03-22T12:38:50Z</time>
      </trkpt>
      <trkpt lat="46.42809" lon="5.3331">
        <ele>220.8</ele>
        <time>2022-03-22T12:38:51Z</time>
      </trkpt>
      <trkpt lat="46.42812" lon="5.33316">
        <ele>220.8</ele>
        <time>2022-03-22T12:38:52Z</time>
      </trkpt>
      <trkpt lat="46.4283" lon="5.33347">
        <ele>220.8</ele>
        <time>2022-03-22T12:38:56Z</time>
      </trkpt>
      <trkpt lat="46.42847" lon="5.33373">
        <ele>220.8</ele>
        <time>2022-03-22T12:39:00Z</time>
      </trkpt>
      <trkpt lat="46.42853" lon="5.33389">
        <ele>220.8</ele>
        <time>2022-03-22T12:39:02Z</time>
      </trkpt>
      <trkpt lat="46.42854" lon="5.33408">
        <ele>220.8</ele>
        <time>2022-03-22T12:39:04Z</time>
      </trkpt>
      <trkpt lat="46.42852" lon="5.33418">
        <ele>221</ele>
        <time>2022-03-22T12:39:05Z</time>
      </trkpt>
      <trkpt lat="46.42838" lon="5.33473">
        <ele>221.2</ele>
        <time>2022-03-22T12:39:12Z</time>
      </trkpt>
      <trkpt lat="46.42831" lon="5.33494">
        <ele>221.6</ele>
        <time>2022-03-22T12:39:15Z</time>
      </trkpt>
      <trkpt lat="46.42829" lon="5.33508">
        <ele>221.8</ele>
        <time>2022-03-22T12:39:17Z</time>
      </trkpt>
      <trkpt lat="46.42828" lon="5.33516">
        <ele>221.8</ele>
        <time>2022-03-22T12:39:18Z</time>
      </trkpt>
      <trkpt lat="46.42828" lon="5.33524">
        <ele>222</ele>
        <time>2022-03-22T12:39:19Z</time>
      </trkpt>
      <trkpt lat="46.42831" lon="5.33543">
        <ele>222.4</ele>
        <time>2022-03-22T12:39:22Z</time>
      </trkpt>
      <trkpt lat="46.42833" lon="5.3355">
        <ele>222.6</ele>
        <time>2022-03-22T12:39:23Z</time>
      </trkpt>
      <trkpt lat="46.42838" lon="5.33569">
        <ele>223.2</ele>
        <time>2022-03-22T12:39:26Z</time>
      </trkpt>
      <trkpt lat="46.42841" lon="5.33582">
        <ele>223.4</ele>
        <time>2022-03-22T12:39:28Z</time>
      </trkpt>
      <trkpt lat="46.42845" lon="5.33602">
        <ele>223.8</ele>
        <time>2022-03-22T12:39:31Z</time>
      </trkpt>
      <trkpt lat="46.42847" lon="5.33623">
        <ele>224.2</ele>
        <time>2022-03-22T12:39:34Z</time>
      </trkpt>
      <trkpt lat="46.42848" lon="5.33638">
        <ele>224.4</ele>
        <time>2022-03-22T12:39:36Z</time>
      </trkpt>
      <trkpt lat="46.4285" lon="5.33651">
        <ele>224.4</ele>
        <time>2022-03-22T12:39:38Z</time>
      </trkpt>
      <trkpt lat="46.42851" lon="5.3367">
        <ele>224.8</ele>
        <time>2022-03-22T12:39:41Z</time>
      </trkpt>
      <trkpt lat="46.42854" lon="5.33681">
        <ele>225</ele>
        <time>2022-03-22T12:39:43Z</time>
      </trkpt>
      <trkpt lat="46.42856" lon="5.33686">
        <ele>225</ele>
        <time>2022-03-22T12:39:44Z</time>
      </trkpt>
      <trkpt lat="46.42858" lon="5.33691">
        <ele>225.2</ele>
        <time>2022-03-22T12:39:45Z</time>
      </trkpt>
      <trkpt lat="46.42865" lon="5.33701">
        <ele>225.8</ele>
        <time>2022-03-22T12:39:47Z</time>
      </trkpt>
      <trkpt lat="46.42872" lon="5.33707">
        <ele>226.4</ele>
        <time>2022-03-22T12:39:49Z</time>
      </trkpt>
      <trkpt lat="46.4288" lon="5.33715">
        <ele>226.8</ele>
        <time>2022-03-22T12:39:51Z</time>
      </trkpt>
      <trkpt lat="46.42887" lon="5.33722">
        <ele>227.4</ele>
        <time>2022-03-22T12:39:53Z</time>
      </trkpt>
      <trkpt lat="46.42894" lon="5.33732">
        <ele>227.6</ele>
        <time>2022-03-22T12:39:55Z</time>
      </trkpt>
      <trkpt lat="46.42896" lon="5.33738">
        <ele>227.8</ele>
        <time>2022-03-22T12:39:56Z</time>
      </trkpt>
      <trkpt lat="46.42897" lon="5.33744">
        <ele>228</ele>
        <time>2022-03-22T12:39:57Z</time>
      </trkpt>
      <trkpt lat="46.42898" lon="5.33763">
        <ele>228.6</ele>
        <time>2022-03-22T12:40:00Z</time>
      </trkpt>
      <trkpt lat="46.42895" lon="5.33792">
        <ele>229.2</ele>
        <time>2022-03-22T12:40:05Z</time>
      </trkpt>
      <trkpt lat="46.42895" lon="5.33797">
        <ele>229.4</ele>
        <time>2022-03-22T12:40:06Z</time>
      </trkpt>
      <trkpt lat="46.42894" lon="5.33802">
        <ele>229.6</ele>
        <time>2022-03-22T12:40:07Z</time>
      </trkpt>
      <trkpt lat="46.42893" lon="5.3382">
        <ele>230.2</ele>
        <time>2022-03-22T12:40:10Z</time>
      </trkpt>
      <trkpt lat="46.42889" lon="5.33835">
        <ele>231</ele>
        <time>2022-03-22T12:40:13Z</time>
      </trkpt>
      <trkpt lat="46.42887" lon="5.33838">
        <ele>231</ele>
        <time>2022-03-22T12:40:14Z</time>
      </trkpt>
      <trkpt lat="46.42884" lon="5.33839">
        <ele>231.4</ele>
        <time>2022-03-22T12:40:15Z</time>
      </trkpt>
      <trkpt lat="46.42879" lon="5.3384">
        <ele>231.6</ele>
        <time>2022-03-22T12:40:16Z</time>
      </trkpt>
      <trkpt lat="46.42848" lon="5.33837">
        <ele>232.2</ele>
        <time>2022-03-22T12:40:22Z</time>
      </trkpt>
      <trkpt lat="46.4281" lon="5.33834">
        <ele>232.2</ele>
        <time>2022-03-22T12:40:29Z</time>
      </trkpt>
      <trkpt lat="46.42784" lon="5.33828">
        <ele>232.4</ele>
        <time>2022-03-22T12:40:35Z</time>
      </trkpt>
      <trkpt lat="46.4276" lon="5.33818">
        <ele>233.6</ele>
        <time>2022-03-22T12:40:41Z</time>
      </trkpt>
      <trkpt lat="46.42752" lon="5.33815">
        <ele>234</ele>
        <time>2022-03-22T12:40:43Z</time>
      </trkpt>
      <trkpt lat="46.42735" lon="5.33805">
        <ele>235</ele>
        <time>2022-03-22T12:40:48Z</time>
      </trkpt>
      <trkpt lat="46.42728" lon="5.338">
        <ele>235.6</ele>
        <time>2022-03-22T12:40:50Z</time>
      </trkpt>
      <trkpt lat="46.42717" lon="5.33796">
        <ele>236.2</ele>
        <time>2022-03-22T12:40:53Z</time>
      </trkpt>
      <trkpt lat="46.42701" lon="5.33793">
        <ele>237</ele>
        <time>2022-03-22T12:40:57Z</time>
      </trkpt>
      <trkpt lat="46.42695" lon="5.33793">
        <ele>237.4</ele>
        <time>2022-03-22T12:40:59Z</time>
      </trkpt>
      <trkpt lat="46.42668" lon="5.33793">
        <ele>238.4</ele>
        <time>2022-03-22T12:41:06Z</time>
      </trkpt>
      <trkpt lat="46.42625" lon="5.33799">
        <ele>239</ele>
        <time>2022-03-22T12:41:16Z</time>
      </trkpt>
      <trkpt lat="46.42592" lon="5.33798">
        <ele>239.2</ele>
        <time>2022-03-22T12:41:23Z</time>
      </trkpt>
      <trkpt lat="46.42588" lon="5.33798">
        <ele>239.6</ele>
        <time>2022-03-22T12:41:24Z</time>
      </trkpt>
      <trkpt lat="46.42567" lon="5.33789">
        <ele>239.6</ele>
        <time>2022-03-22T12:41:29Z</time>
      </trkpt>
      <trkpt lat="46.42564" lon="5.33787">
        <ele>239.6</ele>
        <time>2022-03-22T12:41:30Z</time>
      </trkpt>
      <trkpt lat="46.42543" lon="5.33773">
        <ele>240.8</ele>
        <time>2022-03-22T12:41:36Z</time>
      </trkpt>
      <trkpt lat="46.42535" lon="5.33768">
        <ele>241.4</ele>
        <time>2022-03-22T12:41:38Z</time>
      </trkpt>
      <trkpt lat="46.42524" lon="5.33761">
        <ele>242</ele>
        <time>2022-03-22T12:41:42Z</time>
      </trkpt>
      <trkpt lat="46.42518" lon="5.33757">
        <ele>242.4</ele>
        <time>2022-03-22T12:41:44Z</time>
      </trkpt>
      <trkpt lat="46.42508" lon="5.3375">
        <ele>243</ele>
        <time>2022-03-22T12:41:47Z</time>
      </trkpt>
      <trkpt lat="46.42492" lon="5.33738">
        <ele>244.2</ele>
        <time>2022-03-22T12:41:52Z</time>
      </trkpt>
      <trkpt lat="46.42486" lon="5.33733">
        <ele>244.6</ele>
        <time>2022-03-22T12:41:54Z</time>
      </trkpt>
      <trkpt lat="46.42479" lon="5.33728">
        <ele>245.2</ele>
        <time>2022-03-22T12:41:56Z</time>
      </trkpt>
      <trkpt lat="46.42462" lon="5.33712">
        <ele>246.4</ele>
        <time>2022-03-22T12:42:01Z</time>
      </trkpt>
      <trkpt lat="46.42434" lon="5.33691">
        <ele>247</ele>
        <time>2022-03-22T12:42:08Z</time>
      </trkpt>
      <trkpt lat="46.42425" lon="5.33686">
        <ele>247</ele>
        <time>2022-03-22T12:42:10Z</time>
      </trkpt>
      <trkpt lat="46.42405" lon="5.33678">
        <ele>247.4</ele>
        <time>2022-03-22T12:42:15Z</time>
      </trkpt>
      <trkpt lat="46.42396" lon="5.33676">
        <ele>247.6</ele>
        <time>2022-03-22T12:42:17Z</time>
      </trkpt>
      <trkpt lat="46.42383" lon="5.33676">
        <ele>247.8</ele>
        <time>2022-03-22T12:42:20Z</time>
      </trkpt>
      <trkpt lat="46.42379" lon="5.33677">
        <ele>247.8</ele>
        <time>2022-03-22T12:42:21Z</time>
      </trkpt>
      <trkpt lat="46.42364" lon="5.33685">
        <ele>248.6</ele>
        <time>2022-03-22T12:42:25Z</time>
      </trkpt>
      <trkpt lat="46.42357" lon="5.33689">
        <ele>249</ele>
        <time>2022-03-22T12:42:27Z</time>
      </trkpt>
      <trkpt lat="46.42348" lon="5.33696">
        <ele>249.6</ele>
        <time>2022-03-22T12:42:30Z</time>
      </trkpt>
      <trkpt lat="46.42338" lon="5.33702">
        <ele>250</ele>
        <time>2022-03-22T12:42:33Z</time>
      </trkpt>
      <trkpt lat="46.42324" lon="5.33712">
        <ele>250.8</ele>
        <time>2022-03-22T12:42:38Z</time>
      </trkpt>
      <trkpt lat="46.42321" lon="5.33714">
        <ele>250.8</ele>
        <time>2022-03-22T12:42:39Z</time>
      </trkpt>
      <trkpt lat="46.42311" lon="5.33725">
        <ele>252</ele>
        <time>2022-03-22T12:42:43Z</time>
      </trkpt>
      <trkpt lat="46.42306" lon="5.3373">
        <ele>252.4</ele>
        <time>2022-03-22T12:42:45Z</time>
      </trkpt>
      <trkpt lat="46.423" lon="5.33738">
        <ele>253</ele>
        <time>2022-03-22T12:42:47Z</time>
      </trkpt>
      <trkpt lat="46.4229" lon="5.33753">
        <ele>254</ele>
        <time>2022-03-22T12:42:51Z</time>
      </trkpt>
      <trkpt lat="46.42271" lon="5.3379">
        <ele>255.2</ele>
        <time>2022-03-22T12:43:00Z</time>
      </trkpt>
      <trkpt lat="46.4225" lon="5.33831">
        <ele>256.2</ele>
        <time>2022-03-22T12:43:09Z</time>
      </trkpt>
      <trkpt lat="46.42233" lon="5.33865">
        <ele>257.2</ele>
        <time>2022-03-22T12:43:16Z</time>
      </trkpt>
      <trkpt lat="46.4223" lon="5.33869">
        <ele>257.4</ele>
        <time>2022-03-22T12:43:17Z</time>
      </trkpt>
      <trkpt lat="46.42217" lon="5.33896">
        <ele>258.4</ele>
        <time>2022-03-22T12:43:23Z</time>
      </trkpt>
      <trkpt lat="46.4221" lon="5.33909">
        <ele>259</ele>
        <time>2022-03-22T12:43:26Z</time>
      </trkpt>
      <trkpt lat="46.42203" lon="5.33922">
        <ele>259.6</ele>
        <time>2022-03-22T12:43:29Z</time>
      </trkpt>
      <trkpt lat="46.42191" lon="5.33935">
        <ele>260.4</ele>
        <time>2022-03-22T12:43:33Z</time>
      </trkpt>
      <trkpt lat="46.42181" lon="5.3394">
        <ele>261</ele>
        <time>2022-03-22T12:43:36Z</time>
      </trkpt>
      <trkpt lat="46.42174" lon="5.33941">
        <ele>261.2</ele>
        <time>2022-03-22T12:43:38Z</time>
      </trkpt>
      <trkpt lat="46.42157" lon="5.33936">
        <ele>262.2</ele>
        <time>2022-03-22T12:43:43Z</time>
      </trkpt>
      <trkpt lat="46.4215" lon="5.33933">
        <ele>262.8</ele>
        <time>2022-03-22T12:43:45Z</time>
      </trkpt>
      <trkpt lat="46.4214" lon="5.33928">
        <ele>263.4</ele>
        <time>2022-03-22T12:43:48Z</time>
      </trkpt>
      <trkpt lat="46.4212" lon="5.33918">
        <ele>264.2</ele>
        <time>2022-03-22T12:43:53Z</time>
      </trkpt>
      <trkpt lat="46.42111" lon="5.33913">
        <ele>264.6</ele>
        <time>2022-03-22T12:43:55Z</time>
      </trkpt>
      <trkpt lat="46.42088" lon="5.33904">
        <ele>265</ele>
        <time>2022-03-22T12:44:00Z</time>
      </trkpt>
      <trkpt lat="46.42048" lon="5.33902">
        <ele>265</ele>
        <time>2022-03-22T12:44:08Z</time>
      </trkpt>
      <trkpt lat="46.42001" lon="5.33899">
        <ele>264.8</ele>
        <time>2022-03-22T12:44:16Z</time>
      </trkpt>
      <trkpt lat="46.4197" lon="5.33878">
        <ele>263.6</ele>
        <time>2022-03-22T12:44:21Z</time>
      </trkpt>
      <trkpt lat="46.41961" lon="5.33874">
        <ele>263</ele>
        <time>2022-03-22T12:44:22Z</time>
      </trkpt>
      <trkpt lat="46.41938" lon="5.3387">
        <ele>262</ele>
        <time>2022-03-22T12:44:25Z</time>
      </trkpt>
      <trkpt lat="46.4193" lon="5.3387">
        <ele>261.6</ele>
        <time>2022-03-22T12:44:26Z</time>
      </trkpt>
      <trkpt lat="46.41904" lon="5.33876">
        <ele>260.2</ele>
        <time>2022-03-22T12:44:29Z</time>
      </trkpt>
      <trkpt lat="46.41872" lon="5.33879">
        <ele>259</ele>
        <time>2022-03-22T12:44:33Z</time>
      </trkpt>
      <trkpt lat="46.41864" lon="5.3388">
        <ele>258.6</ele>
        <time>2022-03-22T12:44:34Z</time>
      </trkpt>
      <trkpt lat="46.41825" lon="5.33876">
        <ele>258.2</ele>
        <time>2022-03-22T12:44:40Z</time>
      </trkpt>
      <trkpt lat="46.41794" lon="5.33866">
        <ele>259.6</ele>
        <time>2022-03-22T12:44:46Z</time>
      </trkpt>
      <trkpt lat="46.41787" lon="5.33865">
        <ele>260.6</ele>
        <time>2022-03-22T12:44:48Z</time>
      </trkpt>
      <trkpt lat="46.41777" lon="5.33863">
        <ele>261.2</ele>
        <time>2022-03-22T12:44:50Z</time>
      </trkpt>
      <trkpt lat="46.41766" lon="5.3386">
        <ele>261.8</ele>
        <time>2022-03-22T12:44:53Z</time>
      </trkpt>
      <trkpt lat="46.41755" lon="5.33858">
        <ele>262.8</ele>
        <time>2022-03-22T12:44:56Z</time>
      </trkpt>
      <trkpt lat="46.41743" lon="5.33861">
        <ele>263.6</ele>
        <time>2022-03-22T12:44:59Z</time>
      </trkpt>
      <trkpt lat="46.41739" lon="5.33863">
        <ele>263.8</ele>
        <time>2022-03-22T12:45:00Z</time>
      </trkpt>
      <trkpt lat="46.41727" lon="5.33867">
        <ele>265.4</ele>
        <time>2022-03-22T12:45:04Z</time>
      </trkpt>
      <trkpt lat="46.41711" lon="5.33873">
        <ele>266.6</ele>
        <time>2022-03-22T12:45:10Z</time>
      </trkpt>
      <trkpt lat="46.41706" lon="5.33875">
        <ele>267.2</ele>
        <time>2022-03-22T12:45:12Z</time>
      </trkpt>
      <trkpt lat="46.41701" lon="5.33877">
        <ele>267.6</ele>
        <time>2022-03-22T12:45:14Z</time>
      </trkpt>
      <trkpt lat="46.41695" lon="5.33878">
        <ele>268.2</ele>
        <time>2022-03-22T12:45:16Z</time>
      </trkpt>
      <trkpt lat="46.41691" lon="5.33878">
        <ele>268.2</ele>
        <time>2022-03-22T12:45:17Z</time>
      </trkpt>
      <trkpt lat="46.41681" lon="5.33878">
        <ele>269</ele>
        <time>2022-03-22T12:45:20Z</time>
      </trkpt>
      <trkpt lat="46.41674" lon="5.33878">
        <ele>269.4</ele>
        <time>2022-03-22T12:45:22Z</time>
      </trkpt>
      <trkpt lat="46.41664" lon="5.33877">
        <ele>270.2</ele>
        <time>2022-03-22T12:45:25Z</time>
      </trkpt>
      <trkpt lat="46.41645" lon="5.33878">
        <ele>271</ele>
        <time>2022-03-22T12:45:30Z</time>
      </trkpt>
      <trkpt lat="46.41633" lon="5.3388">
        <ele>271.2</ele>
        <time>2022-03-22T12:45:33Z</time>
      </trkpt>
      <trkpt lat="46.41612" lon="5.33885">
        <ele>271.8</ele>
        <time>2022-03-22T12:45:38Z</time>
      </trkpt>
      <trkpt lat="46.41588" lon="5.33885">
        <ele>272.4</ele>
        <time>2022-03-22T12:45:43Z</time>
      </trkpt>
      <trkpt lat="46.41578" lon="5.33883">
        <ele>272.6</ele>
        <time>2022-03-22T12:45:45Z</time>
      </trkpt>
      <trkpt lat="46.41541" lon="5.33875">
        <ele>272.8</ele>
        <time>2022-03-22T12:45:52Z</time>
      </trkpt>
      <trkpt lat="46.41508" lon="5.33867">
        <ele>272.2</ele>
        <time>2022-03-22T12:45:57Z</time>
      </trkpt>
      <trkpt lat="46.41501" lon="5.33864">
        <ele>272.2</ele>
        <time>2022-03-22T12:45:58Z</time>
      </trkpt>
      <trkpt lat="46.41493" lon="5.33859">
        <ele>272</ele>
        <time>2022-03-22T12:45:59Z</time>
      </trkpt>
      <trkpt lat="46.41481" lon="5.3385">
        <ele>271.4</ele>
        <time>2022-03-22T12:46:01Z</time>
      </trkpt>
      <trkpt lat="46.41467" lon="5.33839">
        <ele>271.2</ele>
        <time>2022-03-22T12:46:03Z</time>
      </trkpt>
      <trkpt lat="46.4146" lon="5.33834">
        <ele>271</ele>
        <time>2022-03-22T12:46:04Z</time>
      </trkpt>
      <trkpt lat="46.41437" lon="5.33826">
        <ele>270.6</ele>
        <time>2022-03-22T12:46:07Z</time>
      </trkpt>
      <trkpt lat="46.41429" lon="5.33823">
        <ele>270.4</ele>
        <time>2022-03-22T12:46:08Z</time>
      </trkpt>
      <trkpt lat="46.41395" lon="5.33814">
        <ele>269.4</ele>
        <time>2022-03-22T12:46:12Z</time>
      </trkpt>
      <trkpt lat="46.4138" lon="5.3381">
        <ele>268.6</ele>
        <time>2022-03-22T12:46:14Z</time>
      </trkpt>
      <trkpt lat="46.4137" lon="5.33807">
        <ele>268.2</ele>
        <time>2022-03-22T12:46:15Z</time>
      </trkpt>
      <trkpt lat="46.41327" lon="5.33792">
        <ele>267</ele>
        <time>2022-03-22T12:46:20Z</time>
      </trkpt>
      <trkpt lat="46.41318" lon="5.33787">
        <ele>266.8</ele>
        <time>2022-03-22T12:46:21Z</time>
      </trkpt>
      <trkpt lat="46.41312" lon="5.33782">
        <ele>266.4</ele>
        <time>2022-03-22T12:46:22Z</time>
      </trkpt>
      <trkpt lat="46.41297" lon="5.33765">
        <ele>266</ele>
        <time>2022-03-22T12:46:24Z</time>
      </trkpt>
      <trkpt lat="46.4129" lon="5.33757">
        <ele>265.4</ele>
        <time>2022-03-22T12:46:25Z</time>
      </trkpt>
      <trkpt lat="46.41275" lon="5.3374">
        <ele>264.2</ele>
        <time>2022-03-22T12:46:27Z</time>
      </trkpt>
      <trkpt lat="46.41251" lon="5.33717">
        <ele>263</ele>
        <time>2022-03-22T12:46:30Z</time>
      </trkpt>
      <trkpt lat="46.41238" lon="5.33705">
        <ele>262.2</ele>
        <time>2022-03-22T12:46:32Z</time>
      </trkpt>
      <trkpt lat="46.4123" lon="5.33698">
        <ele>261.8</ele>
        <time>2022-03-22T12:46:33Z</time>
      </trkpt>
      <trkpt lat="46.41185" lon="5.33658">
        <ele>260.6</ele>
        <time>2022-03-22T12:46:39Z</time>
      </trkpt>
      <trkpt lat="46.41164" lon="5.33639">
        <ele>260</ele>
        <time>2022-03-22T12:46:42Z</time>
      </trkpt>
      <trkpt lat="46.41143" lon="5.3362">
        <ele>259.4</ele>
        <time>2022-03-22T12:46:45Z</time>
      </trkpt>
      <trkpt lat="46.41114" lon="5.33599">
        <ele>259</ele>
        <time>2022-03-22T12:46:49Z</time>
      </trkpt>
      <trkpt lat="46.41078" lon="5.33577">
        <ele>259</ele>
        <time>2022-03-22T12:46:55Z</time>
      </trkpt>
      <trkpt lat="46.4104" lon="5.33564">
        <ele>259.4</ele>
        <time>2022-03-22T12:47:01Z</time>
      </trkpt>
      <trkpt lat="46.41" lon="5.33553">
        <ele>260.6</ele>
        <time>2022-03-22T12:47:08Z</time>
      </trkpt>
      <trkpt lat="46.40972" lon="5.33545">
        <ele>262</ele>
        <time>2022-03-22T12:47:13Z</time>
      </trkpt>
      <trkpt lat="46.40962" lon="5.33542">
        <ele>262.4</ele>
        <time>2022-03-22T12:47:15Z</time>
      </trkpt>
      <trkpt lat="46.40936" lon="5.33536">
        <ele>263</ele>
        <time>2022-03-22T12:47:20Z</time>
      </trkpt>
      <trkpt lat="46.4091" lon="5.33529">
        <ele>263.8</ele>
        <time>2022-03-22T12:47:25Z</time>
      </trkpt>
      <trkpt lat="46.40873" lon="5.33519">
        <ele>263.8</ele>
        <time>2022-03-22T12:47:31Z</time>
      </trkpt>
      <trkpt lat="46.40824" lon="5.33505">
        <ele>262.6</ele>
        <time>2022-03-22T12:47:38Z</time>
      </trkpt>
      <trkpt lat="46.40801" lon="5.33499">
        <ele>261.8</ele>
        <time>2022-03-22T12:47:41Z</time>
      </trkpt>
      <trkpt lat="46.40771" lon="5.33489">
        <ele>260.6</ele>
        <time>2022-03-22T12:47:45Z</time>
      </trkpt>
      <trkpt lat="46.40764" lon="5.33486">
        <ele>260.4</ele>
        <time>2022-03-22T12:47:46Z</time>
      </trkpt>
      <trkpt lat="46.40726" lon="5.33465">
        <ele>259.4</ele>
        <time>2022-03-22T12:47:51Z</time>
      </trkpt>
      <trkpt lat="46.40704" lon="5.33451">
        <ele>258.6</ele>
        <time>2022-03-22T12:47:54Z</time>
      </trkpt>
      <trkpt lat="46.40696" lon="5.33447">
        <ele>258.4</ele>
        <time>2022-03-22T12:47:55Z</time>
      </trkpt>
      <trkpt lat="46.4065" lon="5.33418">
        <ele>256.8</ele>
        <time>2022-03-22T12:48:01Z</time>
      </trkpt>
      <trkpt lat="46.40626" lon="5.33403">
        <ele>255.8</ele>
        <time>2022-03-22T12:48:04Z</time>
      </trkpt>
      <trkpt lat="46.40591" lon="5.33382">
        <ele>254.2</ele>
        <time>2022-03-22T12:48:08Z</time>
      </trkpt>
      <trkpt lat="46.40582" lon="5.33377">
        <ele>254</ele>
        <time>2022-03-22T12:48:09Z</time>
      </trkpt>
      <trkpt lat="46.40565" lon="5.33366">
        <ele>253.2</ele>
        <time>2022-03-22T12:48:11Z</time>
      </trkpt>
      <trkpt lat="46.40533" lon="5.33347">
        <ele>251.8</ele>
        <time>2022-03-22T12:48:15Z</time>
      </trkpt>
      <trkpt lat="46.40523" lon="5.3334">
        <ele>251.4</ele>
        <time>2022-03-22T12:48:16Z</time>
      </trkpt>
      <trkpt lat="46.40515" lon="5.33333">
        <ele>251.2</ele>
        <time>2022-03-22T12:48:17Z</time>
      </trkpt>
      <trkpt lat="46.40503" lon="5.33318">
        <ele>250.6</ele>
        <time>2022-03-22T12:48:19Z</time>
      </trkpt>
      <trkpt lat="46.40489" lon="5.33303">
        <ele>249.6</ele>
        <time>2022-03-22T12:48:21Z</time>
      </trkpt>
      <trkpt lat="46.4048" lon="5.33297">
        <ele>249</ele>
        <time>2022-03-22T12:48:22Z</time>
      </trkpt>
      <trkpt lat="46.40465" lon="5.33291">
        <ele>248.2</ele>
        <time>2022-03-22T12:48:24Z</time>
      </trkpt>
      <trkpt lat="46.40436" lon="5.33275">
        <ele>247.2</ele>
        <time>2022-03-22T12:48:28Z</time>
      </trkpt>
      <trkpt lat="46.40399" lon="5.33239">
        <ele>246.4</ele>
        <time>2022-03-22T12:48:34Z</time>
      </trkpt>
      <trkpt lat="46.40376" lon="5.33208">
        <ele>246.4</ele>
        <time>2022-03-22T12:48:39Z</time>
      </trkpt>
      <trkpt lat="46.40336" lon="5.33152">
        <ele>247.8</ele>
        <time>2022-03-22T12:48:48Z</time>
      </trkpt>
      <trkpt lat="46.40332" lon="5.33145">
        <ele>248</ele>
        <time>2022-03-22T12:48:49Z</time>
      </trkpt>
      <trkpt lat="46.40328" lon="5.3314">
        <ele>248.2</ele>
        <time>2022-03-22T12:48:50Z</time>
      </trkpt>
      <trkpt lat="46.40297" lon="5.33096">
        <ele>249.2</ele>
        <time>2022-03-22T12:48:58Z</time>
      </trkpt>
      <trkpt lat="46.40293" lon="5.3309">
        <ele>249.4</ele>
        <time>2022-03-22T12:48:59Z</time>
      </trkpt>
      <trkpt lat="46.40262" lon="5.33047">
        <ele>249.6</ele>
        <time>2022-03-22T12:49:07Z</time>
      </trkpt>
      <trkpt lat="46.40241" lon="5.33019">
        <ele>249.8</ele>
        <time>2022-03-22T12:49:12Z</time>
      </trkpt>
      <trkpt lat="46.40233" lon="5.33007">
        <ele>249.6</ele>
        <time>2022-03-22T12:49:14Z</time>
      </trkpt>
      <trkpt lat="46.40206" lon="5.32966">
        <ele>249.2</ele>
        <time>2022-03-22T12:49:20Z</time>
      </trkpt>
      <trkpt lat="46.40173" lon="5.32904">
        <ele>249.4</ele>
        <time>2022-03-22T12:49:29Z</time>
      </trkpt>
      <trkpt lat="46.40143" lon="5.3284">
        <ele>249.6</ele>
        <time>2022-03-22T12:49:38Z</time>
      </trkpt>
      <trkpt lat="46.40114" lon="5.32772">
        <ele>249.2</ele>
        <time>2022-03-22T12:49:47Z</time>
      </trkpt>
      <trkpt lat="46.40111" lon="5.32764">
        <ele>249.2</ele>
        <time>2022-03-22T12:49:48Z</time>
      </trkpt>
      <trkpt lat="46.40091" lon="5.32718">
        <ele>249.2</ele>
        <time>2022-03-22T12:49:54Z</time>
      </trkpt>
      <trkpt lat="46.40076" lon="5.32669">
        <ele>249</ele>
        <time>2022-03-22T12:50:00Z</time>
      </trkpt>
      <trkpt lat="46.40071" lon="5.32644">
        <ele>248.4</ele>
        <time>2022-03-22T12:50:03Z</time>
      </trkpt>
      <trkpt lat="46.40069" lon="5.32636">
        <ele>248.4</ele>
        <time>2022-03-22T12:50:04Z</time>
      </trkpt>
      <trkpt lat="46.40065" lon="5.32629">
        <ele>248.2</ele>
        <time>2022-03-22T12:50:05Z</time>
      </trkpt>
      <trkpt lat="46.4006" lon="5.32624">
        <ele>248.2</ele>
        <time>2022-03-22T12:50:06Z</time>
      </trkpt>
      <trkpt lat="46.40048" lon="5.32623">
        <ele>248</ele>
        <time>2022-03-22T12:50:08Z</time>
      </trkpt>
      <trkpt lat="46.40024" lon="5.32636">
        <ele>248</ele>
        <time>2022-03-22T12:50:12Z</time>
      </trkpt>
      <trkpt lat="46.3998" lon="5.32659">
        <ele>248</ele>
        <time>2022-03-22T12:50:19Z</time>
      </trkpt>
      <trkpt lat="46.39947" lon="5.32674">
        <ele>247.4</ele>
        <time>2022-03-22T12:50:24Z</time>
      </trkpt>
      <trkpt lat="46.39919" lon="5.32687">
        <ele>247</ele>
        <time>2022-03-22T12:50:28Z</time>
      </trkpt>
      <trkpt lat="46.39892" lon="5.327">
        <ele>246.4</ele>
        <time>2022-03-22T12:50:32Z</time>
      </trkpt>
      <trkpt lat="46.39849" lon="5.32718">
        <ele>245.4</ele>
        <time>2022-03-22T12:50:38Z</time>
      </trkpt>
      <trkpt lat="46.39836" lon="5.32725">
        <ele>245.2</ele>
        <time>2022-03-22T12:50:40Z</time>
      </trkpt>
      <trkpt lat="46.398" lon="5.32742">
        <ele>244.2</ele>
        <time>2022-03-22T12:50:45Z</time>
      </trkpt>
      <trkpt lat="46.39777" lon="5.32752">
        <ele>243.2</ele>
        <time>2022-03-22T12:50:48Z</time>
      </trkpt>
      <trkpt lat="46.39762" lon="5.3276">
        <ele>242.6</ele>
        <time>2022-03-22T12:50:50Z</time>
      </trkpt>
      <trkpt lat="46.39747" lon="5.32769">
        <ele>242.2</ele>
        <time>2022-03-22T12:50:52Z</time>
      </trkpt>
      <trkpt lat="46.39723" lon="5.32783">
        <ele>241</ele>
        <time>2022-03-22T12:50:55Z</time>
      </trkpt>
      <trkpt lat="46.39714" lon="5.32787">
        <ele>240.8</ele>
        <time>2022-03-22T12:50:56Z</time>
      </trkpt>
      <trkpt lat="46.39689" lon="5.32802">
        <ele>240</ele>
        <time>2022-03-22T12:50:59Z</time>
      </trkpt>
      <trkpt lat="46.39663" lon="5.32816">
        <ele>238.4</ele>
        <time>2022-03-22T12:51:02Z</time>
      </trkpt>
      <trkpt lat="46.39653" lon="5.3282">
        <ele>238.2</ele>
        <time>2022-03-22T12:51:03Z</time>
      </trkpt>
      <trkpt lat="46.39624" lon="5.32827">
        <ele>237.2</ele>
        <time>2022-03-22T12:51:06Z</time>
      </trkpt>
      <trkpt lat="46.39604" lon="5.32832">
        <ele>235.6</ele>
        <time>2022-03-22T12:51:08Z</time>
      </trkpt>
      <trkpt lat="46.39585" lon="5.3284">
        <ele>234.6</ele>
        <time>2022-03-22T12:51:10Z</time>
      </trkpt>
      <trkpt lat="46.3956" lon="5.32854">
        <ele>233.6</ele>
        <time>2022-03-22T12:51:13Z</time>
      </trkpt>
      <trkpt lat="46.39552" lon="5.32859">
        <ele>233.6</ele>
        <time>2022-03-22T12:51:14Z</time>
      </trkpt>
      <trkpt lat="46.39514" lon="5.32877">
        <ele>233.2</ele>
        <time>2022-03-22T12:51:19Z</time>
      </trkpt>
      <trkpt lat="46.39482" lon="5.3289">
        <ele>232.6</ele>
        <time>2022-03-22T12:51:23Z</time>
      </trkpt>
      <trkpt lat="46.3944" lon="5.32904">
        <ele>231.2</ele>
        <time>2022-03-22T12:51:28Z</time>
      </trkpt>
      <trkpt lat="46.39422" lon="5.32909">
        <ele>230.6</ele>
        <time>2022-03-22T12:51:30Z</time>
      </trkpt>
      <trkpt lat="46.39413" lon="5.32909">
        <ele>230</ele>
        <time>2022-03-22T12:51:31Z</time>
      </trkpt>
      <trkpt lat="46.39404" lon="5.32908">
        <ele>229.4</ele>
        <time>2022-03-22T12:51:32Z</time>
      </trkpt>
      <trkpt lat="46.39395" lon="5.32906">
        <ele>229</ele>
        <time>2022-03-22T12:51:33Z</time>
      </trkpt>
      <trkpt lat="46.39386" lon="5.32901">
        <ele>228.4</ele>
        <time>2022-03-22T12:51:34Z</time>
      </trkpt>
      <trkpt lat="46.39372" lon="5.3289">
        <ele>227.6</ele>
        <time>2022-03-22T12:51:36Z</time>
      </trkpt>
      <trkpt lat="46.39362" lon="5.32883">
        <ele>226.8</ele>
        <time>2022-03-22T12:51:38Z</time>
      </trkpt>
      <trkpt lat="46.39357" lon="5.32883">
        <ele>226.2</ele>
        <time>2022-03-22T12:51:39Z</time>
      </trkpt>
      <trkpt lat="46.39349" lon="5.32895">
        <ele>225.8</ele>
        <time>2022-03-22T12:51:41Z</time>
      </trkpt>
      <trkpt lat="46.39345" lon="5.32914">
        <ele>225.4</ele>
        <time>2022-03-22T12:51:43Z</time>
      </trkpt>
      <trkpt lat="46.39341" lon="5.32923">
        <ele>225.2</ele>
        <time>2022-03-22T12:51:44Z</time>
      </trkpt>
      <trkpt lat="46.39335" lon="5.32929">
        <ele>225</ele>
        <time>2022-03-22T12:51:45Z</time>
      </trkpt>
      <trkpt lat="46.39314" lon="5.3294">
        <ele>224</ele>
        <time>2022-03-22T12:51:48Z</time>
      </trkpt>
      <trkpt lat="46.39292" lon="5.32952">
        <ele>222.8</ele>
        <time>2022-03-22T12:51:51Z</time>
      </trkpt>
      <trkpt lat="46.39254" lon="5.3297">
        <ele>221.8</ele>
        <time>2022-03-22T12:51:56Z</time>
      </trkpt>
      <trkpt lat="46.39246" lon="5.32974">
        <ele>221.6</ele>
        <time>2022-03-22T12:51:57Z</time>
      </trkpt>
      <trkpt lat="46.39194" lon="5.32996">
        <ele>220.8</ele>
        <time>2022-03-22T12:52:04Z</time>
      </trkpt>
      <trkpt lat="46.39143" lon="5.33013">
        <ele>220.4</ele>
        <time>2022-03-22T12:52:11Z</time>
      </trkpt>
      <trkpt lat="46.39128" lon="5.33017">
        <ele>220.4</ele>
        <time>2022-03-22T12:52:13Z</time>
      </trkpt>
      <trkpt lat="46.39086" lon="5.33022">
        <ele>220.4</ele>
        <time>2022-03-22T12:52:19Z</time>
      </trkpt>
      <trkpt lat="46.3904" lon="5.33009">
        <ele>220.6</ele>
        <time>2022-03-22T12:52:26Z</time>
      </trkpt>
      <trkpt lat="46.38987" lon="5.32989">
        <ele>220.8</ele>
        <time>2022-03-22T12:52:34Z</time>
      </trkpt>
      <trkpt lat="46.38973" lon="5.32984">
        <ele>220.6</ele>
        <time>2022-03-22T12:52:36Z</time>
      </trkpt>
      <trkpt lat="46.38918" lon="5.32964">
        <ele>220.2</ele>
        <time>2022-03-22T12:52:44Z</time>
      </trkpt>
      <trkpt lat="46.38912" lon="5.32962">
        <ele>220</ele>
        <time>2022-03-22T12:52:45Z</time>
      </trkpt>
      <trkpt lat="46.38864" lon="5.32942">
        <ele>219.4</ele>
        <time>2022-03-22T12:52:52Z</time>
      </trkpt>
      <trkpt lat="46.38851" lon="5.32937">
        <ele>219</ele>
        <time>2022-03-22T12:52:54Z</time>
      </trkpt>
      <trkpt lat="46.38805" lon="5.32918">
        <ele>219.2</ele>
        <time>2022-03-22T12:53:01Z</time>
      </trkpt>
      <trkpt lat="46.3878" lon="5.32908">
        <ele>219</ele>
        <time>2022-03-22T12:53:05Z</time>
      </trkpt>
      <trkpt lat="46.38771" lon="5.32896">
        <ele>219.2</ele>
        <time>2022-03-22T12:53:07Z</time>
      </trkpt>
      <trkpt lat="46.38765" lon="5.32878">
        <ele>219.2</ele>
        <time>2022-03-22T12:53:09Z</time>
      </trkpt>
      <trkpt lat="46.38763" lon="5.32866">
        <ele>219</ele>
        <time>2022-03-22T12:53:10Z</time>
      </trkpt>
      <trkpt lat="46.38762" lon="5.32858">
        <ele>219</ele>
        <time>2022-03-22T12:53:11Z</time>
      </trkpt>
      <trkpt lat="46.38765" lon="5.32828">
        <ele>218.8</ele>
        <time>2022-03-22T12:53:14Z</time>
      </trkpt>
      <trkpt lat="46.38777" lon="5.32779">
        <ele>218.4</ele>
        <time>2022-03-22T12:53:19Z</time>
      </trkpt>
      <trkpt lat="46.38788" lon="5.32741">
        <ele>218.4</ele>
        <time>2022-03-22T12:53:23Z</time>
      </trkpt>
      <trkpt lat="46.38791" lon="5.32722">
        <ele>218.4</ele>
        <time>2022-03-22T12:53:25Z</time>
      </trkpt>
      <trkpt lat="46.38792" lon="5.32712">
        <ele>218.4</ele>
        <time>2022-03-22T12:53:26Z</time>
      </trkpt>
      <trkpt lat="46.38789" lon="5.32656">
        <ele>218</ele>
        <time>2022-03-22T12:53:32Z</time>
      </trkpt>
      <trkpt lat="46.38783" lon="5.32642">
        <ele>217.8</ele>
        <time>2022-03-22T12:53:34Z</time>
      </trkpt>
      <trkpt lat="46.38779" lon="5.32637">
        <ele>217.8</ele>
        <time>2022-03-22T12:53:35Z</time>
      </trkpt>
      <trkpt lat="46.38774" lon="5.32633">
        <ele>217.8</ele>
        <time>2022-03-22T12:53:36Z</time>
      </trkpt>
      <trkpt lat="46.38756" lon="5.3262">
        <ele>217.8</ele>
        <time>2022-03-22T12:53:39Z</time>
      </trkpt>
      <trkpt lat="46.3871" lon="5.32581">
        <ele>218</ele>
        <time>2022-03-22T12:53:47Z</time>
      </trkpt>
      <trkpt lat="46.38675" lon="5.32546">
        <ele>218.4</ele>
        <time>2022-03-22T12:53:54Z</time>
      </trkpt>
      <trkpt lat="46.38637" lon="5.32512">
        <ele>218.4</ele>
        <time>2022-03-22T12:54:01Z</time>
      </trkpt>
      <trkpt lat="46.38608" lon="5.3249">
        <ele>218.2</ele>
        <time>2022-03-22T12:54:06Z</time>
      </trkpt>
      <trkpt lat="46.38591" lon="5.32475">
        <ele>217.8</ele>
        <time>2022-03-22T12:54:09Z</time>
      </trkpt>
      <trkpt lat="46.38551" lon="5.32436">
        <ele>217.2</ele>
        <time>2022-03-22T12:54:16Z</time>
      </trkpt>
      <trkpt lat="46.38545" lon="5.32431">
        <ele>217.2</ele>
        <time>2022-03-22T12:54:17Z</time>
      </trkpt>
      <trkpt lat="46.38508" lon="5.32394">
        <ele>216.8</ele>
        <time>2022-03-22T12:54:23Z</time>
      </trkpt>
      <trkpt lat="46.38497" lon="5.32382">
        <ele>216.6</ele>
        <time>2022-03-22T12:54:25Z</time>
      </trkpt>
      <trkpt lat="46.38485" lon="5.32373">
        <ele>216.6</ele>
        <time>2022-03-22T12:54:27Z</time>
      </trkpt>
      <trkpt lat="46.38461" lon="5.32363">
        <ele>216.6</ele>
        <time>2022-03-22T12:54:31Z</time>
      </trkpt>
      <trkpt lat="46.38454" lon="5.32363">
        <ele>216.6</ele>
        <time>2022-03-22T12:54:32Z</time>
      </trkpt>
      <trkpt lat="46.38448" lon="5.32364">
        <ele>216.6</ele>
        <time>2022-03-22T12:54:33Z</time>
      </trkpt>
      <trkpt lat="46.38436" lon="5.32373">
        <ele>216.6</ele>
        <time>2022-03-22T12:54:35Z</time>
      </trkpt>
      <trkpt lat="46.38419" lon="5.32401">
        <ele>216.4</ele>
        <time>2022-03-22T12:54:39Z</time>
      </trkpt>
      <trkpt lat="46.38413" lon="5.32417">
        <ele>216.4</ele>
        <time>2022-03-22T12:54:41Z</time>
      </trkpt>
      <trkpt lat="46.38407" lon="5.32444">
        <ele>216.4</ele>
        <time>2022-03-22T12:54:44Z</time>
      </trkpt>
      <trkpt lat="46.38402" lon="5.32471">
        <ele>216.4</ele>
        <time>2022-03-22T12:54:47Z</time>
      </trkpt>
      <trkpt lat="46.38396" lon="5.32488">
        <ele>216.2</ele>
        <time>2022-03-22T12:54:49Z</time>
      </trkpt>
      <trkpt lat="46.38391" lon="5.32496">
        <ele>216.2</ele>
        <time>2022-03-22T12:54:50Z</time>
      </trkpt>
      <trkpt lat="46.38385" lon="5.32502">
        <ele>216.2</ele>
        <time>2022-03-22T12:54:51Z</time>
      </trkpt>
      <trkpt lat="46.38371" lon="5.32505">
        <ele>216</ele>
        <time>2022-03-22T12:54:53Z</time>
      </trkpt>
      <trkpt lat="46.38338" lon="5.32496">
        <ele>216</ele>
        <time>2022-03-22T12:54:58Z</time>
      </trkpt>
      <trkpt lat="46.383" lon="5.32481">
        <ele>215.8</ele>
        <time>2022-03-22T12:55:04Z</time>
      </trkpt>
      <trkpt lat="46.38261" lon="5.32473">
        <ele>215.8</ele>
        <time>2022-03-22T12:55:10Z</time>
      </trkpt>
      <trkpt lat="46.38236" lon="5.32469">
        <ele>215.8</ele>
        <time>2022-03-22T12:55:14Z</time>
      </trkpt>
      <trkpt lat="46.38224" lon="5.32462">
        <ele>215.8</ele>
        <time>2022-03-22T12:55:16Z</time>
      </trkpt>
      <trkpt lat="46.38188" lon="5.3243">
        <ele>215.6</ele>
        <time>2022-03-22T12:55:22Z</time>
      </trkpt>
      <trkpt lat="46.38141" lon="5.32387">
        <ele>215.6</ele>
        <time>2022-03-22T12:55:30Z</time>
      </trkpt>
      <trkpt lat="46.3813" lon="5.32376">
        <ele>215.6</ele>
        <time>2022-03-22T12:55:32Z</time>
      </trkpt>
      <trkpt lat="46.38111" lon="5.32346">
        <ele>215.8</ele>
        <time>2022-03-22T12:55:36Z</time>
      </trkpt>
      <trkpt lat="46.38106" lon="5.32338">
        <ele>215.8</ele>
        <time>2022-03-22T12:55:37Z</time>
      </trkpt>
      <trkpt lat="46.38094" lon="5.32312">
        <ele>215.8</ele>
        <time>2022-03-22T12:55:40Z</time>
      </trkpt>
      <trkpt lat="46.38081" lon="5.32288">
        <ele>215.8</ele>
        <time>2022-03-22T12:55:43Z</time>
      </trkpt>
      <trkpt lat="46.38076" lon="5.32282">
        <ele>215.8</ele>
        <time>2022-03-22T12:55:44Z</time>
      </trkpt>
      <trkpt lat="46.38061" lon="5.3227">
        <ele>215.8</ele>
        <time>2022-03-22T12:55:47Z</time>
      </trkpt>
      <trkpt lat="46.38053" lon="5.32263">
        <ele>215.8</ele>
        <time>2022-03-22T12:55:49Z</time>
      </trkpt>
      <trkpt lat="46.38047" lon="5.3225">
        <ele>216.2</ele>
        <time>2022-03-22T12:55:51Z</time>
      </trkpt>
      <trkpt lat="46.38041" lon="5.32226">
        <ele>217</ele>
        <time>2022-03-22T12:55:54Z</time>
      </trkpt>
      <trkpt lat="46.38039" lon="5.32217">
        <ele>217.2</ele>
        <time>2022-03-22T12:55:55Z</time>
      </trkpt>
      <trkpt lat="46.38037" lon="5.32208">
        <ele>217.2</ele>
        <time>2022-03-22T12:55:56Z</time>
      </trkpt>
      <trkpt lat="46.3802" lon="5.32144">
        <ele>217.2</ele>
        <time>2022-03-22T12:56:03Z</time>
      </trkpt>
      <trkpt lat="46.37998" lon="5.321">
        <ele>216.6</ele>
        <time>2022-03-22T12:56:08Z</time>
      </trkpt>
      <trkpt lat="46.37981" lon="5.32075">
        <ele>216.2</ele>
        <time>2022-03-22T12:56:11Z</time>
      </trkpt>
      <trkpt lat="46.37962" lon="5.3204">
        <ele>215.6</ele>
        <time>2022-03-22T12:56:15Z</time>
      </trkpt>
      <trkpt lat="46.37946" lon="5.3199">
        <ele>215.2</ele>
        <time>2022-03-22T12:56:20Z</time>
      </trkpt>
      <trkpt lat="46.37944" lon="5.3198">
        <ele>215.2</ele>
        <time>2022-03-22T12:56:21Z</time>
      </trkpt>
      <trkpt lat="46.37934" lon="5.31936">
        <ele>215</ele>
        <time>2022-03-22T12:56:26Z</time>
      </trkpt>
      <trkpt lat="46.37916" lon="5.31889">
        <ele>215.2</ele>
        <time>2022-03-22T12:56:32Z</time>
      </trkpt>
      <trkpt lat="46.37885" lon="5.31839">
        <ele>214.8</ele>
        <time>2022-03-22T12:56:39Z</time>
      </trkpt>
      <trkpt lat="46.37846" lon="5.31781">
        <ele>214.2</ele>
        <time>2022-03-22T12:56:47Z</time>
      </trkpt>
      <trkpt lat="46.37808" lon="5.31725">
        <ele>214.4</ele>
        <time>2022-03-22T12:56:55Z</time>
      </trkpt>
      <trkpt lat="46.37799" lon="5.31711">
        <ele>214.2</ele>
        <time>2022-03-22T12:56:57Z</time>
      </trkpt>
      <trkpt lat="46.37789" lon="5.31698">
        <ele>214</ele>
        <time>2022-03-22T12:56:59Z</time>
      </trkpt>
      <trkpt lat="46.37763" lon="5.31658">
        <ele>214</ele>
        <time>2022-03-22T12:57:05Z</time>
      </trkpt>
      <trkpt lat="46.37731" lon="5.31611">
        <ele>213.4</ele>
        <time>2022-03-22T12:57:12Z</time>
      </trkpt>
      <trkpt lat="46.37695" lon="5.3156">
        <ele>213.2</ele>
        <time>2022-03-22T12:57:20Z</time>
      </trkpt>
      <trkpt lat="46.37656" lon="5.31504">
        <ele>212.8</ele>
        <time>2022-03-22T12:57:29Z</time>
      </trkpt>
      <trkpt lat="46.37651" lon="5.31497">
        <ele>212.6</ele>
        <time>2022-03-22T12:57:30Z</time>
      </trkpt>
      <trkpt lat="46.37613" lon="5.31442">
        <ele>212.4</ele>
        <time>2022-03-22T12:57:39Z</time>
      </trkpt>
      <trkpt lat="46.37604" lon="5.31429">
        <ele>212.2</ele>
        <time>2022-03-22T12:57:41Z</time>
      </trkpt>
      <trkpt lat="46.37566" lon="5.31373">
        <ele>212.2</ele>
        <time>2022-03-22T12:57:50Z</time>
      </trkpt>
      <trkpt lat="46.37528" lon="5.31319">
        <ele>212.6</ele>
        <time>2022-03-22T12:57:59Z</time>
      </trkpt>
      <trkpt lat="46.37489" lon="5.31264">
        <ele>212.6</ele>
        <time>2022-03-22T12:58:08Z</time>
      </trkpt>
      <trkpt lat="46.37481" lon="5.31251">
        <ele>212.6</ele>
        <time>2022-03-22T12:58:10Z</time>
      </trkpt>
      <trkpt lat="46.37439" lon="5.31191">
        <ele>212.8</ele>
        <time>2022-03-22T12:58:20Z</time>
      </trkpt>
      <trkpt lat="46.37401" lon="5.31133">
        <ele>212.6</ele>
        <time>2022-03-22T12:58:29Z</time>
      </trkpt>
      <trkpt lat="46.37392" lon="5.3112">
        <ele>212.4</ele>
        <time>2022-03-22T12:58:31Z</time>
      </trkpt>
      <trkpt lat="46.37368" lon="5.31085">
        <ele>211.8</ele>
        <time>2022-03-22T12:58:36Z</time>
      </trkpt>
      <trkpt lat="46.37349" lon="5.31057">
        <ele>211.2</ele>
        <time>2022-03-22T12:58:40Z</time>
      </trkpt>
      <trkpt lat="46.37313" lon="5.31006">
        <ele>211</ele>
        <time>2022-03-22T12:58:48Z</time>
      </trkpt>
      <trkpt lat="46.37275" lon="5.30951">
        <ele>210.8</ele>
        <time>2022-03-22T12:58:57Z</time>
      </trkpt>
      <trkpt lat="46.37271" lon="5.30945">
        <ele>210.8</ele>
        <time>2022-03-22T12:58:58Z</time>
      </trkpt>
      <trkpt lat="46.3725" lon="5.30914">
        <ele>210.8</ele>
        <time>2022-03-22T12:59:03Z</time>
      </trkpt>
      <trkpt lat="46.37232" lon="5.30889">
        <ele>210.8</ele>
        <time>2022-03-22T12:59:07Z</time>
      </trkpt>
      <trkpt lat="46.37202" lon="5.30844">
        <ele>210.6</ele>
        <time>2022-03-22T12:59:14Z</time>
      </trkpt>
      <trkpt lat="46.37167" lon="5.30783">
        <ele>210.6</ele>
        <time>2022-03-22T12:59:23Z</time>
      </trkpt>
      <trkpt lat="46.37143" lon="5.3072">
        <ele>210.4</ele>
        <time>2022-03-22T12:59:31Z</time>
      </trkpt>
      <trkpt lat="46.37123" lon="5.30644">
        <ele>210.2</ele>
        <time>2022-03-22T12:59:40Z</time>
      </trkpt>
      <trkpt lat="46.37114" lon="5.30584">
        <ele>210</ele>
        <time>2022-03-22T12:59:47Z</time>
      </trkpt>
      <trkpt lat="46.37117" lon="5.3052">
        <ele>210.2</ele>
        <time>2022-03-22T12:59:54Z</time>
      </trkpt>
      <trkpt lat="46.37124" lon="5.30442">
        <ele>210.6</ele>
        <time>2022-03-22T13:00:03Z</time>
      </trkpt>
      <trkpt lat="46.37129" lon="5.30385">
        <ele>210.8</ele>
        <time>2022-03-22T13:00:10Z</time>
      </trkpt>
      <trkpt lat="46.37133" lon="5.3033">
        <ele>211.2</ele>
        <time>2022-03-22T13:00:17Z</time>
      </trkpt>
      <trkpt lat="46.37141" lon="5.30263">
        <ele>211.6</ele>
        <time>2022-03-22T13:00:26Z</time>
      </trkpt>
      <trkpt lat="46.37143" lon="5.30256">
        <ele>211.6</ele>
        <time>2022-03-22T13:00:27Z</time>
      </trkpt>
      <trkpt lat="46.37149" lon="5.30245">
        <ele>211.6</ele>
        <time>2022-03-22T13:00:29Z</time>
      </trkpt>
      <trkpt lat="46.37152" lon="5.3024">
        <ele>211.8</ele>
        <time>2022-03-22T13:00:30Z</time>
      </trkpt>
      <trkpt lat="46.37155" lon="5.30235">
        <ele>211.8</ele>
        <time>2022-03-22T13:00:31Z</time>
      </trkpt>
      <trkpt lat="46.37163" lon="5.30227">
        <ele>212</ele>
        <time>2022-03-22T13:00:33Z</time>
      </trkpt>
      <trkpt lat="46.37167" lon="5.30224">
        <ele>212.2</ele>
        <time>2022-03-22T13:00:34Z</time>
      </trkpt>
      <trkpt lat="46.37172" lon="5.30221">
        <ele>212.4</ele>
        <time>2022-03-22T13:00:35Z</time>
      </trkpt>
      <trkpt lat="46.37189" lon="5.30213">
        <ele>213.4</ele>
        <time>2022-03-22T13:00:39Z</time>
      </trkpt>
      <trkpt lat="46.37203" lon="5.30206">
        <ele>214.6</ele>
        <time>2022-03-22T13:00:43Z</time>
      </trkpt>
      <trkpt lat="46.37226" lon="5.30195">
        <ele>215.8</ele>
        <time>2022-03-22T13:00:50Z</time>
      </trkpt>
      <trkpt lat="46.37243" lon="5.30182">
        <ele>217</ele>
        <time>2022-03-22T13:00:56Z</time>
      </trkpt>
      <trkpt lat="46.37248" lon="5.30176">
        <ele>217.2</ele>
        <time>2022-03-22T13:00:58Z</time>
      </trkpt>
      <trkpt lat="46.37256" lon="5.30161">
        <ele>218</ele>
        <time>2022-03-22T13:01:02Z</time>
      </trkpt>
      <trkpt lat="46.37258" lon="5.30156">
        <ele>218.2</ele>
        <time>2022-03-22T13:01:03Z</time>
      </trkpt>
      <trkpt lat="46.37262" lon="5.30132">
        <ele>219.2</ele>
        <time>2022-03-22T13:01:08Z</time>
      </trkpt>
      <trkpt lat="46.37262" lon="5.30122">
        <ele>219.6</ele>
        <time>2022-03-22T13:01:10Z</time>
      </trkpt>
      <trkpt lat="46.37262" lon="5.30101">
        <ele>220.2</ele>
        <time>2022-03-22T13:01:14Z</time>
      </trkpt>
      <trkpt lat="46.3726" lon="5.30071">
        <ele>221.6</ele>
        <time>2022-03-22T13:01:20Z</time>
      </trkpt>
      <trkpt lat="46.37259" lon="5.30056">
        <ele>222.2</ele>
        <time>2022-03-22T13:01:23Z</time>
      </trkpt>
      <trkpt lat="46.37259" lon="5.30035">
        <ele>222.8</ele>
        <time>2022-03-22T13:01:27Z</time>
      </trkpt>
      <trkpt lat="46.3726" lon="5.30011">
        <ele>223.6</ele>
        <time>2022-03-22T13:01:32Z</time>
      </trkpt>
      <trkpt lat="46.37261" lon="5.30006">
        <ele>223.8</ele>
        <time>2022-03-22T13:01:33Z</time>
      </trkpt>
      <trkpt lat="46.3727" lon="5.2999">
        <ele>224.4</ele>
        <time>2022-03-22T13:01:37Z</time>
      </trkpt>
      <trkpt lat="46.37276" lon="5.29984">
        <ele>224.8</ele>
        <time>2022-03-22T13:01:39Z</time>
      </trkpt>
      <trkpt lat="46.3729" lon="5.29976">
        <ele>225.6</ele>
        <time>2022-03-22T13:01:43Z</time>
      </trkpt>
      <trkpt lat="46.37296" lon="5.29973">
        <ele>226</ele>
        <time>2022-03-22T13:01:45Z</time>
      </trkpt>
      <trkpt lat="46.37311" lon="5.2996">
        <ele>227.2</ele>
        <time>2022-03-22T13:01:50Z</time>
      </trkpt>
      <trkpt lat="46.37317" lon="5.29944">
        <ele>228.2</ele>
        <time>2022-03-22T13:01:54Z</time>
      </trkpt>
      <trkpt lat="46.37317" lon="5.29938">
        <ele>228.2</ele>
        <time>2022-03-22T13:01:55Z</time>
      </trkpt>
      <trkpt lat="46.37314" lon="5.29925">
        <ele>228.8</ele>
        <time>2022-03-22T13:01:58Z</time>
      </trkpt>
      <trkpt lat="46.37306" lon="5.29915">
        <ele>229.4</ele>
        <time>2022-03-22T13:02:01Z</time>
      </trkpt>
      <trkpt lat="46.373" lon="5.2991">
        <ele>229.8</ele>
        <time>2022-03-22T13:02:03Z</time>
      </trkpt>
      <trkpt lat="46.3729" lon="5.29905">
        <ele>230.6</ele>
        <time>2022-03-22T13:02:06Z</time>
      </trkpt>
      <trkpt lat="46.37276" lon="5.29902">
        <ele>231.4</ele>
        <time>2022-03-22T13:02:10Z</time>
      </trkpt>
      <trkpt lat="46.37272" lon="5.29903">
        <ele>231.6</ele>
        <time>2022-03-22T13:02:11Z</time>
      </trkpt>
      <trkpt lat="46.37251" lon="5.29907">
        <ele>233</ele>
        <time>2022-03-22T13:02:17Z</time>
      </trkpt>
      <trkpt lat="46.37238" lon="5.29909">
        <ele>234</ele>
        <time>2022-03-22T13:02:21Z</time>
      </trkpt>
      <trkpt lat="46.37219" lon="5.29917">
        <ele>234.8</ele>
        <time>2022-03-22T13:02:26Z</time>
      </trkpt>
      <trkpt lat="46.37207" lon="5.29924">
        <ele>235.2</ele>
        <time>2022-03-22T13:02:29Z</time>
      </trkpt>
      <trkpt lat="46.37199" lon="5.29927">
        <ele>235.4</ele>
        <time>2022-03-22T13:02:31Z</time>
      </trkpt>
      <trkpt lat="46.3719" lon="5.29928">
        <ele>235.6</ele>
        <time>2022-03-22T13:02:33Z</time>
      </trkpt>
      <trkpt lat="46.37176" lon="5.29927">
        <ele>236.2</ele>
        <time>2022-03-22T13:02:36Z</time>
      </trkpt>
      <trkpt lat="46.37168" lon="5.29924">
        <ele>236.2</ele>
        <time>2022-03-22T13:02:38Z</time>
      </trkpt>
      <trkpt lat="46.37164" lon="5.29922">
        <ele>236.2</ele>
        <time>2022-03-22T13:02:39Z</time>
      </trkpt>
      <trkpt lat="46.37129" lon="5.29901">
        <ele>236.6</ele>
        <time>2022-03-22T13:02:47Z</time>
      </trkpt>
      <trkpt lat="46.371" lon="5.29879">
        <ele>236.2</ele>
        <time>2022-03-22T13:02:52Z</time>
      </trkpt>
      <trkpt lat="46.37067" lon="5.29855">
        <ele>235</ele>
        <time>2022-03-22T13:02:57Z</time>
      </trkpt>
      <trkpt lat="46.37061" lon="5.2985">
        <ele>234.6</ele>
        <time>2022-03-22T13:02:58Z</time>
      </trkpt>
      <trkpt lat="46.37041" lon="5.29835">
        <ele>233.8</ele>
        <time>2022-03-22T13:03:01Z</time>
      </trkpt>
      <trkpt lat="46.37019" lon="5.2982">
        <ele>233.2</ele>
        <time>2022-03-22T13:03:04Z</time>
      </trkpt>
      <trkpt lat="46.37003" lon="5.29817">
        <ele>232.6</ele>
        <time>2022-03-22T13:03:06Z</time>
      </trkpt>
      <trkpt lat="46.36987" lon="5.29817">
        <ele>232.4</ele>
        <time>2022-03-22T13:03:08Z</time>
      </trkpt>
      <trkpt lat="46.36973" lon="5.29816">
        <ele>232.2</ele>
        <time>2022-03-22T13:03:10Z</time>
      </trkpt>
      <trkpt lat="46.36959" lon="5.29813">
        <ele>232.2</ele>
        <time>2022-03-22T13:03:12Z</time>
      </trkpt>
      <trkpt lat="46.3694" lon="5.2981">
        <ele>232.8</ele>
        <time>2022-03-22T13:03:15Z</time>
      </trkpt>
      <trkpt lat="46.36928" lon="5.29809">
        <ele>233.2</ele>
        <time>2022-03-22T13:03:17Z</time>
      </trkpt>
      <trkpt lat="46.36912" lon="5.29811">
        <ele>233.8</ele>
        <time>2022-03-22T13:03:20Z</time>
      </trkpt>
      <trkpt lat="46.36891" lon="5.29816">
        <ele>235</ele>
        <time>2022-03-22T13:03:24Z</time>
      </trkpt>
      <trkpt lat="46.36879" lon="5.29819">
        <ele>235.6</ele>
        <time>2022-03-22T13:03:26Z</time>
      </trkpt>
      <trkpt lat="46.36869" lon="5.29824">
        <ele>236</ele>
        <time>2022-03-22T13:03:28Z</time>
      </trkpt>
      <trkpt lat="46.36855" lon="5.2983">
        <ele>236.8</ele>
        <time>2022-03-22T13:03:31Z</time>
      </trkpt>
      <trkpt lat="46.36844" lon="5.29833">
        <ele>237.2</ele>
        <time>2022-03-22T13:03:33Z</time>
      </trkpt>
      <trkpt lat="46.36819" lon="5.29841">
        <ele>238.6</ele>
        <time>2022-03-22T13:03:38Z</time>
      </trkpt>
      <trkpt lat="46.36813" lon="5.29842">
        <ele>238.6</ele>
        <time>2022-03-22T13:03:39Z</time>
      </trkpt>
      <trkpt lat="46.36808" lon="5.29842">
        <ele>238.8</ele>
        <time>2022-03-22T13:03:40Z</time>
      </trkpt>
      <trkpt lat="46.36795" lon="5.2984">
        <ele>238.8</ele>
        <time>2022-03-22T13:03:42Z</time>
      </trkpt>
      <trkpt lat="46.36789" lon="5.29838">
        <ele>238.8</ele>
        <time>2022-03-22T13:03:43Z</time>
      </trkpt>
      <trkpt lat="46.36757" lon="5.2982">
        <ele>238.4</ele>
        <time>2022-03-22T13:03:48Z</time>
      </trkpt>
      <trkpt lat="46.36707" lon="5.2978">
        <ele>237.8</ele>
        <time>2022-03-22T13:03:56Z</time>
      </trkpt>
      <trkpt lat="46.36682" lon="5.2976">
        <ele>237.6</ele>
        <time>2022-03-22T13:04:00Z</time>
      </trkpt>
      <trkpt lat="46.36663" lon="5.2975">
        <ele>237.4</ele>
        <time>2022-03-22T13:04:03Z</time>
      </trkpt>
      <trkpt lat="46.36611" lon="5.29722">
        <ele>237.2</ele>
        <time>2022-03-22T13:04:12Z</time>
      </trkpt>
      <trkpt lat="46.36562" lon="5.29699">
        <ele>237.6</ele>
        <time>2022-03-22T13:04:21Z</time>
      </trkpt>
      <trkpt lat="46.36511" lon="5.29679">
        <ele>238</ele>
        <time>2022-03-22T13:04:30Z</time>
      </trkpt>
      <trkpt lat="46.36458" lon="5.29652">
        <ele>238</ele>
        <time>2022-03-22T13:04:39Z</time>
      </trkpt>
      <trkpt lat="46.3641" lon="5.29618">
        <ele>238.4</ele>
        <time>2022-03-22T13:04:48Z</time>
      </trkpt>
      <trkpt lat="46.36382" lon="5.29592">
        <ele>238.8</ele>
        <time>2022-03-22T13:04:54Z</time>
      </trkpt>
      <trkpt lat="46.36374" lon="5.29582">
        <ele>238.8</ele>
        <time>2022-03-22T13:04:56Z</time>
      </trkpt>
      <trkpt lat="46.36352" lon="5.29539">
        <ele>239.6</ele>
        <time>2022-03-22T13:05:03Z</time>
      </trkpt>
      <trkpt lat="46.36349" lon="5.29533">
        <ele>239.8</ele>
        <time>2022-03-22T13:05:04Z</time>
      </trkpt>
      <trkpt lat="46.3634" lon="5.29521">
        <ele>239.8</ele>
        <time>2022-03-22T13:05:06Z</time>
      </trkpt>
      <trkpt lat="46.36326" lon="5.29505">
        <ele>239.8</ele>
        <time>2022-03-22T13:05:09Z</time>
      </trkpt>
      <trkpt lat="46.36291" lon="5.29477">
        <ele>239</ele>
        <time>2022-03-22T13:05:15Z</time>
      </trkpt>
      <trkpt lat="46.36278" lon="5.29472">
        <ele>238.6</ele>
        <time>2022-03-22T13:05:17Z</time>
      </trkpt>
      <trkpt lat="46.36246" lon="5.29464">
        <ele>237.6</ele>
        <time>2022-03-22T13:05:21Z</time>
      </trkpt>
      <trkpt lat="46.36238" lon="5.29464">
        <ele>237.2</ele>
        <time>2022-03-22T13:05:22Z</time>
      </trkpt>
      <trkpt lat="46.36231" lon="5.29466">
        <ele>237</ele>
        <time>2022-03-22T13:05:23Z</time>
      </trkpt>
      <trkpt lat="46.36224" lon="5.29469">
        <ele>236.8</ele>
        <time>2022-03-22T13:05:24Z</time>
      </trkpt>
      <trkpt lat="46.36217" lon="5.29474">
        <ele>236.6</ele>
        <time>2022-03-22T13:05:25Z</time>
      </trkpt>
      <trkpt lat="46.36199" lon="5.29492">
        <ele>236.6</ele>
        <time>2022-03-22T13:05:28Z</time>
      </trkpt>
      <trkpt lat="46.36177" lon="5.29511">
        <ele>237.2</ele>
        <time>2022-03-22T13:05:32Z</time>
      </trkpt>
      <trkpt lat="46.36171" lon="5.29515">
        <ele>237.4</ele>
        <time>2022-03-22T13:05:33Z</time>
      </trkpt>
      <trkpt lat="46.36156" lon="5.29522">
        <ele>238</ele>
        <time>2022-03-22T13:05:35Z</time>
      </trkpt>
      <trkpt lat="46.3615" lon="5.29524">
        <ele>238.6</ele>
        <time>2022-03-22T13:05:36Z</time>
      </trkpt>
      <trkpt lat="46.36143" lon="5.29526">
        <ele>238.6</ele>
        <time>2022-03-22T13:05:37Z</time>
      </trkpt>
      <trkpt lat="46.36097" lon="5.29532">
        <ele>238.8</ele>
        <time>2022-03-22T13:05:43Z</time>
      </trkpt>
      <trkpt lat="46.3606" lon="5.29538">
        <ele>238</ele>
        <time>2022-03-22T13:05:48Z</time>
      </trkpt>
      <trkpt lat="46.36009" lon="5.29544">
        <ele>237.6</ele>
        <time>2022-03-22T13:05:55Z</time>
      </trkpt>
      <trkpt lat="46.35993" lon="5.29546">
        <ele>237.4</ele>
        <time>2022-03-22T13:05:57Z</time>
      </trkpt>
      <trkpt lat="46.35937" lon="5.29552">
        <ele>237.4</ele>
        <time>2022-03-22T13:06:05Z</time>
      </trkpt>
      <trkpt lat="46.35922" lon="5.29553">
        <ele>237.4</ele>
        <time>2022-03-22T13:06:07Z</time>
      </trkpt>
      <trkpt lat="46.35884" lon="5.2955">
        <ele>238</ele>
        <time>2022-03-22T13:06:13Z</time>
      </trkpt>
      <trkpt lat="46.35862" lon="5.29545">
        <ele>238.8</ele>
        <time>2022-03-22T13:06:17Z</time>
      </trkpt>
      <trkpt lat="46.35851" lon="5.29543">
        <ele>239</ele>
        <time>2022-03-22T13:06:19Z</time>
      </trkpt>
      <trkpt lat="46.3582" lon="5.29541">
        <ele>239.6</ele>
        <time>2022-03-22T13:06:25Z</time>
      </trkpt>
      <trkpt lat="46.35815" lon="5.29541">
        <ele>239.6</ele>
        <time>2022-03-22T13:06:26Z</time>
      </trkpt>
      <trkpt lat="46.35775" lon="5.2954">
        <ele>240.6</ele>
        <time>2022-03-22T13:06:33Z</time>
      </trkpt>
      <trkpt lat="46.3577" lon="5.2954">
        <ele>240.8</ele>
        <time>2022-03-22T13:06:34Z</time>
      </trkpt>
      <trkpt lat="46.35745" lon="5.2954">
        <ele>241.4</ele>
        <time>2022-03-22T13:06:39Z</time>
      </trkpt>
      <trkpt lat="46.35735" lon="5.2954">
        <ele>242</ele>
        <time>2022-03-22T13:06:41Z</time>
      </trkpt>
      <trkpt lat="46.35723" lon="5.29542">
        <ele>242.2</ele>
        <time>2022-03-22T13:06:43Z</time>
      </trkpt>
      <trkpt lat="46.35718" lon="5.29544">
        <ele>242.2</ele>
        <time>2022-03-22T13:06:44Z</time>
      </trkpt>
      <trkpt lat="46.35712" lon="5.29545">
        <ele>242.4</ele>
        <time>2022-03-22T13:06:45Z</time>
      </trkpt>
      <trkpt lat="46.35701" lon="5.2955">
        <ele>242.6</ele>
        <time>2022-03-22T13:06:47Z</time>
      </trkpt>
      <trkpt lat="46.35696" lon="5.29554">
        <ele>243</ele>
        <time>2022-03-22T13:06:48Z</time>
      </trkpt>
      <trkpt lat="46.3569" lon="5.2956">
        <ele>243</ele>
        <time>2022-03-22T13:06:49Z</time>
      </trkpt>
      <trkpt lat="46.35676" lon="5.29574">
        <ele>243.2</ele>
        <time>2022-03-22T13:06:52Z</time>
      </trkpt>
      <trkpt lat="46.35667" lon="5.29582">
        <ele>243.2</ele>
        <time>2022-03-22T13:06:54Z</time>
      </trkpt>
      <trkpt lat="46.35625" lon="5.29609">
        <ele>243.4</ele>
        <time>2022-03-22T13:07:01Z</time>
      </trkpt>
      <trkpt lat="46.35574" lon="5.29634">
        <ele>243.8</ele>
        <time>2022-03-22T13:07:10Z</time>
      </trkpt>
      <trkpt lat="46.35567" lon="5.29637">
        <ele>243.8</ele>
        <time>2022-03-22T13:07:11Z</time>
      </trkpt>
      <trkpt lat="46.35517" lon="5.29648">
        <ele>243.8</ele>
        <time>2022-03-22T13:07:19Z</time>
      </trkpt>
      <trkpt lat="46.35502" lon="5.29651">
        <ele>243.8</ele>
        <time>2022-03-22T13:07:21Z</time>
      </trkpt>
      <trkpt lat="46.35491" lon="5.29658">
        <ele>243.8</ele>
        <time>2022-03-22T13:07:23Z</time>
      </trkpt>
      <trkpt lat="46.35482" lon="5.29672">
        <ele>243.4</ele>
        <time>2022-03-22T13:07:25Z</time>
      </trkpt>
      <trkpt lat="46.35474" lon="5.29686">
        <ele>243.2</ele>
        <time>2022-03-22T13:07:27Z</time>
      </trkpt>
      <trkpt lat="46.35463" lon="5.29694">
        <ele>243.2</ele>
        <time>2022-03-22T13:07:29Z</time>
      </trkpt>
      <trkpt lat="46.35458" lon="5.29695">
        <ele>243.2</ele>
        <time>2022-03-22T13:07:30Z</time>
      </trkpt>
      <trkpt lat="46.35423" lon="5.29685">
        <ele>243.4</ele>
        <time>2022-03-22T13:07:36Z</time>
      </trkpt>
      <trkpt lat="46.35391" lon="5.29674">
        <ele>244</ele>
        <time>2022-03-22T13:07:41Z</time>
      </trkpt>
      <trkpt lat="46.35359" lon="5.29663">
        <ele>244.6</ele>
        <time>2022-03-22T13:07:46Z</time>
      </trkpt>
      <trkpt lat="46.3532" lon="5.29651">
        <ele>244.8</ele>
        <time>2022-03-22T13:07:52Z</time>
      </trkpt>
      <trkpt lat="46.35268" lon="5.29642">
        <ele>244.6</ele>
        <time>2022-03-22T13:08:00Z</time>
      </trkpt>
      <trkpt lat="46.35213" lon="5.29644">
        <ele>244.4</ele>
        <time>2022-03-22T13:08:08Z</time>
      </trkpt>
      <trkpt lat="46.35157" lon="5.29653">
        <ele>243.8</ele>
        <time>2022-03-22T13:08:16Z</time>
      </trkpt>
      <trkpt lat="46.35147" lon="5.29654">
        <ele>243.6</ele>
        <time>2022-03-22T13:08:17Z</time>
      </trkpt>
      <trkpt lat="46.35122" lon="5.29657">
        <ele>243</ele>
        <time>2022-03-22T13:08:20Z</time>
      </trkpt>
      <trkpt lat="46.35091" lon="5.2966">
        <ele>241.8</ele>
        <time>2022-03-22T13:08:24Z</time>
      </trkpt>
      <trkpt lat="46.35083" lon="5.29659">
        <ele>241.4</ele>
        <time>2022-03-22T13:08:25Z</time>
      </trkpt>
      <trkpt lat="46.35047" lon="5.29647">
        <ele>241</ele>
        <time>2022-03-22T13:08:30Z</time>
      </trkpt>
      <trkpt lat="46.35028" lon="5.29637">
        <ele>241</ele>
        <time>2022-03-22T13:08:33Z</time>
      </trkpt>
      <trkpt lat="46.35016" lon="5.29633">
        <ele>241.2</ele>
        <time>2022-03-22T13:08:35Z</time>
      </trkpt>
      <trkpt lat="46.34983" lon="5.29628">
        <ele>242</ele>
        <time>2022-03-22T13:08:41Z</time>
      </trkpt>
      <trkpt lat="46.34979" lon="5.29629">
        <ele>242</ele>
        <time>2022-03-22T13:08:42Z</time>
      </trkpt>
      <trkpt lat="46.34974" lon="5.2963">
        <ele>242.4</ele>
        <time>2022-03-22T13:08:43Z</time>
      </trkpt>
      <trkpt lat="46.34962" lon="5.29635">
        <ele>242.8</ele>
        <time>2022-03-22T13:08:45Z</time>
      </trkpt>
      <trkpt lat="46.34953" lon="5.29643">
        <ele>243</ele>
        <time>2022-03-22T13:08:47Z</time>
      </trkpt>
      <trkpt lat="46.34936" lon="5.2966">
        <ele>243.2</ele>
        <time>2022-03-22T13:08:50Z</time>
      </trkpt>
      <trkpt lat="46.34931" lon="5.29662">
        <ele>243.2</ele>
        <time>2022-03-22T13:08:51Z</time>
      </trkpt>
      <trkpt lat="46.34925" lon="5.29663">
        <ele>243.2</ele>
        <time>2022-03-22T13:08:52Z</time>
      </trkpt>
      <trkpt lat="46.34912" lon="5.29659">
        <ele>243.2</ele>
        <time>2022-03-22T13:08:54Z</time>
      </trkpt>
      <trkpt lat="46.34905" lon="5.29655">
        <ele>243.2</ele>
        <time>2022-03-22T13:08:55Z</time>
      </trkpt>
      <trkpt lat="46.34879" lon="5.29637">
        <ele>243.4</ele>
        <time>2022-03-22T13:09:00Z</time>
      </trkpt>
      <trkpt lat="46.34839" lon="5.29617">
        <ele>243.6</ele>
        <time>2022-03-22T13:09:07Z</time>
      </trkpt>
      <trkpt lat="46.34803" lon="5.29612">
        <ele>243.6</ele>
        <time>2022-03-22T13:09:13Z</time>
      </trkpt>
      <trkpt lat="46.34755" lon="5.29618">
        <ele>243.6</ele>
        <time>2022-03-22T13:09:21Z</time>
      </trkpt>
      <trkpt lat="46.34747" lon="5.29621">
        <ele>243.4</ele>
        <time>2022-03-22T13:09:22Z</time>
      </trkpt>
      <trkpt lat="46.3473" lon="5.29632">
        <ele>243.2</ele>
        <time>2022-03-22T13:09:25Z</time>
      </trkpt>
      <trkpt lat="46.34717" lon="5.2964">
        <ele>242.8</ele>
        <time>2022-03-22T13:09:27Z</time>
      </trkpt>
      <trkpt lat="46.34703" lon="5.29643">
        <ele>242.4</ele>
        <time>2022-03-22T13:09:29Z</time>
      </trkpt>
      <trkpt lat="46.34674" lon="5.29637">
        <ele>242</ele>
        <time>2022-03-22T13:09:33Z</time>
      </trkpt>
      <trkpt lat="46.34667" lon="5.29636">
        <ele>241.8</ele>
        <time>2022-03-22T13:09:34Z</time>
      </trkpt>
      <trkpt lat="46.34626" lon="5.29629">
        <ele>241.2</ele>
        <time>2022-03-22T13:09:40Z</time>
      </trkpt>
      <trkpt lat="46.34585" lon="5.29619">
        <ele>241</ele>
        <time>2022-03-22T13:09:46Z</time>
      </trkpt>
      <trkpt lat="46.34564" lon="5.29616">
        <ele>240.8</ele>
        <time>2022-03-22T13:09:49Z</time>
      </trkpt>
      <trkpt lat="46.34512" lon="5.29607">
        <ele>240.6</ele>
        <time>2022-03-22T13:09:57Z</time>
      </trkpt>
      <trkpt lat="46.3447" lon="5.29597">
        <ele>240.8</ele>
        <time>2022-03-22T13:10:04Z</time>
      </trkpt>
      <trkpt lat="46.34461" lon="5.29587">
        <ele>240.8</ele>
        <time>2022-03-22T13:10:06Z</time>
      </trkpt>
      <trkpt lat="46.34458" lon="5.2958">
        <ele>240.8</ele>
        <time>2022-03-22T13:10:07Z</time>
      </trkpt>
      <trkpt lat="46.34456" lon="5.29572">
        <ele>240.8</ele>
        <time>2022-03-22T13:10:08Z</time>
      </trkpt>
      <trkpt lat="46.34455" lon="5.29558">
        <ele>241</ele>
        <time>2022-03-22T13:10:10Z</time>
      </trkpt>
      <trkpt lat="46.34461" lon="5.29519">
        <ele>242</ele>
        <time>2022-03-22T13:10:15Z</time>
      </trkpt>
      <trkpt lat="46.34463" lon="5.29503">
        <ele>242.6</ele>
        <time>2022-03-22T13:10:17Z</time>
      </trkpt>
      <trkpt lat="46.34467" lon="5.29465">
        <ele>243</ele>
        <time>2022-03-22T13:10:22Z</time>
      </trkpt>
      <trkpt lat="46.34466" lon="5.29458">
        <ele>243.2</ele>
        <time>2022-03-22T13:10:23Z</time>
      </trkpt>
      <trkpt lat="46.34464" lon="5.29452">
        <ele>243.4</ele>
        <time>2022-03-22T13:10:24Z</time>
      </trkpt>
      <trkpt lat="46.34453" lon="5.29437">
        <ele>243.8</ele>
        <time>2022-03-22T13:10:27Z</time>
      </trkpt>
      <trkpt lat="46.34442" lon="5.29422">
        <ele>244.2</ele>
        <time>2022-03-22T13:10:30Z</time>
      </trkpt>
      <trkpt lat="46.34439" lon="5.29417">
        <ele>244.4</ele>
        <time>2022-03-22T13:10:31Z</time>
      </trkpt>
      <trkpt lat="46.34433" lon="5.29405">
        <ele>244.6</ele>
        <time>2022-03-22T13:10:33Z</time>
      </trkpt>
      <trkpt lat="46.34409" lon="5.29359">
        <ele>244.8</ele>
        <time>2022-03-22T13:10:40Z</time>
      </trkpt>
      <trkpt lat="46.34398" lon="5.29349">
        <ele>244.8</ele>
        <time>2022-03-22T13:10:42Z</time>
      </trkpt>
      <trkpt lat="46.34387" lon="5.29342">
        <ele>244.8</ele>
        <time>2022-03-22T13:10:44Z</time>
      </trkpt>
      <trkpt lat="46.34381" lon="5.29339">
        <ele>244.6</ele>
        <time>2022-03-22T13:10:45Z</time>
      </trkpt>
      <trkpt lat="46.3436" lon="5.29333">
        <ele>244.4</ele>
        <time>2022-03-22T13:10:48Z</time>
      </trkpt>
      <trkpt lat="46.34355" lon="5.29331">
        <ele>244.4</ele>
        <time>2022-03-22T13:10:49Z</time>
      </trkpt>
      <trkpt lat="46.34326" lon="5.2931">
        <ele>244</ele>
        <time>2022-03-22T13:10:54Z</time>
      </trkpt>
      <trkpt lat="46.34286" lon="5.29291">
        <ele>243.4</ele>
        <time>2022-03-22T13:11:00Z</time>
      </trkpt>
      <trkpt lat="46.3425" lon="5.29282">
        <ele>243.2</ele>
        <time>2022-03-22T13:11:05Z</time>
      </trkpt>
      <trkpt lat="46.34216" lon="5.2927">
        <ele>243</ele>
        <time>2022-03-22T13:11:10Z</time>
      </trkpt>
      <trkpt lat="46.3419" lon="5.29259">
        <ele>243</ele>
        <time>2022-03-22T13:11:14Z</time>
      </trkpt>
      <trkpt lat="46.34172" lon="5.29259">
        <ele>242.8</ele>
        <time>2022-03-22T13:11:16Z</time>
      </trkpt>
      <trkpt lat="46.34121" lon="5.29267">
        <ele>242.2</ele>
        <time>2022-03-22T13:11:23Z</time>
      </trkpt>
      <trkpt lat="46.34112" lon="5.2927">
        <ele>242</ele>
        <time>2022-03-22T13:11:24Z</time>
      </trkpt>
      <trkpt lat="46.34099" lon="5.2928">
        <ele>242</ele>
        <time>2022-03-22T13:11:26Z</time>
      </trkpt>
      <trkpt lat="46.34095" lon="5.29286">
        <ele>241.8</ele>
        <time>2022-03-22T13:11:27Z</time>
      </trkpt>
      <trkpt lat="46.34089" lon="5.29295">
        <ele>241.8</ele>
        <time>2022-03-22T13:11:28Z</time>
      </trkpt>
      <trkpt lat="46.34077" lon="5.29322">
        <ele>241.8</ele>
        <time>2022-03-22T13:11:31Z</time>
      </trkpt>
      <trkpt lat="46.34064" lon="5.29347">
        <ele>241.6</ele>
        <time>2022-03-22T13:11:34Z</time>
      </trkpt>
      <trkpt lat="46.34059" lon="5.29354">
        <ele>241.6</ele>
        <time>2022-03-22T13:11:35Z</time>
      </trkpt>
      <trkpt lat="46.34053" lon="5.2936">
        <ele>241.6</ele>
        <time>2022-03-22T13:11:36Z</time>
      </trkpt>
      <trkpt lat="46.34041" lon="5.29367">
        <ele>241.8</ele>
        <time>2022-03-22T13:11:38Z</time>
      </trkpt>
      <trkpt lat="46.34035" lon="5.2937">
        <ele>241.8</ele>
        <time>2022-03-22T13:11:39Z</time>
      </trkpt>
      <trkpt lat="46.34017" lon="5.29376">
        <ele>241.8</ele>
        <time>2022-03-22T13:11:42Z</time>
      </trkpt>
      <trkpt lat="46.34001" lon="5.29386">
        <ele>242.2</ele>
        <time>2022-03-22T13:11:45Z</time>
      </trkpt>
      <trkpt lat="46.33988" lon="5.29401">
        <ele>242.8</ele>
        <time>2022-03-22T13:11:48Z</time>
      </trkpt>
      <trkpt lat="46.3398" lon="5.29413">
        <ele>243</ele>
        <time>2022-03-22T13:11:50Z</time>
      </trkpt>
      <trkpt lat="46.33971" lon="5.29426">
        <ele>243.4</ele>
        <time>2022-03-22T13:11:52Z</time>
      </trkpt>
      <trkpt lat="46.33956" lon="5.29461">
        <ele>244</ele>
        <time>2022-03-22T13:11:57Z</time>
      </trkpt>
      <trkpt lat="46.33952" lon="5.29477">
        <ele>244.4</ele>
        <time>2022-03-22T13:11:59Z</time>
      </trkpt>
      <trkpt lat="46.33947" lon="5.29492">
        <ele>244.8</ele>
        <time>2022-03-22T13:12:01Z</time>
      </trkpt>
      <trkpt lat="46.33939" lon="5.29505">
        <ele>245</ele>
        <time>2022-03-22T13:12:03Z</time>
      </trkpt>
      <trkpt lat="46.33927" lon="5.29512">
        <ele>245</ele>
        <time>2022-03-22T13:12:05Z</time>
      </trkpt>
      <trkpt lat="46.33921" lon="5.29514">
        <ele>245.2</ele>
        <time>2022-03-22T13:12:06Z</time>
      </trkpt>
      <trkpt lat="46.33881" lon="5.29516">
        <ele>245</ele>
        <time>2022-03-22T13:12:12Z</time>
      </trkpt>
      <trkpt lat="46.33829" lon="5.29516">
        <ele>245</ele>
        <time>2022-03-22T13:12:20Z</time>
      </trkpt>
      <trkpt lat="46.33809" lon="5.29514">
        <ele>245</ele>
        <time>2022-03-22T13:12:23Z</time>
      </trkpt>
      <trkpt lat="46.33797" lon="5.29509">
        <ele>245</ele>
        <time>2022-03-22T13:12:25Z</time>
      </trkpt>
      <trkpt lat="46.33764" lon="5.29485">
        <ele>245.2</ele>
        <time>2022-03-22T13:12:31Z</time>
      </trkpt>
      <trkpt lat="46.33723" lon="5.29438">
        <ele>245.2</ele>
        <time>2022-03-22T13:12:39Z</time>
      </trkpt>
      <trkpt lat="46.33686" lon="5.29383">
        <ele>245.4</ele>
        <time>2022-03-22T13:12:48Z</time>
      </trkpt>
      <trkpt lat="46.33681" lon="5.29378">
        <ele>245.4</ele>
        <time>2022-03-22T13:12:49Z</time>
      </trkpt>
      <trkpt lat="46.33676" lon="5.29373">
        <ele>245.6</ele>
        <time>2022-03-22T13:12:50Z</time>
      </trkpt>
      <trkpt lat="46.33665" lon="5.29366">
        <ele>245.6</ele>
        <time>2022-03-22T13:12:52Z</time>
      </trkpt>
      <trkpt lat="46.3366" lon="5.29364">
        <ele>245.8</ele>
        <time>2022-03-22T13:12:53Z</time>
      </trkpt>
      <trkpt lat="46.33654" lon="5.29362">
        <ele>245.8</ele>
        <time>2022-03-22T13:12:54Z</time>
      </trkpt>
      <trkpt lat="46.33642" lon="5.29362">
        <ele>246</ele>
        <time>2022-03-22T13:12:56Z</time>
      </trkpt>
      <trkpt lat="46.33636" lon="5.29363">
        <ele>246</ele>
        <time>2022-03-22T13:12:57Z</time>
      </trkpt>
      <trkpt lat="46.33595" lon="5.2937">
        <ele>246.2</ele>
        <time>2022-03-22T13:13:04Z</time>
      </trkpt>
      <trkpt lat="46.33584" lon="5.29367">
        <ele>246.2</ele>
        <time>2022-03-22T13:13:06Z</time>
      </trkpt>
      <trkpt lat="46.33568" lon="5.29363">
        <ele>246.6</ele>
        <time>2022-03-22T13:13:09Z</time>
      </trkpt>
      <trkpt lat="46.33557" lon="5.2936">
        <ele>246.8</ele>
        <time>2022-03-22T13:13:11Z</time>
      </trkpt>
      <trkpt lat="46.33503" lon="5.2934">
        <ele>247.2</ele>
        <time>2022-03-22T13:13:21Z</time>
      </trkpt>
      <trkpt lat="46.33491" lon="5.29335">
        <ele>247.2</ele>
        <time>2022-03-22T13:13:23Z</time>
      </trkpt>
      <trkpt lat="46.3345" lon="5.29311">
        <ele>247.2</ele>
        <time>2022-03-22T13:13:31Z</time>
      </trkpt>
      <trkpt lat="46.33426" lon="5.29288">
        <ele>246.8</ele>
        <time>2022-03-22T13:13:36Z</time>
      </trkpt>
      <trkpt lat="46.33422" lon="5.29275">
        <ele>246</ele>
        <time>2022-03-22T13:13:39Z</time>
      </trkpt>
      <trkpt lat="46.33422" lon="5.29274">
        <ele>245.6</ele>
        <time>2022-03-22T13:13:41Z</time>
      </trkpt>
      <trkpt lat="46.33424" lon="5.29268">
        <ele>244.8</ele>
        <time>2022-03-22T13:13:52Z</time>
      </trkpt>
      <trkpt lat="46.33423" lon="5.29254">
        <ele>244.8</ele>
        <time>2022-03-22T13:13:56Z</time>
      </trkpt>
      <trkpt lat="46.33421" lon="5.2925">
        <ele>244.8</ele>
        <time>2022-03-22T13:13:57Z</time>
      </trkpt>
      <trkpt lat="46.33411" lon="5.29245">
        <ele>244.8</ele>
        <time>2022-03-22T13:13:59Z</time>
      </trkpt>
      <trkpt lat="46.33406" lon="5.29243">
        <ele>244.6</ele>
        <time>2022-03-22T13:14:00Z</time>
      </trkpt>
      <trkpt lat="46.3338" lon="5.29232">
        <ele>244.6</ele>
        <time>2022-03-22T13:14:04Z</time>
      </trkpt>
      <trkpt lat="46.33359" lon="5.29225">
        <ele>244.4</ele>
        <time>2022-03-22T13:14:07Z</time>
      </trkpt>
      <trkpt lat="46.33333" lon="5.29215">
        <ele>244.4</ele>
        <time>2022-03-22T13:14:11Z</time>
      </trkpt>
      <trkpt lat="46.33321" lon="5.29206">
        <ele>244.6</ele>
        <time>2022-03-22T13:14:13Z</time>
      </trkpt>
      <trkpt lat="46.3329" lon="5.29172">
        <ele>244.6</ele>
        <time>2022-03-22T13:14:19Z</time>
      </trkpt>
      <trkpt lat="46.33257" lon="5.29141">
        <ele>244.4</ele>
        <time>2022-03-22T13:14:25Z</time>
      </trkpt>
      <trkpt lat="46.33251" lon="5.29138">
        <ele>244.2</ele>
        <time>2022-03-22T13:14:26Z</time>
      </trkpt>
      <trkpt lat="46.33212" lon="5.29131">
        <ele>244</ele>
        <time>2022-03-22T13:14:32Z</time>
      </trkpt>
      <trkpt lat="46.33158" lon="5.2912">
        <ele>244.2</ele>
        <time>2022-03-22T13:14:41Z</time>
      </trkpt>
      <trkpt lat="46.33119" lon="5.29107">
        <ele>245</ele>
        <time>2022-03-22T13:14:48Z</time>
      </trkpt>
      <trkpt lat="46.33078" lon="5.29078">
        <ele>245.6</ele>
        <time>2022-03-22T13:14:56Z</time>
      </trkpt>
      <trkpt lat="46.33025" lon="5.29042">
        <ele>245.8</ele>
        <time>2022-03-22T13:15:06Z</time>
      </trkpt>
      <trkpt lat="46.32972" lon="5.29009">
        <ele>245.8</ele>
        <time>2022-03-22T13:15:16Z</time>
      </trkpt>
      <trkpt lat="46.32966" lon="5.29005">
        <ele>245.8</ele>
        <time>2022-03-22T13:15:17Z</time>
      </trkpt>
      <trkpt lat="46.32915" lon="5.28978">
        <ele>245.8</ele>
        <time>2022-03-22T13:15:26Z</time>
      </trkpt>
      <trkpt lat="46.32861" lon="5.2895">
        <ele>245.6</ele>
        <time>2022-03-22T13:15:35Z</time>
      </trkpt>
      <trkpt lat="46.32854" lon="5.28946">
        <ele>245.6</ele>
        <time>2022-03-22T13:15:36Z</time>
      </trkpt>
      <trkpt lat="46.32798" lon="5.28918">
        <ele>245.4</ele>
        <time>2022-03-22T13:15:45Z</time>
      </trkpt>
      <trkpt lat="46.32793" lon="5.28916">
        <ele>245.2</ele>
        <time>2022-03-22T13:15:46Z</time>
      </trkpt>
      <trkpt lat="46.32747" lon="5.28894">
        <ele>244.8</ele>
        <time>2022-03-22T13:15:54Z</time>
      </trkpt>
      <trkpt lat="46.32698" lon="5.28877">
        <ele>244.8</ele>
        <time>2022-03-22T13:16:02Z</time>
      </trkpt>
      <trkpt lat="46.32645" lon="5.28854">
        <ele>244.6</ele>
        <time>2022-03-22T13:16:11Z</time>
      </trkpt>
      <trkpt lat="46.32638" lon="5.28851">
        <ele>244.6</ele>
        <time>2022-03-22T13:16:12Z</time>
      </trkpt>
      <trkpt lat="46.32585" lon="5.28828">
        <ele>244</ele>
        <time>2022-03-22T13:16:20Z</time>
      </trkpt>
      <trkpt lat="46.32551" lon="5.28813">
        <ele>243.6</ele>
        <time>2022-03-22T13:16:25Z</time>
      </trkpt>
      <trkpt lat="46.32539" lon="5.28804">
        <ele>243.4</ele>
        <time>2022-03-22T13:16:27Z</time>
      </trkpt>
      <trkpt lat="46.32532" lon="5.28798">
        <ele>243.4</ele>
        <time>2022-03-22T13:16:28Z</time>
      </trkpt>
      <trkpt lat="46.32518" lon="5.2878">
        <ele>243.2</ele>
        <time>2022-03-22T13:16:31Z</time>
      </trkpt>
      <trkpt lat="46.32484" lon="5.2874">
        <ele>243.6</ele>
        <time>2022-03-22T13:16:38Z</time>
      </trkpt>
      <trkpt lat="46.3244" lon="5.28695">
        <ele>243.8</ele>
        <time>2022-03-22T13:16:47Z</time>
      </trkpt>
      <trkpt lat="46.32415" lon="5.28659">
        <ele>244.4</ele>
        <time>2022-03-22T13:16:53Z</time>
      </trkpt>
      <trkpt lat="46.32394" lon="5.28625">
        <ele>244.4</ele>
        <time>2022-03-22T13:16:58Z</time>
      </trkpt>
      <trkpt lat="46.32382" lon="5.28613">
        <ele>244.4</ele>
        <time>2022-03-22T13:17:00Z</time>
      </trkpt>
      <trkpt lat="46.32344" lon="5.28588">
        <ele>244.6</ele>
        <time>2022-03-22T13:17:07Z</time>
      </trkpt>
      <trkpt lat="46.32337" lon="5.28584">
        <ele>244.6</ele>
        <time>2022-03-22T13:17:08Z</time>
      </trkpt>
      <trkpt lat="46.32318" lon="5.28569">
        <ele>244.8</ele>
        <time>2022-03-22T13:17:12Z</time>
      </trkpt>
      <trkpt lat="46.32311" lon="5.28564">
        <ele>244.8</ele>
        <time>2022-03-22T13:17:13Z</time>
      </trkpt>
      <trkpt lat="46.32266" lon="5.28527">
        <ele>244.8</ele>
        <time>2022-03-22T13:17:21Z</time>
      </trkpt>
      <trkpt lat="46.32246" lon="5.28516">
        <ele>244.6</ele>
        <time>2022-03-22T13:17:24Z</time>
      </trkpt>
      <trkpt lat="46.32234" lon="5.28512">
        <ele>244.6</ele>
        <time>2022-03-22T13:17:26Z</time>
      </trkpt>
      <trkpt lat="46.32191" lon="5.2851">
        <ele>244.2</ele>
        <time>2022-03-22T13:17:32Z</time>
      </trkpt>
      <trkpt lat="46.32143" lon="5.28493">
        <ele>244.2</ele>
        <time>2022-03-22T13:17:39Z</time>
      </trkpt>
      <trkpt lat="46.32095" lon="5.28472">
        <ele>243.8</ele>
        <time>2022-03-22T13:17:46Z</time>
      </trkpt>
      <trkpt lat="46.32087" lon="5.2847">
        <ele>243.6</ele>
        <time>2022-03-22T13:17:47Z</time>
      </trkpt>
      <trkpt lat="46.32037" lon="5.28454">
        <ele>242.8</ele>
        <time>2022-03-22T13:17:54Z</time>
      </trkpt>
      <trkpt lat="46.32023" lon="5.28445">
        <ele>242.6</ele>
        <time>2022-03-22T13:17:56Z</time>
      </trkpt>
      <trkpt lat="46.31999" lon="5.28425">
        <ele>242.2</ele>
        <time>2022-03-22T13:18:00Z</time>
      </trkpt>
      <trkpt lat="46.31963" lon="5.28413">
        <ele>241.8</ele>
        <time>2022-03-22T13:18:05Z</time>
      </trkpt>
      <trkpt lat="46.31941" lon="5.28407">
        <ele>241.6</ele>
        <time>2022-03-22T13:18:08Z</time>
      </trkpt>
      <trkpt lat="46.31894" lon="5.28391">
        <ele>240.6</ele>
        <time>2022-03-22T13:18:14Z</time>
      </trkpt>
      <trkpt lat="46.31887" lon="5.28388">
        <ele>240.6</ele>
        <time>2022-03-22T13:18:15Z</time>
      </trkpt>
      <trkpt lat="46.31849" lon="5.28378">
        <ele>239.6</ele>
        <time>2022-03-22T13:18:20Z</time>
      </trkpt>
      <trkpt lat="46.31843" lon="5.28377">
        <ele>239.6</ele>
        <time>2022-03-22T13:18:21Z</time>
      </trkpt>
      <trkpt lat="46.31793" lon="5.28373">
        <ele>238.8</ele>
        <time>2022-03-22T13:18:27Z</time>
      </trkpt>
      <trkpt lat="46.31785" lon="5.28376">
        <ele>238.4</ele>
        <time>2022-03-22T13:18:28Z</time>
      </trkpt>
      <trkpt lat="46.31763" lon="5.28385">
        <ele>237.8</ele>
        <time>2022-03-22T13:18:31Z</time>
      </trkpt>
      <trkpt lat="46.31753" lon="5.28387">
        <ele>237.6</ele>
        <time>2022-03-22T13:18:32Z</time>
      </trkpt>
      <trkpt lat="46.31743" lon="5.28385">
        <ele>237</ele>
        <time>2022-03-22T13:18:33Z</time>
      </trkpt>
      <trkpt lat="46.31726" lon="5.28378">
        <ele>236.4</ele>
        <time>2022-03-22T13:18:35Z</time>
      </trkpt>
      <trkpt lat="46.31715" lon="5.28374">
        <ele>235.6</ele>
        <time>2022-03-22T13:18:36Z</time>
      </trkpt>
      <trkpt lat="46.31696" lon="5.28367">
        <ele>234.6</ele>
        <time>2022-03-22T13:18:38Z</time>
      </trkpt>
      <trkpt lat="46.31678" lon="5.2836">
        <ele>233</ele>
        <time>2022-03-22T13:18:40Z</time>
      </trkpt>
      <trkpt lat="46.31666" lon="5.28354">
        <ele>232.6</ele>
        <time>2022-03-22T13:18:41Z</time>
      </trkpt>
      <trkpt lat="46.31656" lon="5.2835">
        <ele>232</ele>
        <time>2022-03-22T13:18:42Z</time>
      </trkpt>
      <trkpt lat="46.31639" lon="5.28342">
        <ele>230.8</ele>
        <time>2022-03-22T13:18:44Z</time>
      </trkpt>
      <trkpt lat="46.31611" lon="5.28329">
        <ele>228.6</ele>
        <time>2022-03-22T13:18:47Z</time>
      </trkpt>
      <trkpt lat="46.31592" lon="5.28322">
        <ele>228.2</ele>
        <time>2022-03-22T13:18:49Z</time>
      </trkpt>
      <trkpt lat="46.31572" lon="5.28315">
        <ele>227.4</ele>
        <time>2022-03-22T13:18:51Z</time>
      </trkpt>
      <trkpt lat="46.3155" lon="5.28307">
        <ele>226.2</ele>
        <time>2022-03-22T13:18:53Z</time>
      </trkpt>
      <trkpt lat="46.31523" lon="5.28294">
        <ele>224.6</ele>
        <time>2022-03-22T13:18:56Z</time>
      </trkpt>
      <trkpt lat="46.31511" lon="5.28289">
        <ele>224.4</ele>
        <time>2022-03-22T13:18:57Z</time>
      </trkpt>
      <trkpt lat="46.31496" lon="5.2828">
        <ele>223.6</ele>
        <time>2022-03-22T13:18:59Z</time>
      </trkpt>
      <trkpt lat="46.3146" lon="5.28264">
        <ele>222.2</ele>
        <time>2022-03-22T13:19:03Z</time>
      </trkpt>
      <trkpt lat="46.31434" lon="5.28257">
        <ele>221.6</ele>
        <time>2022-03-22T13:19:06Z</time>
      </trkpt>
      <trkpt lat="46.31426" lon="5.28257">
        <ele>221.6</ele>
        <time>2022-03-22T13:19:07Z</time>
      </trkpt>
      <trkpt lat="46.31402" lon="5.28259">
        <ele>221</ele>
        <time>2022-03-22T13:19:10Z</time>
      </trkpt>
      <trkpt lat="46.31379" lon="5.28262">
        <ele>220.6</ele>
        <time>2022-03-22T13:19:13Z</time>
      </trkpt>
      <trkpt lat="46.31372" lon="5.28264">
        <ele>220.6</ele>
        <time>2022-03-22T13:19:14Z</time>
      </trkpt>
      <trkpt lat="46.31351" lon="5.28276">
        <ele>220.4</ele>
        <time>2022-03-22T13:19:17Z</time>
      </trkpt>
      <trkpt lat="46.31338" lon="5.28274">
        <ele>220.4</ele>
        <time>2022-03-22T13:19:19Z</time>
      </trkpt>
      <trkpt lat="46.31333" lon="5.28269">
        <ele>220.4</ele>
        <time>2022-03-22T13:19:20Z</time>
      </trkpt>
      <trkpt lat="46.31323" lon="5.28256">
        <ele>220.4</ele>
        <time>2022-03-22T13:19:22Z</time>
      </trkpt>
      <trkpt lat="46.31312" lon="5.28249">
        <ele>220.2</ele>
        <time>2022-03-22T13:19:24Z</time>
      </trkpt>
      <trkpt lat="46.31286" lon="5.28252">
        <ele>220.2</ele>
        <time>2022-03-22T13:19:28Z</time>
      </trkpt>
      <trkpt lat="46.31237" lon="5.28258">
        <ele>220.8</ele>
        <time>2022-03-22T13:19:36Z</time>
      </trkpt>
      <trkpt lat="46.31183" lon="5.28262">
        <ele>221.2</ele>
        <time>2022-03-22T13:19:45Z</time>
      </trkpt>
      <trkpt lat="46.31138" lon="5.28266">
        <ele>222.2</ele>
        <time>2022-03-22T13:19:54Z</time>
      </trkpt>
      <trkpt lat="46.31104" lon="5.28269">
        <ele>223.4</ele>
        <time>2022-03-22T13:20:01Z</time>
      </trkpt>
      <trkpt lat="46.31099" lon="5.28269">
        <ele>223.4</ele>
        <time>2022-03-22T13:20:02Z</time>
      </trkpt>
      <trkpt lat="46.31077" lon="5.28271">
        <ele>224.4</ele>
        <time>2022-03-22T13:20:07Z</time>
      </trkpt>
      <trkpt lat="46.3106" lon="5.28272">
        <ele>225.2</ele>
        <time>2022-03-22T13:20:11Z</time>
      </trkpt>
      <trkpt lat="46.31048" lon="5.28273">
        <ele>225.6</ele>
        <time>2022-03-22T13:20:14Z</time>
      </trkpt>
      <trkpt lat="46.31044" lon="5.28273">
        <ele>225.6</ele>
        <time>2022-03-22T13:20:15Z</time>
      </trkpt>
      <trkpt lat="46.31029" lon="5.28275">
        <ele>226.8</ele>
        <time>2022-03-22T13:20:19Z</time>
      </trkpt>
      <trkpt lat="46.31013" lon="5.28276">
        <ele>227.6</ele>
        <time>2022-03-22T13:20:24Z</time>
      </trkpt>
      <trkpt lat="46.3101" lon="5.28276">
        <ele>227.8</ele>
        <time>2022-03-22T13:20:25Z</time>
      </trkpt>
      <trkpt lat="46.30998" lon="5.28277">
        <ele>228.4</ele>
        <time>2022-03-22T13:20:29Z</time>
      </trkpt>
      <trkpt lat="46.30992" lon="5.28277">
        <ele>229.2</ele>
        <time>2022-03-22T13:20:31Z</time>
      </trkpt>
      <trkpt lat="46.30986" lon="5.28276">
        <ele>229.8</ele>
        <time>2022-03-22T13:20:33Z</time>
      </trkpt>
      <trkpt lat="46.3098" lon="5.28275">
        <ele>230.6</ele>
        <time>2022-03-22T13:20:35Z</time>
      </trkpt>
      <trkpt lat="46.30963" lon="5.28273">
        <ele>231.6</ele>
        <time>2022-03-22T13:20:40Z</time>
      </trkpt>
      <trkpt lat="46.3095" lon="5.28272">
        <ele>232.8</ele>
        <time>2022-03-22T13:20:44Z</time>
      </trkpt>
      <trkpt lat="46.30943" lon="5.28272">
        <ele>233.2</ele>
        <time>2022-03-22T13:20:46Z</time>
      </trkpt>
      <trkpt lat="46.30936" lon="5.28272">
        <ele>233.8</ele>
        <time>2022-03-22T13:20:48Z</time>
      </trkpt>
      <trkpt lat="46.30921" lon="5.2827">
        <ele>235</ele>
        <time>2022-03-22T13:20:53Z</time>
      </trkpt>
      <trkpt lat="46.30905" lon="5.28267">
        <ele>236.2</ele>
        <time>2022-03-22T13:20:58Z</time>
      </trkpt>
      <trkpt lat="46.3089" lon="5.28265">
        <ele>237</ele>
        <time>2022-03-22T13:21:02Z</time>
      </trkpt>
      <trkpt lat="46.30886" lon="5.28264">
        <ele>237.2</ele>
        <time>2022-03-22T13:21:03Z</time>
      </trkpt>
      <trkpt lat="46.30863" lon="5.28259">
        <ele>238.2</ele>
        <time>2022-03-22T13:21:09Z</time>
      </trkpt>
      <trkpt lat="46.30853" lon="5.28258">
        <ele>238.6</ele>
        <time>2022-03-22T13:21:12Z</time>
      </trkpt>
      <trkpt lat="46.30845" lon="5.28257">
        <ele>239.2</ele>
        <time>2022-03-22T13:21:14Z</time>
      </trkpt>
      <trkpt lat="46.3082" lon="5.28252">
        <ele>240.4</ele>
        <time>2022-03-22T13:21:21Z</time>
      </trkpt>
      <trkpt lat="46.30783" lon="5.28246">
        <ele>241.6</ele>
        <time>2022-03-22T13:21:30Z</time>
      </trkpt>
      <trkpt lat="46.30779" lon="5.28246">
        <ele>241.6</ele>
        <time>2022-03-22T13:21:31Z</time>
      </trkpt>
      <trkpt lat="46.30753" lon="5.28242">
        <ele>242.6</ele>
        <time>2022-03-22T13:21:37Z</time>
      </trkpt>
      <trkpt lat="46.30744" lon="5.2824">
        <ele>242.8</ele>
        <time>2022-03-22T13:21:39Z</time>
      </trkpt>
      <trkpt lat="46.30718" lon="5.28236">
        <ele>243.8</ele>
        <time>2022-03-22T13:21:45Z</time>
      </trkpt>
      <trkpt lat="46.30705" lon="5.28233">
        <ele>244.2</ele>
        <time>2022-03-22T13:21:48Z</time>
      </trkpt>
      <trkpt lat="46.30656" lon="5.28224">
        <ele>244.8</ele>
        <time>2022-03-22T13:21:59Z</time>
      </trkpt>
      <trkpt lat="46.30652" lon="5.28224">
        <ele>245</ele>
        <time>2022-03-22T13:22:00Z</time>
      </trkpt>
      <trkpt lat="46.30613" lon="5.28221">
        <ele>245.6</ele>
        <time>2022-03-22T13:22:08Z</time>
      </trkpt>
      <trkpt lat="46.30576" lon="5.28225">
        <ele>245.8</ele>
        <time>2022-03-22T13:22:15Z</time>
      </trkpt>
      <trkpt lat="46.30539" lon="5.28236">
        <ele>246</ele>
        <time>2022-03-22T13:22:22Z</time>
      </trkpt>
      <trkpt lat="46.30518" lon="5.28244">
        <ele>246</ele>
        <time>2022-03-22T13:22:26Z</time>
      </trkpt>
      <trkpt lat="46.30464" lon="5.28262">
        <ele>246.2</ele>
        <time>2022-03-22T13:22:36Z</time>
      </trkpt>
      <trkpt lat="46.30459" lon="5.28263">
        <ele>246.2</ele>
        <time>2022-03-22T13:22:37Z</time>
      </trkpt>
      <trkpt lat="46.30414" lon="5.28267">
        <ele>246.4</ele>
        <time>2022-03-22T13:22:45Z</time>
      </trkpt>
      <trkpt lat="46.30409" lon="5.28266">
        <ele>246.4</ele>
        <time>2022-03-22T13:22:46Z</time>
      </trkpt>
      <trkpt lat="46.30382" lon="5.28263">
        <ele>246.6</ele>
        <time>2022-03-22T13:22:51Z</time>
      </trkpt>
      <trkpt lat="46.30373" lon="5.2826">
        <ele>246.4</ele>
        <time>2022-03-22T13:22:53Z</time>
      </trkpt>
      <trkpt lat="46.30339" lon="5.28247">
        <ele>246.4</ele>
        <time>2022-03-22T13:22:59Z</time>
      </trkpt>
      <trkpt lat="46.30333" lon="5.28243">
        <ele>246.2</ele>
        <time>2022-03-22T13:23:00Z</time>
      </trkpt>
      <trkpt lat="46.3031" lon="5.28231">
        <ele>245.6</ele>
        <time>2022-03-22T13:23:04Z</time>
      </trkpt>
      <trkpt lat="46.30305" lon="5.28233">
        <ele>245.6</ele>
        <time>2022-03-22T13:23:05Z</time>
      </trkpt>
      <trkpt lat="46.30301" lon="5.28239">
        <ele>245.4</ele>
        <time>2022-03-22T13:23:06Z</time>
      </trkpt>
      <trkpt lat="46.30298" lon="5.28247">
        <ele>245</ele>
        <time>2022-03-22T13:23:07Z</time>
      </trkpt>
      <trkpt lat="46.30297" lon="5.28258">
        <ele>244.8</ele>
        <time>2022-03-22T13:23:08Z</time>
      </trkpt>
      <trkpt lat="46.30294" lon="5.28278">
        <ele>244</ele>
        <time>2022-03-22T13:23:10Z</time>
      </trkpt>
      <trkpt lat="46.30292" lon="5.2829">
        <ele>243.8</ele>
        <time>2022-03-22T13:23:11Z</time>
      </trkpt>
      <trkpt lat="46.30287" lon="5.28315">
        <ele>243</ele>
        <time>2022-03-22T13:23:13Z</time>
      </trkpt>
      <trkpt lat="46.30281" lon="5.28342">
        <ele>241.8</ele>
        <time>2022-03-22T13:23:15Z</time>
      </trkpt>
      <trkpt lat="46.30278" lon="5.28357">
        <ele>241.6</ele>
        <time>2022-03-22T13:23:16Z</time>
      </trkpt>
      <trkpt lat="46.30274" lon="5.28372">
        <ele>240.8</ele>
        <time>2022-03-22T13:23:17Z</time>
      </trkpt>
      <trkpt lat="46.30267" lon="5.28402">
        <ele>239.4</ele>
        <time>2022-03-22T13:23:19Z</time>
      </trkpt>
      <trkpt lat="46.3026" lon="5.28434">
        <ele>238.2</ele>
        <time>2022-03-22T13:23:21Z</time>
      </trkpt>
      <trkpt lat="46.30255" lon="5.28453">
        <ele>237.2</ele>
        <time>2022-03-22T13:23:22Z</time>
      </trkpt>
      <trkpt lat="46.30252" lon="5.28466">
        <ele>236.8</ele>
        <time>2022-03-22T13:23:23Z</time>
      </trkpt>
      <trkpt lat="46.30244" lon="5.28498">
        <ele>235.4</ele>
        <time>2022-03-22T13:23:25Z</time>
      </trkpt>
      <trkpt lat="46.30239" lon="5.28514">
        <ele>234.4</ele>
        <time>2022-03-22T13:23:26Z</time>
      </trkpt>
      <trkpt lat="46.30231" lon="5.28545">
        <ele>233</ele>
        <time>2022-03-22T13:23:28Z</time>
      </trkpt>
      <trkpt lat="46.30223" lon="5.28575">
        <ele>231.8</ele>
        <time>2022-03-22T13:23:30Z</time>
      </trkpt>
      <trkpt lat="46.30216" lon="5.28605">
        <ele>230.6</ele>
        <time>2022-03-22T13:23:32Z</time>
      </trkpt>
      <trkpt lat="46.30209" lon="5.28634">
        <ele>229.6</ele>
        <time>2022-03-22T13:23:34Z</time>
      </trkpt>
      <trkpt lat="46.30202" lon="5.28661">
        <ele>228.8</ele>
        <time>2022-03-22T13:23:36Z</time>
      </trkpt>
      <trkpt lat="46.30198" lon="5.28673">
        <ele>228.4</ele>
        <time>2022-03-22T13:23:37Z</time>
      </trkpt>
      <trkpt lat="46.30184" lon="5.28705">
        <ele>227.8</ele>
        <time>2022-03-22T13:23:40Z</time>
      </trkpt>
      <trkpt lat="46.30168" lon="5.28737">
        <ele>227.2</ele>
        <time>2022-03-22T13:23:43Z</time>
      </trkpt>
      <trkpt lat="46.30153" lon="5.28768">
        <ele>226.4</ele>
        <time>2022-03-22T13:23:46Z</time>
      </trkpt>
      <trkpt lat="46.30138" lon="5.288">
        <ele>226.2</ele>
        <time>2022-03-22T13:23:49Z</time>
      </trkpt>
      <trkpt lat="46.30133" lon="5.28813">
        <ele>226</ele>
        <time>2022-03-22T13:23:50Z</time>
      </trkpt>
      <trkpt lat="46.30131" lon="5.28822">
        <ele>226</ele>
        <time>2022-03-22T13:23:51Z</time>
      </trkpt>
      <trkpt lat="46.30122" lon="5.28878">
        <ele>225.8</ele>
        <time>2022-03-22T13:23:56Z</time>
      </trkpt>
      <trkpt lat="46.30116" lon="5.28894">
        <ele>226</ele>
        <time>2022-03-22T13:23:58Z</time>
      </trkpt>
      <trkpt lat="46.30112" lon="5.28899">
        <ele>226</ele>
        <time>2022-03-22T13:23:59Z</time>
      </trkpt>
      <trkpt lat="46.30101" lon="5.28915">
        <ele>226.4</ele>
        <time>2022-03-22T13:24:02Z</time>
      </trkpt>
      <trkpt lat="46.30093" lon="5.28924">
        <ele>227.2</ele>
        <time>2022-03-22T13:24:04Z</time>
      </trkpt>
      <trkpt lat="46.30089" lon="5.28927">
        <ele>227.8</ele>
        <time>2022-03-22T13:24:05Z</time>
      </trkpt>
      <trkpt lat="46.30076" lon="5.28935">
        <ele>228.6</ele>
        <time>2022-03-22T13:24:08Z</time>
      </trkpt>
      <trkpt lat="46.30067" lon="5.28939">
        <ele>229</ele>
        <time>2022-03-22T13:24:10Z</time>
      </trkpt>
      <trkpt lat="46.30063" lon="5.2894">
        <ele>229</ele>
        <time>2022-03-22T13:24:11Z</time>
      </trkpt>
      <trkpt lat="46.30046" lon="5.28945">
        <ele>230</ele>
        <time>2022-03-22T13:24:15Z</time>
      </trkpt>
      <trkpt lat="46.30031" lon="5.28949">
        <ele>231.2</ele>
        <time>2022-03-22T13:24:19Z</time>
      </trkpt>
      <trkpt lat="46.30027" lon="5.28951">
        <ele>231.4</ele>
        <time>2022-03-22T13:24:20Z</time>
      </trkpt>
      <trkpt lat="46.30005" lon="5.28958">
        <ele>232.8</ele>
        <time>2022-03-22T13:24:26Z</time>
      </trkpt>
      <trkpt lat="46.29998" lon="5.28961">
        <ele>233.2</ele>
        <time>2022-03-22T13:24:28Z</time>
      </trkpt>
      <trkpt lat="46.29992" lon="5.28967">
        <ele>233.4</ele>
        <time>2022-03-22T13:24:30Z</time>
      </trkpt>
      <trkpt lat="46.29989" lon="5.28976">
        <ele>233.8</ele>
        <time>2022-03-22T13:24:32Z</time>
      </trkpt>
      <trkpt lat="46.29991" lon="5.28993">
        <ele>234.8</ele>
        <time>2022-03-22T13:24:36Z</time>
      </trkpt>
      <trkpt lat="46.29991" lon="5.28999">
        <ele>235</ele>
        <time>2022-03-22T13:24:37Z</time>
      </trkpt>
      <trkpt lat="46.29986" lon="5.29008">
        <ele>235.2</ele>
        <time>2022-03-22T13:24:39Z</time>
      </trkpt>
      <trkpt lat="46.29966" lon="5.29018">
        <ele>235.8</ele>
        <time>2022-03-22T13:24:44Z</time>
      </trkpt>
      <trkpt lat="46.29951" lon="5.29025">
        <ele>236.2</ele>
        <time>2022-03-22T13:24:48Z</time>
      </trkpt>
      <trkpt lat="46.29932" lon="5.29037">
        <ele>236.6</ele>
        <time>2022-03-22T13:24:53Z</time>
      </trkpt>
      <trkpt lat="46.29917" lon="5.29046">
        <ele>237.4</ele>
        <time>2022-03-22T13:24:57Z</time>
      </trkpt>
      <trkpt lat="46.2989" lon="5.29064">
        <ele>238.4</ele>
        <time>2022-03-22T13:25:04Z</time>
      </trkpt>
      <trkpt lat="46.29859" lon="5.2909">
        <ele>239.4</ele>
        <time>2022-03-22T13:25:12Z</time>
      </trkpt>
      <trkpt lat="46.29856" lon="5.29094">
        <ele>239.6</ele>
        <time>2022-03-22T13:25:13Z</time>
      </trkpt>
      <trkpt lat="46.29835" lon="5.2912">
        <ele>240.2</ele>
        <time>2022-03-22T13:25:19Z</time>
      </trkpt>
      <trkpt lat="46.29824" lon="5.29133">
        <ele>240.6</ele>
        <time>2022-03-22T13:25:22Z</time>
      </trkpt>
      <trkpt lat="46.29808" lon="5.2915">
        <ele>241</ele>
        <time>2022-03-22T13:25:26Z</time>
      </trkpt>
      <trkpt lat="46.29783" lon="5.29176">
        <ele>241.6</ele>
        <time>2022-03-22T13:25:32Z</time>
      </trkpt>
      <trkpt lat="46.29779" lon="5.29181">
        <ele>241.8</ele>
        <time>2022-03-22T13:25:33Z</time>
      </trkpt>
      <trkpt lat="46.29776" lon="5.29186">
        <ele>241.8</ele>
        <time>2022-03-22T13:25:34Z</time>
      </trkpt>
      <trkpt lat="46.29765" lon="5.29211">
        <ele>242</ele>
        <time>2022-03-22T13:25:38Z</time>
      </trkpt>
      <trkpt lat="46.29762" lon="5.29224">
        <ele>242.2</ele>
        <time>2022-03-22T13:25:40Z</time>
      </trkpt>
      <trkpt lat="46.29758" lon="5.29236">
        <ele>242.2</ele>
        <time>2022-03-22T13:25:42Z</time>
      </trkpt>
      <trkpt lat="46.29752" lon="5.2926">
        <ele>242.4</ele>
        <time>2022-03-22T13:25:46Z</time>
      </trkpt>
      <trkpt lat="46.29749" lon="5.29272">
        <ele>242.8</ele>
        <time>2022-03-22T13:25:48Z</time>
      </trkpt>
      <trkpt lat="46.29739" lon="5.29307">
        <ele>243.8</ele>
        <time>2022-03-22T13:25:54Z</time>
      </trkpt>
      <trkpt lat="46.29738" lon="5.29313">
        <ele>244</ele>
        <time>2022-03-22T13:25:55Z</time>
      </trkpt>
      <trkpt lat="46.29732" lon="5.29337">
        <ele>245.2</ele>
        <time>2022-03-22T13:25:59Z</time>
      </trkpt>
      <trkpt lat="46.29723" lon="5.29367">
        <ele>246.2</ele>
        <time>2022-03-22T13:26:04Z</time>
      </trkpt>
      <trkpt lat="46.29714" lon="5.29396">
        <ele>247.4</ele>
        <time>2022-03-22T13:26:09Z</time>
      </trkpt>
      <trkpt lat="46.29712" lon="5.29401">
        <ele>247.8</ele>
        <time>2022-03-22T13:26:10Z</time>
      </trkpt>
      <trkpt lat="46.29709" lon="5.29407">
        <ele>248</ele>
        <time>2022-03-22T13:26:11Z</time>
      </trkpt>
      <trkpt lat="46.297" lon="5.29424">
        <ele>248.4</ele>
        <time>2022-03-22T13:26:14Z</time>
      </trkpt>
      <trkpt lat="46.29682" lon="5.29451">
        <ele>248.8</ele>
        <time>2022-03-22T13:26:19Z</time>
      </trkpt>
      <trkpt lat="46.29661" lon="5.2948">
        <ele>249</ele>
        <time>2022-03-22T13:26:25Z</time>
      </trkpt>
      <trkpt lat="46.29654" lon="5.2949">
        <ele>249.2</ele>
        <time>2022-03-22T13:26:27Z</time>
      </trkpt>
      <trkpt lat="46.29643" lon="5.29506">
        <ele>249.4</ele>
        <time>2022-03-22T13:26:30Z</time>
      </trkpt>
      <trkpt lat="46.29631" lon="5.29528">
        <ele>250</ele>
        <time>2022-03-22T13:26:34Z</time>
      </trkpt>
      <trkpt lat="46.29617" lon="5.29557">
        <ele>250.2</ele>
        <time>2022-03-22T13:26:39Z</time>
      </trkpt>
      <trkpt lat="46.29612" lon="5.2957">
        <ele>250.6</ele>
        <time>2022-03-22T13:26:41Z</time>
      </trkpt>
      <trkpt lat="46.2961" lon="5.29577">
        <ele>250.8</ele>
        <time>2022-03-22T13:26:42Z</time>
      </trkpt>
      <trkpt lat="46.29593" lon="5.29639">
        <ele>251.6</ele>
        <time>2022-03-22T13:26:50Z</time>
      </trkpt>
      <trkpt lat="46.29574" lon="5.29717">
        <ele>251.4</ele>
        <time>2022-03-22T13:27:00Z</time>
      </trkpt>
      <trkpt lat="46.29568" lon="5.29743">
        <ele>251.4</ele>
        <time>2022-03-22T13:27:03Z</time>
      </trkpt>
      <trkpt lat="46.29552" lon="5.29817">
        <ele>251.4</ele>
        <time>2022-03-22T13:27:12Z</time>
      </trkpt>
      <trkpt lat="46.29542" lon="5.29867">
        <ele>251.6</ele>
        <time>2022-03-22T13:27:18Z</time>
      </trkpt>
      <trkpt lat="46.2954" lon="5.29875">
        <ele>251.6</ele>
        <time>2022-03-22T13:27:19Z</time>
      </trkpt>
      <trkpt lat="46.29525" lon="5.29937">
        <ele>252.2</ele>
        <time>2022-03-22T13:27:27Z</time>
      </trkpt>
      <trkpt lat="46.29514" lon="5.2997">
        <ele>252.4</ele>
        <time>2022-03-22T13:27:32Z</time>
      </trkpt>
      <trkpt lat="46.29508" lon="5.29976">
        <ele>252.6</ele>
        <time>2022-03-22T13:27:34Z</time>
      </trkpt>
      <trkpt lat="46.29504" lon="5.29976">
        <ele>252.6</ele>
        <time>2022-03-22T13:27:35Z</time>
      </trkpt>
      <trkpt lat="46.29477" lon="5.29969">
        <ele>252.6</ele>
        <time>2022-03-22T13:27:40Z</time>
      </trkpt>
      <trkpt lat="46.29449" lon="5.29954">
        <ele>252.8</ele>
        <time>2022-03-22T13:27:45Z</time>
      </trkpt>
      <trkpt lat="46.29438" lon="5.29958">
        <ele>253</ele>
        <time>2022-03-22T13:27:47Z</time>
      </trkpt>
      <trkpt lat="46.29433" lon="5.29962">
        <ele>253.2</ele>
        <time>2022-03-22T13:27:48Z</time>
      </trkpt>
      <trkpt lat="46.294" lon="5.29994">
        <ele>253.4</ele>
        <time>2022-03-22T13:27:54Z</time>
      </trkpt>
      <trkpt lat="46.2936" lon="5.30038">
        <ele>252.6</ele>
        <time>2022-03-22T13:28:02Z</time>
      </trkpt>
      <trkpt lat="46.29324" lon="5.30077">
        <ele>253.4</ele>
        <time>2022-03-22T13:28:10Z</time>
      </trkpt>
      <trkpt lat="46.29298" lon="5.30103">
        <ele>253.8</ele>
        <time>2022-03-22T13:28:16Z</time>
      </trkpt>
      <trkpt lat="46.2928" lon="5.30122">
        <ele>254</ele>
        <time>2022-03-22T13:28:20Z</time>
      </trkpt>
      <trkpt lat="46.29244" lon="5.30161">
        <ele>254.6</ele>
        <time>2022-03-22T13:28:28Z</time>
      </trkpt>
      <trkpt lat="46.29206" lon="5.30201">
        <ele>254.8</ele>
        <time>2022-03-22T13:28:36Z</time>
      </trkpt>
      <trkpt lat="46.29196" lon="5.30212">
        <ele>255</ele>
        <time>2022-03-22T13:28:38Z</time>
      </trkpt>
      <trkpt lat="46.29158" lon="5.30252">
        <ele>255</ele>
        <time>2022-03-22T13:28:46Z</time>
      </trkpt>
      <trkpt lat="46.29113" lon="5.303">
        <ele>255.2</ele>
        <time>2022-03-22T13:28:55Z</time>
      </trkpt>
      <trkpt lat="46.29108" lon="5.30306">
        <ele>255.2</ele>
        <time>2022-03-22T13:28:56Z</time>
      </trkpt>
      <trkpt lat="46.29067" lon="5.30347">
        <ele>255.4</ele>
        <time>2022-03-22T13:29:04Z</time>
      </trkpt>
      <trkpt lat="46.29041" lon="5.30367">
        <ele>255.4</ele>
        <time>2022-03-22T13:29:09Z</time>
      </trkpt>
      <trkpt lat="46.29029" lon="5.30372">
        <ele>255.6</ele>
        <time>2022-03-22T13:29:11Z</time>
      </trkpt>
      <trkpt lat="46.28993" lon="5.30381">
        <ele>256</ele>
        <time>2022-03-22T13:29:17Z</time>
      </trkpt>
      <trkpt lat="46.28982" lon="5.30384">
        <ele>256.2</ele>
        <time>2022-03-22T13:29:19Z</time>
      </trkpt>
      <trkpt lat="46.28937" lon="5.30397">
        <ele>257</ele>
        <time>2022-03-22T13:29:27Z</time>
      </trkpt>
      <trkpt lat="46.28926" lon="5.304">
        <ele>257</ele>
        <time>2022-03-22T13:29:29Z</time>
      </trkpt>
      <trkpt lat="46.28898" lon="5.30407">
        <ele>257.6</ele>
        <time>2022-03-22T13:29:34Z</time>
      </trkpt>
      <trkpt lat="46.28872" lon="5.30414">
        <ele>258.2</ele>
        <time>2022-03-22T13:29:39Z</time>
      </trkpt>
      <trkpt lat="46.28855" lon="5.30419">
        <ele>258.4</ele>
        <time>2022-03-22T13:29:42Z</time>
      </trkpt>
      <trkpt lat="46.2885" lon="5.30421">
        <ele>258.6</ele>
        <time>2022-03-22T13:29:43Z</time>
      </trkpt>
      <trkpt lat="46.28828" lon="5.30427">
        <ele>259</ele>
        <time>2022-03-22T13:29:47Z</time>
      </trkpt>
      <trkpt lat="46.28825" lon="5.30432">
        <ele>259.2</ele>
        <time>2022-03-22T13:29:48Z</time>
      </trkpt>
      <trkpt lat="46.28824" lon="5.30439">
        <ele>259.2</ele>
        <time>2022-03-22T13:29:49Z</time>
      </trkpt>
      <trkpt lat="46.28825" lon="5.30447">
        <ele>259.2</ele>
        <time>2022-03-22T13:29:50Z</time>
      </trkpt>
      <trkpt lat="46.28842" lon="5.30525">
        <ele>259.2</ele>
        <time>2022-03-22T13:30:00Z</time>
      </trkpt>
      <trkpt lat="46.28843" lon="5.30532">
        <ele>259.6</ele>
        <time>2022-03-22T13:30:01Z</time>
      </trkpt>
      <trkpt lat="46.28855" lon="5.30585">
        <ele>260.2</ele>
        <time>2022-03-22T13:30:08Z</time>
      </trkpt>
      <trkpt lat="46.28856" lon="5.30591">
        <ele>260.2</ele>
        <time>2022-03-22T13:30:09Z</time>
      </trkpt>
      <trkpt lat="46.28869" lon="5.30651">
        <ele>260.6</ele>
        <time>2022-03-22T13:30:17Z</time>
      </trkpt>
      <trkpt lat="46.28873" lon="5.30666">
        <ele>260.8</ele>
        <time>2022-03-22T13:30:19Z</time>
      </trkpt>
      <trkpt lat="46.28878" lon="5.30688">
        <ele>261.6</ele>
        <time>2022-03-22T13:30:22Z</time>
      </trkpt>
      <trkpt lat="46.2888" lon="5.30696">
        <ele>261.6</ele>
        <time>2022-03-22T13:30:23Z</time>
      </trkpt>
      <trkpt lat="46.28894" lon="5.30764">
        <ele>262.2</ele>
        <time>2022-03-22T13:30:32Z</time>
      </trkpt>
      <trkpt lat="46.28911" lon="5.30836">
        <ele>262.2</ele>
        <time>2022-03-22T13:30:41Z</time>
      </trkpt>
      <trkpt lat="46.28916" lon="5.30852">
        <ele>261.6</ele>
        <time>2022-03-22T13:30:43Z</time>
      </trkpt>
      <trkpt lat="46.28924" lon="5.30876">
        <ele>260.8</ele>
        <time>2022-03-22T13:30:46Z</time>
      </trkpt>
      <trkpt lat="46.28927" lon="5.30884">
        <ele>260.8</ele>
        <time>2022-03-22T13:30:47Z</time>
      </trkpt>
      <trkpt lat="46.28944" lon="5.30927">
        <ele>260.6</ele>
        <time>2022-03-22T13:30:52Z</time>
      </trkpt>
      <trkpt lat="46.28947" lon="5.30936">
        <ele>260.6</ele>
        <time>2022-03-22T13:30:53Z</time>
      </trkpt>
      <trkpt lat="46.28964" lon="5.30996">
        <ele>260.4</ele>
        <time>2022-03-22T13:30:59Z</time>
      </trkpt>
      <trkpt lat="46.28976" lon="5.3105">
        <ele>260</ele>
        <time>2022-03-22T13:31:04Z</time>
      </trkpt>
      <trkpt lat="46.2898" lon="5.31082">
        <ele>259.4</ele>
        <time>2022-03-22T13:31:07Z</time>
      </trkpt>
      <trkpt lat="46.28983" lon="5.31128">
        <ele>259.2</ele>
        <time>2022-03-22T13:31:11Z</time>
      </trkpt>
      <trkpt lat="46.28987" lon="5.31195">
        <ele>258.4</ele>
        <time>2022-03-22T13:31:17Z</time>
      </trkpt>
      <trkpt lat="46.28989" lon="5.31217">
        <ele>258.2</ele>
        <time>2022-03-22T13:31:19Z</time>
      </trkpt>
      <trkpt lat="46.28991" lon="5.31251">
        <ele>258</ele>
        <time>2022-03-22T13:31:22Z</time>
      </trkpt>
      <trkpt lat="46.28993" lon="5.31308">
        <ele>257.4</ele>
        <time>2022-03-22T13:31:27Z</time>
      </trkpt>
      <trkpt lat="46.28993" lon="5.31331">
        <ele>257.2</ele>
        <time>2022-03-22T13:31:29Z</time>
      </trkpt>
      <trkpt lat="46.28998" lon="5.31386">
        <ele>256.6</ele>
        <time>2022-03-22T13:31:34Z</time>
      </trkpt>
      <trkpt lat="46.29003" lon="5.31407">
        <ele>256.4</ele>
        <time>2022-03-22T13:31:36Z</time>
      </trkpt>
      <trkpt lat="46.29006" lon="5.31417">
        <ele>256.2</ele>
        <time>2022-03-22T13:31:37Z</time>
      </trkpt>
      <trkpt lat="46.29013" lon="5.31435">
        <ele>256.2</ele>
        <time>2022-03-22T13:31:39Z</time>
      </trkpt>
      <trkpt lat="46.2902" lon="5.31453">
        <ele>256.2</ele>
        <time>2022-03-22T13:31:41Z</time>
      </trkpt>
      <trkpt lat="46.29033" lon="5.31478">
        <ele>256</ele>
        <time>2022-03-22T13:31:44Z</time>
      </trkpt>
      <trkpt lat="46.2907" lon="5.31539">
        <ele>255.4</ele>
        <time>2022-03-22T13:31:51Z</time>
      </trkpt>
      <trkpt lat="46.29076" lon="5.31549">
        <ele>255</ele>
        <time>2022-03-22T13:31:52Z</time>
      </trkpt>
      <trkpt lat="46.29095" lon="5.31582">
        <ele>253.8</ele>
        <time>2022-03-22T13:31:55Z</time>
      </trkpt>
      <trkpt lat="46.29109" lon="5.31605">
        <ele>253.2</ele>
        <time>2022-03-22T13:31:57Z</time>
      </trkpt>
      <trkpt lat="46.29123" lon="5.31628">
        <ele>251.8</ele>
        <time>2022-03-22T13:31:59Z</time>
      </trkpt>
      <trkpt lat="46.29138" lon="5.31653">
        <ele>250.6</ele>
        <time>2022-03-22T13:32:01Z</time>
      </trkpt>
      <trkpt lat="46.29151" lon="5.31677">
        <ele>249.4</ele>
        <time>2022-03-22T13:32:03Z</time>
      </trkpt>
      <trkpt lat="46.29163" lon="5.31703">
        <ele>248.2</ele>
        <time>2022-03-22T13:32:05Z</time>
      </trkpt>
      <trkpt lat="46.29172" lon="5.31729">
        <ele>247.4</ele>
        <time>2022-03-22T13:32:07Z</time>
      </trkpt>
      <trkpt lat="46.29176" lon="5.31741">
        <ele>247</ele>
        <time>2022-03-22T13:32:08Z</time>
      </trkpt>
      <trkpt lat="46.2918" lon="5.31753">
        <ele>247</ele>
        <time>2022-03-22T13:32:09Z</time>
      </trkpt>
      <trkpt lat="46.29194" lon="5.31795">
        <ele>247</ele>
        <time>2022-03-22T13:32:13Z</time>
      </trkpt>
      <trkpt lat="46.29203" lon="5.31822">
        <ele>248</ele>
        <time>2022-03-22T13:32:16Z</time>
      </trkpt>
      <trkpt lat="46.29208" lon="5.31839">
        <ele>249.2</ele>
        <time>2022-03-22T13:32:18Z</time>
      </trkpt>
      <trkpt lat="46.29216" lon="5.31868">
        <ele>250.6</ele>
        <time>2022-03-22T13:32:22Z</time>
      </trkpt>
      <trkpt lat="46.29219" lon="5.31882">
        <ele>251.2</ele>
        <time>2022-03-22T13:32:24Z</time>
      </trkpt>
      <trkpt lat="46.2922" lon="5.31888">
        <ele>252</ele>
        <time>2022-03-22T13:32:25Z</time>
      </trkpt>
      <trkpt lat="46.29222" lon="5.31894">
        <ele>252.2</ele>
        <time>2022-03-22T13:32:26Z</time>
      </trkpt>
      <trkpt lat="46.29225" lon="5.31907">
        <ele>253</ele>
        <time>2022-03-22T13:32:28Z</time>
      </trkpt>
      <trkpt lat="46.29227" lon="5.31921">
        <ele>254</ele>
        <time>2022-03-22T13:32:30Z</time>
      </trkpt>
      <trkpt lat="46.29228" lon="5.31928">
        <ele>254.2</ele>
        <time>2022-03-22T13:32:31Z</time>
      </trkpt>
      <trkpt lat="46.29235" lon="5.31946">
        <ele>255.6</ele>
        <time>2022-03-22T13:32:34Z</time>
      </trkpt>
      <trkpt lat="46.29239" lon="5.31951">
        <ele>255.6</ele>
        <time>2022-03-22T13:32:35Z</time>
      </trkpt>
      <trkpt lat="46.29254" lon="5.31965">
        <ele>256.8</ele>
        <time>2022-03-22T13:32:39Z</time>
      </trkpt>
      <trkpt lat="46.29258" lon="5.3197">
        <ele>257</ele>
        <time>2022-03-22T13:32:40Z</time>
      </trkpt>
      <trkpt lat="46.29261" lon="5.31976">
        <ele>257.2</ele>
        <time>2022-03-22T13:32:41Z</time>
      </trkpt>
      <trkpt lat="46.29264" lon="5.31983">
        <ele>257.2</ele>
        <time>2022-03-22T13:32:42Z</time>
      </trkpt>
      <trkpt lat="46.29263" lon="5.31999">
        <ele>257.2</ele>
        <time>2022-03-22T13:32:44Z</time>
      </trkpt>
      <trkpt lat="46.29262" lon="5.32007">
        <ele>257.2</ele>
        <time>2022-03-22T13:32:45Z</time>
      </trkpt>
      <trkpt lat="46.29251" lon="5.32036">
        <ele>257.2</ele>
        <time>2022-03-22T13:32:49Z</time>
      </trkpt>
      <trkpt lat="46.2924" lon="5.32065">
        <ele>257.2</ele>
        <time>2022-03-22T13:32:53Z</time>
      </trkpt>
      <trkpt lat="46.29237" lon="5.32081">
        <ele>257.2</ele>
        <time>2022-03-22T13:32:55Z</time>
      </trkpt>
      <trkpt lat="46.29225" lon="5.32142">
        <ele>257.6</ele>
        <time>2022-03-22T13:33:03Z</time>
      </trkpt>
      <trkpt lat="46.29223" lon="5.3215">
        <ele>257.6</ele>
        <time>2022-03-22T13:33:04Z</time>
      </trkpt>
      <trkpt lat="46.29216" lon="5.32182">
        <ele>257.8</ele>
        <time>2022-03-22T13:33:08Z</time>
      </trkpt>
      <trkpt lat="46.29205" lon="5.32249">
        <ele>257.8</ele>
        <time>2022-03-22T13:33:16Z</time>
      </trkpt>
      <trkpt lat="46.29196" lon="5.32295">
        <ele>258</ele>
        <time>2022-03-22T13:33:22Z</time>
      </trkpt>
      <trkpt lat="46.29192" lon="5.32319">
        <ele>258.2</ele>
        <time>2022-03-22T13:33:25Z</time>
      </trkpt>
      <trkpt lat="46.2919" lon="5.32335">
        <ele>258.4</ele>
        <time>2022-03-22T13:33:27Z</time>
      </trkpt>
      <trkpt lat="46.29189" lon="5.32351">
        <ele>258.6</ele>
        <time>2022-03-22T13:33:29Z</time>
      </trkpt>
      <trkpt lat="46.29182" lon="5.32408">
        <ele>259.2</ele>
        <time>2022-03-22T13:33:36Z</time>
      </trkpt>
      <trkpt lat="46.29181" lon="5.32416">
        <ele>259.2</ele>
        <time>2022-03-22T13:33:37Z</time>
      </trkpt>
      <trkpt lat="46.29179" lon="5.32441">
        <ele>259.4</ele>
        <time>2022-03-22T13:33:40Z</time>
      </trkpt>
      <trkpt lat="46.29181" lon="5.32465">
        <ele>259.4</ele>
        <time>2022-03-22T13:33:43Z</time>
      </trkpt>
      <trkpt lat="46.29183" lon="5.32473">
        <ele>259.4</ele>
        <time>2022-03-22T13:33:44Z</time>
      </trkpt>
      <trkpt lat="46.29191" lon="5.32493">
        <ele>259.6</ele>
        <time>2022-03-22T13:33:47Z</time>
      </trkpt>
      <trkpt lat="46.29194" lon="5.32499">
        <ele>259.6</ele>
        <time>2022-03-22T13:33:48Z</time>
      </trkpt>
      <trkpt lat="46.29202" lon="5.32509">
        <ele>260.2</ele>
        <time>2022-03-22T13:33:50Z</time>
      </trkpt>
      <trkpt lat="46.29209" lon="5.32518">
        <ele>260.6</ele>
        <time>2022-03-22T13:33:52Z</time>
      </trkpt>
      <trkpt lat="46.29217" lon="5.32526">
        <ele>261.2</ele>
        <time>2022-03-22T13:33:54Z</time>
      </trkpt>
      <trkpt lat="46.29242" lon="5.32556">
        <ele>262.6</ele>
        <time>2022-03-22T13:34:00Z</time>
      </trkpt>
      <trkpt lat="46.29263" lon="5.32582">
        <ele>263</ele>
        <time>2022-03-22T13:34:05Z</time>
      </trkpt>
      <trkpt lat="46.29266" lon="5.32588">
        <ele>263.2</ele>
        <time>2022-03-22T13:34:06Z</time>
      </trkpt>
      <trkpt lat="46.29272" lon="5.32602">
        <ele>263.6</ele>
        <time>2022-03-22T13:34:08Z</time>
      </trkpt>
      <trkpt lat="46.29281" lon="5.32628">
        <ele>264.2</ele>
        <time>2022-03-22T13:34:12Z</time>
      </trkpt>
      <trkpt lat="46.29283" lon="5.32635">
        <ele>264.4</ele>
        <time>2022-03-22T13:34:13Z</time>
      </trkpt>
      <trkpt lat="46.29286" lon="5.32649">
        <ele>264.6</ele>
        <time>2022-03-22T13:34:15Z</time>
      </trkpt>
      <trkpt lat="46.29287" lon="5.32655">
        <ele>264.8</ele>
        <time>2022-03-22T13:34:16Z</time>
      </trkpt>
      <trkpt lat="46.2929" lon="5.32669">
        <ele>265</ele>
        <time>2022-03-22T13:34:18Z</time>
      </trkpt>
      <trkpt lat="46.29292" lon="5.32712">
        <ele>265.8</ele>
        <time>2022-03-22T13:34:24Z</time>
      </trkpt>
      <trkpt lat="46.29296" lon="5.32747">
        <ele>266.6</ele>
        <time>2022-03-22T13:34:29Z</time>
      </trkpt>
      <trkpt lat="46.29297" lon="5.32755">
        <ele>267</ele>
        <time>2022-03-22T13:34:30Z</time>
      </trkpt>
      <trkpt lat="46.29305" lon="5.32778">
        <ele>267.4</ele>
        <time>2022-03-22T13:34:33Z</time>
      </trkpt>
      <trkpt lat="46.29321" lon="5.32811">
        <ele>268</ele>
        <time>2022-03-22T13:34:38Z</time>
      </trkpt>
      <trkpt lat="46.29328" lon="5.32823">
        <ele>268.6</ele>
        <time>2022-03-22T13:34:40Z</time>
      </trkpt>
      <trkpt lat="46.29338" lon="5.32842">
        <ele>268.8</ele>
        <time>2022-03-22T13:34:43Z</time>
      </trkpt>
      <trkpt lat="46.29348" lon="5.32871">
        <ele>269</ele>
        <time>2022-03-22T13:34:47Z</time>
      </trkpt>
      <trkpt lat="46.29354" lon="5.32887">
        <ele>269</ele>
        <time>2022-03-22T13:34:49Z</time>
      </trkpt>
      <trkpt lat="46.29357" lon="5.32895">
        <ele>269.2</ele>
        <time>2022-03-22T13:34:50Z</time>
      </trkpt>
      <trkpt lat="46.29362" lon="5.32926">
        <ele>269.4</ele>
        <time>2022-03-22T13:34:54Z</time>
      </trkpt>
      <trkpt lat="46.29384" lon="5.32997">
        <ele>270</ele>
        <time>2022-03-22T13:35:03Z</time>
      </trkpt>
      <trkpt lat="46.29413" lon="5.33058">
        <ele>270</ele>
        <time>2022-03-22T13:35:11Z</time>
      </trkpt>
      <trkpt lat="46.29447" lon="5.33123">
        <ele>269.6</ele>
        <time>2022-03-22T13:35:19Z</time>
      </trkpt>
      <trkpt lat="46.29452" lon="5.33131">
        <ele>269.6</ele>
        <time>2022-03-22T13:35:20Z</time>
      </trkpt>
      <trkpt lat="46.29469" lon="5.33166">
        <ele>269.2</ele>
        <time>2022-03-22T13:35:24Z</time>
      </trkpt>
      <trkpt lat="46.29474" lon="5.33185">
        <ele>269.2</ele>
        <time>2022-03-22T13:35:26Z</time>
      </trkpt>
      <trkpt lat="46.29476" lon="5.33194">
        <ele>269.2</ele>
        <time>2022-03-22T13:35:27Z</time>
      </trkpt>
      <trkpt lat="46.29479" lon="5.33213">
        <ele>269</ele>
        <time>2022-03-22T13:35:29Z</time>
      </trkpt>
      <trkpt lat="46.2948" lon="5.33223">
        <ele>269</ele>
        <time>2022-03-22T13:35:30Z</time>
      </trkpt>
      <trkpt lat="46.29483" lon="5.33262">
        <ele>269</ele>
        <time>2022-03-22T13:35:34Z</time>
      </trkpt>
      <trkpt lat="46.29482" lon="5.33281">
        <ele>269.2</ele>
        <time>2022-03-22T13:35:36Z</time>
      </trkpt>
      <trkpt lat="46.29481" lon="5.33291">
        <ele>269.2</ele>
        <time>2022-03-22T13:35:37Z</time>
      </trkpt>
      <trkpt lat="46.29479" lon="5.333">
        <ele>269.2</ele>
        <time>2022-03-22T13:35:38Z</time>
      </trkpt>
      <trkpt lat="46.29469" lon="5.33324">
        <ele>269.4</ele>
        <time>2022-03-22T13:35:41Z</time>
      </trkpt>
      <trkpt lat="46.29451" lon="5.33365">
        <ele>269.8</ele>
        <time>2022-03-22T13:35:46Z</time>
      </trkpt>
      <trkpt lat="46.29436" lon="5.33397">
        <ele>269.8</ele>
        <time>2022-03-22T13:35:50Z</time>
      </trkpt>
      <trkpt lat="46.29409" lon="5.3346">
        <ele>269.8</ele>
        <time>2022-03-22T13:35:58Z</time>
      </trkpt>
      <trkpt lat="46.294" lon="5.33491">
        <ele>270.4</ele>
        <time>2022-03-22T13:36:02Z</time>
      </trkpt>
      <trkpt lat="46.29394" lon="5.33516">
        <ele>270.6</ele>
        <time>2022-03-22T13:36:05Z</time>
      </trkpt>
      <trkpt lat="46.29373" lon="5.33594">
        <ele>270.8</ele>
        <time>2022-03-22T13:36:14Z</time>
      </trkpt>
      <trkpt lat="46.29347" lon="5.33644">
        <ele>270.6</ele>
        <time>2022-03-22T13:36:20Z</time>
      </trkpt>
      <trkpt lat="46.29317" lon="5.33696">
        <ele>270</ele>
        <time>2022-03-22T13:36:27Z</time>
      </trkpt>
      <trkpt lat="46.29296" lon="5.33732">
        <ele>269.8</ele>
        <time>2022-03-22T13:36:33Z</time>
      </trkpt>
      <trkpt lat="46.29293" lon="5.33739">
        <ele>269.8</ele>
        <time>2022-03-22T13:36:34Z</time>
      </trkpt>
      <trkpt lat="46.29293" lon="5.33752">
        <ele>270</ele>
        <time>2022-03-22T13:36:36Z</time>
      </trkpt>
      <trkpt lat="46.29298" lon="5.33757">
        <ele>270</ele>
        <time>2022-03-22T13:36:38Z</time>
      </trkpt>
      <trkpt lat="46.29303" lon="5.33757">
        <ele>270.2</ele>
        <time>2022-03-22T13:36:39Z</time>
      </trkpt>
      <trkpt lat="46.29331" lon="5.3375">
        <ele>270.8</ele>
        <time>2022-03-22T13:36:44Z</time>
      </trkpt>
      <trkpt lat="46.29357" lon="5.33745">
        <ele>270.8</ele>
        <time>2022-03-22T13:36:48Z</time>
      </trkpt>
      <trkpt lat="46.29377" lon="5.33741">
        <ele>270.6</ele>
        <time>2022-03-22T13:36:51Z</time>
      </trkpt>
      <trkpt lat="46.29421" lon="5.33734">
        <ele>269.4</ele>
        <time>2022-03-22T13:36:57Z</time>
      </trkpt>
      <trkpt lat="46.29429" lon="5.33733">
        <ele>269.2</ele>
        <time>2022-03-22T13:36:58Z</time>
      </trkpt>
      <trkpt lat="46.29468" lon="5.33732">
        <ele>268.2</ele>
        <time>2022-03-22T13:37:03Z</time>
      </trkpt>
      <trkpt lat="46.29476" lon="5.33732">
        <ele>268</ele>
        <time>2022-03-22T13:37:04Z</time>
      </trkpt>
      <trkpt lat="46.29518" lon="5.33738">
        <ele>267.2</ele>
        <time>2022-03-22T13:37:09Z</time>
      </trkpt>
      <trkpt lat="46.29526" lon="5.3374">
        <ele>267</ele>
        <time>2022-03-22T13:37:10Z</time>
      </trkpt>
      <trkpt lat="46.29578" lon="5.33753">
        <ele>266</ele>
        <time>2022-03-22T13:37:16Z</time>
      </trkpt>
      <trkpt lat="46.29595" lon="5.33754">
        <ele>265.4</ele>
        <time>2022-03-22T13:37:18Z</time>
      </trkpt>
      <trkpt lat="46.29621" lon="5.33753">
        <ele>264.8</ele>
        <time>2022-03-22T13:37:21Z</time>
      </trkpt>
      <trkpt lat="46.29657" lon="5.33752">
        <ele>263.8</ele>
        <time>2022-03-22T13:37:25Z</time>
      </trkpt>
      <trkpt lat="46.29666" lon="5.33752">
        <ele>263.4</ele>
        <time>2022-03-22T13:37:26Z</time>
      </trkpt>
      <trkpt lat="46.29703" lon="5.33753">
        <ele>262.2</ele>
        <time>2022-03-22T13:37:30Z</time>
      </trkpt>
      <trkpt lat="46.29732" lon="5.33756">
        <ele>261.2</ele>
        <time>2022-03-22T13:37:33Z</time>
      </trkpt>
      <trkpt lat="46.29741" lon="5.33757">
        <ele>261</ele>
        <time>2022-03-22T13:37:34Z</time>
      </trkpt>
      <trkpt lat="46.2977" lon="5.3376">
        <ele>260</ele>
        <time>2022-03-22T13:37:37Z</time>
      </trkpt>
      <trkpt lat="46.29779" lon="5.3376">
        <ele>259.8</ele>
        <time>2022-03-22T13:37:38Z</time>
      </trkpt>
      <trkpt lat="46.29817" lon="5.33755">
        <ele>258.8</ele>
        <time>2022-03-22T13:37:42Z</time>
      </trkpt>
      <trkpt lat="46.29845" lon="5.33751">
        <ele>257.8</ele>
        <time>2022-03-22T13:37:45Z</time>
      </trkpt>
      <trkpt lat="46.29855" lon="5.3375">
        <ele>257.6</ele>
        <time>2022-03-22T13:37:46Z</time>
      </trkpt>
      <trkpt lat="46.29894" lon="5.33747">
        <ele>256.6</ele>
        <time>2022-03-22T13:37:50Z</time>
      </trkpt>
      <trkpt lat="46.29913" lon="5.33748">
        <ele>256</ele>
        <time>2022-03-22T13:37:52Z</time>
      </trkpt>
      <trkpt lat="46.29922" lon="5.33748">
        <ele>255.6</ele>
        <time>2022-03-22T13:37:53Z</time>
      </trkpt>
      <trkpt lat="46.29961" lon="5.33758">
        <ele>254.6</ele>
        <time>2022-03-22T13:37:57Z</time>
      </trkpt>
      <trkpt lat="46.2997" lon="5.33762">
        <ele>254.4</ele>
        <time>2022-03-22T13:37:58Z</time>
      </trkpt>
      <trkpt lat="46.29999" lon="5.3377">
        <ele>253.2</ele>
        <time>2022-03-22T13:38:01Z</time>
      </trkpt>
      <trkpt lat="46.30008" lon="5.33771">
        <ele>252.8</ele>
        <time>2022-03-22T13:38:02Z</time>
      </trkpt>
      <trkpt lat="46.30037" lon="5.33767">
        <ele>252.2</ele>
        <time>2022-03-22T13:38:05Z</time>
      </trkpt>
      <trkpt lat="46.30056" lon="5.33765">
        <ele>251.6</ele>
        <time>2022-03-22T13:38:07Z</time>
      </trkpt>
      <trkpt lat="46.30075" lon="5.33768">
        <ele>251.2</ele>
        <time>2022-03-22T13:38:09Z</time>
      </trkpt>
      <trkpt lat="46.30105" lon="5.33773">
        <ele>250.6</ele>
        <time>2022-03-22T13:38:12Z</time>
      </trkpt>
      <trkpt lat="46.30115" lon="5.33775">
        <ele>250.2</ele>
        <time>2022-03-22T13:38:13Z</time>
      </trkpt>
      <trkpt lat="46.30147" lon="5.3378">
        <ele>248.4</ele>
        <time>2022-03-22T13:38:16Z</time>
      </trkpt>
      <trkpt lat="46.30158" lon="5.33782">
        <ele>248.2</ele>
        <time>2022-03-22T13:38:17Z</time>
      </trkpt>
      <trkpt lat="46.3017" lon="5.33784">
        <ele>247.2</ele>
        <time>2022-03-22T13:38:18Z</time>
      </trkpt>
      <trkpt lat="46.30192" lon="5.33786">
        <ele>245.6</ele>
        <time>2022-03-22T13:38:20Z</time>
      </trkpt>
      <trkpt lat="46.30215" lon="5.33786">
        <ele>244.6</ele>
        <time>2022-03-22T13:38:22Z</time>
      </trkpt>
      <trkpt lat="46.30226" lon="5.33785">
        <ele>243.8</ele>
        <time>2022-03-22T13:38:23Z</time>
      </trkpt>
      <trkpt lat="46.30249" lon="5.33781">
        <ele>242.8</ele>
        <time>2022-03-22T13:38:25Z</time>
      </trkpt>
      <trkpt lat="46.3026" lon="5.33776">
        <ele>242.4</ele>
        <time>2022-03-22T13:38:26Z</time>
      </trkpt>
      <trkpt lat="46.30271" lon="5.33772">
        <ele>240.8</ele>
        <time>2022-03-22T13:38:27Z</time>
      </trkpt>
      <trkpt lat="46.30291" lon="5.33762">
        <ele>239.4</ele>
        <time>2022-03-22T13:38:29Z</time>
      </trkpt>
      <trkpt lat="46.30319" lon="5.33748">
        <ele>238.2</ele>
        <time>2022-03-22T13:38:32Z</time>
      </trkpt>
      <trkpt lat="46.3036" lon="5.33726">
        <ele>237.8</ele>
        <time>2022-03-22T13:38:37Z</time>
      </trkpt>
      <trkpt lat="46.30414" lon="5.33701">
        <ele>238.2</ele>
        <time>2022-03-22T13:38:44Z</time>
      </trkpt>
      <trkpt lat="46.30467" lon="5.33682">
        <ele>237.8</ele>
        <time>2022-03-22T13:38:51Z</time>
      </trkpt>
      <trkpt lat="46.30473" lon="5.3368">
        <ele>237.8</ele>
        <time>2022-03-22T13:38:52Z</time>
      </trkpt>
      <trkpt lat="46.30498" lon="5.33678">
        <ele>238</ele>
        <time>2022-03-22T13:38:56Z</time>
      </trkpt>
      <trkpt lat="46.30508" lon="5.33675">
        <ele>238.4</ele>
        <time>2022-03-22T13:38:58Z</time>
      </trkpt>
      <trkpt lat="46.30524" lon="5.33667">
        <ele>239.2</ele>
        <time>2022-03-22T13:39:01Z</time>
      </trkpt>
      <trkpt lat="46.3054" lon="5.33659">
        <ele>240.2</ele>
        <time>2022-03-22T13:39:04Z</time>
      </trkpt>
      <trkpt lat="46.30545" lon="5.33657">
        <ele>240.4</ele>
        <time>2022-03-22T13:39:05Z</time>
      </trkpt>
      <trkpt lat="46.30557" lon="5.33656">
        <ele>240.8</ele>
        <time>2022-03-22T13:39:07Z</time>
      </trkpt>
      <trkpt lat="46.30563" lon="5.33657">
        <ele>240.8</ele>
        <time>2022-03-22T13:39:08Z</time>
      </trkpt>
      <trkpt lat="46.30574" lon="5.33661">
        <ele>240.8</ele>
        <time>2022-03-22T13:39:10Z</time>
      </trkpt>
      <trkpt lat="46.30579" lon="5.33663">
        <ele>240.8</ele>
        <time>2022-03-22T13:39:11Z</time>
      </trkpt>
      <trkpt lat="46.30585" lon="5.33666">
        <ele>240.8</ele>
        <time>2022-03-22T13:39:12Z</time>
      </trkpt>
      <trkpt lat="46.30603" lon="5.33676">
        <ele>240.2</ele>
        <time>2022-03-22T13:39:15Z</time>
      </trkpt>
      <trkpt lat="46.30615" lon="5.33688">
        <ele>239.6</ele>
        <time>2022-03-22T13:39:17Z</time>
      </trkpt>
      <trkpt lat="46.3062" lon="5.33697">
        <ele>239.2</ele>
        <time>2022-03-22T13:39:18Z</time>
      </trkpt>
      <trkpt lat="46.30625" lon="5.33707">
        <ele>239.2</ele>
        <time>2022-03-22T13:39:19Z</time>
      </trkpt>
      <trkpt lat="46.30639" lon="5.33735">
        <ele>238</ele>
        <time>2022-03-22T13:39:22Z</time>
      </trkpt>
      <trkpt lat="46.30647" lon="5.33755">
        <ele>237.6</ele>
        <time>2022-03-22T13:39:24Z</time>
      </trkpt>
      <trkpt lat="46.30669" lon="5.338">
        <ele>237</ele>
        <time>2022-03-22T13:39:28Z</time>
      </trkpt>
      <trkpt lat="46.30675" lon="5.33809">
        <ele>236.6</ele>
        <time>2022-03-22T13:39:29Z</time>
      </trkpt>
      <trkpt lat="46.307" lon="5.33842">
        <ele>236</ele>
        <time>2022-03-22T13:39:33Z</time>
      </trkpt>
      <trkpt lat="46.30706" lon="5.33849">
        <ele>235.8</ele>
        <time>2022-03-22T13:39:34Z</time>
      </trkpt>
      <trkpt lat="46.30713" lon="5.33855">
        <ele>235.8</ele>
        <time>2022-03-22T13:39:35Z</time>
      </trkpt>
      <trkpt lat="46.30733" lon="5.33875">
        <ele>235.6</ele>
        <time>2022-03-22T13:39:38Z</time>
      </trkpt>
      <trkpt lat="46.30738" lon="5.33884">
        <ele>235.6</ele>
        <time>2022-03-22T13:39:39Z</time>
      </trkpt>
      <trkpt lat="46.30742" lon="5.33894">
        <ele>235.6</ele>
        <time>2022-03-22T13:39:40Z</time>
      </trkpt>
      <trkpt lat="46.30745" lon="5.33916">
        <ele>235.6</ele>
        <time>2022-03-22T13:39:42Z</time>
      </trkpt>
      <trkpt lat="46.30754" lon="5.33967">
        <ele>236</ele>
        <time>2022-03-22T13:39:47Z</time>
      </trkpt>
      <trkpt lat="46.30767" lon="5.3402">
        <ele>237.4</ele>
        <time>2022-03-22T13:39:53Z</time>
      </trkpt>
      <trkpt lat="46.30777" lon="5.34058">
        <ele>238.4</ele>
        <time>2022-03-22T13:39:58Z</time>
      </trkpt>
      <trkpt lat="46.3078" lon="5.34073">
        <ele>239</ele>
        <time>2022-03-22T13:40:00Z</time>
      </trkpt>
      <trkpt lat="46.30788" lon="5.34105">
        <ele>239.6</ele>
        <time>2022-03-22T13:40:04Z</time>
      </trkpt>
      <trkpt lat="46.30796" lon="5.34135">
        <ele>240</ele>
        <time>2022-03-22T13:40:08Z</time>
      </trkpt>
      <trkpt lat="46.30813" lon="5.34197">
        <ele>240.8</ele>
        <time>2022-03-22T13:40:16Z</time>
      </trkpt>
      <trkpt lat="46.30814" lon="5.34202">
        <ele>241</ele>
        <time>2022-03-22T13:40:17Z</time>
      </trkpt>
      <trkpt lat="46.30823" lon="5.34228">
        <ele>242</ele>
        <time>2022-03-22T13:40:21Z</time>
      </trkpt>
      <trkpt lat="46.30831" lon="5.34253">
        <ele>242.2</ele>
        <time>2022-03-22T13:40:24Z</time>
      </trkpt>
      <trkpt lat="46.30849" lon="5.3431">
        <ele>241.8</ele>
        <time>2022-03-22T13:40:30Z</time>
      </trkpt>
      <trkpt lat="46.30865" lon="5.34359">
        <ele>240.8</ele>
        <time>2022-03-22T13:40:35Z</time>
      </trkpt>
      <trkpt lat="46.30872" lon="5.34386">
        <ele>240.8</ele>
        <time>2022-03-22T13:40:38Z</time>
      </trkpt>
      <trkpt lat="46.3088" lon="5.34429">
        <ele>241.2</ele>
        <time>2022-03-22T13:40:43Z</time>
      </trkpt>
      <trkpt lat="46.30887" lon="5.34466">
        <ele>242.4</ele>
        <time>2022-03-22T13:40:48Z</time>
      </trkpt>
      <trkpt lat="46.30888" lon="5.34473">
        <ele>242.8</ele>
        <time>2022-03-22T13:40:49Z</time>
      </trkpt>
      <trkpt lat="46.30891" lon="5.3449">
        <ele>243.6</ele>
        <time>2022-03-22T13:40:52Z</time>
      </trkpt>
      <trkpt lat="46.30894" lon="5.34501">
        <ele>244</ele>
        <time>2022-03-22T13:40:54Z</time>
      </trkpt>
      <trkpt lat="46.30898" lon="5.34516">
        <ele>244.8</ele>
        <time>2022-03-22T13:40:57Z</time>
      </trkpt>
      <trkpt lat="46.30903" lon="5.34533">
        <ele>245.6</ele>
        <time>2022-03-22T13:41:00Z</time>
      </trkpt>
      <trkpt lat="46.30904" lon="5.34537">
        <ele>246</ele>
        <time>2022-03-22T13:41:01Z</time>
      </trkpt>
      <trkpt lat="46.30907" lon="5.34565">
        <ele>247</ele>
        <time>2022-03-22T13:41:05Z</time>
      </trkpt>
      <trkpt lat="46.30908" lon="5.34573">
        <ele>247.2</ele>
        <time>2022-03-22T13:41:06Z</time>
      </trkpt>
      <trkpt lat="46.30914" lon="5.34637">
        <ele>247.4</ele>
        <time>2022-03-22T13:41:13Z</time>
      </trkpt>
      <trkpt lat="46.30919" lon="5.34707">
        <ele>247</ele>
        <time>2022-03-22T13:41:20Z</time>
      </trkpt>
      <trkpt lat="46.30933" lon="5.34766">
        <ele>247</ele>
        <time>2022-03-22T13:41:27Z</time>
      </trkpt>
      <trkpt lat="46.30936" lon="5.34781">
        <ele>247.2</ele>
        <time>2022-03-22T13:41:29Z</time>
      </trkpt>
      <trkpt lat="46.30938" lon="5.34802">
        <ele>248</ele>
        <time>2022-03-22T13:41:32Z</time>
      </trkpt>
      <trkpt lat="46.30938" lon="5.34815">
        <ele>248.4</ele>
        <time>2022-03-22T13:41:34Z</time>
      </trkpt>
      <trkpt lat="46.30935" lon="5.34832">
        <ele>249</ele>
        <time>2022-03-22T13:41:37Z</time>
      </trkpt>
      <trkpt lat="46.30934" lon="5.34837">
        <ele>249</ele>
        <time>2022-03-22T13:41:38Z</time>
      </trkpt>
      <trkpt lat="46.3093" lon="5.34852">
        <ele>250</ele>
        <time>2022-03-22T13:41:41Z</time>
      </trkpt>
      <trkpt lat="46.30927" lon="5.34862">
        <ele>250.6</ele>
        <time>2022-03-22T13:41:43Z</time>
      </trkpt>
      <trkpt lat="46.30923" lon="5.34873">
        <ele>251.2</ele>
        <time>2022-03-22T13:41:45Z</time>
      </trkpt>
      <trkpt lat="46.30917" lon="5.34901">
        <ele>252.4</ele>
        <time>2022-03-22T13:41:50Z</time>
      </trkpt>
      <trkpt lat="46.30913" lon="5.34923">
        <ele>253.6</ele>
        <time>2022-03-22T13:41:54Z</time>
      </trkpt>
      <trkpt lat="46.30912" lon="5.34952">
        <ele>254.2</ele>
        <time>2022-03-22T13:41:59Z</time>
      </trkpt>
      <trkpt lat="46.30912" lon="5.34971">
        <ele>254.6</ele>
        <time>2022-03-22T13:42:02Z</time>
      </trkpt>
      <trkpt lat="46.30914" lon="5.34997">
        <ele>255.4</ele>
        <time>2022-03-22T13:42:06Z</time>
      </trkpt>
      <trkpt lat="46.30914" lon="5.35009">
        <ele>255.8</ele>
        <time>2022-03-22T13:42:08Z</time>
      </trkpt>
      <trkpt lat="46.3092" lon="5.35045">
        <ele>256.4</ele>
        <time>2022-03-22T13:42:14Z</time>
      </trkpt>
      <trkpt lat="46.30922" lon="5.35051">
        <ele>256.6</ele>
        <time>2022-03-22T13:42:15Z</time>
      </trkpt>
      <trkpt lat="46.30926" lon="5.35062">
        <ele>256.8</ele>
        <time>2022-03-22T13:42:17Z</time>
      </trkpt>
      <trkpt lat="46.30937" lon="5.35083">
        <ele>257.2</ele>
        <time>2022-03-22T13:42:21Z</time>
      </trkpt>
      <trkpt lat="46.30958" lon="5.35108">
        <ele>257.6</ele>
        <time>2022-03-22T13:42:26Z</time>
      </trkpt>
      <trkpt lat="46.30992" lon="5.35154">
        <ele>257.4</ele>
        <time>2022-03-22T13:42:33Z</time>
      </trkpt>
      <trkpt lat="46.31017" lon="5.35196">
        <ele>257.6</ele>
        <time>2022-03-22T13:42:39Z</time>
      </trkpt>
      <trkpt lat="46.31026" lon="5.35212">
        <ele>258.2</ele>
        <time>2022-03-22T13:42:42Z</time>
      </trkpt>
      <trkpt lat="46.3103" lon="5.35221">
        <ele>258.4</ele>
        <time>2022-03-22T13:42:44Z</time>
      </trkpt>
      <trkpt lat="46.31038" lon="5.35242">
        <ele>259.2</ele>
        <time>2022-03-22T13:42:49Z</time>
      </trkpt>
      <trkpt lat="46.3104" lon="5.35248">
        <ele>259.4</ele>
        <time>2022-03-22T13:42:50Z</time>
      </trkpt>
      <trkpt lat="46.31042" lon="5.35272">
        <ele>259.6</ele>
        <time>2022-03-22T13:42:53Z</time>
      </trkpt>
      <trkpt lat="46.31042" lon="5.35281">
        <ele>259.6</ele>
        <time>2022-03-22T13:42:54Z</time>
      </trkpt>
      <trkpt lat="46.31045" lon="5.35335">
        <ele>258.8</ele>
        <time>2022-03-22T13:42:59Z</time>
      </trkpt>
      <trkpt lat="46.31047" lon="5.35358">
        <ele>258.2</ele>
        <time>2022-03-22T13:43:01Z</time>
      </trkpt>
      <trkpt lat="46.3105" lon="5.35419">
        <ele>257.2</ele>
        <time>2022-03-22T13:43:06Z</time>
      </trkpt>
      <trkpt lat="46.31051" lon="5.35431">
        <ele>257.2</ele>
        <time>2022-03-22T13:43:07Z</time>
      </trkpt>
      <trkpt lat="46.3106" lon="5.35487">
        <ele>256.4</ele>
        <time>2022-03-22T13:43:12Z</time>
      </trkpt>
      <trkpt lat="46.31069" lon="5.35526">
        <ele>256.6</ele>
        <time>2022-03-22T13:43:16Z</time>
      </trkpt>
      <trkpt lat="46.31072" lon="5.35541">
        <ele>256.8</ele>
        <time>2022-03-22T13:43:18Z</time>
      </trkpt>
      <trkpt lat="46.31076" lon="5.35562">
        <ele>257.2</ele>
        <time>2022-03-22T13:43:21Z</time>
      </trkpt>
      <trkpt lat="46.3108" lon="5.35581">
        <ele>257.6</ele>
        <time>2022-03-22T13:43:24Z</time>
      </trkpt>
      <trkpt lat="46.31084" lon="5.35594">
        <ele>258</ele>
        <time>2022-03-22T13:43:26Z</time>
      </trkpt>
      <trkpt lat="46.31086" lon="5.356">
        <ele>258.2</ele>
        <time>2022-03-22T13:43:27Z</time>
      </trkpt>
      <trkpt lat="46.31089" lon="5.35613">
        <ele>258.6</ele>
        <time>2022-03-22T13:43:29Z</time>
      </trkpt>
      <trkpt lat="46.31094" lon="5.35627">
        <ele>258.8</ele>
        <time>2022-03-22T13:43:31Z</time>
      </trkpt>
      <trkpt lat="46.31103" lon="5.35652">
        <ele>259</ele>
        <time>2022-03-22T13:43:34Z</time>
      </trkpt>
      <trkpt lat="46.31106" lon="5.3566">
        <ele>259.2</ele>
        <time>2022-03-22T13:43:35Z</time>
      </trkpt>
      <trkpt lat="46.31125" lon="5.35707">
        <ele>259</ele>
        <time>2022-03-22T13:43:40Z</time>
      </trkpt>
      <trkpt lat="46.3114" lon="5.35734">
        <ele>258.6</ele>
        <time>2022-03-22T13:43:43Z</time>
      </trkpt>
      <trkpt lat="46.31157" lon="5.35763">
        <ele>258</ele>
        <time>2022-03-22T13:43:46Z</time>
      </trkpt>
      <trkpt lat="46.31163" lon="5.35771">
        <ele>257.6</ele>
        <time>2022-03-22T13:43:47Z</time>
      </trkpt>
      <trkpt lat="46.31178" lon="5.358">
        <ele>257.4</ele>
        <time>2022-03-22T13:43:50Z</time>
      </trkpt>
      <trkpt lat="46.31182" lon="5.35808">
        <ele>257.4</ele>
        <time>2022-03-22T13:43:51Z</time>
      </trkpt>
      <trkpt lat="46.3119" lon="5.35824">
        <ele>257.4</ele>
        <time>2022-03-22T13:43:53Z</time>
      </trkpt>
      <trkpt lat="46.31194" lon="5.35832">
        <ele>257.4</ele>
        <time>2022-03-22T13:43:54Z</time>
      </trkpt>
      <trkpt lat="46.31221" lon="5.35873">
        <ele>258</ele>
        <time>2022-03-22T13:44:00Z</time>
      </trkpt>
      <trkpt lat="46.31263" lon="5.35913">
        <ele>258.6</ele>
        <time>2022-03-22T13:44:08Z</time>
      </trkpt>
      <trkpt lat="46.31285" lon="5.35928">
        <ele>259.4</ele>
        <time>2022-03-22T13:44:12Z</time>
      </trkpt>
      <trkpt lat="46.313" lon="5.35938">
        <ele>259.6</ele>
        <time>2022-03-22T13:44:15Z</time>
      </trkpt>
      <trkpt lat="46.31306" lon="5.3594">
        <ele>259.8</ele>
        <time>2022-03-22T13:44:16Z</time>
      </trkpt>
      <trkpt lat="46.3133" lon="5.35952">
        <ele>260.6</ele>
        <time>2022-03-22T13:44:21Z</time>
      </trkpt>
      <trkpt lat="46.31339" lon="5.35957">
        <ele>260.8</ele>
        <time>2022-03-22T13:44:23Z</time>
      </trkpt>
      <trkpt lat="46.31354" lon="5.35966">
        <ele>261.6</ele>
        <time>2022-03-22T13:44:26Z</time>
      </trkpt>
      <trkpt lat="46.31364" lon="5.35972">
        <ele>261.6</ele>
        <time>2022-03-22T13:44:28Z</time>
      </trkpt>
      <trkpt lat="46.31373" lon="5.3598">
        <ele>262</ele>
        <time>2022-03-22T13:44:30Z</time>
      </trkpt>
      <trkpt lat="46.31387" lon="5.36">
        <ele>262.6</ele>
        <time>2022-03-22T13:44:34Z</time>
      </trkpt>
      <trkpt lat="46.31392" lon="5.36005">
        <ele>262.6</ele>
        <time>2022-03-22T13:44:35Z</time>
      </trkpt>
      <trkpt lat="46.31395" lon="5.36009">
        <ele>262.8</ele>
        <time>2022-03-22T13:44:36Z</time>
      </trkpt>
      <trkpt lat="46.31411" lon="5.36035">
        <ele>263.8</ele>
        <time>2022-03-22T13:44:41Z</time>
      </trkpt>
      <trkpt lat="46.3142" lon="5.36052">
        <ele>264.2</ele>
        <time>2022-03-22T13:44:44Z</time>
      </trkpt>
      <trkpt lat="46.31423" lon="5.36057">
        <ele>264.4</ele>
        <time>2022-03-22T13:44:45Z</time>
      </trkpt>
      <trkpt lat="46.3143" lon="5.36067">
        <ele>264.8</ele>
        <time>2022-03-22T13:44:47Z</time>
      </trkpt>
      <trkpt lat="46.3144" lon="5.36083">
        <ele>265.4</ele>
        <time>2022-03-22T13:44:50Z</time>
      </trkpt>
      <trkpt lat="46.31444" lon="5.36088">
        <ele>265.6</ele>
        <time>2022-03-22T13:44:51Z</time>
      </trkpt>
      <trkpt lat="46.31447" lon="5.36094">
        <ele>265.8</ele>
        <time>2022-03-22T13:44:52Z</time>
      </trkpt>
      <trkpt lat="46.31456" lon="5.36109">
        <ele>266.6</ele>
        <time>2022-03-22T13:44:55Z</time>
      </trkpt>
      <trkpt lat="46.31463" lon="5.36121">
        <ele>267</ele>
        <time>2022-03-22T13:44:57Z</time>
      </trkpt>
      <trkpt lat="46.31474" lon="5.36138">
        <ele>267.4</ele>
        <time>2022-03-22T13:45:00Z</time>
      </trkpt>
      <trkpt lat="46.31478" lon="5.36145">
        <ele>267.8</ele>
        <time>2022-03-22T13:45:01Z</time>
      </trkpt>
      <trkpt lat="46.31494" lon="5.36167">
        <ele>268</ele>
        <time>2022-03-22T13:45:05Z</time>
      </trkpt>
      <trkpt lat="46.315" lon="5.36173">
        <ele>268.4</ele>
        <time>2022-03-22T13:45:06Z</time>
      </trkpt>
      <trkpt lat="46.3151" lon="5.36181">
        <ele>268.6</ele>
        <time>2022-03-22T13:45:08Z</time>
      </trkpt>
      <trkpt lat="46.31518" lon="5.3619">
        <ele>268.8</ele>
        <time>2022-03-22T13:45:10Z</time>
      </trkpt>
      <trkpt lat="46.31527" lon="5.36198">
        <ele>268.8</ele>
        <time>2022-03-22T13:45:12Z</time>
      </trkpt>
      <trkpt lat="46.31544" lon="5.36212">
        <ele>269.2</ele>
        <time>2022-03-22T13:45:15Z</time>
      </trkpt>
      <trkpt lat="46.31559" lon="5.36227">
        <ele>269.4</ele>
        <time>2022-03-22T13:45:18Z</time>
      </trkpt>
      <trkpt lat="46.31575" lon="5.36249">
        <ele>270.4</ele>
        <time>2022-03-22T13:45:22Z</time>
      </trkpt>
      <trkpt lat="46.31583" lon="5.36262">
        <ele>270.6</ele>
        <time>2022-03-22T13:45:24Z</time>
      </trkpt>
      <trkpt lat="46.31587" lon="5.36267">
        <ele>270.6</ele>
        <time>2022-03-22T13:45:25Z</time>
      </trkpt>
      <trkpt lat="46.31599" lon="5.36282">
        <ele>271.4</ele>
        <time>2022-03-22T13:45:28Z</time>
      </trkpt>
      <trkpt lat="46.31622" lon="5.36314">
        <ele>272.2</ele>
        <time>2022-03-22T13:45:34Z</time>
      </trkpt>
      <trkpt lat="46.31626" lon="5.36319">
        <ele>272.4</ele>
        <time>2022-03-22T13:45:35Z</time>
      </trkpt>
      <trkpt lat="46.31646" lon="5.36349">
        <ele>273.4</ele>
        <time>2022-03-22T13:45:41Z</time>
      </trkpt>
      <trkpt lat="46.31653" lon="5.3636">
        <ele>273.8</ele>
        <time>2022-03-22T13:45:43Z</time>
      </trkpt>
      <trkpt lat="46.31666" lon="5.3638">
        <ele>274.6</ele>
        <time>2022-03-22T13:45:47Z</time>
      </trkpt>
      <trkpt lat="46.3168" lon="5.36405">
        <ele>275.6</ele>
        <time>2022-03-22T13:45:52Z</time>
      </trkpt>
      <trkpt lat="46.31684" lon="5.36411">
        <ele>275.6</ele>
        <time>2022-03-22T13:45:53Z</time>
      </trkpt>
      <trkpt lat="46.31704" lon="5.36447">
        <ele>276.8</ele>
        <time>2022-03-22T13:46:00Z</time>
      </trkpt>
      <trkpt lat="46.3171" lon="5.36458">
        <ele>277.2</ele>
        <time>2022-03-22T13:46:02Z</time>
      </trkpt>
      <trkpt lat="46.31719" lon="5.36474">
        <ele>277.8</ele>
        <time>2022-03-22T13:46:05Z</time>
      </trkpt>
      <trkpt lat="46.31735" lon="5.36497">
        <ele>278.8</ele>
        <time>2022-03-22T13:46:10Z</time>
      </trkpt>
      <trkpt lat="46.31738" lon="5.36502">
        <ele>278.8</ele>
        <time>2022-03-22T13:46:11Z</time>
      </trkpt>
      <trkpt lat="46.31753" lon="5.36524">
        <ele>279.8</ele>
        <time>2022-03-22T13:46:16Z</time>
      </trkpt>
      <trkpt lat="46.31764" lon="5.36544">
        <ele>280.8</ele>
        <time>2022-03-22T13:46:20Z</time>
      </trkpt>
      <trkpt lat="46.31766" lon="5.36549">
        <ele>280.8</ele>
        <time>2022-03-22T13:46:21Z</time>
      </trkpt>
      <trkpt lat="46.3178" lon="5.36589">
        <ele>282</ele>
        <time>2022-03-22T13:46:28Z</time>
      </trkpt>
      <trkpt lat="46.31785" lon="5.36603">
        <ele>282.2</ele>
        <time>2022-03-22T13:46:30Z</time>
      </trkpt>
      <trkpt lat="46.31798" lon="5.36647">
        <ele>283.2</ele>
        <time>2022-03-22T13:46:37Z</time>
      </trkpt>
      <trkpt lat="46.31801" lon="5.3666">
        <ele>283.4</ele>
        <time>2022-03-22T13:46:39Z</time>
      </trkpt>
      <trkpt lat="46.31815" lon="5.3671">
        <ele>284.2</ele>
        <time>2022-03-22T13:46:47Z</time>
      </trkpt>
      <trkpt lat="46.31827" lon="5.36755">
        <ele>285.6</ele>
        <time>2022-03-22T13:46:54Z</time>
      </trkpt>
      <trkpt lat="46.31837" lon="5.36808">
        <ele>286.6</ele>
        <time>2022-03-22T13:47:02Z</time>
      </trkpt>
      <trkpt lat="46.31839" lon="5.3682">
        <ele>286.8</ele>
        <time>2022-03-22T13:47:04Z</time>
      </trkpt>
      <trkpt lat="46.31845" lon="5.36862">
        <ele>287.6</ele>
        <time>2022-03-22T13:47:10Z</time>
      </trkpt>
      <trkpt lat="46.31848" lon="5.36887">
        <ele>288.2</ele>
        <time>2022-03-22T13:47:14Z</time>
      </trkpt>
      <trkpt lat="46.31852" lon="5.36908">
        <ele>288.8</ele>
        <time>2022-03-22T13:47:17Z</time>
      </trkpt>
      <trkpt lat="46.31859" lon="5.36932">
        <ele>289.6</ele>
        <time>2022-03-22T13:47:21Z</time>
      </trkpt>
      <trkpt lat="46.31862" lon="5.36943">
        <ele>290</ele>
        <time>2022-03-22T13:47:23Z</time>
      </trkpt>
      <trkpt lat="46.31863" lon="5.3695">
        <ele>290</ele>
        <time>2022-03-22T13:47:24Z</time>
      </trkpt>
      <trkpt lat="46.31869" lon="5.3697">
        <ele>290.2</ele>
        <time>2022-03-22T13:47:27Z</time>
      </trkpt>
      <trkpt lat="46.3188" lon="5.37002">
        <ele>291</ele>
        <time>2022-03-22T13:47:32Z</time>
      </trkpt>
      <trkpt lat="46.31883" lon="5.37014">
        <ele>291.4</ele>
        <time>2022-03-22T13:47:34Z</time>
      </trkpt>
      <trkpt lat="46.31885" lon="5.37021">
        <ele>291.6</ele>
        <time>2022-03-22T13:47:35Z</time>
      </trkpt>
      <trkpt lat="46.31891" lon="5.37038">
        <ele>292</ele>
        <time>2022-03-22T13:47:38Z</time>
      </trkpt>
      <trkpt lat="46.31897" lon="5.37056">
        <ele>292.6</ele>
        <time>2022-03-22T13:47:41Z</time>
      </trkpt>
      <trkpt lat="46.31903" lon="5.37076">
        <ele>293.2</ele>
        <time>2022-03-22T13:47:44Z</time>
      </trkpt>
      <trkpt lat="46.31912" lon="5.37112">
        <ele>293.8</ele>
        <time>2022-03-22T13:47:50Z</time>
      </trkpt>
      <trkpt lat="46.31914" lon="5.37124">
        <ele>294.4</ele>
        <time>2022-03-22T13:47:52Z</time>
      </trkpt>
      <trkpt lat="46.31922" lon="5.37159">
        <ele>295.6</ele>
        <time>2022-03-22T13:47:58Z</time>
      </trkpt>
      <trkpt lat="46.31925" lon="5.37176">
        <ele>295.6</ele>
        <time>2022-03-22T13:48:01Z</time>
      </trkpt>
      <trkpt lat="46.31934" lon="5.37213">
        <ele>296.8</ele>
        <time>2022-03-22T13:48:07Z</time>
      </trkpt>
      <trkpt lat="46.31945" lon="5.37249">
        <ele>297.8</ele>
        <time>2022-03-22T13:48:13Z</time>
      </trkpt>
      <trkpt lat="46.31953" lon="5.37278">
        <ele>298.8</ele>
        <time>2022-03-22T13:48:18Z</time>
      </trkpt>
      <trkpt lat="46.31957" lon="5.37295">
        <ele>299.4</ele>
        <time>2022-03-22T13:48:21Z</time>
      </trkpt>
      <trkpt lat="46.31958" lon="5.37301">
        <ele>299.6</ele>
        <time>2022-03-22T13:48:22Z</time>
      </trkpt>
      <trkpt lat="46.3196" lon="5.37312">
        <ele>299.8</ele>
        <time>2022-03-22T13:48:24Z</time>
      </trkpt>
      <trkpt lat="46.31966" lon="5.37342">
        <ele>300.8</ele>
        <time>2022-03-22T13:48:29Z</time>
      </trkpt>
      <trkpt lat="46.31968" lon="5.37349">
        <ele>301</ele>
        <time>2022-03-22T13:48:30Z</time>
      </trkpt>
      <trkpt lat="46.31969" lon="5.37355">
        <ele>301</ele>
        <time>2022-03-22T13:48:31Z</time>
      </trkpt>
      <trkpt lat="46.31971" lon="5.37366">
        <ele>302</ele>
        <time>2022-03-22T13:48:33Z</time>
      </trkpt>
      <trkpt lat="46.31978" lon="5.37402">
        <ele>303</ele>
        <time>2022-03-22T13:48:39Z</time>
      </trkpt>
      <trkpt lat="46.31979" lon="5.37408">
        <ele>303</ele>
        <time>2022-03-22T13:48:40Z</time>
      </trkpt>
      <trkpt lat="46.31986" lon="5.3744">
        <ele>304.2</ele>
        <time>2022-03-22T13:48:46Z</time>
      </trkpt>
      <trkpt lat="46.3199" lon="5.37462">
        <ele>305</ele>
        <time>2022-03-22T13:48:50Z</time>
      </trkpt>
      <trkpt lat="46.31993" lon="5.37478">
        <ele>305.2</ele>
        <time>2022-03-22T13:48:53Z</time>
      </trkpt>
      <trkpt lat="46.31998" lon="5.37511">
        <ele>306.2</ele>
        <time>2022-03-22T13:48:59Z</time>
      </trkpt>
      <trkpt lat="46.31998" lon="5.37516">
        <ele>306.4</ele>
        <time>2022-03-22T13:49:00Z</time>
      </trkpt>
      <trkpt lat="46.32001" lon="5.37548">
        <ele>307.4</ele>
        <time>2022-03-22T13:49:06Z</time>
      </trkpt>
      <trkpt lat="46.32002" lon="5.37565">
        <ele>308.4</ele>
        <time>2022-03-22T13:49:09Z</time>
      </trkpt>
      <trkpt lat="46.32002" lon="5.37575">
        <ele>308.8</ele>
        <time>2022-03-22T13:49:11Z</time>
      </trkpt>
      <trkpt lat="46.32006" lon="5.37609">
        <ele>309.4</ele>
        <time>2022-03-22T13:49:17Z</time>
      </trkpt>
      <trkpt lat="46.32007" lon="5.37615">
        <ele>309.8</ele>
        <time>2022-03-22T13:49:18Z</time>
      </trkpt>
      <trkpt lat="46.32014" lon="5.37642">
        <ele>311</ele>
        <time>2022-03-22T13:49:23Z</time>
      </trkpt>
      <trkpt lat="46.32017" lon="5.37653">
        <ele>311.8</ele>
        <time>2022-03-22T13:49:25Z</time>
      </trkpt>
      <trkpt lat="46.3202" lon="5.37663">
        <ele>312.2</ele>
        <time>2022-03-22T13:49:27Z</time>
      </trkpt>
      <trkpt lat="46.32029" lon="5.37688">
        <ele>313.4</ele>
        <time>2022-03-22T13:49:32Z</time>
      </trkpt>
      <trkpt lat="46.32038" lon="5.37712">
        <ele>314.4</ele>
        <time>2022-03-22T13:49:37Z</time>
      </trkpt>
      <trkpt lat="46.3204" lon="5.37716">
        <ele>314.4</ele>
        <time>2022-03-22T13:49:38Z</time>
      </trkpt>
      <trkpt lat="46.32051" lon="5.37748">
        <ele>315.6</ele>
        <time>2022-03-22T13:49:44Z</time>
      </trkpt>
      <trkpt lat="46.32056" lon="5.37768">
        <ele>316.6</ele>
        <time>2022-03-22T13:49:48Z</time>
      </trkpt>
      <trkpt lat="46.32063" lon="5.37795">
        <ele>317.6</ele>
        <time>2022-03-22T13:49:53Z</time>
      </trkpt>
      <trkpt lat="46.32065" lon="5.378">
        <ele>317.8</ele>
        <time>2022-03-22T13:49:54Z</time>
      </trkpt>
      <trkpt lat="46.32076" lon="5.37839">
        <ele>318.8</ele>
        <time>2022-03-22T13:50:01Z</time>
      </trkpt>
      <trkpt lat="46.32078" lon="5.37846">
        <ele>319</ele>
        <time>2022-03-22T13:50:02Z</time>
      </trkpt>
      <trkpt lat="46.32088" lon="5.37877">
        <ele>319.8</ele>
        <time>2022-03-22T13:50:08Z</time>
      </trkpt>
      <trkpt lat="46.3209" lon="5.37886">
        <ele>320.2</ele>
        <time>2022-03-22T13:50:10Z</time>
      </trkpt>
      <trkpt lat="46.32096" lon="5.37907">
        <ele>321</ele>
        <time>2022-03-22T13:50:14Z</time>
      </trkpt>
      <trkpt lat="46.32103" lon="5.37927">
        <ele>321.8</ele>
        <time>2022-03-22T13:50:18Z</time>
      </trkpt>
      <trkpt lat="46.32106" lon="5.37936">
        <ele>322.2</ele>
        <time>2022-03-22T13:50:20Z</time>
      </trkpt>
      <trkpt lat="46.32116" lon="5.37969">
        <ele>323.2</ele>
        <time>2022-03-22T13:50:26Z</time>
      </trkpt>
      <trkpt lat="46.32118" lon="5.37978">
        <ele>323.8</ele>
        <time>2022-03-22T13:50:28Z</time>
      </trkpt>
      <trkpt lat="46.32124" lon="5.38">
        <ele>324.4</ele>
        <time>2022-03-22T13:50:32Z</time>
      </trkpt>
      <trkpt lat="46.32131" lon="5.38024">
        <ele>325.6</ele>
        <time>2022-03-22T13:50:37Z</time>
      </trkpt>
      <trkpt lat="46.32132" lon="5.38029">
        <ele>325.8</ele>
        <time>2022-03-22T13:50:38Z</time>
      </trkpt>
      <trkpt lat="46.32137" lon="5.38048">
        <ele>326.8</ele>
        <time>2022-03-22T13:50:42Z</time>
      </trkpt>
      <trkpt lat="46.32143" lon="5.38062">
        <ele>327.6</ele>
        <time>2022-03-22T13:50:45Z</time>
      </trkpt>
      <trkpt lat="46.32147" lon="5.3807">
        <ele>327.8</ele>
        <time>2022-03-22T13:50:47Z</time>
      </trkpt>
      <trkpt lat="46.32156" lon="5.38095">
        <ele>328.4</ele>
        <time>2022-03-22T13:50:52Z</time>
      </trkpt>
      <trkpt lat="46.32159" lon="5.38104">
        <ele>328.8</ele>
        <time>2022-03-22T13:50:54Z</time>
      </trkpt>
      <trkpt lat="46.32168" lon="5.38133">
        <ele>330</ele>
        <time>2022-03-22T13:51:00Z</time>
      </trkpt>
      <trkpt lat="46.32172" lon="5.38149">
        <ele>331</ele>
        <time>2022-03-22T13:51:04Z</time>
      </trkpt>
      <trkpt lat="46.32179" lon="5.3817">
        <ele>332.2</ele>
        <time>2022-03-22T13:51:09Z</time>
      </trkpt>
      <trkpt lat="46.32184" lon="5.38188">
        <ele>333.4</ele>
        <time>2022-03-22T13:51:14Z</time>
      </trkpt>
      <trkpt lat="46.3219" lon="5.38204">
        <ele>334.6</ele>
        <time>2022-03-22T13:51:18Z</time>
      </trkpt>
      <trkpt lat="46.32195" lon="5.38217">
        <ele>335.8</ele>
        <time>2022-03-22T13:51:22Z</time>
      </trkpt>
      <trkpt lat="46.32198" lon="5.38222">
        <ele>336.2</ele>
        <time>2022-03-22T13:51:24Z</time>
      </trkpt>
      <trkpt lat="46.32204" lon="5.38232">
        <ele>337</ele>
        <time>2022-03-22T13:51:27Z</time>
      </trkpt>
      <trkpt lat="46.32211" lon="5.38247">
        <ele>338.2</ele>
        <time>2022-03-22T13:51:32Z</time>
      </trkpt>
      <trkpt lat="46.32217" lon="5.38258">
        <ele>339.2</ele>
        <time>2022-03-22T13:51:35Z</time>
      </trkpt>
      <trkpt lat="46.32224" lon="5.38276">
        <ele>340.4</ele>
        <time>2022-03-22T13:51:40Z</time>
      </trkpt>
      <trkpt lat="46.32227" lon="5.38287">
        <ele>341</ele>
        <time>2022-03-22T13:51:43Z</time>
      </trkpt>
      <trkpt lat="46.32229" lon="5.38296">
        <ele>341.4</ele>
        <time>2022-03-22T13:51:45Z</time>
      </trkpt>
      <trkpt lat="46.32232" lon="5.38314">
        <ele>342.6</ele>
        <time>2022-03-22T13:51:50Z</time>
      </trkpt>
      <trkpt lat="46.32235" lon="5.38331">
        <ele>343.6</ele>
        <time>2022-03-22T13:51:54Z</time>
      </trkpt>
      <trkpt lat="46.32237" lon="5.38352">
        <ele>345</ele>
        <time>2022-03-22T13:51:59Z</time>
      </trkpt>
      <trkpt lat="46.32238" lon="5.38357">
        <ele>345.2</ele>
        <time>2022-03-22T13:52:00Z</time>
      </trkpt>
      <trkpt lat="46.3224" lon="5.38369">
        <ele>346</ele>
        <time>2022-03-22T13:52:03Z</time>
      </trkpt>
      <trkpt lat="46.32243" lon="5.38386">
        <ele>347</ele>
        <time>2022-03-22T13:52:07Z</time>
      </trkpt>
      <trkpt lat="46.32243" lon="5.38395">
        <ele>347.4</ele>
        <time>2022-03-22T13:52:09Z</time>
      </trkpt>
      <trkpt lat="46.32246" lon="5.38415">
        <ele>348</ele>
        <time>2022-03-22T13:52:13Z</time>
      </trkpt>
      <trkpt lat="46.32247" lon="5.38437">
        <ele>348.6</ele>
        <time>2022-03-22T13:52:18Z</time>
      </trkpt>
      <trkpt lat="46.32252" lon="5.38458">
        <ele>349</ele>
        <time>2022-03-22T13:52:22Z</time>
      </trkpt>
      <trkpt lat="46.32255" lon="5.38462">
        <ele>349</ele>
        <time>2022-03-22T13:52:23Z</time>
      </trkpt>
      <trkpt lat="46.32258" lon="5.38466">
        <ele>349.4</ele>
        <time>2022-03-22T13:52:24Z</time>
      </trkpt>
      <trkpt lat="46.32268" lon="5.38475">
        <ele>349.4</ele>
        <time>2022-03-22T13:52:27Z</time>
      </trkpt>
      <trkpt lat="46.32286" lon="5.38496">
        <ele>350.4</ele>
        <time>2022-03-22T13:52:33Z</time>
      </trkpt>
      <trkpt lat="46.32295" lon="5.38506">
        <ele>351</ele>
        <time>2022-03-22T13:52:36Z</time>
      </trkpt>
      <trkpt lat="46.32298" lon="5.3851">
        <ele>351.4</ele>
        <time>2022-03-22T13:52:37Z</time>
      </trkpt>
      <trkpt lat="46.32314" lon="5.38528">
        <ele>352.8</ele>
        <time>2022-03-22T13:52:43Z</time>
      </trkpt>
      <trkpt lat="46.32317" lon="5.38531">
        <ele>353.2</ele>
        <time>2022-03-22T13:52:44Z</time>
      </trkpt>
      <trkpt lat="46.32326" lon="5.38537">
        <ele>353.8</ele>
        <time>2022-03-22T13:52:47Z</time>
      </trkpt>
      <trkpt lat="46.32334" lon="5.38545">
        <ele>354.6</ele>
        <time>2022-03-22T13:52:50Z</time>
      </trkpt>
      <trkpt lat="46.32338" lon="5.38547">
        <ele>355</ele>
        <time>2022-03-22T13:52:51Z</time>
      </trkpt>
      <trkpt lat="46.3235" lon="5.38555">
        <ele>356</ele>
        <time>2022-03-22T13:52:55Z</time>
      </trkpt>
      <trkpt lat="46.32356" lon="5.38558">
        <ele>356</ele>
        <time>2022-03-22T13:52:57Z</time>
      </trkpt>
      <trkpt lat="46.32371" lon="5.38566">
        <ele>356.6</ele>
        <time>2022-03-22T13:53:01Z</time>
      </trkpt>
      <trkpt lat="46.32387" lon="5.38577">
        <ele>357.2</ele>
        <time>2022-03-22T13:53:05Z</time>
      </trkpt>
      <trkpt lat="46.32403" lon="5.38584">
        <ele>357.6</ele>
        <time>2022-03-22T13:53:09Z</time>
      </trkpt>
      <trkpt lat="46.32425" lon="5.38596">
        <ele>358.2</ele>
        <time>2022-03-22T13:53:14Z</time>
      </trkpt>
      <trkpt lat="46.32433" lon="5.38601">
        <ele>358.4</ele>
        <time>2022-03-22T13:53:16Z</time>
      </trkpt>
      <trkpt lat="46.32462" lon="5.38619">
        <ele>358.4</ele>
        <time>2022-03-22T13:53:22Z</time>
      </trkpt>
      <trkpt lat="46.32495" lon="5.38637">
        <ele>357.4</ele>
        <time>2022-03-22T13:53:27Z</time>
      </trkpt>
      <trkpt lat="46.32503" lon="5.38641">
        <ele>356.8</ele>
        <time>2022-03-22T13:53:28Z</time>
      </trkpt>
      <trkpt lat="46.32536" lon="5.38655">
        <ele>355.4</ele>
        <time>2022-03-22T13:53:32Z</time>
      </trkpt>
      <trkpt lat="46.32544" lon="5.38658">
        <ele>355.2</ele>
        <time>2022-03-22T13:53:33Z</time>
      </trkpt>
      <trkpt lat="46.32568" lon="5.38667">
        <ele>354.2</ele>
        <time>2022-03-22T13:53:36Z</time>
      </trkpt>
      <trkpt lat="46.32598" lon="5.38677">
        <ele>352.8</ele>
        <time>2022-03-22T13:53:39Z</time>
      </trkpt>
      <trkpt lat="46.32618" lon="5.38684">
        <ele>351.8</ele>
        <time>2022-03-22T13:53:41Z</time>
      </trkpt>
      <trkpt lat="46.32636" lon="5.38691">
        <ele>350.4</ele>
        <time>2022-03-22T13:53:43Z</time>
      </trkpt>
      <trkpt lat="46.3266" lon="5.38699">
        <ele>349.2</ele>
        <time>2022-03-22T13:53:45Z</time>
      </trkpt>
      <trkpt lat="46.3267" lon="5.38703">
        <ele>348</ele>
        <time>2022-03-22T13:53:46Z</time>
      </trkpt>
      <trkpt lat="46.3269" lon="5.3871">
        <ele>347</ele>
        <time>2022-03-22T13:53:48Z</time>
      </trkpt>
      <trkpt lat="46.32725" lon="5.38718">
        <ele>345.2</ele>
        <time>2022-03-22T13:53:51Z</time>
      </trkpt>
      <trkpt lat="46.32747" lon="5.38721">
        <ele>343.8</ele>
        <time>2022-03-22T13:53:53Z</time>
      </trkpt>
      <trkpt lat="46.3278" lon="5.38715">
        <ele>342.8</ele>
        <time>2022-03-22T13:53:56Z</time>
      </trkpt>
      <trkpt lat="46.32802" lon="5.38708">
        <ele>341.4</ele>
        <time>2022-03-22T13:53:58Z</time>
      </trkpt>
      <trkpt lat="46.32824" lon="5.38696">
        <ele>340</ele>
        <time>2022-03-22T13:54:00Z</time>
      </trkpt>
      <trkpt lat="46.32834" lon="5.38691">
        <ele>339.8</ele>
        <time>2022-03-22T13:54:01Z</time>
      </trkpt>
      <trkpt lat="46.32851" lon="5.3868">
        <ele>339</ele>
        <time>2022-03-22T13:54:03Z</time>
      </trkpt>
      <trkpt lat="46.32889" lon="5.38659">
        <ele>337.8</ele>
        <time>2022-03-22T13:54:07Z</time>
      </trkpt>
      <trkpt lat="46.32946" lon="5.38631">
        <ele>337.2</ele>
        <time>2022-03-22T13:54:14Z</time>
      </trkpt>
      <trkpt lat="46.32972" lon="5.3862">
        <ele>336.8</ele>
        <time>2022-03-22T13:54:17Z</time>
      </trkpt>
      <trkpt lat="46.33004" lon="5.38611">
        <ele>336</ele>
        <time>2022-03-22T13:54:21Z</time>
      </trkpt>
      <trkpt lat="46.33027" lon="5.38606">
        <ele>335.6</ele>
        <time>2022-03-22T13:54:24Z</time>
      </trkpt>
      <trkpt lat="46.33048" lon="5.38603">
        <ele>335.8</ele>
        <time>2022-03-22T13:54:27Z</time>
      </trkpt>
      <trkpt lat="46.33087" lon="5.38601">
        <ele>336.6</ele>
        <time>2022-03-22T13:54:33Z</time>
      </trkpt>
      <trkpt lat="46.33093" lon="5.386">
        <ele>336.8</ele>
        <time>2022-03-22T13:54:34Z</time>
      </trkpt>
      <trkpt lat="46.33101" lon="5.38599">
        <ele>337</ele>
        <time>2022-03-22T13:54:35Z</time>
      </trkpt>
      <trkpt lat="46.33112" lon="5.38596">
        <ele>338</ele>
        <time>2022-03-22T13:54:37Z</time>
      </trkpt>
      <trkpt lat="46.33125" lon="5.38592">
        <ele>338.4</ele>
        <time>2022-03-22T13:54:39Z</time>
      </trkpt>
      <trkpt lat="46.33132" lon="5.38589">
        <ele>338.6</ele>
        <time>2022-03-22T13:54:40Z</time>
      </trkpt>
      <trkpt lat="46.33155" lon="5.38581">
        <ele>339</ele>
        <time>2022-03-22T13:54:44Z</time>
      </trkpt>
      <trkpt lat="46.33186" lon="5.38561">
        <ele>340</ele>
        <time>2022-03-22T13:54:50Z</time>
      </trkpt>
      <trkpt lat="46.33191" lon="5.38557">
        <ele>340.2</ele>
        <time>2022-03-22T13:54:51Z</time>
      </trkpt>
      <trkpt lat="46.33196" lon="5.38553">
        <ele>340.2</ele>
        <time>2022-03-22T13:54:52Z</time>
      </trkpt>
      <trkpt lat="46.33205" lon="5.38542">
        <ele>340.4</ele>
        <time>2022-03-22T13:54:54Z</time>
      </trkpt>
      <trkpt lat="46.33209" lon="5.38535">
        <ele>340.4</ele>
        <time>2022-03-22T13:54:55Z</time>
      </trkpt>
      <trkpt lat="46.33228" lon="5.38503">
        <ele>340.4</ele>
        <time>2022-03-22T13:54:59Z</time>
      </trkpt>
      <trkpt lat="46.33256" lon="5.38443">
        <ele>339.4</ele>
        <time>2022-03-22T13:55:06Z</time>
      </trkpt>
      <trkpt lat="46.33261" lon="5.38433">
        <ele>339.2</ele>
        <time>2022-03-22T13:55:07Z</time>
      </trkpt>
      <trkpt lat="46.33283" lon="5.38385">
        <ele>338</ele>
        <time>2022-03-22T13:55:12Z</time>
      </trkpt>
      <trkpt lat="46.33288" lon="5.38376">
        <ele>337.8</ele>
        <time>2022-03-22T13:55:13Z</time>
      </trkpt>
      <trkpt lat="46.33303" lon="5.38346">
        <ele>337</ele>
        <time>2022-03-22T13:55:16Z</time>
      </trkpt>
      <trkpt lat="46.33317" lon="5.38316">
        <ele>336</ele>
        <time>2022-03-22T13:55:19Z</time>
      </trkpt>
      <trkpt lat="46.33327" lon="5.38295">
        <ele>335.2</ele>
        <time>2022-03-22T13:55:21Z</time>
      </trkpt>
      <trkpt lat="46.33331" lon="5.38285">
        <ele>334.8</ele>
        <time>2022-03-22T13:55:22Z</time>
      </trkpt>
      <trkpt lat="46.33346" lon="5.38253">
        <ele>333.6</ele>
        <time>2022-03-22T13:55:25Z</time>
      </trkpt>
      <trkpt lat="46.33358" lon="5.38225">
        <ele>332.6</ele>
        <time>2022-03-22T13:55:28Z</time>
      </trkpt>
      <trkpt lat="46.33363" lon="5.38216">
        <ele>332.2</ele>
        <time>2022-03-22T13:55:29Z</time>
      </trkpt>
      <trkpt lat="46.33383" lon="5.38173">
        <ele>331.8</ele>
        <time>2022-03-22T13:55:34Z</time>
      </trkpt>
      <trkpt lat="46.33393" lon="5.38151">
        <ele>331.8</ele>
        <time>2022-03-22T13:55:37Z</time>
      </trkpt>
      <trkpt lat="46.33405" lon="5.38123">
        <ele>332.6</ele>
        <time>2022-03-22T13:55:41Z</time>
      </trkpt>
      <trkpt lat="46.3342" lon="5.38092">
        <ele>333.8</ele>
        <time>2022-03-22T13:55:46Z</time>
      </trkpt>
      <trkpt lat="46.33422" lon="5.38086">
        <ele>333.8</ele>
        <time>2022-03-22T13:55:47Z</time>
      </trkpt>
      <trkpt lat="46.33438" lon="5.38054">
        <ele>335</ele>
        <time>2022-03-22T13:55:53Z</time>
      </trkpt>
      <trkpt lat="46.3344" lon="5.38049">
        <ele>335</ele>
        <time>2022-03-22T13:55:54Z</time>
      </trkpt>
      <trkpt lat="46.33447" lon="5.38034">
        <ele>336</ele>
        <time>2022-03-22T13:55:57Z</time>
      </trkpt>
      <trkpt lat="46.33456" lon="5.38016">
        <ele>337.2</ele>
        <time>2022-03-22T13:56:01Z</time>
      </trkpt>
      <trkpt lat="46.33458" lon="5.38012">
        <ele>337.8</ele>
        <time>2022-03-22T13:56:02Z</time>
      </trkpt>
      <trkpt lat="46.33465" lon="5.37999">
        <ele>338.4</ele>
        <time>2022-03-22T13:56:05Z</time>
      </trkpt>
      <trkpt lat="46.33476" lon="5.37975">
        <ele>339.6</ele>
        <time>2022-03-22T13:56:11Z</time>
      </trkpt>
      <trkpt lat="46.33482" lon="5.3796">
        <ele>340.8</ele>
        <time>2022-03-22T13:56:15Z</time>
      </trkpt>
      <trkpt lat="46.33489" lon="5.37948">
        <ele>341.4</ele>
        <time>2022-03-22T13:56:18Z</time>
      </trkpt>
      <trkpt lat="46.33494" lon="5.37943">
        <ele>342</ele>
        <time>2022-03-22T13:56:20Z</time>
      </trkpt>
      <trkpt lat="46.33499" lon="5.37942">
        <ele>342.6</ele>
        <time>2022-03-22T13:56:22Z</time>
      </trkpt>
      <trkpt lat="46.33501" lon="5.37943">
        <ele>343</ele>
        <time>2022-03-22T13:56:23Z</time>
      </trkpt>
      <trkpt lat="46.33503" lon="5.37945">
        <ele>343.2</ele>
        <time>2022-03-22T13:56:24Z</time>
      </trkpt>
      <trkpt lat="46.33505" lon="5.37947">
        <ele>343.6</ele>
        <time>2022-03-22T13:56:25Z</time>
      </trkpt>
      <trkpt lat="46.3351" lon="5.37957">
        <ele>344.4</ele>
        <time>2022-03-22T13:56:28Z</time>
      </trkpt>
      <trkpt lat="46.33514" lon="5.37967">
        <ele>345.6</ele>
        <time>2022-03-22T13:56:32Z</time>
      </trkpt>
      <trkpt lat="46.33515" lon="5.37968">
        <ele>345.8</ele>
        <time>2022-03-22T13:56:33Z</time>
      </trkpt>
      <trkpt lat="46.33515" lon="5.37968">
        <ele>346.6</ele>
        <time>2022-03-22T13:56:36Z</time>
      </trkpt>
      <trkpt lat="46.3352" lon="5.37974">
        <ele>347</ele>
        <time>2022-03-22T13:57:52Z</time>
      </trkpt>
      <trkpt lat="46.33522" lon="5.37975">
        <ele>347.2</ele>
        <time>2022-03-22T13:57:53Z</time>
      </trkpt>
      <trkpt lat="46.33537" lon="5.37987">
        <ele>347.6</ele>
        <time>2022-03-22T13:57:58Z</time>
      </trkpt>
      <trkpt lat="46.33555" lon="5.38">
        <ele>348.6</ele>
        <time>2022-03-22T13:58:04Z</time>
      </trkpt>
      <trkpt lat="46.33558" lon="5.38002">
        <ele>348.8</ele>
        <time>2022-03-22T13:58:05Z</time>
      </trkpt>
      <trkpt lat="46.33565" lon="5.38011">
        <ele>349.6</ele>
        <time>2022-03-22T13:58:08Z</time>
      </trkpt>
      <trkpt lat="46.3357" lon="5.3802">
        <ele>350.4</ele>
        <time>2022-03-22T13:58:11Z</time>
      </trkpt>
      <trkpt lat="46.33574" lon="5.38028">
        <ele>350.8</ele>
        <time>2022-03-22T13:58:13Z</time>
      </trkpt>
      <trkpt lat="46.33582" lon="5.38044">
        <ele>352</ele>
        <time>2022-03-22T13:58:17Z</time>
      </trkpt>
      <trkpt lat="46.33583" lon="5.38048">
        <ele>352.2</ele>
        <time>2022-03-22T13:58:18Z</time>
      </trkpt>
      <trkpt lat="46.33588" lon="5.38063">
        <ele>353</ele>
        <time>2022-03-22T13:58:21Z</time>
      </trkpt>
      <trkpt lat="46.33591" lon="5.38075">
        <ele>353.8</ele>
        <time>2022-03-22T13:58:24Z</time>
      </trkpt>
      <trkpt lat="46.33592" lon="5.3808">
        <ele>354.2</ele>
        <time>2022-03-22T13:58:25Z</time>
      </trkpt>
      <trkpt lat="46.33595" lon="5.381">
        <ele>355.2</ele>
        <time>2022-03-22T13:58:29Z</time>
      </trkpt>
      <trkpt lat="46.33597" lon="5.3811">
        <ele>355.8</ele>
        <time>2022-03-22T13:58:31Z</time>
      </trkpt>
      <trkpt lat="46.33599" lon="5.38124">
        <ele>356.2</ele>
        <time>2022-03-22T13:58:34Z</time>
      </trkpt>
      <trkpt lat="46.33599" lon="5.38143">
        <ele>357.4</ele>
        <time>2022-03-22T13:58:38Z</time>
      </trkpt>
      <trkpt lat="46.33599" lon="5.38153">
        <ele>357.6</ele>
        <time>2022-03-22T13:58:40Z</time>
      </trkpt>
      <trkpt lat="46.33597" lon="5.38178">
        <ele>358.4</ele>
        <time>2022-03-22T13:58:45Z</time>
      </trkpt>
      <trkpt lat="46.33594" lon="5.38206">
        <ele>359.2</ele>
        <time>2022-03-22T13:58:51Z</time>
      </trkpt>
      <trkpt lat="46.33594" lon="5.3821">
        <ele>359.4</ele>
        <time>2022-03-22T13:58:52Z</time>
      </trkpt>
      <trkpt lat="46.33593" lon="5.38242">
        <ele>360.6</ele>
        <time>2022-03-22T13:58:59Z</time>
      </trkpt>
      <trkpt lat="46.33593" lon="5.38246">
        <ele>360.8</ele>
        <time>2022-03-22T13:59:00Z</time>
      </trkpt>
      <trkpt lat="46.33593" lon="5.38255">
        <ele>361.8</ele>
        <time>2022-03-22T13:59:02Z</time>
      </trkpt>
      <trkpt lat="46.33594" lon="5.38282">
        <ele>362.8</ele>
        <time>2022-03-22T13:59:08Z</time>
      </trkpt>
      <trkpt lat="46.33596" lon="5.38301">
        <ele>363.8</ele>
        <time>2022-03-22T13:59:12Z</time>
      </trkpt>
      <trkpt lat="46.33597" lon="5.38305">
        <ele>364</ele>
        <time>2022-03-22T13:59:13Z</time>
      </trkpt>
      <trkpt lat="46.33599" lon="5.38329">
        <ele>364.8</ele>
        <time>2022-03-22T13:59:18Z</time>
      </trkpt>
      <trkpt lat="46.33599" lon="5.38347">
        <ele>366.2</ele>
        <time>2022-03-22T13:59:22Z</time>
      </trkpt>
      <trkpt lat="46.33599" lon="5.38369">
        <ele>367.2</ele>
        <time>2022-03-22T13:59:27Z</time>
      </trkpt>
      <trkpt lat="46.33598" lon="5.38387">
        <ele>368.2</ele>
        <time>2022-03-22T13:59:31Z</time>
      </trkpt>
      <trkpt lat="46.33597" lon="5.38391">
        <ele>368.4</ele>
        <time>2022-03-22T13:59:32Z</time>
      </trkpt>
      <trkpt lat="46.33597" lon="5.3841">
        <ele>369</ele>
        <time>2022-03-22T13:59:36Z</time>
      </trkpt>
      <trkpt lat="46.33597" lon="5.3842">
        <ele>369.6</ele>
        <time>2022-03-22T13:59:38Z</time>
      </trkpt>
      <trkpt lat="46.33596" lon="5.38439">
        <ele>370.8</ele>
        <time>2022-03-22T13:59:42Z</time>
      </trkpt>
      <trkpt lat="46.33594" lon="5.38453">
        <ele>371.4</ele>
        <time>2022-03-22T13:59:45Z</time>
      </trkpt>
      <trkpt lat="46.33593" lon="5.38466">
        <ele>372</ele>
        <time>2022-03-22T13:59:48Z</time>
      </trkpt>
      <trkpt lat="46.33589" lon="5.38487">
        <ele>373</ele>
        <time>2022-03-22T13:59:53Z</time>
      </trkpt>
      <trkpt lat="46.33587" lon="5.38496">
        <ele>373.6</ele>
        <time>2022-03-22T13:59:55Z</time>
      </trkpt>
      <trkpt lat="46.33585" lon="5.38504">
        <ele>374.2</ele>
        <time>2022-03-22T13:59:57Z</time>
      </trkpt>
      <trkpt lat="46.3358" lon="5.38527">
        <ele>375.4</ele>
        <time>2022-03-22T14:00:02Z</time>
      </trkpt>
      <trkpt lat="46.33575" lon="5.38541">
        <ele>375.8</ele>
        <time>2022-03-22T14:00:05Z</time>
      </trkpt>
      <trkpt lat="46.33565" lon="5.38564">
        <ele>376.6</ele>
        <time>2022-03-22T14:00:10Z</time>
      </trkpt>
      <trkpt lat="46.33556" lon="5.38581">
        <ele>377.4</ele>
        <time>2022-03-22T14:00:14Z</time>
      </trkpt>
      <trkpt lat="46.33553" lon="5.38585">
        <ele>377.6</ele>
        <time>2022-03-22T14:00:15Z</time>
      </trkpt>
      <trkpt lat="46.33545" lon="5.38608">
        <ele>378.6</ele>
        <time>2022-03-22T14:00:20Z</time>
      </trkpt>
      <trkpt lat="46.33546" lon="5.38629">
        <ele>379.4</ele>
        <time>2022-03-22T14:00:24Z</time>
      </trkpt>
      <trkpt lat="46.33549" lon="5.38633">
        <ele>379.6</ele>
        <time>2022-03-22T14:00:25Z</time>
      </trkpt>
      <trkpt lat="46.33558" lon="5.38639">
        <ele>380.4</ele>
        <time>2022-03-22T14:00:28Z</time>
      </trkpt>
      <trkpt lat="46.33562" lon="5.3864">
        <ele>380.8</ele>
        <time>2022-03-22T14:00:29Z</time>
      </trkpt>
      <trkpt lat="46.33571" lon="5.38639">
        <ele>382</ele>
        <time>2022-03-22T14:00:32Z</time>
      </trkpt>
      <trkpt lat="46.33577" lon="5.38637">
        <ele>382.6</ele>
        <time>2022-03-22T14:00:34Z</time>
      </trkpt>
      <trkpt lat="46.33584" lon="5.38634">
        <ele>383.2</ele>
        <time>2022-03-22T14:00:36Z</time>
      </trkpt>
      <trkpt lat="46.33599" lon="5.38624">
        <ele>384.4</ele>
        <time>2022-03-22T14:00:41Z</time>
      </trkpt>
      <trkpt lat="46.33608" lon="5.38615">
        <ele>385</ele>
        <time>2022-03-22T14:00:44Z</time>
      </trkpt>
      <trkpt lat="46.33616" lon="5.38607">
        <ele>385.8</ele>
        <time>2022-03-22T14:00:47Z</time>
      </trkpt>
      <trkpt lat="46.33625" lon="5.38595">
        <ele>387.2</ele>
        <time>2022-03-22T14:00:51Z</time>
      </trkpt>
      <trkpt lat="46.33627" lon="5.38592">
        <ele>387.4</ele>
        <time>2022-03-22T14:00:52Z</time>
      </trkpt>
      <trkpt lat="46.33639" lon="5.38577">
        <ele>388.4</ele>
        <time>2022-03-22T14:00:57Z</time>
      </trkpt>
      <trkpt lat="46.3365" lon="5.38561">
        <ele>389.6</ele>
        <time>2022-03-22T14:01:02Z</time>
      </trkpt>
      <trkpt lat="46.33659" lon="5.38549">
        <ele>390.8</ele>
        <time>2022-03-22T14:01:06Z</time>
      </trkpt>
      <trkpt lat="46.33663" lon="5.38543">
        <ele>391.2</ele>
        <time>2022-03-22T14:01:08Z</time>
      </trkpt>
      <trkpt lat="46.33668" lon="5.38538">
        <ele>391.6</ele>
        <time>2022-03-22T14:01:10Z</time>
      </trkpt>
      <trkpt lat="46.3367" lon="5.38534">
        <ele>391.8</ele>
        <time>2022-03-22T14:01:11Z</time>
      </trkpt>
      <trkpt lat="46.33683" lon="5.38514">
        <ele>393</ele>
        <time>2022-03-22T14:01:17Z</time>
      </trkpt>
      <trkpt lat="46.33688" lon="5.38503">
        <ele>393.4</ele>
        <time>2022-03-22T14:01:20Z</time>
      </trkpt>
      <trkpt lat="46.33693" lon="5.38496">
        <ele>394</ele>
        <time>2022-03-22T14:01:22Z</time>
      </trkpt>
      <trkpt lat="46.33703" lon="5.38476">
        <ele>395</ele>
        <time>2022-03-22T14:01:27Z</time>
      </trkpt>
      <trkpt lat="46.33706" lon="5.38471">
        <ele>395</ele>
        <time>2022-03-22T14:01:28Z</time>
      </trkpt>
      <trkpt lat="46.33722" lon="5.38443">
        <ele>396</ele>
        <time>2022-03-22T14:01:35Z</time>
      </trkpt>
      <trkpt lat="46.33725" lon="5.3844">
        <ele>396.4</ele>
        <time>2022-03-22T14:01:36Z</time>
      </trkpt>
      <trkpt lat="46.33737" lon="5.38425">
        <ele>397.6</ele>
        <time>2022-03-22T14:01:41Z</time>
      </trkpt>
      <trkpt lat="46.33741" lon="5.38419">
        <ele>397.8</ele>
        <time>2022-03-22T14:01:43Z</time>
      </trkpt>
      <trkpt lat="46.3375" lon="5.38403">
        <ele>398.6</ele>
        <time>2022-03-22T14:01:47Z</time>
      </trkpt>
      <trkpt lat="46.33754" lon="5.3839">
        <ele>399.4</ele>
        <time>2022-03-22T14:01:50Z</time>
      </trkpt>
      <trkpt lat="46.33756" lon="5.3838">
        <ele>399.8</ele>
        <time>2022-03-22T14:01:52Z</time>
      </trkpt>
      <trkpt lat="46.3376" lon="5.38358">
        <ele>400.8</ele>
        <time>2022-03-22T14:01:57Z</time>
      </trkpt>
      <trkpt lat="46.3376" lon="5.38353">
        <ele>401</ele>
        <time>2022-03-22T14:01:58Z</time>
      </trkpt>
      <trkpt lat="46.33765" lon="5.38336">
        <ele>402.2</ele>
        <time>2022-03-22T14:02:02Z</time>
      </trkpt>
      <trkpt lat="46.33773" lon="5.38312">
        <ele>403.4</ele>
        <time>2022-03-22T14:02:08Z</time>
      </trkpt>
      <trkpt lat="46.33775" lon="5.38307">
        <ele>403.6</ele>
        <time>2022-03-22T14:02:09Z</time>
      </trkpt>
      <trkpt lat="46.33781" lon="5.38292">
        <ele>404.4</ele>
        <time>2022-03-22T14:02:13Z</time>
      </trkpt>
      <trkpt lat="46.33788" lon="5.38272">
        <ele>405.6</ele>
        <time>2022-03-22T14:02:18Z</time>
      </trkpt>
      <trkpt lat="46.33794" lon="5.38256">
        <ele>406.6</ele>
        <time>2022-03-22T14:02:22Z</time>
      </trkpt>
      <trkpt lat="46.33802" lon="5.38241">
        <ele>407.4</ele>
        <time>2022-03-22T14:02:26Z</time>
      </trkpt>
      <trkpt lat="46.33807" lon="5.38229">
        <ele>407.8</ele>
        <time>2022-03-22T14:02:29Z</time>
      </trkpt>
      <trkpt lat="46.33813" lon="5.38215">
        <ele>408.4</ele>
        <time>2022-03-22T14:02:33Z</time>
      </trkpt>
      <trkpt lat="46.33818" lon="5.38204">
        <ele>409.2</ele>
        <time>2022-03-22T14:02:36Z</time>
      </trkpt>
      <trkpt lat="46.33825" lon="5.38189">
        <ele>410.2</ele>
        <time>2022-03-22T14:02:40Z</time>
      </trkpt>
      <trkpt lat="46.33829" lon="5.38182">
        <ele>410.6</ele>
        <time>2022-03-22T14:02:42Z</time>
      </trkpt>
      <trkpt lat="46.33837" lon="5.38168">
        <ele>411.2</ele>
        <time>2022-03-22T14:02:46Z</time>
      </trkpt>
      <trkpt lat="46.33843" lon="5.38153">
        <ele>412.4</ele>
        <time>2022-03-22T14:02:50Z</time>
      </trkpt>
      <trkpt lat="46.33845" lon="5.38149">
        <ele>412.4</ele>
        <time>2022-03-22T14:02:51Z</time>
      </trkpt>
      <trkpt lat="46.33853" lon="5.38133">
        <ele>413.6</ele>
        <time>2022-03-22T14:02:55Z</time>
      </trkpt>
      <trkpt lat="46.33858" lon="5.3813">
        <ele>414.4</ele>
        <time>2022-03-22T14:02:57Z</time>
      </trkpt>
      <trkpt lat="46.33864" lon="5.38133">
        <ele>414.8</ele>
        <time>2022-03-22T14:02:59Z</time>
      </trkpt>
      <trkpt lat="46.33866" lon="5.38136">
        <ele>414.8</ele>
        <time>2022-03-22T14:03:00Z</time>
      </trkpt>
      <trkpt lat="46.33865" lon="5.38141">
        <ele>415.2</ele>
        <time>2022-03-22T14:03:01Z</time>
      </trkpt>
      <trkpt lat="46.33862" lon="5.3815">
        <ele>415.8</ele>
        <time>2022-03-22T14:03:03Z</time>
      </trkpt>
      <trkpt lat="46.33861" lon="5.38154">
        <ele>416.2</ele>
        <time>2022-03-22T14:03:04Z</time>
      </trkpt>
      <trkpt lat="46.33859" lon="5.38164">
        <ele>416.8</ele>
        <time>2022-03-22T14:03:06Z</time>
      </trkpt>
      <trkpt lat="46.33855" lon="5.38188">
        <ele>418.2</ele>
        <time>2022-03-22T14:03:11Z</time>
      </trkpt>
      <trkpt lat="46.33855" lon="5.38193">
        <ele>418.4</ele>
        <time>2022-03-22T14:03:12Z</time>
      </trkpt>
      <trkpt lat="46.33853" lon="5.38212">
        <ele>419.2</ele>
        <time>2022-03-22T14:03:16Z</time>
      </trkpt>
      <trkpt lat="46.3385" lon="5.38236">
        <ele>420.2</ele>
        <time>2022-03-22T14:03:21Z</time>
      </trkpt>
      <trkpt lat="46.33849" lon="5.3824">
        <ele>420.4</ele>
        <time>2022-03-22T14:03:22Z</time>
      </trkpt>
      <trkpt lat="46.33848" lon="5.38268">
        <ele>421.6</ele>
        <time>2022-03-22T14:03:28Z</time>
      </trkpt>
      <trkpt lat="46.33847" lon="5.38273">
        <ele>422</ele>
        <time>2022-03-22T14:03:29Z</time>
      </trkpt>
      <trkpt lat="46.33847" lon="5.38295">
        <ele>423</ele>
        <time>2022-03-22T14:03:34Z</time>
      </trkpt>
      <trkpt lat="46.33847" lon="5.38309">
        <ele>423.4</ele>
        <time>2022-03-22T14:03:37Z</time>
      </trkpt>
      <trkpt lat="46.33846" lon="5.38323">
        <ele>424</ele>
        <time>2022-03-22T14:03:40Z</time>
      </trkpt>
      <trkpt lat="46.33847" lon="5.38342">
        <ele>424.8</ele>
        <time>2022-03-22T14:03:44Z</time>
      </trkpt>
      <trkpt lat="46.33848" lon="5.38355">
        <ele>425.4</ele>
        <time>2022-03-22T14:03:47Z</time>
      </trkpt>
      <trkpt lat="46.3385" lon="5.38372">
        <ele>426.4</ele>
        <time>2022-03-22T14:03:51Z</time>
      </trkpt>
      <trkpt lat="46.33851" lon="5.38385">
        <ele>427.2</ele>
        <time>2022-03-22T14:03:54Z</time>
      </trkpt>
      <trkpt lat="46.33852" lon="5.38389">
        <ele>427.6</ele>
        <time>2022-03-22T14:03:55Z</time>
      </trkpt>
      <trkpt lat="46.33855" lon="5.3841">
        <ele>428.6</ele>
        <time>2022-03-22T14:04:00Z</time>
      </trkpt>
      <trkpt lat="46.33857" lon="5.38423">
        <ele>429.8</ele>
        <time>2022-03-22T14:04:03Z</time>
      </trkpt>
      <trkpt lat="46.33859" lon="5.38435">
        <ele>430.2</ele>
        <time>2022-03-22T14:04:06Z</time>
      </trkpt>
      <trkpt lat="46.33862" lon="5.38448">
        <ele>431.2</ele>
        <time>2022-03-22T14:04:09Z</time>
      </trkpt>
      <trkpt lat="46.33864" lon="5.38474">
        <ele>432</ele>
        <time>2022-03-22T14:04:14Z</time>
      </trkpt>
      <trkpt lat="46.33863" lon="5.38479">
        <ele>432.2</ele>
        <time>2022-03-22T14:04:15Z</time>
      </trkpt>
      <trkpt lat="46.33856" lon="5.38501">
        <ele>433.4</ele>
        <time>2022-03-22T14:04:20Z</time>
      </trkpt>
      <trkpt lat="46.33854" lon="5.38505">
        <ele>433.4</ele>
        <time>2022-03-22T14:04:21Z</time>
      </trkpt>
      <trkpt lat="46.3385" lon="5.38518">
        <ele>434.4</ele>
        <time>2022-03-22T14:04:24Z</time>
      </trkpt>
      <trkpt lat="46.3384" lon="5.3854">
        <ele>435.8</ele>
        <time>2022-03-22T14:04:29Z</time>
      </trkpt>
      <trkpt lat="46.33831" lon="5.38563">
        <ele>437</ele>
        <time>2022-03-22T14:04:34Z</time>
      </trkpt>
      <trkpt lat="46.33825" lon="5.38582">
        <ele>437.8</ele>
        <time>2022-03-22T14:04:38Z</time>
      </trkpt>
      <trkpt lat="46.33824" lon="5.38587">
        <ele>438</ele>
        <time>2022-03-22T14:04:39Z</time>
      </trkpt>
      <trkpt lat="46.33819" lon="5.38615">
        <ele>439.2</ele>
        <time>2022-03-22T14:04:45Z</time>
      </trkpt>
      <trkpt lat="46.33818" lon="5.3862">
        <ele>439.2</ele>
        <time>2022-03-22T14:04:46Z</time>
      </trkpt>
      <trkpt lat="46.33818" lon="5.3864">
        <ele>440.2</ele>
        <time>2022-03-22T14:04:50Z</time>
      </trkpt>
      <trkpt lat="46.3382" lon="5.38659">
        <ele>441</ele>
        <time>2022-03-22T14:04:54Z</time>
      </trkpt>
      <trkpt lat="46.33822" lon="5.38664">
        <ele>441.2</ele>
        <time>2022-03-22T14:04:55Z</time>
      </trkpt>
      <trkpt lat="46.33832" lon="5.38682">
        <ele>442.2</ele>
        <time>2022-03-22T14:05:00Z</time>
      </trkpt>
      <trkpt lat="46.33834" lon="5.38685">
        <ele>442.4</ele>
        <time>2022-03-22T14:05:01Z</time>
      </trkpt>
      <trkpt lat="46.33851" lon="5.38699">
        <ele>443.8</ele>
        <time>2022-03-22T14:05:07Z</time>
      </trkpt>
      <trkpt lat="46.33862" lon="5.38705">
        <ele>445.2</ele>
        <time>2022-03-22T14:05:11Z</time>
      </trkpt>
      <trkpt lat="46.33874" lon="5.38711">
        <ele>446.2</ele>
        <time>2022-03-22T14:05:15Z</time>
      </trkpt>
      <trkpt lat="46.33884" lon="5.38714">
        <ele>446.8</ele>
        <time>2022-03-22T14:05:18Z</time>
      </trkpt>
      <trkpt lat="46.33895" lon="5.38718">
        <ele>447.2</ele>
        <time>2022-03-22T14:05:21Z</time>
      </trkpt>
      <trkpt lat="46.33912" lon="5.38723">
        <ele>448.4</ele>
        <time>2022-03-22T14:05:25Z</time>
      </trkpt>
      <trkpt lat="46.3392" lon="5.38725">
        <ele>448.8</ele>
        <time>2022-03-22T14:05:27Z</time>
      </trkpt>
      <trkpt lat="46.33943" lon="5.38733">
        <ele>449.6</ele>
        <time>2022-03-22T14:05:32Z</time>
      </trkpt>
      <trkpt lat="46.33956" lon="5.38738">
        <ele>450.2</ele>
        <time>2022-03-22T14:05:35Z</time>
      </trkpt>
      <trkpt lat="46.33961" lon="5.3874">
        <ele>450.6</ele>
        <time>2022-03-22T14:05:36Z</time>
      </trkpt>
      <trkpt lat="46.33965" lon="5.38741">
        <ele>450.8</ele>
        <time>2022-03-22T14:05:37Z</time>
      </trkpt>
      <trkpt lat="46.33982" lon="5.38749">
        <ele>451.4</ele>
        <time>2022-03-22T14:05:41Z</time>
      </trkpt>
      <trkpt lat="46.3399" lon="5.38753">
        <ele>451.8</ele>
        <time>2022-03-22T14:05:43Z</time>
      </trkpt>
      <trkpt lat="46.34017" lon="5.38769">
        <ele>453</ele>
        <time>2022-03-22T14:05:49Z</time>
      </trkpt>
      <trkpt lat="46.34032" lon="5.38778">
        <ele>454.4</ele>
        <time>2022-03-22T14:05:52Z</time>
      </trkpt>
      <trkpt lat="46.34048" lon="5.38787">
        <ele>455.2</ele>
        <time>2022-03-22T14:05:55Z</time>
      </trkpt>
      <trkpt lat="46.34092" lon="5.3881">
        <ele>455.6</ele>
        <time>2022-03-22T14:06:03Z</time>
      </trkpt>
      <trkpt lat="46.34107" lon="5.38819">
        <ele>455.6</ele>
        <time>2022-03-22T14:06:06Z</time>
      </trkpt>
      <trkpt lat="46.34126" lon="5.38831">
        <ele>455.8</ele>
        <time>2022-03-22T14:06:10Z</time>
      </trkpt>
      <trkpt lat="46.34164" lon="5.38852">
        <ele>456.2</ele>
        <time>2022-03-22T14:06:17Z</time>
      </trkpt>
      <trkpt lat="46.3417" lon="5.38855">
        <ele>456.2</ele>
        <time>2022-03-22T14:06:18Z</time>
      </trkpt>
      <trkpt lat="46.34217" lon="5.38879">
        <ele>455.2</ele>
        <time>2022-03-22T14:06:25Z</time>
      </trkpt>
      <trkpt lat="46.34232" lon="5.38887">
        <ele>453.8</ele>
        <time>2022-03-22T14:06:27Z</time>
      </trkpt>
      <trkpt lat="46.34263" lon="5.38905">
        <ele>452.6</ele>
        <time>2022-03-22T14:06:31Z</time>
      </trkpt>
      <trkpt lat="46.3427" lon="5.3891">
        <ele>452.4</ele>
        <time>2022-03-22T14:06:32Z</time>
      </trkpt>
      <trkpt lat="46.34286" lon="5.3892">
        <ele>451.6</ele>
        <time>2022-03-22T14:06:34Z</time>
      </trkpt>
      <trkpt lat="46.34319" lon="5.38941">
        <ele>450.8</ele>
        <time>2022-03-22T14:06:38Z</time>
      </trkpt>
      <trkpt lat="46.34345" lon="5.38956">
        <ele>450</ele>
        <time>2022-03-22T14:06:41Z</time>
      </trkpt>
      <trkpt lat="46.34364" lon="5.38964">
        <ele>448.6</ele>
        <time>2022-03-22T14:06:43Z</time>
      </trkpt>
      <trkpt lat="46.34374" lon="5.38965">
        <ele>448</ele>
        <time>2022-03-22T14:06:44Z</time>
      </trkpt>
      <trkpt lat="46.34385" lon="5.38965">
        <ele>447.2</ele>
        <time>2022-03-22T14:06:45Z</time>
      </trkpt>
      <trkpt lat="46.34395" lon="5.38963">
        <ele>447</ele>
        <time>2022-03-22T14:06:46Z</time>
      </trkpt>
      <trkpt lat="46.34405" lon="5.38958">
        <ele>446.2</ele>
        <time>2022-03-22T14:06:47Z</time>
      </trkpt>
      <trkpt lat="46.34426" lon="5.38945">
        <ele>445</ele>
        <time>2022-03-22T14:06:49Z</time>
      </trkpt>
      <trkpt lat="46.34436" lon="5.38938">
        <ele>443.8</ele>
        <time>2022-03-22T14:06:50Z</time>
      </trkpt>
      <trkpt lat="46.34457" lon="5.38924">
        <ele>442.6</ele>
        <time>2022-03-22T14:06:52Z</time>
      </trkpt>
      <trkpt lat="46.34477" lon="5.3891">
        <ele>441</ele>
        <time>2022-03-22T14:06:54Z</time>
      </trkpt>
      <trkpt lat="46.34487" lon="5.38903">
        <ele>439.8</ele>
        <time>2022-03-22T14:06:55Z</time>
      </trkpt>
      <trkpt lat="46.34507" lon="5.38889">
        <ele>438.6</ele>
        <time>2022-03-22T14:06:57Z</time>
      </trkpt>
      <trkpt lat="46.34538" lon="5.38873">
        <ele>437.2</ele>
        <time>2022-03-22T14:07:00Z</time>
      </trkpt>
      <trkpt lat="46.34549" lon="5.3887">
        <ele>436.8</ele>
        <time>2022-03-22T14:07:01Z</time>
      </trkpt>
      <trkpt lat="46.3456" lon="5.38871">
        <ele>436.2</ele>
        <time>2022-03-22T14:07:02Z</time>
      </trkpt>
      <trkpt lat="46.34571" lon="5.38875">
        <ele>435.6</ele>
        <time>2022-03-22T14:07:03Z</time>
      </trkpt>
      <trkpt lat="46.34581" lon="5.38883">
        <ele>435</ele>
        <time>2022-03-22T14:07:04Z</time>
      </trkpt>
      <trkpt lat="46.34598" lon="5.38905">
        <ele>434.4</ele>
        <time>2022-03-22T14:07:06Z</time>
      </trkpt>
      <trkpt lat="46.34606" lon="5.38919">
        <ele>433.8</ele>
        <time>2022-03-22T14:07:07Z</time>
      </trkpt>
      <trkpt lat="46.34622" lon="5.38944">
        <ele>432</ele>
        <time>2022-03-22T14:07:09Z</time>
      </trkpt>
      <trkpt lat="46.34631" lon="5.38956">
        <ele>431</ele>
        <time>2022-03-22T14:07:10Z</time>
      </trkpt>
      <trkpt lat="46.34641" lon="5.38966">
        <ele>430.4</ele>
        <time>2022-03-22T14:07:11Z</time>
      </trkpt>
      <trkpt lat="46.34652" lon="5.38975">
        <ele>429.6</ele>
        <time>2022-03-22T14:07:12Z</time>
      </trkpt>
      <trkpt lat="46.34663" lon="5.38982">
        <ele>428.2</ele>
        <time>2022-03-22T14:07:13Z</time>
      </trkpt>
      <trkpt lat="46.34674" lon="5.38991">
        <ele>427.4</ele>
        <time>2022-03-22T14:07:14Z</time>
      </trkpt>
      <trkpt lat="46.34685" lon="5.39">
        <ele>426.2</ele>
        <time>2022-03-22T14:07:15Z</time>
      </trkpt>
      <trkpt lat="46.34703" lon="5.39025">
        <ele>424.8</ele>
        <time>2022-03-22T14:07:17Z</time>
      </trkpt>
      <trkpt lat="46.34711" lon="5.39041">
        <ele>423.8</ele>
        <time>2022-03-22T14:07:18Z</time>
      </trkpt>
      <trkpt lat="46.34718" lon="5.39056">
        <ele>423.2</ele>
        <time>2022-03-22T14:07:19Z</time>
      </trkpt>
      <trkpt lat="46.34725" lon="5.39072">
        <ele>422.4</ele>
        <time>2022-03-22T14:07:20Z</time>
      </trkpt>
      <trkpt lat="46.3473" lon="5.39088">
        <ele>421.8</ele>
        <time>2022-03-22T14:07:21Z</time>
      </trkpt>
      <trkpt lat="46.34734" lon="5.39105">
        <ele>421</ele>
        <time>2022-03-22T14:07:22Z</time>
      </trkpt>
      <trkpt lat="46.34738" lon="5.39123">
        <ele>420</ele>
        <time>2022-03-22T14:07:23Z</time>
      </trkpt>
      <trkpt lat="46.34741" lon="5.3914">
        <ele>418.6</ele>
        <time>2022-03-22T14:07:24Z</time>
      </trkpt>
      <trkpt lat="46.34747" lon="5.39172">
        <ele>417.6</ele>
        <time>2022-03-22T14:07:26Z</time>
      </trkpt>
      <trkpt lat="46.34751" lon="5.39187">
        <ele>416.8</ele>
        <time>2022-03-22T14:07:27Z</time>
      </trkpt>
      <trkpt lat="46.34755" lon="5.392">
        <ele>416.4</ele>
        <time>2022-03-22T14:07:28Z</time>
      </trkpt>
      <trkpt lat="46.3476" lon="5.39211">
        <ele>415.2</ele>
        <time>2022-03-22T14:07:29Z</time>
      </trkpt>
      <trkpt lat="46.34765" lon="5.39218">
        <ele>414.8</ele>
        <time>2022-03-22T14:07:30Z</time>
      </trkpt>
      <trkpt lat="46.34772" lon="5.39219">
        <ele>414</ele>
        <time>2022-03-22T14:07:31Z</time>
      </trkpt>
      <trkpt lat="46.34778" lon="5.39217">
        <ele>412.8</ele>
        <time>2022-03-22T14:07:32Z</time>
      </trkpt>
      <trkpt lat="46.34785" lon="5.39196">
        <ele>411.6</ele>
        <time>2022-03-22T14:07:34Z</time>
      </trkpt>
      <trkpt lat="46.34784" lon="5.39169">
        <ele>410</ele>
        <time>2022-03-22T14:07:36Z</time>
      </trkpt>
      <trkpt lat="46.34785" lon="5.3914">
        <ele>408.2</ele>
        <time>2022-03-22T14:07:38Z</time>
      </trkpt>
      <trkpt lat="46.34788" lon="5.39111">
        <ele>407</ele>
        <time>2022-03-22T14:07:40Z</time>
      </trkpt>
      <trkpt lat="46.34797" lon="5.39068">
        <ele>405.6</ele>
        <time>2022-03-22T14:07:43Z</time>
      </trkpt>
      <trkpt lat="46.34811" lon="5.39048">
        <ele>404.8</ele>
        <time>2022-03-22T14:07:45Z</time>
      </trkpt>
      <trkpt lat="46.3482" lon="5.39042">
        <ele>404.4</ele>
        <time>2022-03-22T14:07:46Z</time>
      </trkpt>
      <trkpt lat="46.34831" lon="5.39038">
        <ele>404</ele>
        <time>2022-03-22T14:07:47Z</time>
      </trkpt>
      <trkpt lat="46.34842" lon="5.39035">
        <ele>403</ele>
        <time>2022-03-22T14:07:48Z</time>
      </trkpt>
      <trkpt lat="46.34866" lon="5.39028">
        <ele>401.8</ele>
        <time>2022-03-22T14:07:50Z</time>
      </trkpt>
      <trkpt lat="46.34878" lon="5.39024">
        <ele>401.2</ele>
        <time>2022-03-22T14:07:51Z</time>
      </trkpt>
      <trkpt lat="46.34889" lon="5.3902">
        <ele>400</ele>
        <time>2022-03-22T14:07:52Z</time>
      </trkpt>
      <trkpt lat="46.34913" lon="5.39012">
        <ele>398.6</ele>
        <time>2022-03-22T14:07:54Z</time>
      </trkpt>
      <trkpt lat="46.34935" lon="5.39003">
        <ele>397</ele>
        <time>2022-03-22T14:07:56Z</time>
      </trkpt>
      <trkpt lat="46.34957" lon="5.38994">
        <ele>395.6</ele>
        <time>2022-03-22T14:07:58Z</time>
      </trkpt>
      <trkpt lat="46.34988" lon="5.38978">
        <ele>394</ele>
        <time>2022-03-22T14:08:01Z</time>
      </trkpt>
      <trkpt lat="46.34998" lon="5.38973">
        <ele>393</ele>
        <time>2022-03-22T14:08:02Z</time>
      </trkpt>
      <trkpt lat="46.35015" lon="5.38961">
        <ele>392</ele>
        <time>2022-03-22T14:08:04Z</time>
      </trkpt>
      <trkpt lat="46.35023" lon="5.38956">
        <ele>391.8</ele>
        <time>2022-03-22T14:08:05Z</time>
      </trkpt>
      <trkpt lat="46.35038" lon="5.38952">
        <ele>390.8</ele>
        <time>2022-03-22T14:08:07Z</time>
      </trkpt>
      <trkpt lat="46.35064" lon="5.38962">
        <ele>390</ele>
        <time>2022-03-22T14:08:11Z</time>
      </trkpt>
      <trkpt lat="46.35073" lon="5.38972">
        <ele>390</ele>
        <time>2022-03-22T14:08:13Z</time>
      </trkpt>
      <trkpt lat="46.35075" lon="5.38981">
        <ele>389.8</ele>
        <time>2022-03-22T14:08:14Z</time>
      </trkpt>
      <trkpt lat="46.35077" lon="5.38992">
        <ele>389.6</ele>
        <time>2022-03-22T14:08:15Z</time>
      </trkpt>
      <trkpt lat="46.35077" lon="5.39017">
        <ele>389</ele>
        <time>2022-03-22T14:08:17Z</time>
      </trkpt>
      <trkpt lat="46.35076" lon="5.3905">
        <ele>388.4</ele>
        <time>2022-03-22T14:08:19Z</time>
      </trkpt>
      <trkpt lat="46.35075" lon="5.39063">
        <ele>387.4</ele>
        <time>2022-03-22T14:08:20Z</time>
      </trkpt>
      <trkpt lat="46.35074" lon="5.39079">
        <ele>386.8</ele>
        <time>2022-03-22T14:08:21Z</time>
      </trkpt>
      <trkpt lat="46.35074" lon="5.39096">
        <ele>385.8</ele>
        <time>2022-03-22T14:08:22Z</time>
      </trkpt>
      <trkpt lat="46.35072" lon="5.3913">
        <ele>384.8</ele>
        <time>2022-03-22T14:08:24Z</time>
      </trkpt>
      <trkpt lat="46.35071" lon="5.39164">
        <ele>383.6</ele>
        <time>2022-03-22T14:08:26Z</time>
      </trkpt>
      <trkpt lat="46.35072" lon="5.39182">
        <ele>382.8</ele>
        <time>2022-03-22T14:08:27Z</time>
      </trkpt>
      <trkpt lat="46.35073" lon="5.39216">
        <ele>381.8</ele>
        <time>2022-03-22T14:08:29Z</time>
      </trkpt>
      <trkpt lat="46.35076" lon="5.3925">
        <ele>380.6</ele>
        <time>2022-03-22T14:08:31Z</time>
      </trkpt>
      <trkpt lat="46.35079" lon="5.39284">
        <ele>379.8</ele>
        <time>2022-03-22T14:08:33Z</time>
      </trkpt>
      <trkpt lat="46.3508" lon="5.39301">
        <ele>379.2</ele>
        <time>2022-03-22T14:08:34Z</time>
      </trkpt>
      <trkpt lat="46.35082" lon="5.3935">
        <ele>378</ele>
        <time>2022-03-22T14:08:37Z</time>
      </trkpt>
      <trkpt lat="46.35081" lon="5.39366">
        <ele>377.6</ele>
        <time>2022-03-22T14:08:38Z</time>
      </trkpt>
      <trkpt lat="46.35079" lon="5.39399">
        <ele>376.8</ele>
        <time>2022-03-22T14:08:40Z</time>
      </trkpt>
      <trkpt lat="46.35078" lon="5.39445">
        <ele>376</ele>
        <time>2022-03-22T14:08:43Z</time>
      </trkpt>
      <trkpt lat="46.35077" lon="5.39459">
        <ele>375.6</ele>
        <time>2022-03-22T14:08:44Z</time>
      </trkpt>
      <trkpt lat="46.35078" lon="5.39532">
        <ele>375.4</ele>
        <time>2022-03-22T14:08:49Z</time>
      </trkpt>
      <trkpt lat="46.35083" lon="5.39621">
        <ele>375</ele>
        <time>2022-03-22T14:08:55Z</time>
      </trkpt>
      <trkpt lat="46.35083" lon="5.39635">
        <ele>375</ele>
        <time>2022-03-22T14:08:56Z</time>
      </trkpt>
      <trkpt lat="46.35082" lon="5.3965">
        <ele>374.8</ele>
        <time>2022-03-22T14:08:57Z</time>
      </trkpt>
      <trkpt lat="46.35079" lon="5.39705">
        <ele>374.4</ele>
        <time>2022-03-22T14:09:01Z</time>
      </trkpt>
      <trkpt lat="46.35079" lon="5.39719">
        <ele>374.4</ele>
        <time>2022-03-22T14:09:02Z</time>
      </trkpt>
      <trkpt lat="46.35084" lon="5.39744">
        <ele>374.4</ele>
        <time>2022-03-22T14:09:04Z</time>
      </trkpt>
      <trkpt lat="46.35104" lon="5.39817">
        <ele>374.4</ele>
        <time>2022-03-22T14:09:10Z</time>
      </trkpt>
      <trkpt lat="46.35109" lon="5.39829">
        <ele>374.4</ele>
        <time>2022-03-22T14:09:11Z</time>
      </trkpt>
      <trkpt lat="46.35137" lon="5.39895">
        <ele>374.4</ele>
        <time>2022-03-22T14:09:17Z</time>
      </trkpt>
      <trkpt lat="46.35142" lon="5.39906">
        <ele>374.4</ele>
        <time>2022-03-22T14:09:18Z</time>
      </trkpt>
      <trkpt lat="46.35177" lon="5.3997">
        <ele>374</ele>
        <time>2022-03-22T14:09:24Z</time>
      </trkpt>
      <trkpt lat="46.3519" lon="5.39991">
        <ele>373.8</ele>
        <time>2022-03-22T14:09:26Z</time>
      </trkpt>
      <trkpt lat="46.35212" lon="5.40033">
        <ele>373.2</ele>
        <time>2022-03-22T14:09:30Z</time>
      </trkpt>
      <trkpt lat="46.35217" lon="5.40044">
        <ele>373</ele>
        <time>2022-03-22T14:09:31Z</time>
      </trkpt>
      <trkpt lat="46.35234" lon="5.40072">
        <ele>372.8</ele>
        <time>2022-03-22T14:09:34Z</time>
      </trkpt>
      <trkpt lat="46.35268" lon="5.40127">
        <ele>373</ele>
        <time>2022-03-22T14:09:40Z</time>
      </trkpt>
      <trkpt lat="46.35273" lon="5.4015">
        <ele>373.2</ele>
        <time>2022-03-22T14:09:42Z</time>
      </trkpt>
      <trkpt lat="46.35275" lon="5.40162">
        <ele>373.2</ele>
        <time>2022-03-22T14:09:43Z</time>
      </trkpt>
      <trkpt lat="46.35278" lon="5.40231">
        <ele>372.8</ele>
        <time>2022-03-22T14:09:48Z</time>
      </trkpt>
      <trkpt lat="46.3528" lon="5.40256">
        <ele>372.6</ele>
        <time>2022-03-22T14:09:50Z</time>
      </trkpt>
      <trkpt lat="46.35284" lon="5.40322">
        <ele>371.4</ele>
        <time>2022-03-22T14:09:55Z</time>
      </trkpt>
      <trkpt lat="46.3529" lon="5.4036">
        <ele>370.8</ele>
        <time>2022-03-22T14:09:58Z</time>
      </trkpt>
      <trkpt lat="46.35295" lon="5.40372">
        <ele>370.8</ele>
        <time>2022-03-22T14:09:59Z</time>
      </trkpt>
      <trkpt lat="46.35302" lon="5.40381">
        <ele>370.8</ele>
        <time>2022-03-22T14:10:00Z</time>
      </trkpt>
      <trkpt lat="46.35315" lon="5.40391">
        <ele>370.8</ele>
        <time>2022-03-22T14:10:02Z</time>
      </trkpt>
      <trkpt lat="46.35355" lon="5.40404">
        <ele>370.6</ele>
        <time>2022-03-22T14:10:07Z</time>
      </trkpt>
      <trkpt lat="46.35374" lon="5.40414">
        <ele>370.8</ele>
        <time>2022-03-22T14:10:10Z</time>
      </trkpt>
      <trkpt lat="46.35379" lon="5.40418">
        <ele>371</ele>
        <time>2022-03-22T14:10:11Z</time>
      </trkpt>
      <trkpt lat="46.35384" lon="5.40423">
        <ele>371</ele>
        <time>2022-03-22T14:10:12Z</time>
      </trkpt>
      <trkpt lat="46.35391" lon="5.40437">
        <ele>371.2</ele>
        <time>2022-03-22T14:10:14Z</time>
      </trkpt>
      <trkpt lat="46.35393" lon="5.40445">
        <ele>371.6</ele>
        <time>2022-03-22T14:10:15Z</time>
      </trkpt>
      <trkpt lat="46.35395" lon="5.40454">
        <ele>372</ele>
        <time>2022-03-22T14:10:16Z</time>
      </trkpt>
      <trkpt lat="46.354" lon="5.40492">
        <ele>372.6</ele>
        <time>2022-03-22T14:10:20Z</time>
      </trkpt>
      <trkpt lat="46.35402" lon="5.40502">
        <ele>372.6</ele>
        <time>2022-03-22T14:10:21Z</time>
      </trkpt>
      <trkpt lat="46.35405" lon="5.40532">
        <ele>372.6</ele>
        <time>2022-03-22T14:10:24Z</time>
      </trkpt>
      <trkpt lat="46.35404" lon="5.40552">
        <ele>372.6</ele>
        <time>2022-03-22T14:10:26Z</time>
      </trkpt>
      <trkpt lat="46.35397" lon="5.40601">
        <ele>373.2</ele>
        <time>2022-03-22T14:10:32Z</time>
      </trkpt>
      <trkpt lat="46.35393" lon="5.40632">
        <ele>373.8</ele>
        <time>2022-03-22T14:10:36Z</time>
      </trkpt>
      <trkpt lat="46.35392" lon="5.4064">
        <ele>373.8</ele>
        <time>2022-03-22T14:10:37Z</time>
      </trkpt>
      <trkpt lat="46.35391" lon="5.40648">
        <ele>374</ele>
        <time>2022-03-22T14:10:38Z</time>
      </trkpt>
      <trkpt lat="46.35387" lon="5.40661">
        <ele>374.4</ele>
        <time>2022-03-22T14:10:40Z</time>
      </trkpt>
      <trkpt lat="46.35381" lon="5.40672">
        <ele>374.6</ele>
        <time>2022-03-22T14:10:42Z</time>
      </trkpt>
      <trkpt lat="46.35378" lon="5.40677">
        <ele>374.8</ele>
        <time>2022-03-22T14:10:43Z</time>
      </trkpt>
      <trkpt lat="46.35375" lon="5.40682">
        <ele>375</ele>
        <time>2022-03-22T14:10:44Z</time>
      </trkpt>
      <trkpt lat="46.35363" lon="5.40691">
        <ele>375.8</ele>
        <time>2022-03-22T14:10:47Z</time>
      </trkpt>
      <trkpt lat="46.35359" lon="5.40693">
        <ele>376.2</ele>
        <time>2022-03-22T14:10:48Z</time>
      </trkpt>
      <trkpt lat="46.35342" lon="5.40703">
        <ele>377.4</ele>
        <time>2022-03-22T14:10:52Z</time>
      </trkpt>
      <trkpt lat="46.35338" lon="5.40706">
        <ele>377.6</ele>
        <time>2022-03-22T14:10:53Z</time>
      </trkpt>
      <trkpt lat="46.35331" lon="5.40713">
        <ele>378.6</ele>
        <time>2022-03-22T14:10:55Z</time>
      </trkpt>
      <trkpt lat="46.35316" lon="5.40733">
        <ele>379.8</ele>
        <time>2022-03-22T14:11:00Z</time>
      </trkpt>
      <trkpt lat="46.35312" lon="5.40741">
        <ele>380.8</ele>
        <time>2022-03-22T14:11:02Z</time>
      </trkpt>
      <trkpt lat="46.35311" lon="5.40745">
        <ele>381.2</ele>
        <time>2022-03-22T14:11:03Z</time>
      </trkpt>
      <trkpt lat="46.35309" lon="5.40753">
        <ele>381.8</ele>
        <time>2022-03-22T14:11:05Z</time>
      </trkpt>
      <trkpt lat="46.3531" lon="5.40757">
        <ele>382</ele>
        <time>2022-03-22T14:11:06Z</time>
      </trkpt>
      <trkpt lat="46.35314" lon="5.40764">
        <ele>382.4</ele>
        <time>2022-03-22T14:11:08Z</time>
      </trkpt>
      <trkpt lat="46.35321" lon="5.40767">
        <ele>382.8</ele>
        <time>2022-03-22T14:11:10Z</time>
      </trkpt>
      <trkpt lat="46.35331" lon="5.40775">
        <ele>383.6</ele>
        <time>2022-03-22T14:11:13Z</time>
      </trkpt>
      <trkpt lat="46.35336" lon="5.40781">
        <ele>383.8</ele>
        <time>2022-03-22T14:11:15Z</time>
      </trkpt>
      <trkpt lat="46.35346" lon="5.40785">
        <ele>385</ele>
        <time>2022-03-22T14:11:18Z</time>
      </trkpt>
      <trkpt lat="46.3535" lon="5.40785">
        <ele>385.2</ele>
        <time>2022-03-22T14:11:19Z</time>
      </trkpt>
      <trkpt lat="46.35368" lon="5.40779">
        <ele>385.4</ele>
        <time>2022-03-22T14:11:23Z</time>
      </trkpt>
      <trkpt lat="46.35373" lon="5.40778">
        <ele>385.8</ele>
        <time>2022-03-22T14:11:24Z</time>
      </trkpt>
      <trkpt lat="46.35397" lon="5.40775">
        <ele>385.4</ele>
        <time>2022-03-22T14:11:28Z</time>
      </trkpt>
      <trkpt lat="46.35403" lon="5.40773">
        <ele>385.2</ele>
        <time>2022-03-22T14:11:29Z</time>
      </trkpt>
      <trkpt lat="46.35428" lon="5.40757">
        <ele>384.4</ele>
        <time>2022-03-22T14:11:33Z</time>
      </trkpt>
      <trkpt lat="46.35442" lon="5.40749">
        <ele>384</ele>
        <time>2022-03-22T14:11:35Z</time>
      </trkpt>
      <trkpt lat="46.35457" lon="5.40742">
        <ele>383.4</ele>
        <time>2022-03-22T14:11:37Z</time>
      </trkpt>
      <trkpt lat="46.35464" lon="5.40741">
        <ele>383.2</ele>
        <time>2022-03-22T14:11:38Z</time>
      </trkpt>
      <trkpt lat="46.35472" lon="5.4074">
        <ele>382.8</ele>
        <time>2022-03-22T14:11:39Z</time>
      </trkpt>
      <trkpt lat="46.35511" lon="5.4074">
        <ele>381.8</ele>
        <time>2022-03-22T14:11:44Z</time>
      </trkpt>
      <trkpt lat="46.35554" lon="5.40745">
        <ele>380.8</ele>
        <time>2022-03-22T14:11:49Z</time>
      </trkpt>
      <trkpt lat="46.35596" lon="5.40763">
        <ele>379.2</ele>
        <time>2022-03-22T14:11:54Z</time>
      </trkpt>
      <trkpt lat="46.35621" lon="5.40771">
        <ele>378.2</ele>
        <time>2022-03-22T14:11:57Z</time>
      </trkpt>
      <trkpt lat="46.35637" lon="5.40774">
        <ele>377.6</ele>
        <time>2022-03-22T14:11:59Z</time>
      </trkpt>
      <trkpt lat="46.35654" lon="5.40777">
        <ele>377</ele>
        <time>2022-03-22T14:12:01Z</time>
      </trkpt>
      <trkpt lat="46.35687" lon="5.40777">
        <ele>376.6</ele>
        <time>2022-03-22T14:12:05Z</time>
      </trkpt>
      <trkpt lat="46.35734" lon="5.40767">
        <ele>376.2</ele>
        <time>2022-03-22T14:12:11Z</time>
      </trkpt>
      <trkpt lat="46.35741" lon="5.40763">
        <ele>376.2</ele>
        <time>2022-03-22T14:12:12Z</time>
      </trkpt>
      <trkpt lat="46.35755" lon="5.40753">
        <ele>376.2</ele>
        <time>2022-03-22T14:12:14Z</time>
      </trkpt>
      <trkpt lat="46.35769" lon="5.40748">
        <ele>376</ele>
        <time>2022-03-22T14:12:16Z</time>
      </trkpt>
      <trkpt lat="46.35784" lon="5.40747">
        <ele>376</ele>
        <time>2022-03-22T14:12:18Z</time>
      </trkpt>
      <trkpt lat="46.35799" lon="5.40749">
        <ele>376</ele>
        <time>2022-03-22T14:12:20Z</time>
      </trkpt>
      <trkpt lat="46.35857" lon="5.40764">
        <ele>376.2</ele>
        <time>2022-03-22T14:12:28Z</time>
      </trkpt>
      <trkpt lat="46.35864" lon="5.40767">
        <ele>376.2</ele>
        <time>2022-03-22T14:12:29Z</time>
      </trkpt>
      <trkpt lat="46.35918" lon="5.40782">
        <ele>376.4</ele>
        <time>2022-03-22T14:12:37Z</time>
      </trkpt>
      <trkpt lat="46.3593" lon="5.40792">
        <ele>376.4</ele>
        <time>2022-03-22T14:12:39Z</time>
      </trkpt>
      <trkpt lat="46.3594" lon="5.40804">
        <ele>376.6</ele>
        <time>2022-03-22T14:12:41Z</time>
      </trkpt>
      <trkpt lat="46.35971" lon="5.40839">
        <ele>376.8</ele>
        <time>2022-03-22T14:12:47Z</time>
      </trkpt>
      <trkpt lat="46.35976" lon="5.40844">
        <ele>377</ele>
        <time>2022-03-22T14:12:48Z</time>
      </trkpt>
      <trkpt lat="46.36001" lon="5.40873">
        <ele>377.2</ele>
        <time>2022-03-22T14:12:53Z</time>
      </trkpt>
      <trkpt lat="46.36021" lon="5.40908">
        <ele>377.2</ele>
        <time>2022-03-22T14:12:58Z</time>
      </trkpt>
      <trkpt lat="46.36037" lon="5.40923">
        <ele>377.6</ele>
        <time>2022-03-22T14:13:01Z</time>
      </trkpt>
      <trkpt lat="46.36043" lon="5.40926">
        <ele>377.6</ele>
        <time>2022-03-22T14:13:02Z</time>
      </trkpt>
      <trkpt lat="46.36092" lon="5.40947">
        <ele>377.8</ele>
        <time>2022-03-22T14:13:10Z</time>
      </trkpt>
      <trkpt lat="46.36123" lon="5.40943">
        <ele>378</ele>
        <time>2022-03-22T14:13:15Z</time>
      </trkpt>
      <trkpt lat="46.3613" lon="5.40943">
        <ele>378</ele>
        <time>2022-03-22T14:13:16Z</time>
      </trkpt>
      <trkpt lat="46.36155" lon="5.40947">
        <ele>378.4</ele>
        <time>2022-03-22T14:13:20Z</time>
      </trkpt>
      <trkpt lat="46.36185" lon="5.40955">
        <ele>379</ele>
        <time>2022-03-22T14:13:25Z</time>
      </trkpt>
      <trkpt lat="46.36216" lon="5.40962">
        <ele>379.4</ele>
        <time>2022-03-22T14:13:30Z</time>
      </trkpt>
      <trkpt lat="46.3626" lon="5.40963">
        <ele>379.8</ele>
        <time>2022-03-22T14:13:37Z</time>
      </trkpt>
      <trkpt lat="46.36285" lon="5.40955">
        <ele>380.2</ele>
        <time>2022-03-22T14:13:41Z</time>
      </trkpt>
      <trkpt lat="46.36297" lon="5.40949">
        <ele>380.6</ele>
        <time>2022-03-22T14:13:43Z</time>
      </trkpt>
      <trkpt lat="46.36334" lon="5.40937">
        <ele>381.2</ele>
        <time>2022-03-22T14:13:49Z</time>
      </trkpt>
      <trkpt lat="46.3636" lon="5.40937">
        <ele>381.6</ele>
        <time>2022-03-22T14:13:53Z</time>
      </trkpt>
      <trkpt lat="46.36379" lon="5.40939">
        <ele>381.8</ele>
        <time>2022-03-22T14:13:56Z</time>
      </trkpt>
      <trkpt lat="46.36434" lon="5.40944">
        <ele>382.4</ele>
        <time>2022-03-22T14:14:05Z</time>
      </trkpt>
      <trkpt lat="46.3644" lon="5.40946">
        <ele>382.8</ele>
        <time>2022-03-22T14:14:06Z</time>
      </trkpt>
      <trkpt lat="46.36479" lon="5.40954">
        <ele>383.2</ele>
        <time>2022-03-22T14:14:12Z</time>
      </trkpt>
      <trkpt lat="46.3653" lon="5.40956">
        <ele>383.4</ele>
        <time>2022-03-22T14:14:20Z</time>
      </trkpt>
      <trkpt lat="46.36556" lon="5.40957">
        <ele>384.2</ele>
        <time>2022-03-22T14:14:24Z</time>
      </trkpt>
      <trkpt lat="46.36574" lon="5.40959">
        <ele>384.8</ele>
        <time>2022-03-22T14:14:27Z</time>
      </trkpt>
      <trkpt lat="46.36579" lon="5.40959">
        <ele>384.8</ele>
        <time>2022-03-22T14:14:28Z</time>
      </trkpt>
      <trkpt lat="46.36613" lon="5.40965">
        <ele>385.4</ele>
        <time>2022-03-22T14:14:34Z</time>
      </trkpt>
      <trkpt lat="46.36619" lon="5.40966">
        <ele>385.6</ele>
        <time>2022-03-22T14:14:35Z</time>
      </trkpt>
      <trkpt lat="46.36662" lon="5.40977">
        <ele>386.2</ele>
        <time>2022-03-22T14:14:43Z</time>
      </trkpt>
      <trkpt lat="46.36674" lon="5.40981">
        <ele>386.6</ele>
        <time>2022-03-22T14:14:45Z</time>
      </trkpt>
      <trkpt lat="46.36701" lon="5.40987">
        <ele>387.4</ele>
        <time>2022-03-22T14:14:50Z</time>
      </trkpt>
      <trkpt lat="46.36706" lon="5.40988">
        <ele>387.4</ele>
        <time>2022-03-22T14:14:51Z</time>
      </trkpt>
      <trkpt lat="46.3671" lon="5.40989">
        <ele>387.8</ele>
        <time>2022-03-22T14:14:52Z</time>
      </trkpt>
      <trkpt lat="46.36726" lon="5.40991">
        <ele>388.2</ele>
        <time>2022-03-22T14:14:55Z</time>
      </trkpt>
      <trkpt lat="46.36737" lon="5.40991">
        <ele>388.6</ele>
        <time>2022-03-22T14:14:57Z</time>
      </trkpt>
      <trkpt lat="46.36747" lon="5.40992">
        <ele>388.8</ele>
        <time>2022-03-22T14:14:59Z</time>
      </trkpt>
      <trkpt lat="46.36759" lon="5.40994">
        <ele>389.2</ele>
        <time>2022-03-22T14:15:01Z</time>
      </trkpt>
      <trkpt lat="46.36768" lon="5.40993">
        <ele>389.6</ele>
        <time>2022-03-22T14:15:03Z</time>
      </trkpt>
      <trkpt lat="46.36782" lon="5.40997">
        <ele>390.2</ele>
        <time>2022-03-22T14:15:06Z</time>
      </trkpt>
      <trkpt lat="46.36787" lon="5.40998">
        <ele>390.2</ele>
        <time>2022-03-22T14:15:07Z</time>
      </trkpt>
      <trkpt lat="46.36797" lon="5.40998">
        <ele>390.6</ele>
        <time>2022-03-22T14:15:09Z</time>
      </trkpt>
      <trkpt lat="46.36808" lon="5.40997">
        <ele>391</ele>
        <time>2022-03-22T14:15:11Z</time>
      </trkpt>
      <trkpt lat="46.36822" lon="5.40995">
        <ele>391.6</ele>
        <time>2022-03-22T14:15:14Z</time>
      </trkpt>
      <trkpt lat="46.3685" lon="5.40993">
        <ele>392.4</ele>
        <time>2022-03-22T14:15:19Z</time>
      </trkpt>
      <trkpt lat="46.36867" lon="5.40994">
        <ele>392.8</ele>
        <time>2022-03-22T14:15:22Z</time>
      </trkpt>
      <trkpt lat="46.36894" lon="5.40997">
        <ele>393.6</ele>
        <time>2022-03-22T14:15:27Z</time>
      </trkpt>
      <trkpt lat="46.36906" lon="5.40997">
        <ele>393.8</ele>
        <time>2022-03-22T14:15:29Z</time>
      </trkpt>
      <trkpt lat="46.36939" lon="5.40995">
        <ele>394.2</ele>
        <time>2022-03-22T14:15:35Z</time>
      </trkpt>
      <trkpt lat="46.3698" lon="5.40981">
        <ele>393.6</ele>
        <time>2022-03-22T14:15:42Z</time>
      </trkpt>
      <trkpt lat="46.37025" lon="5.40966">
        <ele>393</ele>
        <time>2022-03-22T14:15:50Z</time>
      </trkpt>
      <trkpt lat="46.37056" lon="5.40965">
        <ele>393.6</ele>
        <time>2022-03-22T14:15:56Z</time>
      </trkpt>
      <trkpt lat="46.37088" lon="5.40981">
        <ele>394.6</ele>
        <time>2022-03-22T14:16:02Z</time>
      </trkpt>
      <trkpt lat="46.37113" lon="5.40989">
        <ele>394.8</ele>
        <time>2022-03-22T14:16:06Z</time>
      </trkpt>
      <trkpt lat="46.37126" lon="5.40993">
        <ele>394.8</ele>
        <time>2022-03-22T14:16:08Z</time>
      </trkpt>
      <trkpt lat="46.37169" lon="5.4101">
        <ele>394.6</ele>
        <time>2022-03-22T14:16:15Z</time>
      </trkpt>
      <trkpt lat="46.372" lon="5.41026">
        <ele>395</ele>
        <time>2022-03-22T14:16:21Z</time>
      </trkpt>
      <trkpt lat="46.37205" lon="5.41029">
        <ele>395.2</ele>
        <time>2022-03-22T14:16:22Z</time>
      </trkpt>
      <trkpt lat="46.37232" lon="5.41042">
        <ele>396</ele>
        <time>2022-03-22T14:16:28Z</time>
      </trkpt>
      <trkpt lat="46.37237" lon="5.41044">
        <ele>396.2</ele>
        <time>2022-03-22T14:16:29Z</time>
      </trkpt>
      <trkpt lat="46.37256" lon="5.41051">
        <ele>397.4</ele>
        <time>2022-03-22T14:16:33Z</time>
      </trkpt>
      <trkpt lat="46.3728" lon="5.41059">
        <ele>398.4</ele>
        <time>2022-03-22T14:16:38Z</time>
      </trkpt>
      <trkpt lat="46.37284" lon="5.4106">
        <ele>398.4</ele>
        <time>2022-03-22T14:16:39Z</time>
      </trkpt>
      <trkpt lat="46.37302" lon="5.41064">
        <ele>399.6</ele>
        <time>2022-03-22T14:16:43Z</time>
      </trkpt>
      <trkpt lat="46.3732" lon="5.41067">
        <ele>400.4</ele>
        <time>2022-03-22T14:16:47Z</time>
      </trkpt>
      <trkpt lat="46.37329" lon="5.41068">
        <ele>400.8</ele>
        <time>2022-03-22T14:16:49Z</time>
      </trkpt>
      <trkpt lat="46.37338" lon="5.41067">
        <ele>401.2</ele>
        <time>2022-03-22T14:16:51Z</time>
      </trkpt>
      <trkpt lat="46.37348" lon="5.41064">
        <ele>401.8</ele>
        <time>2022-03-22T14:16:53Z</time>
      </trkpt>
      <trkpt lat="46.37352" lon="5.4106">
        <ele>402</ele>
        <time>2022-03-22T14:16:54Z</time>
      </trkpt>
      <trkpt lat="46.37364" lon="5.41047">
        <ele>403.2</ele>
        <time>2022-03-22T14:16:57Z</time>
      </trkpt>
      <trkpt lat="46.37368" lon="5.41041">
        <ele>403.4</ele>
        <time>2022-03-22T14:16:58Z</time>
      </trkpt>
      <trkpt lat="46.37387" lon="5.41004">
        <ele>404</ele>
        <time>2022-03-22T14:17:03Z</time>
      </trkpt>
      <trkpt lat="46.37391" lon="5.40983">
        <ele>404</ele>
        <time>2022-03-22T14:17:05Z</time>
      </trkpt>
      <trkpt lat="46.3739" lon="5.40971">
        <ele>403.8</ele>
        <time>2022-03-22T14:17:06Z</time>
      </trkpt>
      <trkpt lat="46.37388" lon="5.40959">
        <ele>403.6</ele>
        <time>2022-03-22T14:17:07Z</time>
      </trkpt>
      <trkpt lat="46.37379" lon="5.40922">
        <ele>402</ele>
        <time>2022-03-22T14:17:10Z</time>
      </trkpt>
      <trkpt lat="46.37372" lon="5.40882">
        <ele>401</ele>
        <time>2022-03-22T14:17:13Z</time>
      </trkpt>
      <trkpt lat="46.37369" lon="5.40857">
        <ele>399.4</ele>
        <time>2022-03-22T14:17:15Z</time>
      </trkpt>
      <trkpt lat="46.37369" lon="5.40845">
        <ele>399</ele>
        <time>2022-03-22T14:17:16Z</time>
      </trkpt>
      <trkpt lat="46.37372" lon="5.40834">
        <ele>398.2</ele>
        <time>2022-03-22T14:17:17Z</time>
      </trkpt>
      <trkpt lat="46.3738" lon="5.40819">
        <ele>397.4</ele>
        <time>2022-03-22T14:17:19Z</time>
      </trkpt>
      <trkpt lat="46.37386" lon="5.40815">
        <ele>397</ele>
        <time>2022-03-22T14:17:20Z</time>
      </trkpt>
      <trkpt lat="46.37393" lon="5.40813">
        <ele>396.4</ele>
        <time>2022-03-22T14:17:21Z</time>
      </trkpt>
      <trkpt lat="46.37402" lon="5.40812">
        <ele>395.6</ele>
        <time>2022-03-22T14:17:22Z</time>
      </trkpt>
      <trkpt lat="46.37419" lon="5.40805">
        <ele>394.6</ele>
        <time>2022-03-22T14:17:24Z</time>
      </trkpt>
      <trkpt lat="46.37435" lon="5.40794">
        <ele>393.6</ele>
        <time>2022-03-22T14:17:26Z</time>
      </trkpt>
      <trkpt lat="46.37443" lon="5.40787">
        <ele>393.2</ele>
        <time>2022-03-22T14:17:27Z</time>
      </trkpt>
      <trkpt lat="46.3748" lon="5.4076">
        <ele>392.2</ele>
        <time>2022-03-22T14:17:32Z</time>
      </trkpt>
      <trkpt lat="46.37489" lon="5.40756">
        <ele>392.2</ele>
        <time>2022-03-22T14:17:33Z</time>
      </trkpt>
      <trkpt lat="46.37522" lon="5.40748">
        <ele>392</ele>
        <time>2022-03-22T14:17:37Z</time>
      </trkpt>
      <trkpt lat="46.37571" lon="5.40745">
        <ele>391.4</ele>
        <time>2022-03-22T14:17:43Z</time>
      </trkpt>
      <trkpt lat="46.37625" lon="5.40753">
        <ele>390.6</ele>
        <time>2022-03-22T14:17:50Z</time>
      </trkpt>
      <trkpt lat="46.3764" lon="5.40755">
        <ele>390.6</ele>
        <time>2022-03-22T14:17:52Z</time>
      </trkpt>
      <trkpt lat="46.37648" lon="5.40753">
        <ele>390.6</ele>
        <time>2022-03-22T14:17:53Z</time>
      </trkpt>
      <trkpt lat="46.37655" lon="5.40751">
        <ele>390.6</ele>
        <time>2022-03-22T14:17:54Z</time>
      </trkpt>
      <trkpt lat="46.37669" lon="5.40739">
        <ele>390.4</ele>
        <time>2022-03-22T14:17:56Z</time>
      </trkpt>
      <trkpt lat="46.37694" lon="5.40706">
        <ele>389.4</ele>
        <time>2022-03-22T14:18:00Z</time>
      </trkpt>
      <trkpt lat="46.37701" lon="5.40697">
        <ele>389</ele>
        <time>2022-03-22T14:18:01Z</time>
      </trkpt>
      <trkpt lat="46.37726" lon="5.40662">
        <ele>388.2</ele>
        <time>2022-03-22T14:18:05Z</time>
      </trkpt>
      <trkpt lat="46.37736" lon="5.40643">
        <ele>388.2</ele>
        <time>2022-03-22T14:18:07Z</time>
      </trkpt>
      <trkpt lat="46.37755" lon="5.40593">
        <ele>387.2</ele>
        <time>2022-03-22T14:18:12Z</time>
      </trkpt>
      <trkpt lat="46.37777" lon="5.40528">
        <ele>387.2</ele>
        <time>2022-03-22T14:18:19Z</time>
      </trkpt>
      <trkpt lat="46.37791" lon="5.40489">
        <ele>388</ele>
        <time>2022-03-22T14:18:24Z</time>
      </trkpt>
      <trkpt lat="46.37794" lon="5.40482">
        <ele>388.2</ele>
        <time>2022-03-22T14:18:25Z</time>
      </trkpt>
      <trkpt lat="46.37798" lon="5.40475">
        <ele>388.2</ele>
        <time>2022-03-22T14:18:26Z</time>
      </trkpt>
      <trkpt lat="46.37813" lon="5.40457">
        <ele>388.4</ele>
        <time>2022-03-22T14:18:29Z</time>
      </trkpt>
      <trkpt lat="46.37861" lon="5.40416">
        <ele>388.2</ele>
        <time>2022-03-22T14:18:37Z</time>
      </trkpt>
      <trkpt lat="46.379" lon="5.40384">
        <ele>387.6</ele>
        <time>2022-03-22T14:18:43Z</time>
      </trkpt>
      <trkpt lat="46.37914" lon="5.40373">
        <ele>387.2</ele>
        <time>2022-03-22T14:18:45Z</time>
      </trkpt>
      <trkpt lat="46.37953" lon="5.40336">
        <ele>386</ele>
        <time>2022-03-22T14:18:51Z</time>
      </trkpt>
      <trkpt lat="46.37977" lon="5.40295">
        <ele>385.2</ele>
        <time>2022-03-22T14:18:56Z</time>
      </trkpt>
      <trkpt lat="46.37989" lon="5.40271">
        <ele>385</ele>
        <time>2022-03-22T14:18:59Z</time>
      </trkpt>
      <trkpt lat="46.38" lon="5.40246">
        <ele>385</ele>
        <time>2022-03-22T14:19:02Z</time>
      </trkpt>
      <trkpt lat="46.38008" lon="5.40221">
        <ele>385</ele>
        <time>2022-03-22T14:19:05Z</time>
      </trkpt>
      <trkpt lat="46.38013" lon="5.40195">
        <ele>385</ele>
        <time>2022-03-22T14:19:08Z</time>
      </trkpt>
      <trkpt lat="46.38031" lon="5.40116">
        <ele>385</ele>
        <time>2022-03-22T14:19:17Z</time>
      </trkpt>
      <trkpt lat="46.38036" lon="5.40099">
        <ele>384.8</ele>
        <time>2022-03-22T14:19:19Z</time>
      </trkpt>
      <trkpt lat="46.38044" lon="5.40056">
        <ele>384.8</ele>
        <time>2022-03-22T14:19:24Z</time>
      </trkpt>
      <trkpt lat="46.38045" lon="5.40049">
        <ele>384.8</ele>
        <time>2022-03-22T14:19:25Z</time>
      </trkpt>
      <trkpt lat="46.38046" lon="5.40006">
        <ele>385.2</ele>
        <time>2022-03-22T14:19:30Z</time>
      </trkpt>
      <trkpt lat="46.38048" lon="5.39945">
        <ele>385.4</ele>
        <time>2022-03-22T14:19:37Z</time>
      </trkpt>
      <trkpt lat="46.3805" lon="5.39937">
        <ele>385.4</ele>
        <time>2022-03-22T14:19:38Z</time>
      </trkpt>
      <trkpt lat="46.38053" lon="5.39931">
        <ele>385.4</ele>
        <time>2022-03-22T14:19:39Z</time>
      </trkpt>
      <trkpt lat="46.38061" lon="5.39926">
        <ele>385.2</ele>
        <time>2022-03-22T14:19:41Z</time>
      </trkpt>
      <trkpt lat="46.38085" lon="5.39912">
        <ele>385</ele>
        <time>2022-03-22T14:19:47Z</time>
      </trkpt>
      <trkpt lat="46.38097" lon="5.39901">
        <ele>384.8</ele>
        <time>2022-03-22T14:19:53Z</time>
      </trkpt>
      <trkpt lat="46.381" lon="5.399">
        <ele>384.8</ele>
        <time>2022-03-22T14:19:58Z</time>
      </trkpt>
      <trkpt lat="46.38105" lon="5.39897">
        <ele>384.2</ele>
        <time>2022-03-22T14:20:17Z</time>
      </trkpt>
      <trkpt lat="46.38109" lon="5.39893">
        <ele>384.4</ele>
        <time>2022-03-22T14:20:19Z</time>
      </trkpt>
      <trkpt lat="46.38124" lon="5.39879">
        <ele>384.6</ele>
        <time>2022-03-22T14:20:23Z</time>
      </trkpt>
      <trkpt lat="46.38146" lon="5.39862">
        <ele>384.8</ele>
        <time>2022-03-22T14:20:29Z</time>
      </trkpt>
      <trkpt lat="46.3816" lon="5.3986">
        <ele>385.6</ele>
        <time>2022-03-22T14:20:34Z</time>
      </trkpt>
      <trkpt lat="46.38174" lon="5.39862">
        <ele>386</ele>
        <time>2022-03-22T14:20:40Z</time>
      </trkpt>
      <trkpt lat="46.38176" lon="5.39862">
        <ele>386</ele>
        <time>2022-03-22T14:20:41Z</time>
      </trkpt>
      <trkpt lat="46.38179" lon="5.39861">
        <ele>386</ele>
        <time>2022-03-22T14:20:43Z</time>
      </trkpt>
      <trkpt lat="46.38179" lon="5.3986">
        <ele>386</ele>
        <time>2022-03-22T14:20:44Z</time>
      </trkpt>
      <trkpt lat="46.38184" lon="5.39852">
        <ele>386</ele>
        <time>2022-03-22T14:20:51Z</time>
      </trkpt>
      <trkpt lat="46.38194" lon="5.39849">
        <ele>386</ele>
        <time>2022-03-22T14:20:56Z</time>
      </trkpt>
      <trkpt lat="46.38196" lon="5.39849">
        <ele>386</ele>
        <time>2022-03-22T14:20:57Z</time>
      </trkpt>
      <trkpt lat="46.38199" lon="5.39848">
        <ele>386</ele>
        <time>2022-03-22T14:20:58Z</time>
      </trkpt>
      <trkpt lat="46.38206" lon="5.39847">
        <ele>386.2</ele>
        <time>2022-03-22T14:21:00Z</time>
      </trkpt>
      <trkpt lat="46.38218" lon="5.39845">
        <ele>387.2</ele>
        <time>2022-03-22T14:21:04Z</time>
      </trkpt>
      <trkpt lat="46.38219" lon="5.39845">
        <ele>387.2</ele>
        <time>2022-03-22T14:21:05Z</time>
      </trkpt>
      <trkpt lat="46.38222" lon="5.39844">
        <ele>387.4</ele>
        <time>2022-03-22T14:21:06Z</time>
      </trkpt>
      <trkpt lat="46.38234" lon="5.39842">
        <ele>388</ele>
        <time>2022-03-22T14:21:10Z</time>
      </trkpt>
      <trkpt lat="46.38244" lon="5.39847">
        <ele>388.2</ele>
        <time>2022-03-22T14:21:13Z</time>
      </trkpt>
      <trkpt lat="46.38265" lon="5.39854">
        <ele>388.4</ele>
        <time>2022-03-22T14:21:19Z</time>
      </trkpt>
      <trkpt lat="46.38278" lon="5.39879">
        <ele>388.6</ele>
        <time>2022-03-22T14:21:24Z</time>
      </trkpt>
      <trkpt lat="46.38301" lon="5.39897">
        <ele>389.4</ele>
        <time>2022-03-22T14:21:30Z</time>
      </trkpt>
      <trkpt lat="46.38313" lon="5.399">
        <ele>389.6</ele>
        <time>2022-03-22T14:21:33Z</time>
      </trkpt>
      <trkpt lat="46.38318" lon="5.39899">
        <ele>389.8</ele>
        <time>2022-03-22T14:21:34Z</time>
      </trkpt>
      <trkpt lat="46.3833" lon="5.39885">
        <ele>390.4</ele>
        <time>2022-03-22T14:21:38Z</time>
      </trkpt>
      <trkpt lat="46.38335" lon="5.39879">
        <ele>391.6</ele>
        <time>2022-03-22T14:21:40Z</time>
      </trkpt>
      <trkpt lat="46.38351" lon="5.39866">
        <ele>392.8</ele>
        <time>2022-03-22T14:21:44Z</time>
      </trkpt>
      <trkpt lat="46.38363" lon="5.3986">
        <ele>394</ele>
        <time>2022-03-22T14:21:48Z</time>
      </trkpt>
      <trkpt lat="46.38374" lon="5.39855">
        <ele>395.2</ele>
        <time>2022-03-22T14:21:51Z</time>
      </trkpt>
      <trkpt lat="46.38388" lon="5.39848">
        <ele>396.4</ele>
        <time>2022-03-22T14:21:55Z</time>
      </trkpt>
      <trkpt lat="46.38399" lon="5.39843">
        <ele>397</ele>
        <time>2022-03-22T14:21:58Z</time>
      </trkpt>
      <trkpt lat="46.38415" lon="5.39837">
        <ele>397.4</ele>
        <time>2022-03-22T14:22:02Z</time>
      </trkpt>
      <trkpt lat="46.38429" lon="5.39831">
        <ele>397.6</ele>
        <time>2022-03-22T14:22:05Z</time>
      </trkpt>
      <trkpt lat="46.38433" lon="5.3983">
        <ele>397.8</ele>
        <time>2022-03-22T14:22:06Z</time>
      </trkpt>
      <trkpt lat="46.38458" lon="5.39825">
        <ele>398.4</ele>
        <time>2022-03-22T14:22:12Z</time>
      </trkpt>
      <trkpt lat="46.38468" lon="5.39824">
        <ele>398.8</ele>
        <time>2022-03-22T14:22:14Z</time>
      </trkpt>
      <trkpt lat="46.38481" lon="5.39823">
        <ele>399.6</ele>
        <time>2022-03-22T14:22:17Z</time>
      </trkpt>
      <trkpt lat="46.38508" lon="5.39826">
        <ele>400.4</ele>
        <time>2022-03-22T14:22:23Z</time>
      </trkpt>
      <trkpt lat="46.38522" lon="5.39828">
        <ele>400.6</ele>
        <time>2022-03-22T14:22:25Z</time>
      </trkpt>
      <trkpt lat="46.3855" lon="5.39832">
        <ele>401.6</ele>
        <time>2022-03-22T14:22:31Z</time>
      </trkpt>
      <trkpt lat="46.38555" lon="5.39832">
        <ele>401.8</ele>
        <time>2022-03-22T14:22:32Z</time>
      </trkpt>
      <trkpt lat="46.38579" lon="5.39835">
        <ele>402.8</ele>
        <time>2022-03-22T14:22:38Z</time>
      </trkpt>
      <trkpt lat="46.38596" lon="5.39837">
        <ele>403.2</ele>
        <time>2022-03-22T14:22:41Z</time>
      </trkpt>
      <trkpt lat="46.38649" lon="5.39841">
        <ele>403.4</ele>
        <time>2022-03-22T14:22:49Z</time>
      </trkpt>
      <trkpt lat="46.38694" lon="5.39847">
        <ele>403.6</ele>
        <time>2022-03-22T14:22:56Z</time>
      </trkpt>
      <trkpt lat="46.38729" lon="5.3985">
        <ele>403.6</ele>
        <time>2022-03-22T14:23:01Z</time>
      </trkpt>
      <trkpt lat="46.38737" lon="5.39851">
        <ele>403.4</ele>
        <time>2022-03-22T14:23:02Z</time>
      </trkpt>
      <trkpt lat="46.38784" lon="5.39854">
        <ele>402</ele>
        <time>2022-03-22T14:23:08Z</time>
      </trkpt>
      <trkpt lat="46.38792" lon="5.39855">
        <ele>401.6</ele>
        <time>2022-03-22T14:23:09Z</time>
      </trkpt>
      <trkpt lat="46.38849" lon="5.39858">
        <ele>400.8</ele>
        <time>2022-03-22T14:23:16Z</time>
      </trkpt>
      <trkpt lat="46.38905" lon="5.3986">
        <ele>401</ele>
        <time>2022-03-22T14:23:24Z</time>
      </trkpt>
      <trkpt lat="46.38963" lon="5.39862">
        <ele>401.6</ele>
        <time>2022-03-22T14:23:32Z</time>
      </trkpt>
      <trkpt lat="46.39026" lon="5.39874">
        <ele>401.4</ele>
        <time>2022-03-22T14:23:40Z</time>
      </trkpt>
      <trkpt lat="46.39048" lon="5.39878">
        <ele>401.2</ele>
        <time>2022-03-22T14:23:43Z</time>
      </trkpt>
      <trkpt lat="46.39071" lon="5.39881">
        <ele>400.8</ele>
        <time>2022-03-22T14:23:46Z</time>
      </trkpt>
      <trkpt lat="46.39107" lon="5.39888">
        <ele>400.8</ele>
        <time>2022-03-22T14:23:51Z</time>
      </trkpt>
      <trkpt lat="46.3916" lon="5.39897">
        <ele>401.4</ele>
        <time>2022-03-22T14:23:59Z</time>
      </trkpt>
      <trkpt lat="46.39198" lon="5.39903">
        <ele>402</ele>
        <time>2022-03-22T14:24:05Z</time>
      </trkpt>
      <trkpt lat="46.39223" lon="5.39907">
        <ele>402</ele>
        <time>2022-03-22T14:24:09Z</time>
      </trkpt>
      <trkpt lat="46.39274" lon="5.39915">
        <ele>402.8</ele>
        <time>2022-03-22T14:24:17Z</time>
      </trkpt>
      <trkpt lat="46.393" lon="5.3992">
        <ele>403</ele>
        <time>2022-03-22T14:24:21Z</time>
      </trkpt>
      <trkpt lat="46.39333" lon="5.39927">
        <ele>403.2</ele>
        <time>2022-03-22T14:24:26Z</time>
      </trkpt>
      <trkpt lat="46.39392" lon="5.39937">
        <ele>403.8</ele>
        <time>2022-03-22T14:24:35Z</time>
      </trkpt>
      <trkpt lat="46.39405" lon="5.39939">
        <ele>404</ele>
        <time>2022-03-22T14:24:37Z</time>
      </trkpt>
      <trkpt lat="46.39457" lon="5.39947">
        <ele>404.2</ele>
        <time>2022-03-22T14:24:45Z</time>
      </trkpt>
      <trkpt lat="46.39476" lon="5.3995">
        <ele>404.4</ele>
        <time>2022-03-22T14:24:48Z</time>
      </trkpt>
      <trkpt lat="46.39506" lon="5.39952">
        <ele>405.4</ele>
        <time>2022-03-22T14:24:53Z</time>
      </trkpt>
      <trkpt lat="46.39546" lon="5.39953">
        <ele>405.8</ele>
        <time>2022-03-22T14:24:59Z</time>
      </trkpt>
      <trkpt lat="46.39559" lon="5.39953">
        <ele>405.8</ele>
        <time>2022-03-22T14:25:01Z</time>
      </trkpt>
      <trkpt lat="46.39618" lon="5.39951">
        <ele>405.8</ele>
        <time>2022-03-22T14:25:10Z</time>
      </trkpt>
      <trkpt lat="46.39677" lon="5.39941">
        <ele>405.6</ele>
        <time>2022-03-22T14:25:19Z</time>
      </trkpt>
      <trkpt lat="46.3969" lon="5.39938">
        <ele>405.6</ele>
        <time>2022-03-22T14:25:21Z</time>
      </trkpt>
      <trkpt lat="46.39756" lon="5.39928">
        <ele>406</ele>
        <time>2022-03-22T14:25:31Z</time>
      </trkpt>
      <trkpt lat="46.39763" lon="5.39927">
        <ele>406.2</ele>
        <time>2022-03-22T14:25:32Z</time>
      </trkpt>
      <trkpt lat="46.39794" lon="5.39921">
        <ele>406.4</ele>
        <time>2022-03-22T14:25:37Z</time>
      </trkpt>
      <trkpt lat="46.39825" lon="5.39915">
        <ele>407</ele>
        <time>2022-03-22T14:25:42Z</time>
      </trkpt>
      <trkpt lat="46.39849" lon="5.39911">
        <ele>407.4</ele>
        <time>2022-03-22T14:25:46Z</time>
      </trkpt>
      <trkpt lat="46.39881" lon="5.39908">
        <ele>407.8</ele>
        <time>2022-03-22T14:25:51Z</time>
      </trkpt>
      <trkpt lat="46.39932" lon="5.39908">
        <ele>407.8</ele>
        <time>2022-03-22T14:25:58Z</time>
      </trkpt>
      <trkpt lat="46.39976" lon="5.3991">
        <ele>407.4</ele>
        <time>2022-03-22T14:26:04Z</time>
      </trkpt>
      <trkpt lat="46.40033" lon="5.39913">
        <ele>407.2</ele>
        <time>2022-03-22T14:26:12Z</time>
      </trkpt>
      <trkpt lat="46.40072" lon="5.39904">
        <ele>407.4</ele>
        <time>2022-03-22T14:26:18Z</time>
      </trkpt>
      <trkpt lat="46.40108" lon="5.3988">
        <ele>407.8</ele>
        <time>2022-03-22T14:26:24Z</time>
      </trkpt>
      <trkpt lat="46.40119" lon="5.39871">
        <ele>408.2</ele>
        <time>2022-03-22T14:26:26Z</time>
      </trkpt>
      <trkpt lat="46.40143" lon="5.39854">
        <ele>408.6</ele>
        <time>2022-03-22T14:26:30Z</time>
      </trkpt>
      <trkpt lat="46.40171" lon="5.39835">
        <ele>409.6</ele>
        <time>2022-03-22T14:26:35Z</time>
      </trkpt>
      <trkpt lat="46.40177" lon="5.39833">
        <ele>409.6</ele>
        <time>2022-03-22T14:26:36Z</time>
      </trkpt>
      <trkpt lat="46.40218" lon="5.39822">
        <ele>410</ele>
        <time>2022-03-22T14:26:42Z</time>
      </trkpt>
      <trkpt lat="46.40261" lon="5.39826">
        <ele>409.8</ele>
        <time>2022-03-22T14:26:48Z</time>
      </trkpt>
      <trkpt lat="46.40282" lon="5.39833">
        <ele>409.6</ele>
        <time>2022-03-22T14:26:51Z</time>
      </trkpt>
      <trkpt lat="46.40296" lon="5.39841">
        <ele>409.6</ele>
        <time>2022-03-22T14:26:53Z</time>
      </trkpt>
      <trkpt lat="46.40338" lon="5.39865">
        <ele>409.8</ele>
        <time>2022-03-22T14:27:00Z</time>
      </trkpt>
      <trkpt lat="46.4037" lon="5.39876">
        <ele>410.4</ele>
        <time>2022-03-22T14:27:06Z</time>
      </trkpt>
      <trkpt lat="46.40388" lon="5.39881">
        <ele>410.8</ele>
        <time>2022-03-22T14:27:09Z</time>
      </trkpt>
      <trkpt lat="46.40415" lon="5.3989">
        <ele>411.6</ele>
        <time>2022-03-22T14:27:14Z</time>
      </trkpt>
      <trkpt lat="46.40438" lon="5.399">
        <ele>411.6</ele>
        <time>2022-03-22T14:27:18Z</time>
      </trkpt>
      <trkpt lat="46.40465" lon="5.3991">
        <ele>412.4</ele>
        <time>2022-03-22T14:27:23Z</time>
      </trkpt>
      <trkpt lat="46.40488" lon="5.3992">
        <ele>413</ele>
        <time>2022-03-22T14:27:27Z</time>
      </trkpt>
      <trkpt lat="46.40505" lon="5.39929">
        <ele>413.2</ele>
        <time>2022-03-22T14:27:30Z</time>
      </trkpt>
      <trkpt lat="46.40548" lon="5.39964">
        <ele>414</ele>
        <time>2022-03-22T14:27:39Z</time>
      </trkpt>
      <trkpt lat="46.40584" lon="5.39991">
        <ele>414.4</ele>
        <time>2022-03-22T14:27:46Z</time>
      </trkpt>
      <trkpt lat="46.40589" lon="5.39994">
        <ele>414.4</ele>
        <time>2022-03-22T14:27:47Z</time>
      </trkpt>
      <trkpt lat="46.40619" lon="5.40001">
        <ele>414.8</ele>
        <time>2022-03-22T14:27:52Z</time>
      </trkpt>
      <trkpt lat="46.40642" lon="5.40009">
        <ele>415</ele>
        <time>2022-03-22T14:27:56Z</time>
      </trkpt>
      <trkpt lat="46.40653" lon="5.40016">
        <ele>415</ele>
        <time>2022-03-22T14:27:58Z</time>
      </trkpt>
      <trkpt lat="46.407" lon="5.40049">
        <ele>415.2</ele>
        <time>2022-03-22T14:28:06Z</time>
      </trkpt>
      <trkpt lat="46.40753" lon="5.40084">
        <ele>415.4</ele>
        <time>2022-03-22T14:28:15Z</time>
      </trkpt>
      <trkpt lat="46.40792" lon="5.40113">
        <ele>416</ele>
        <time>2022-03-22T14:28:22Z</time>
      </trkpt>
      <trkpt lat="46.40798" lon="5.40117">
        <ele>416</ele>
        <time>2022-03-22T14:28:23Z</time>
      </trkpt>
      <trkpt lat="46.4082" lon="5.40132">
        <ele>416.4</ele>
        <time>2022-03-22T14:28:27Z</time>
      </trkpt>
      <trkpt lat="46.40833" lon="5.40136">
        <ele>416.6</ele>
        <time>2022-03-22T14:28:29Z</time>
      </trkpt>
      <trkpt lat="46.40843" lon="5.40138">
        <ele>416.8</ele>
        <time>2022-03-22T14:28:31Z</time>
      </trkpt>
      <trkpt lat="46.40856" lon="5.4014">
        <ele>417.2</ele>
        <time>2022-03-22T14:28:33Z</time>
      </trkpt>
      <trkpt lat="46.40873" lon="5.40142">
        <ele>417.6</ele>
        <time>2022-03-22T14:28:36Z</time>
      </trkpt>
      <trkpt lat="46.40905" lon="5.40149">
        <ele>418.4</ele>
        <time>2022-03-22T14:28:42Z</time>
      </trkpt>
      <trkpt lat="46.40917" lon="5.40152">
        <ele>419</ele>
        <time>2022-03-22T14:28:44Z</time>
      </trkpt>
      <trkpt lat="46.40936" lon="5.40156">
        <ele>419.6</ele>
        <time>2022-03-22T14:28:47Z</time>
      </trkpt>
      <trkpt lat="46.40958" lon="5.40162">
        <ele>420.2</ele>
        <time>2022-03-22T14:28:51Z</time>
      </trkpt>
      <trkpt lat="46.40976" lon="5.40165">
        <ele>420.8</ele>
        <time>2022-03-22T14:28:54Z</time>
      </trkpt>
      <trkpt lat="46.41011" lon="5.40171">
        <ele>421.6</ele>
        <time>2022-03-22T14:29:00Z</time>
      </trkpt>
      <trkpt lat="46.41034" lon="5.40177">
        <ele>421.8</ele>
        <time>2022-03-22T14:29:04Z</time>
      </trkpt>
      <trkpt lat="46.41064" lon="5.40183">
        <ele>421.8</ele>
        <time>2022-03-22T14:29:09Z</time>
      </trkpt>
      <trkpt lat="46.41111" lon="5.40185">
        <ele>421.6</ele>
        <time>2022-03-22T14:29:17Z</time>
      </trkpt>
      <trkpt lat="46.4115" lon="5.40167">
        <ele>422</ele>
        <time>2022-03-22T14:29:24Z</time>
      </trkpt>
      <trkpt lat="46.41201" lon="5.40139">
        <ele>422.4</ele>
        <time>2022-03-22T14:29:33Z</time>
      </trkpt>
      <trkpt lat="46.41244" lon="5.40122">
        <ele>422.6</ele>
        <time>2022-03-22T14:29:40Z</time>
      </trkpt>
      <trkpt lat="46.41261" lon="5.40118">
        <ele>422.8</ele>
        <time>2022-03-22T14:29:43Z</time>
      </trkpt>
      <trkpt lat="46.41296" lon="5.40115">
        <ele>423.6</ele>
        <time>2022-03-22T14:29:49Z</time>
      </trkpt>
      <trkpt lat="46.41308" lon="5.40114">
        <ele>423.8</ele>
        <time>2022-03-22T14:29:51Z</time>
      </trkpt>
      <trkpt lat="46.41347" lon="5.40115">
        <ele>424.4</ele>
        <time>2022-03-22T14:29:58Z</time>
      </trkpt>
      <trkpt lat="46.41375" lon="5.40116">
        <ele>424.8</ele>
        <time>2022-03-22T14:30:03Z</time>
      </trkpt>
      <trkpt lat="46.41396" lon="5.40116">
        <ele>425.6</ele>
        <time>2022-03-22T14:30:07Z</time>
      </trkpt>
      <trkpt lat="46.41408" lon="5.40116">
        <ele>426</ele>
        <time>2022-03-22T14:30:09Z</time>
      </trkpt>
      <trkpt lat="46.41434" lon="5.40116">
        <ele>427</ele>
        <time>2022-03-22T14:30:14Z</time>
      </trkpt>
      <trkpt lat="46.41444" lon="5.40115">
        <ele>427.4</ele>
        <time>2022-03-22T14:30:16Z</time>
      </trkpt>
      <trkpt lat="46.41483" lon="5.40112">
        <ele>428.2</ele>
        <time>2022-03-22T14:30:24Z</time>
      </trkpt>
      <trkpt lat="46.41507" lon="5.4011">
        <ele>429.2</ele>
        <time>2022-03-22T14:30:29Z</time>
      </trkpt>
      <trkpt lat="46.41535" lon="5.40108">
        <ele>430.2</ele>
        <time>2022-03-22T14:30:35Z</time>
      </trkpt>
      <trkpt lat="46.41535" lon="5.40108">
        <ele>430.4</ele>
        <time>2022-03-22T14:30:36Z</time>
      </trkpt>
      <trkpt lat="46.41568" lon="5.40103">
        <ele>431.4</ele>
        <time>2022-03-22T14:30:42Z</time>
      </trkpt>
      <trkpt lat="46.41581" lon="5.401">
        <ele>431.6</ele>
        <time>2022-03-22T14:30:45Z</time>
      </trkpt>
      <trkpt lat="46.416" lon="5.40094">
        <ele>432.4</ele>
        <time>2022-03-22T14:30:49Z</time>
      </trkpt>
      <trkpt lat="46.41618" lon="5.40086">
        <ele>433.4</ele>
        <time>2022-03-22T14:30:53Z</time>
      </trkpt>
      <trkpt lat="46.41623" lon="5.40084">
        <ele>433.6</ele>
        <time>2022-03-22T14:30:54Z</time>
      </trkpt>
      <trkpt lat="46.41649" lon="5.40071">
        <ele>434.6</ele>
        <time>2022-03-22T14:31:00Z</time>
      </trkpt>
      <trkpt lat="46.41658" lon="5.40065">
        <ele>435</ele>
        <time>2022-03-22T14:31:02Z</time>
      </trkpt>
      <trkpt lat="46.41662" lon="5.40063">
        <ele>435.2</ele>
        <time>2022-03-22T14:31:03Z</time>
      </trkpt>
      <trkpt lat="46.41665" lon="5.40059">
        <ele>435.8</ele>
        <time>2022-03-22T14:31:04Z</time>
      </trkpt>
      <trkpt lat="46.41681" lon="5.40046">
        <ele>437</ele>
        <time>2022-03-22T14:31:08Z</time>
      </trkpt>
      <trkpt lat="46.4169" lon="5.4004">
        <ele>437.4</ele>
        <time>2022-03-22T14:31:10Z</time>
      </trkpt>
      <trkpt lat="46.41694" lon="5.40037">
        <ele>437.8</ele>
        <time>2022-03-22T14:31:11Z</time>
      </trkpt>
      <trkpt lat="46.41698" lon="5.40035">
        <ele>438.2</ele>
        <time>2022-03-22T14:31:12Z</time>
      </trkpt>
      <trkpt lat="46.41706" lon="5.4003">
        <ele>438.6</ele>
        <time>2022-03-22T14:31:14Z</time>
      </trkpt>
      <trkpt lat="46.41711" lon="5.40028">
        <ele>438.8</ele>
        <time>2022-03-22T14:31:15Z</time>
      </trkpt>
      <trkpt lat="46.41719" lon="5.40025">
        <ele>439.4</ele>
        <time>2022-03-22T14:31:17Z</time>
      </trkpt>
      <trkpt lat="46.41727" lon="5.40022">
        <ele>440.2</ele>
        <time>2022-03-22T14:31:19Z</time>
      </trkpt>
      <trkpt lat="46.41733" lon="5.40021">
        <ele>440.2</ele>
        <time>2022-03-22T14:31:20Z</time>
      </trkpt>
      <trkpt lat="46.41737" lon="5.40021">
        <ele>440.6</ele>
        <time>2022-03-22T14:31:21Z</time>
      </trkpt>
      <trkpt lat="46.41755" lon="5.40022">
        <ele>441.6</ele>
        <time>2022-03-22T14:31:25Z</time>
      </trkpt>
      <trkpt lat="46.41769" lon="5.40026">
        <ele>442.6</ele>
        <time>2022-03-22T14:31:28Z</time>
      </trkpt>
      <trkpt lat="46.41773" lon="5.40028">
        <ele>442.8</ele>
        <time>2022-03-22T14:31:29Z</time>
      </trkpt>
      <trkpt lat="46.41786" lon="5.40033">
        <ele>444</ele>
        <time>2022-03-22T14:31:32Z</time>
      </trkpt>
      <trkpt lat="46.41808" lon="5.4004">
        <ele>444.8</ele>
        <time>2022-03-22T14:31:37Z</time>
      </trkpt>
      <trkpt lat="46.41812" lon="5.40041">
        <ele>445</ele>
        <time>2022-03-22T14:31:38Z</time>
      </trkpt>
      <trkpt lat="46.41834" lon="5.40048">
        <ele>446</ele>
        <time>2022-03-22T14:31:43Z</time>
      </trkpt>
      <trkpt lat="46.41846" lon="5.40052">
        <ele>446.8</ele>
        <time>2022-03-22T14:31:46Z</time>
      </trkpt>
      <trkpt lat="46.41854" lon="5.40054">
        <ele>447.2</ele>
        <time>2022-03-22T14:31:48Z</time>
      </trkpt>
      <trkpt lat="46.41867" lon="5.40057">
        <ele>448.4</ele>
        <time>2022-03-22T14:31:52Z</time>
      </trkpt>
      <trkpt lat="46.41873" lon="5.40058">
        <ele>449.6</ele>
        <time>2022-03-22T14:31:54Z</time>
      </trkpt>
      <trkpt lat="46.41897" lon="5.4006">
        <ele>450.6</ele>
        <time>2022-03-22T14:32:01Z</time>
      </trkpt>
      <trkpt lat="46.419" lon="5.40061">
        <ele>450.8</ele>
        <time>2022-03-22T14:32:02Z</time>
      </trkpt>
      <trkpt lat="46.41928" lon="5.4006">
        <ele>451.8</ele>
        <time>2022-03-22T14:32:10Z</time>
      </trkpt>
      <trkpt lat="46.41943" lon="5.40058">
        <ele>452.6</ele>
        <time>2022-03-22T14:32:14Z</time>
      </trkpt>
      <trkpt lat="46.41949" lon="5.40057">
        <ele>452.8</ele>
        <time>2022-03-22T14:32:16Z</time>
      </trkpt>
      <trkpt lat="46.41966" lon="5.40057">
        <ele>453.6</ele>
        <time>2022-03-22T14:32:21Z</time>
      </trkpt>
      <trkpt lat="46.41973" lon="5.40057">
        <ele>453.8</ele>
        <time>2022-03-22T14:32:23Z</time>
      </trkpt>
      <trkpt lat="46.4199" lon="5.40059">
        <ele>455</ele>
        <time>2022-03-22T14:32:28Z</time>
      </trkpt>
      <trkpt lat="46.41994" lon="5.4006">
        <ele>455.2</ele>
        <time>2022-03-22T14:32:29Z</time>
      </trkpt>
      <trkpt lat="46.42014" lon="5.40064">
        <ele>456</ele>
        <time>2022-03-22T14:32:35Z</time>
      </trkpt>
      <trkpt lat="46.42028" lon="5.40067">
        <ele>456.6</ele>
        <time>2022-03-22T14:32:39Z</time>
      </trkpt>
      <trkpt lat="46.42038" lon="5.4007">
        <ele>457.2</ele>
        <time>2022-03-22T14:32:42Z</time>
      </trkpt>
      <trkpt lat="46.42051" lon="5.40073">
        <ele>457.8</ele>
        <time>2022-03-22T14:32:46Z</time>
      </trkpt>
      <trkpt lat="46.42058" lon="5.40075">
        <ele>458.2</ele>
        <time>2022-03-22T14:32:48Z</time>
      </trkpt>
      <trkpt lat="46.42076" lon="5.40082">
        <ele>459</ele>
        <time>2022-03-22T14:32:53Z</time>
      </trkpt>
      <trkpt lat="46.42086" lon="5.40085">
        <ele>459.2</ele>
        <time>2022-03-22T14:32:56Z</time>
      </trkpt>
      <trkpt lat="46.42101" lon="5.40088">
        <ele>460</ele>
        <time>2022-03-22T14:33:00Z</time>
      </trkpt>
      <trkpt lat="46.4211" lon="5.40089">
        <ele>460.4</ele>
        <time>2022-03-22T14:33:02Z</time>
      </trkpt>
      <trkpt lat="46.42127" lon="5.40087">
        <ele>460.8</ele>
        <time>2022-03-22T14:33:06Z</time>
      </trkpt>
      <trkpt lat="46.42148" lon="5.40083">
        <ele>461.4</ele>
        <time>2022-03-22T14:33:11Z</time>
      </trkpt>
      <trkpt lat="46.42159" lon="5.40081">
        <ele>461.8</ele>
        <time>2022-03-22T14:33:14Z</time>
      </trkpt>
      <trkpt lat="46.42166" lon="5.40078">
        <ele>462.6</ele>
        <time>2022-03-22T14:33:16Z</time>
      </trkpt>
      <trkpt lat="46.42185" lon="5.40072">
        <ele>463.6</ele>
        <time>2022-03-22T14:33:21Z</time>
      </trkpt>
      <trkpt lat="46.42189" lon="5.4007">
        <ele>463.8</ele>
        <time>2022-03-22T14:33:22Z</time>
      </trkpt>
      <trkpt lat="46.42213" lon="5.40063">
        <ele>464.8</ele>
        <time>2022-03-22T14:33:28Z</time>
      </trkpt>
      <trkpt lat="46.4224" lon="5.40054">
        <ele>465.6</ele>
        <time>2022-03-22T14:33:34Z</time>
      </trkpt>
      <trkpt lat="46.42255" lon="5.4005">
        <ele>466</ele>
        <time>2022-03-22T14:33:37Z</time>
      </trkpt>
      <trkpt lat="46.42283" lon="5.40041">
        <ele>466.4</ele>
        <time>2022-03-22T14:33:43Z</time>
      </trkpt>
      <trkpt lat="46.42321" lon="5.40028">
        <ele>466.8</ele>
        <time>2022-03-22T14:33:51Z</time>
      </trkpt>
      <trkpt lat="46.42344" lon="5.4002">
        <ele>467</ele>
        <time>2022-03-22T14:33:56Z</time>
      </trkpt>
      <trkpt lat="46.42367" lon="5.40014">
        <ele>467.2</ele>
        <time>2022-03-22T14:34:01Z</time>
      </trkpt>
      <trkpt lat="46.42372" lon="5.40012">
        <ele>467.4</ele>
        <time>2022-03-22T14:34:02Z</time>
      </trkpt>
      <trkpt lat="46.42385" lon="5.40006">
        <ele>467.8</ele>
        <time>2022-03-22T14:34:05Z</time>
      </trkpt>
      <trkpt lat="46.42392" lon="5.39998">
        <ele>468.2</ele>
        <time>2022-03-22T14:34:07Z</time>
      </trkpt>
      <trkpt lat="46.42394" lon="5.39984">
        <ele>468.4</ele>
        <time>2022-03-22T14:34:09Z</time>
      </trkpt>
      <trkpt lat="46.42394" lon="5.39976">
        <ele>468.4</ele>
        <time>2022-03-22T14:34:10Z</time>
      </trkpt>
      <trkpt lat="46.42395" lon="5.39951">
        <ele>469.2</ele>
        <time>2022-03-22T14:34:13Z</time>
      </trkpt>
      <trkpt lat="46.42396" lon="5.39918">
        <ele>469.4</ele>
        <time>2022-03-22T14:34:17Z</time>
      </trkpt>
      <trkpt lat="46.42398" lon="5.39852">
        <ele>470.4</ele>
        <time>2022-03-22T14:34:26Z</time>
      </trkpt>
      <trkpt lat="46.42398" lon="5.39845">
        <ele>470.4</ele>
        <time>2022-03-22T14:34:27Z</time>
      </trkpt>
      <trkpt lat="46.424" lon="5.39817">
        <ele>470.8</ele>
        <time>2022-03-22T14:34:31Z</time>
      </trkpt>
      <trkpt lat="46.42403" lon="5.39806">
        <ele>471.2</ele>
        <time>2022-03-22T14:34:33Z</time>
      </trkpt>
      <trkpt lat="46.42406" lon="5.39801">
        <ele>471.2</ele>
        <time>2022-03-22T14:34:34Z</time>
      </trkpt>
      <trkpt lat="46.4241" lon="5.39797">
        <ele>471.4</ele>
        <time>2022-03-22T14:34:35Z</time>
      </trkpt>
      <trkpt lat="46.42419" lon="5.39795">
        <ele>471.8</ele>
        <time>2022-03-22T14:34:37Z</time>
      </trkpt>
      <trkpt lat="46.4244" lon="5.39799">
        <ele>472.4</ele>
        <time>2022-03-22T14:34:41Z</time>
      </trkpt>
      <trkpt lat="46.42452" lon="5.39805">
        <ele>472.8</ele>
        <time>2022-03-22T14:34:43Z</time>
      </trkpt>
      <trkpt lat="46.42463" lon="5.39815">
        <ele>472.8</ele>
        <time>2022-03-22T14:34:45Z</time>
      </trkpt>
      <trkpt lat="46.42472" lon="5.39828">
        <ele>472.6</ele>
        <time>2022-03-22T14:34:47Z</time>
      </trkpt>
      <trkpt lat="46.42513" lon="5.3988">
        <ele>472.4</ele>
        <time>2022-03-22T14:34:55Z</time>
      </trkpt>
      <trkpt lat="46.42559" lon="5.39915">
        <ele>472</ele>
        <time>2022-03-22T14:35:02Z</time>
      </trkpt>
      <trkpt lat="46.4261" lon="5.39949">
        <ele>472.4</ele>
        <time>2022-03-22T14:35:10Z</time>
      </trkpt>
      <trkpt lat="46.42617" lon="5.39952">
        <ele>472.4</ele>
        <time>2022-03-22T14:35:11Z</time>
      </trkpt>
      <trkpt lat="46.4267" lon="5.39978">
        <ele>473.4</ele>
        <time>2022-03-22T14:35:20Z</time>
      </trkpt>
      <trkpt lat="46.42715" lon="5.39998">
        <ele>473.8</ele>
        <time>2022-03-22T14:35:27Z</time>
      </trkpt>
      <trkpt lat="46.42771" lon="5.40021">
        <ele>474</ele>
        <time>2022-03-22T14:35:36Z</time>
      </trkpt>
      <trkpt lat="46.42783" lon="5.40026">
        <ele>474.2</ele>
        <time>2022-03-22T14:35:38Z</time>
      </trkpt>
      <trkpt lat="46.42801" lon="5.40033">
        <ele>474.6</ele>
        <time>2022-03-22T14:35:41Z</time>
      </trkpt>
      <trkpt lat="46.42835" lon="5.40044">
        <ele>474.8</ele>
        <time>2022-03-22T14:35:46Z</time>
      </trkpt>
      <trkpt lat="46.42888" lon="5.40057">
        <ele>474.4</ele>
        <time>2022-03-22T14:35:53Z</time>
      </trkpt>
      <trkpt lat="46.42943" lon="5.40061">
        <ele>474.6</ele>
        <time>2022-03-22T14:36:01Z</time>
      </trkpt>
      <trkpt lat="46.42991" lon="5.4007">
        <ele>475.8</ele>
        <time>2022-03-22T14:36:08Z</time>
      </trkpt>
      <trkpt lat="46.43013" lon="5.40074">
        <ele>476.4</ele>
        <time>2022-03-22T14:36:11Z</time>
      </trkpt>
      <trkpt lat="46.43034" lon="5.40077">
        <ele>476.8</ele>
        <time>2022-03-22T14:36:14Z</time>
      </trkpt>
      <trkpt lat="46.4304" lon="5.40078">
        <ele>476.8</ele>
        <time>2022-03-22T14:36:15Z</time>
      </trkpt>
      <trkpt lat="46.43068" lon="5.40078">
        <ele>477.4</ele>
        <time>2022-03-22T14:36:19Z</time>
      </trkpt>
      <trkpt lat="46.43105" lon="5.40085">
        <ele>477.6</ele>
        <time>2022-03-22T14:36:24Z</time>
      </trkpt>
      <trkpt lat="46.43157" lon="5.40093">
        <ele>476.2</ele>
        <time>2022-03-22T14:36:30Z</time>
      </trkpt>
      <trkpt lat="46.43173" lon="5.40096">
        <ele>475.6</ele>
        <time>2022-03-22T14:36:32Z</time>
      </trkpt>
      <trkpt lat="46.43181" lon="5.40098">
        <ele>475.4</ele>
        <time>2022-03-22T14:36:33Z</time>
      </trkpt>
      <trkpt lat="46.43196" lon="5.40104">
        <ele>475.2</ele>
        <time>2022-03-22T14:36:35Z</time>
      </trkpt>
      <trkpt lat="46.43218" lon="5.40117">
        <ele>475.2</ele>
        <time>2022-03-22T14:36:38Z</time>
      </trkpt>
      <trkpt lat="46.43234" lon="5.40122">
        <ele>475</ele>
        <time>2022-03-22T14:36:40Z</time>
      </trkpt>
      <trkpt lat="46.43273" lon="5.40121">
        <ele>474.6</ele>
        <time>2022-03-22T14:36:45Z</time>
      </trkpt>
      <trkpt lat="46.43328" lon="5.40117">
        <ele>474.4</ele>
        <time>2022-03-22T14:36:52Z</time>
      </trkpt>
      <trkpt lat="46.43336" lon="5.40117">
        <ele>474.2</ele>
        <time>2022-03-22T14:36:53Z</time>
      </trkpt>
      <trkpt lat="46.43389" lon="5.40125">
        <ele>474</ele>
        <time>2022-03-22T14:37:00Z</time>
      </trkpt>
      <trkpt lat="46.43442" lon="5.40146">
        <ele>473.6</ele>
        <time>2022-03-22T14:37:07Z</time>
      </trkpt>
      <trkpt lat="46.43449" lon="5.40149">
        <ele>473.6</ele>
        <time>2022-03-22T14:37:08Z</time>
      </trkpt>
      <trkpt lat="46.43462" lon="5.40156">
        <ele>473.8</ele>
        <time>2022-03-22T14:37:10Z</time>
      </trkpt>
      <trkpt lat="46.43489" lon="5.40169">
        <ele>473.8</ele>
        <time>2022-03-22T14:37:14Z</time>
      </trkpt>
      <trkpt lat="46.4353" lon="5.40176">
        <ele>474.6</ele>
        <time>2022-03-22T14:37:20Z</time>
      </trkpt>
      <trkpt lat="46.43585" lon="5.40185">
        <ele>475.4</ele>
        <time>2022-03-22T14:37:28Z</time>
      </trkpt>
      <trkpt lat="46.43627" lon="5.40191">
        <ele>475.4</ele>
        <time>2022-03-22T14:37:34Z</time>
      </trkpt>
      <trkpt lat="46.43665" lon="5.40186">
        <ele>475.4</ele>
        <time>2022-03-22T14:37:40Z</time>
      </trkpt>
      <trkpt lat="46.4369" lon="5.40183">
        <ele>475.8</ele>
        <time>2022-03-22T14:37:44Z</time>
      </trkpt>
      <trkpt lat="46.43715" lon="5.4018">
        <ele>476.4</ele>
        <time>2022-03-22T14:37:48Z</time>
      </trkpt>
      <trkpt lat="46.43751" lon="5.40173">
        <ele>477</ele>
        <time>2022-03-22T14:37:54Z</time>
      </trkpt>
      <trkpt lat="46.43772" lon="5.40167">
        <ele>477.2</ele>
        <time>2022-03-22T14:37:57Z</time>
      </trkpt>
      <trkpt lat="46.43816" lon="5.40153">
        <ele>477</ele>
        <time>2022-03-22T14:38:04Z</time>
      </trkpt>
      <trkpt lat="46.43862" lon="5.40137">
        <ele>477</ele>
        <time>2022-03-22T14:38:11Z</time>
      </trkpt>
      <trkpt lat="46.4387" lon="5.40133">
        <ele>477</ele>
        <time>2022-03-22T14:38:12Z</time>
      </trkpt>
      <trkpt lat="46.4389" lon="5.40117">
        <ele>476.8</ele>
        <time>2022-03-22T14:38:15Z</time>
      </trkpt>
      <trkpt lat="46.43927" lon="5.40091">
        <ele>476.2</ele>
        <time>2022-03-22T14:38:21Z</time>
      </trkpt>
      <trkpt lat="46.43941" lon="5.40087">
        <ele>476.2</ele>
        <time>2022-03-22T14:38:23Z</time>
      </trkpt>
      <trkpt lat="46.43957" lon="5.40087">
        <ele>476</ele>
        <time>2022-03-22T14:38:25Z</time>
      </trkpt>
      <trkpt lat="46.43965" lon="5.40087">
        <ele>476</ele>
        <time>2022-03-22T14:38:26Z</time>
      </trkpt>
      <trkpt lat="46.44004" lon="5.40085">
        <ele>475.6</ele>
        <time>2022-03-22T14:38:31Z</time>
      </trkpt>
      <trkpt lat="46.44045" lon="5.40075">
        <ele>475.4</ele>
        <time>2022-03-22T14:38:37Z</time>
      </trkpt>
      <trkpt lat="46.44097" lon="5.40061">
        <ele>476.2</ele>
        <time>2022-03-22T14:38:45Z</time>
      </trkpt>
      <trkpt lat="46.44133" lon="5.40048">
        <ele>476.4</ele>
        <time>2022-03-22T14:38:51Z</time>
      </trkpt>
      <trkpt lat="46.44169" lon="5.40017">
        <ele>477</ele>
        <time>2022-03-22T14:38:58Z</time>
      </trkpt>
      <trkpt lat="46.44204" lon="5.39985">
        <ele>478</ele>
        <time>2022-03-22T14:39:05Z</time>
      </trkpt>
      <trkpt lat="46.44216" lon="5.39976">
        <ele>478.2</ele>
        <time>2022-03-22T14:39:07Z</time>
      </trkpt>
      <trkpt lat="46.44229" lon="5.39966">
        <ele>478.2</ele>
        <time>2022-03-22T14:39:09Z</time>
      </trkpt>
      <trkpt lat="46.44242" lon="5.39959">
        <ele>478.2</ele>
        <time>2022-03-22T14:39:11Z</time>
      </trkpt>
      <trkpt lat="46.44254" lon="5.39956">
        <ele>478.2</ele>
        <time>2022-03-22T14:39:13Z</time>
      </trkpt>
      <trkpt lat="46.44269" lon="5.39955">
        <ele>478.2</ele>
        <time>2022-03-22T14:39:15Z</time>
      </trkpt>
      <trkpt lat="46.44299" lon="5.39956">
        <ele>478.2</ele>
        <time>2022-03-22T14:39:20Z</time>
      </trkpt>
      <trkpt lat="46.44327" lon="5.39956">
        <ele>479</ele>
        <time>2022-03-22T14:39:25Z</time>
      </trkpt>
      <trkpt lat="46.44333" lon="5.39955">
        <ele>479.2</ele>
        <time>2022-03-22T14:39:26Z</time>
      </trkpt>
      <trkpt lat="46.44355" lon="5.39955">
        <ele>480.4</ele>
        <time>2022-03-22T14:39:30Z</time>
      </trkpt>
      <trkpt lat="46.44367" lon="5.39953">
        <ele>481</ele>
        <time>2022-03-22T14:39:32Z</time>
      </trkpt>
      <trkpt lat="46.44379" lon="5.39953">
        <ele>481.4</ele>
        <time>2022-03-22T14:39:34Z</time>
      </trkpt>
      <trkpt lat="46.44398" lon="5.39951">
        <ele>481.6</ele>
        <time>2022-03-22T14:39:37Z</time>
      </trkpt>
      <trkpt lat="46.44413" lon="5.39951">
        <ele>481.6</ele>
        <time>2022-03-22T14:39:39Z</time>
      </trkpt>
      <trkpt lat="46.44442" lon="5.39943">
        <ele>481.6</ele>
        <time>2022-03-22T14:39:43Z</time>
      </trkpt>
      <trkpt lat="46.44498" lon="5.39916">
        <ele>481.2</ele>
        <time>2022-03-22T14:39:52Z</time>
      </trkpt>
      <trkpt lat="46.44539" lon="5.39897">
        <ele>481.8</ele>
        <time>2022-03-22T14:39:59Z</time>
      </trkpt>
      <trkpt lat="46.44593" lon="5.39867">
        <ele>482.4</ele>
        <time>2022-03-22T14:40:08Z</time>
      </trkpt>
      <trkpt lat="46.44625" lon="5.39829">
        <ele>482.6</ele>
        <time>2022-03-22T14:40:15Z</time>
      </trkpt>
      <trkpt lat="46.44631" lon="5.39824">
        <ele>482.8</ele>
        <time>2022-03-22T14:40:16Z</time>
      </trkpt>
      <trkpt lat="46.44648" lon="5.39808">
        <ele>482.8</ele>
        <time>2022-03-22T14:40:19Z</time>
      </trkpt>
      <trkpt lat="46.44655" lon="5.39803">
        <ele>482.8</ele>
        <time>2022-03-22T14:40:20Z</time>
      </trkpt>
      <trkpt lat="46.44663" lon="5.398">
        <ele>482.8</ele>
        <time>2022-03-22T14:40:21Z</time>
      </trkpt>
      <trkpt lat="46.44687" lon="5.39797">
        <ele>482.6</ele>
        <time>2022-03-22T14:40:24Z</time>
      </trkpt>
      <trkpt lat="46.44702" lon="5.39797">
        <ele>481.8</ele>
        <time>2022-03-22T14:40:26Z</time>
      </trkpt>
      <trkpt lat="46.44727" lon="5.39798">
        <ele>481.4</ele>
        <time>2022-03-22T14:40:30Z</time>
      </trkpt>
      <trkpt lat="46.44761" lon="5.398">
        <ele>482.4</ele>
        <time>2022-03-22T14:40:36Z</time>
      </trkpt>
      <trkpt lat="46.44771" lon="5.398">
        <ele>482.8</ele>
        <time>2022-03-22T14:40:38Z</time>
      </trkpt>
      <trkpt lat="46.44786" lon="5.39799">
        <ele>484</ele>
        <time>2022-03-22T14:40:41Z</time>
      </trkpt>
      <trkpt lat="46.44797" lon="5.39796">
        <ele>484.4</ele>
        <time>2022-03-22T14:40:43Z</time>
      </trkpt>
      <trkpt lat="46.4481" lon="5.39791">
        <ele>484.6</ele>
        <time>2022-03-22T14:40:45Z</time>
      </trkpt>
      <trkpt lat="46.4483" lon="5.39778">
        <ele>484.8</ele>
        <time>2022-03-22T14:40:48Z</time>
      </trkpt>
      <trkpt lat="46.44864" lon="5.39759">
        <ele>484.4</ele>
        <time>2022-03-22T14:40:53Z</time>
      </trkpt>
      <trkpt lat="46.44902" lon="5.39751">
        <ele>484.2</ele>
        <time>2022-03-22T14:40:59Z</time>
      </trkpt>
      <trkpt lat="46.44925" lon="5.39744">
        <ele>485</ele>
        <time>2022-03-22T14:41:03Z</time>
      </trkpt>
      <trkpt lat="46.44951" lon="5.39737">
        <ele>485.2</ele>
        <time>2022-03-22T14:41:07Z</time>
      </trkpt>
      <trkpt lat="46.44977" lon="5.39727">
        <ele>485.4</ele>
        <time>2022-03-22T14:41:11Z</time>
      </trkpt>
      <trkpt lat="46.44983" lon="5.39723">
        <ele>485.2</ele>
        <time>2022-03-22T14:41:12Z</time>
      </trkpt>
      <trkpt lat="46.45018" lon="5.39686">
        <ele>485.4</ele>
        <time>2022-03-22T14:41:19Z</time>
      </trkpt>
      <trkpt lat="46.45045" lon="5.3966">
        <ele>486.2</ele>
        <time>2022-03-22T14:41:25Z</time>
      </trkpt>
      <trkpt lat="46.4505" lon="5.39656">
        <ele>486.4</ele>
        <time>2022-03-22T14:41:26Z</time>
      </trkpt>
      <trkpt lat="46.45064" lon="5.39646">
        <ele>487.2</ele>
        <time>2022-03-22T14:41:29Z</time>
      </trkpt>
      <trkpt lat="46.45097" lon="5.39624">
        <ele>488.2</ele>
        <time>2022-03-22T14:41:36Z</time>
      </trkpt>
      <trkpt lat="46.45101" lon="5.39621">
        <ele>488.4</ele>
        <time>2022-03-22T14:41:37Z</time>
      </trkpt>
      <trkpt lat="46.45133" lon="5.39603">
        <ele>489.4</ele>
        <time>2022-03-22T14:41:43Z</time>
      </trkpt>
      <trkpt lat="46.45139" lon="5.396">
        <ele>489.6</ele>
        <time>2022-03-22T14:41:44Z</time>
      </trkpt>
      <trkpt lat="46.45183" lon="5.39579">
        <ele>489.4</ele>
        <time>2022-03-22T14:41:51Z</time>
      </trkpt>
      <trkpt lat="46.4522" lon="5.39561">
        <ele>488.8</ele>
        <time>2022-03-22T14:41:57Z</time>
      </trkpt>
      <trkpt lat="46.45236" lon="5.39553">
        <ele>488.4</ele>
        <time>2022-03-22T14:41:58Z</time>
      </trkpt>
      <trkpt lat="46.45252" lon="5.39543">
        <ele>488</ele>
        <time>2022-03-22T14:42:00Z</time>
      </trkpt>
      <trkpt lat="46.45267" lon="5.3953">
        <ele>487.6</ele>
        <time>2022-03-22T14:42:02Z</time>
      </trkpt>
      <trkpt lat="46.45273" lon="5.39523">
        <ele>487.4</ele>
        <time>2022-03-22T14:42:03Z</time>
      </trkpt>
      <trkpt lat="46.45298" lon="5.39493">
        <ele>486</ele>
        <time>2022-03-22T14:42:07Z</time>
      </trkpt>
      <trkpt lat="46.45309" lon="5.39477">
        <ele>485.6</ele>
        <time>2022-03-22T14:42:09Z</time>
      </trkpt>
      <trkpt lat="46.45319" lon="5.39459">
        <ele>485.2</ele>
        <time>2022-03-22T14:42:11Z</time>
      </trkpt>
      <trkpt lat="46.45331" lon="5.3943">
        <ele>484.8</ele>
        <time>2022-03-22T14:42:14Z</time>
      </trkpt>
      <trkpt lat="46.45354" lon="5.39362">
        <ele>484.2</ele>
        <time>2022-03-22T14:42:20Z</time>
      </trkpt>
      <trkpt lat="46.45359" lon="5.3935">
        <ele>483.8</ele>
        <time>2022-03-22T14:42:21Z</time>
      </trkpt>
      <trkpt lat="46.45376" lon="5.39301">
        <ele>482.4</ele>
        <time>2022-03-22T14:42:25Z</time>
      </trkpt>
      <trkpt lat="46.45381" lon="5.39289">
        <ele>482.2</ele>
        <time>2022-03-22T14:42:26Z</time>
      </trkpt>
      <trkpt lat="46.45389" lon="5.39266">
        <ele>481</ele>
        <time>2022-03-22T14:42:28Z</time>
      </trkpt>
      <trkpt lat="46.45401" lon="5.39233">
        <ele>480</ele>
        <time>2022-03-22T14:42:31Z</time>
      </trkpt>
      <trkpt lat="46.45409" lon="5.39212">
        <ele>479</ele>
        <time>2022-03-22T14:42:33Z</time>
      </trkpt>
      <trkpt lat="46.45413" lon="5.39202">
        <ele>478.6</ele>
        <time>2022-03-22T14:42:34Z</time>
      </trkpt>
      <trkpt lat="46.45416" lon="5.39192">
        <ele>478.2</ele>
        <time>2022-03-22T14:42:35Z</time>
      </trkpt>
      <trkpt lat="46.45423" lon="5.39171">
        <ele>477.8</ele>
        <time>2022-03-22T14:42:37Z</time>
      </trkpt>
      <trkpt lat="46.45442" lon="5.39117">
        <ele>477</ele>
        <time>2022-03-22T14:42:42Z</time>
      </trkpt>
      <trkpt lat="46.45455" lon="5.391">
        <ele>476.8</ele>
        <time>2022-03-22T14:42:44Z</time>
      </trkpt>
      <trkpt lat="46.45464" lon="5.39096">
        <ele>476.6</ele>
        <time>2022-03-22T14:42:45Z</time>
      </trkpt>
      <trkpt lat="46.45472" lon="5.39095">
        <ele>476.4</ele>
        <time>2022-03-22T14:42:46Z</time>
      </trkpt>
      <trkpt lat="46.45489" lon="5.39099">
        <ele>475.8</ele>
        <time>2022-03-22T14:42:48Z</time>
      </trkpt>
      <trkpt lat="46.45496" lon="5.39105">
        <ele>475.2</ele>
        <time>2022-03-22T14:42:49Z</time>
      </trkpt>
      <trkpt lat="46.45509" lon="5.39121">
        <ele>474.8</ele>
        <time>2022-03-22T14:42:51Z</time>
      </trkpt>
      <trkpt lat="46.45521" lon="5.39135">
        <ele>474.6</ele>
        <time>2022-03-22T14:42:53Z</time>
      </trkpt>
      <trkpt lat="46.45541" lon="5.39154">
        <ele>474.6</ele>
        <time>2022-03-22T14:42:56Z</time>
      </trkpt>
      <trkpt lat="46.45578" lon="5.39192">
        <ele>476</ele>
        <time>2022-03-22T14:43:02Z</time>
      </trkpt>
      <trkpt lat="46.45589" lon="5.39203">
        <ele>476.6</ele>
        <time>2022-03-22T14:43:04Z</time>
      </trkpt>
      <trkpt lat="46.45604" lon="5.39221">
        <ele>477.4</ele>
        <time>2022-03-22T14:43:07Z</time>
      </trkpt>
      <trkpt lat="46.4561" lon="5.39227">
        <ele>477.6</ele>
        <time>2022-03-22T14:43:08Z</time>
      </trkpt>
      <trkpt lat="46.45629" lon="5.39247">
        <ele>478.8</ele>
        <time>2022-03-22T14:43:12Z</time>
      </trkpt>
      <trkpt lat="46.45634" lon="5.39252">
        <ele>479.2</ele>
        <time>2022-03-22T14:43:13Z</time>
      </trkpt>
      <trkpt lat="46.45639" lon="5.39257">
        <ele>479.8</ele>
        <time>2022-03-22T14:43:14Z</time>
      </trkpt>
      <trkpt lat="46.45643" lon="5.39263">
        <ele>480</ele>
        <time>2022-03-22T14:43:15Z</time>
      </trkpt>
      <trkpt lat="46.45659" lon="5.39281">
        <ele>480.8</ele>
        <time>2022-03-22T14:43:19Z</time>
      </trkpt>
      <trkpt lat="46.45663" lon="5.39285">
        <ele>481.2</ele>
        <time>2022-03-22T14:43:20Z</time>
      </trkpt>
      <trkpt lat="46.45687" lon="5.39312">
        <ele>482.4</ele>
        <time>2022-03-22T14:43:27Z</time>
      </trkpt>
      <trkpt lat="46.45703" lon="5.39329">
        <ele>483.6</ele>
        <time>2022-03-22T14:43:32Z</time>
      </trkpt>
      <trkpt lat="46.45709" lon="5.39335">
        <ele>484</ele>
        <time>2022-03-22T14:43:34Z</time>
      </trkpt>
      <trkpt lat="46.45717" lon="5.39344">
        <ele>484.8</ele>
        <time>2022-03-22T14:43:37Z</time>
      </trkpt>
      <trkpt lat="46.45729" lon="5.39357">
        <ele>485.8</ele>
        <time>2022-03-22T14:43:41Z</time>
      </trkpt>
      <trkpt lat="46.45735" lon="5.39363">
        <ele>486.2</ele>
        <time>2022-03-22T14:43:43Z</time>
      </trkpt>
      <trkpt lat="46.45742" lon="5.39373">
        <ele>487</ele>
        <time>2022-03-22T14:43:46Z</time>
      </trkpt>
      <trkpt lat="46.45746" lon="5.39381">
        <ele>487.4</ele>
        <time>2022-03-22T14:43:48Z</time>
      </trkpt>
      <trkpt lat="46.45754" lon="5.39397">
        <ele>488.2</ele>
        <time>2022-03-22T14:43:52Z</time>
      </trkpt>
      <trkpt lat="46.45759" lon="5.3941">
        <ele>488.8</ele>
        <time>2022-03-22T14:43:55Z</time>
      </trkpt>
      <trkpt lat="46.45762" lon="5.39419">
        <ele>489.4</ele>
        <time>2022-03-22T14:43:57Z</time>
      </trkpt>
      <trkpt lat="46.45767" lon="5.39439">
        <ele>490.2</ele>
        <time>2022-03-22T14:44:01Z</time>
      </trkpt>
      <trkpt lat="46.45769" lon="5.39461">
        <ele>490.8</ele>
        <time>2022-03-22T14:44:05Z</time>
      </trkpt>
      <trkpt lat="46.45769" lon="5.39472">
        <ele>491.4</ele>
        <time>2022-03-22T14:44:07Z</time>
      </trkpt>
      <trkpt lat="46.45767" lon="5.39505">
        <ele>492.2</ele>
        <time>2022-03-22T14:44:13Z</time>
      </trkpt>
      <trkpt lat="46.45767" lon="5.39511">
        <ele>492.6</ele>
        <time>2022-03-22T14:44:14Z</time>
      </trkpt>
      <trkpt lat="46.45763" lon="5.39535">
        <ele>493.4</ele>
        <time>2022-03-22T14:44:18Z</time>
      </trkpt>
      <trkpt lat="46.4576" lon="5.39547">
        <ele>494</ele>
        <time>2022-03-22T14:44:20Z</time>
      </trkpt>
      <trkpt lat="46.45757" lon="5.39596">
        <ele>495</ele>
        <time>2022-03-22T14:44:27Z</time>
      </trkpt>
      <trkpt lat="46.45757" lon="5.39603">
        <ele>495.2</ele>
        <time>2022-03-22T14:44:28Z</time>
      </trkpt>
      <trkpt lat="46.45762" lon="5.39638">
        <ele>495.6</ele>
        <time>2022-03-22T14:44:33Z</time>
      </trkpt>
      <trkpt lat="46.45764" lon="5.39644">
        <ele>495.8</ele>
        <time>2022-03-22T14:44:34Z</time>
      </trkpt>
      <trkpt lat="46.45767" lon="5.39656">
        <ele>496</ele>
        <time>2022-03-22T14:44:36Z</time>
      </trkpt>
      <trkpt lat="46.45771" lon="5.39667">
        <ele>496</ele>
        <time>2022-03-22T14:44:38Z</time>
      </trkpt>
      <trkpt lat="46.45776" lon="5.39678">
        <ele>496.2</ele>
        <time>2022-03-22T14:44:40Z</time>
      </trkpt>
      <trkpt lat="46.45779" lon="5.39684">
        <ele>496.4</ele>
        <time>2022-03-22T14:44:41Z</time>
      </trkpt>
      <trkpt lat="46.45795" lon="5.39707">
        <ele>497.6</ele>
        <time>2022-03-22T14:44:46Z</time>
      </trkpt>
      <trkpt lat="46.45823" lon="5.39732">
        <ele>498.8</ele>
        <time>2022-03-22T14:44:53Z</time>
      </trkpt>
      <trkpt lat="46.45836" lon="5.39742">
        <ele>499</ele>
        <time>2022-03-22T14:44:56Z</time>
      </trkpt>
      <trkpt lat="46.4586" lon="5.39763">
        <ele>499.8</ele>
        <time>2022-03-22T14:45:02Z</time>
      </trkpt>
      <trkpt lat="46.45876" lon="5.39778">
        <ele>500</ele>
        <time>2022-03-22T14:45:06Z</time>
      </trkpt>
      <trkpt lat="46.45888" lon="5.39789">
        <ele>500.4</ele>
        <time>2022-03-22T14:45:09Z</time>
      </trkpt>
      <trkpt lat="46.45897" lon="5.39796">
        <ele>500.8</ele>
        <time>2022-03-22T14:45:11Z</time>
      </trkpt>
      <trkpt lat="46.45906" lon="5.39804">
        <ele>500.8</ele>
        <time>2022-03-22T14:45:13Z</time>
      </trkpt>
      <trkpt lat="46.45958" lon="5.39847">
        <ele>501.4</ele>
        <time>2022-03-22T14:45:24Z</time>
      </trkpt>
      <trkpt lat="46.45973" lon="5.39858">
        <ele>501.8</ele>
        <time>2022-03-22T14:45:27Z</time>
      </trkpt>
      <trkpt lat="46.46006" lon="5.39885">
        <ele>502.2</ele>
        <time>2022-03-22T14:45:34Z</time>
      </trkpt>
      <trkpt lat="46.46047" lon="5.3992">
        <ele>502.4</ele>
        <time>2022-03-22T14:45:43Z</time>
      </trkpt>
      <trkpt lat="46.4606" lon="5.39931">
        <ele>502.8</ele>
        <time>2022-03-22T14:45:46Z</time>
      </trkpt>
      <trkpt lat="46.46086" lon="5.39954">
        <ele>503.4</ele>
        <time>2022-03-22T14:45:52Z</time>
      </trkpt>
      <trkpt lat="46.46109" lon="5.39974">
        <ele>504</ele>
        <time>2022-03-22T14:45:57Z</time>
      </trkpt>
      <trkpt lat="46.46128" lon="5.3999">
        <ele>504.2</ele>
        <time>2022-03-22T14:46:01Z</time>
      </trkpt>
      <trkpt lat="46.46168" lon="5.40029">
        <ele>504.8</ele>
        <time>2022-03-22T14:46:10Z</time>
      </trkpt>
      <trkpt lat="46.46179" lon="5.40046">
        <ele>505</ele>
        <time>2022-03-22T14:46:13Z</time>
      </trkpt>
      <trkpt lat="46.46183" lon="5.40059">
        <ele>505</ele>
        <time>2022-03-22T14:46:15Z</time>
      </trkpt>
      <trkpt lat="46.46189" lon="5.40078">
        <ele>505.6</ele>
        <time>2022-03-22T14:46:18Z</time>
      </trkpt>
      <trkpt lat="46.46193" lon="5.40105">
        <ele>506</ele>
        <time>2022-03-22T14:46:22Z</time>
      </trkpt>
      <trkpt lat="46.46194" lon="5.40112">
        <ele>506.2</ele>
        <time>2022-03-22T14:46:23Z</time>
      </trkpt>
      <trkpt lat="46.46196" lon="5.4013">
        <ele>506.8</ele>
        <time>2022-03-22T14:46:26Z</time>
      </trkpt>
      <trkpt lat="46.46198" lon="5.40134">
        <ele>507</ele>
        <time>2022-03-22T14:46:27Z</time>
      </trkpt>
      <trkpt lat="46.46202" lon="5.40136">
        <ele>507</ele>
        <time>2022-03-22T14:46:28Z</time>
      </trkpt>
      <trkpt lat="46.46211" lon="5.40133">
        <ele>507.4</ele>
        <time>2022-03-22T14:46:30Z</time>
      </trkpt>
      <trkpt lat="46.46224" lon="5.40123">
        <ele>507.6</ele>
        <time>2022-03-22T14:46:33Z</time>
      </trkpt>
      <trkpt lat="46.46236" lon="5.40111">
        <ele>508</ele>
        <time>2022-03-22T14:46:36Z</time>
      </trkpt>
      <trkpt lat="46.4624" lon="5.40107">
        <ele>508</ele>
        <time>2022-03-22T14:46:37Z</time>
      </trkpt>
      <trkpt lat="46.46244" lon="5.40103">
        <ele>508</ele>
        <time>2022-03-22T14:46:38Z</time>
      </trkpt>
      <trkpt lat="46.46253" lon="5.40098">
        <ele>508.2</ele>
        <time>2022-03-22T14:46:40Z</time>
      </trkpt>
      <trkpt lat="46.46267" lon="5.40093">
        <ele>508.8</ele>
        <time>2022-03-22T14:46:43Z</time>
      </trkpt>
      <trkpt lat="46.46285" lon="5.40093">
        <ele>509.2</ele>
        <time>2022-03-22T14:46:47Z</time>
      </trkpt>
      <trkpt lat="46.46293" lon="5.40094">
        <ele>509.6</ele>
        <time>2022-03-22T14:46:49Z</time>
      </trkpt>
      <trkpt lat="46.46304" lon="5.40096">
        <ele>510.2</ele>
        <time>2022-03-22T14:46:52Z</time>
      </trkpt>
      <trkpt lat="46.46315" lon="5.40097">
        <ele>511</ele>
        <time>2022-03-22T14:46:55Z</time>
      </trkpt>
      <trkpt lat="46.4632" lon="5.40096">
        <ele>511.4</ele>
        <time>2022-03-22T14:46:56Z</time>
      </trkpt>
      <trkpt lat="46.46341" lon="5.40094">
        <ele>512.4</ele>
        <time>2022-03-22T14:47:01Z</time>
      </trkpt>
      <trkpt lat="46.46353" lon="5.40092">
        <ele>513.2</ele>
        <time>2022-03-22T14:47:04Z</time>
      </trkpt>
      <trkpt lat="46.46361" lon="5.40091">
        <ele>513.6</ele>
        <time>2022-03-22T14:47:06Z</time>
      </trkpt>
      <trkpt lat="46.46389" lon="5.40087">
        <ele>514.8</ele>
        <time>2022-03-22T14:47:13Z</time>
      </trkpt>
      <trkpt lat="46.46397" lon="5.40086">
        <ele>515</ele>
        <time>2022-03-22T14:47:15Z</time>
      </trkpt>
      <trkpt lat="46.46424" lon="5.4008">
        <ele>515.8</ele>
        <time>2022-03-22T14:47:22Z</time>
      </trkpt>
      <trkpt lat="46.46432" lon="5.40078">
        <ele>516</ele>
        <time>2022-03-22T14:47:24Z</time>
      </trkpt>
      <trkpt lat="46.46452" lon="5.40074">
        <ele>516.8</ele>
        <time>2022-03-22T14:47:29Z</time>
      </trkpt>
      <trkpt lat="46.46464" lon="5.40073">
        <ele>517.4</ele>
        <time>2022-03-22T14:47:32Z</time>
      </trkpt>
      <trkpt lat="46.4648" lon="5.40071">
        <ele>518</ele>
        <time>2022-03-22T14:47:36Z</time>
      </trkpt>
      <trkpt lat="46.46506" lon="5.40073">
        <ele>518.6</ele>
        <time>2022-03-22T14:47:42Z</time>
      </trkpt>
      <trkpt lat="46.46535" lon="5.40087">
        <ele>519.2</ele>
        <time>2022-03-22T14:47:49Z</time>
      </trkpt>
      <trkpt lat="46.46539" lon="5.40089">
        <ele>519.4</ele>
        <time>2022-03-22T14:47:50Z</time>
      </trkpt>
      <trkpt lat="46.46563" lon="5.40101">
        <ele>520.2</ele>
        <time>2022-03-22T14:47:56Z</time>
      </trkpt>
      <trkpt lat="46.46571" lon="5.40105">
        <ele>520.6</ele>
        <time>2022-03-22T14:47:58Z</time>
      </trkpt>
      <trkpt lat="46.46579" lon="5.40109">
        <ele>521.2</ele>
        <time>2022-03-22T14:48:00Z</time>
      </trkpt>
      <trkpt lat="46.46583" lon="5.40111">
        <ele>521.4</ele>
        <time>2022-03-22T14:48:01Z</time>
      </trkpt>
      <trkpt lat="46.46599" lon="5.4012">
        <ele>522</ele>
        <time>2022-03-22T14:48:05Z</time>
      </trkpt>
      <trkpt lat="46.4661" lon="5.40126">
        <ele>522.4</ele>
        <time>2022-03-22T14:48:08Z</time>
      </trkpt>
      <trkpt lat="46.46629" lon="5.40134">
        <ele>523.6</ele>
        <time>2022-03-22T14:48:13Z</time>
      </trkpt>
      <trkpt lat="46.46633" lon="5.40137">
        <ele>523.8</ele>
        <time>2022-03-22T14:48:14Z</time>
      </trkpt>
      <trkpt lat="46.46649" lon="5.40145">
        <ele>524.6</ele>
        <time>2022-03-22T14:48:19Z</time>
      </trkpt>
      <trkpt lat="46.46666" lon="5.40154">
        <ele>526</ele>
        <time>2022-03-22T14:48:24Z</time>
      </trkpt>
      <trkpt lat="46.46682" lon="5.40161">
        <ele>527</ele>
        <time>2022-03-22T14:48:29Z</time>
      </trkpt>
      <trkpt lat="46.46694" lon="5.40167">
        <ele>528</ele>
        <time>2022-03-22T14:48:33Z</time>
      </trkpt>
      <trkpt lat="46.467" lon="5.40171">
        <ele>528.4</ele>
        <time>2022-03-22T14:48:35Z</time>
      </trkpt>
      <trkpt lat="46.46716" lon="5.40179">
        <ele>529.2</ele>
        <time>2022-03-22T14:48:40Z</time>
      </trkpt>
      <trkpt lat="46.46719" lon="5.40181">
        <ele>529.4</ele>
        <time>2022-03-22T14:48:41Z</time>
      </trkpt>
      <trkpt lat="46.46733" lon="5.4019">
        <ele>530.4</ele>
        <time>2022-03-22T14:48:46Z</time>
      </trkpt>
      <trkpt lat="46.46739" lon="5.40192">
        <ele>530.8</ele>
        <time>2022-03-22T14:48:48Z</time>
      </trkpt>
      <trkpt lat="46.46747" lon="5.40197">
        <ele>531.6</ele>
        <time>2022-03-22T14:48:51Z</time>
      </trkpt>
      <trkpt lat="46.46759" lon="5.40203">
        <ele>532.2</ele>
        <time>2022-03-22T14:48:55Z</time>
      </trkpt>
      <trkpt lat="46.46768" lon="5.40209">
        <ele>532.6</ele>
        <time>2022-03-22T14:48:58Z</time>
      </trkpt>
      <trkpt lat="46.4678" lon="5.40216">
        <ele>533.2</ele>
        <time>2022-03-22T14:49:02Z</time>
      </trkpt>
      <trkpt lat="46.46787" lon="5.40221">
        <ele>533.8</ele>
        <time>2022-03-22T14:49:04Z</time>
      </trkpt>
      <trkpt lat="46.46801" lon="5.40228">
        <ele>535</ele>
        <time>2022-03-22T14:49:08Z</time>
      </trkpt>
      <trkpt lat="46.46804" lon="5.4023">
        <ele>535</ele>
        <time>2022-03-22T14:49:09Z</time>
      </trkpt>
      <trkpt lat="46.46822" lon="5.4024">
        <ele>536</ele>
        <time>2022-03-22T14:49:14Z</time>
      </trkpt>
      <trkpt lat="46.46832" lon="5.40243">
        <ele>536.8</ele>
        <time>2022-03-22T14:49:17Z</time>
      </trkpt>
      <trkpt lat="46.46838" lon="5.40246">
        <ele>537</ele>
        <time>2022-03-22T14:49:19Z</time>
      </trkpt>
      <trkpt lat="46.46854" lon="5.40253">
        <ele>538</ele>
        <time>2022-03-22T14:49:24Z</time>
      </trkpt>
      <trkpt lat="46.46859" lon="5.40256">
        <ele>538.2</ele>
        <time>2022-03-22T14:49:26Z</time>
      </trkpt>
      <trkpt lat="46.46875" lon="5.40264">
        <ele>539</ele>
        <time>2022-03-22T14:49:31Z</time>
      </trkpt>
      <trkpt lat="46.46899" lon="5.40276">
        <ele>540</ele>
        <time>2022-03-22T14:49:37Z</time>
      </trkpt>
      <trkpt lat="46.46907" lon="5.4028">
        <ele>540.2</ele>
        <time>2022-03-22T14:49:39Z</time>
      </trkpt>
      <trkpt lat="46.46927" lon="5.40289">
        <ele>541.2</ele>
        <time>2022-03-22T14:49:44Z</time>
      </trkpt>
      <trkpt lat="46.46939" lon="5.40296">
        <ele>541.8</ele>
        <time>2022-03-22T14:49:47Z</time>
      </trkpt>
      <trkpt lat="46.46953" lon="5.40304">
        <ele>542.2</ele>
        <time>2022-03-22T14:49:51Z</time>
      </trkpt>
      <trkpt lat="46.4697" lon="5.40311">
        <ele>543</ele>
        <time>2022-03-22T14:49:55Z</time>
      </trkpt>
      <trkpt lat="46.46974" lon="5.40313">
        <ele>543.2</ele>
        <time>2022-03-22T14:49:56Z</time>
      </trkpt>
      <trkpt lat="46.46996" lon="5.40321">
        <ele>544.4</ele>
        <time>2022-03-22T14:50:01Z</time>
      </trkpt>
      <trkpt lat="46.47013" lon="5.40325">
        <ele>544.8</ele>
        <time>2022-03-22T14:50:05Z</time>
      </trkpt>
      <trkpt lat="46.47051" lon="5.40328">
        <ele>545.2</ele>
        <time>2022-03-22T14:50:14Z</time>
      </trkpt>
      <trkpt lat="46.47076" lon="5.40327">
        <ele>545</ele>
        <time>2022-03-22T14:50:18Z</time>
      </trkpt>
      <trkpt lat="46.47083" lon="5.40328">
        <ele>544.8</ele>
        <time>2022-03-22T14:50:19Z</time>
      </trkpt>
      <trkpt lat="46.47116" lon="5.40332">
        <ele>543.2</ele>
        <time>2022-03-22T14:50:23Z</time>
      </trkpt>
      <trkpt lat="46.47126" lon="5.40333">
        <ele>542.8</ele>
        <time>2022-03-22T14:50:24Z</time>
      </trkpt>
      <trkpt lat="46.47162" lon="5.40344">
        <ele>541.8</ele>
        <time>2022-03-22T14:50:28Z</time>
      </trkpt>
      <trkpt lat="46.47172" lon="5.40347">
        <ele>541.6</ele>
        <time>2022-03-22T14:50:29Z</time>
      </trkpt>
      <trkpt lat="46.47183" lon="5.40352">
        <ele>540.6</ele>
        <time>2022-03-22T14:50:30Z</time>
      </trkpt>
      <trkpt lat="46.47192" lon="5.40358">
        <ele>540.2</ele>
        <time>2022-03-22T14:50:31Z</time>
      </trkpt>
      <trkpt lat="46.47208" lon="5.40375">
        <ele>539.6</ele>
        <time>2022-03-22T14:50:33Z</time>
      </trkpt>
      <trkpt lat="46.47222" lon="5.40394">
        <ele>538.2</ele>
        <time>2022-03-22T14:50:35Z</time>
      </trkpt>
      <trkpt lat="46.47231" lon="5.40402">
        <ele>538</ele>
        <time>2022-03-22T14:50:36Z</time>
      </trkpt>
      <trkpt lat="46.47241" lon="5.4041">
        <ele>537.4</ele>
        <time>2022-03-22T14:50:37Z</time>
      </trkpt>
      <trkpt lat="46.47253" lon="5.40417">
        <ele>536.8</ele>
        <time>2022-03-22T14:50:38Z</time>
      </trkpt>
      <trkpt lat="46.47276" lon="5.40429">
        <ele>535.8</ele>
        <time>2022-03-22T14:50:40Z</time>
      </trkpt>
      <trkpt lat="46.47299" lon="5.40438">
        <ele>534.8</ele>
        <time>2022-03-22T14:50:42Z</time>
      </trkpt>
      <trkpt lat="46.47342" lon="5.40446">
        <ele>533.4</ele>
        <time>2022-03-22T14:50:46Z</time>
      </trkpt>
      <trkpt lat="46.47353" lon="5.40447">
        <ele>532.4</ele>
        <time>2022-03-22T14:50:47Z</time>
      </trkpt>
      <trkpt lat="46.47385" lon="5.40449">
        <ele>531.4</ele>
        <time>2022-03-22T14:50:50Z</time>
      </trkpt>
      <trkpt lat="46.47395" lon="5.40448">
        <ele>530.6</ele>
        <time>2022-03-22T14:50:51Z</time>
      </trkpt>
      <trkpt lat="46.47406" lon="5.40447">
        <ele>530.2</ele>
        <time>2022-03-22T14:50:52Z</time>
      </trkpt>
      <trkpt lat="46.47425" lon="5.40444">
        <ele>528.4</ele>
        <time>2022-03-22T14:50:54Z</time>
      </trkpt>
      <trkpt lat="46.47444" lon="5.40443">
        <ele>527.4</ele>
        <time>2022-03-22T14:50:56Z</time>
      </trkpt>
      <trkpt lat="46.47454" lon="5.40444">
        <ele>527</ele>
        <time>2022-03-22T14:50:57Z</time>
      </trkpt>
      <trkpt lat="46.47463" lon="5.40447">
        <ele>526.4</ele>
        <time>2022-03-22T14:50:58Z</time>
      </trkpt>
      <trkpt lat="46.47494" lon="5.40458">
        <ele>524.4</ele>
        <time>2022-03-22T14:51:01Z</time>
      </trkpt>
      <trkpt lat="46.47502" lon="5.40465">
        <ele>523.8</ele>
        <time>2022-03-22T14:51:02Z</time>
      </trkpt>
      <trkpt lat="46.47511" lon="5.40475">
        <ele>523</ele>
        <time>2022-03-22T14:51:03Z</time>
      </trkpt>
      <trkpt lat="46.47526" lon="5.40486">
        <ele>521.6</ele>
        <time>2022-03-22T14:51:05Z</time>
      </trkpt>
      <trkpt lat="46.47541" lon="5.40479">
        <ele>520.6</ele>
        <time>2022-03-22T14:51:07Z</time>
      </trkpt>
      <trkpt lat="46.47548" lon="5.40472">
        <ele>520</ele>
        <time>2022-03-22T14:51:08Z</time>
      </trkpt>
      <trkpt lat="46.47551" lon="5.40461">
        <ele>519.8</ele>
        <time>2022-03-22T14:51:09Z</time>
      </trkpt>
      <trkpt lat="46.47553" lon="5.40446">
        <ele>518.8</ele>
        <time>2022-03-22T14:51:10Z</time>
      </trkpt>
      <trkpt lat="46.47553" lon="5.40435">
        <ele>518.2</ele>
        <time>2022-03-22T14:51:11Z</time>
      </trkpt>
      <trkpt lat="46.47551" lon="5.40421">
        <ele>517.2</ele>
        <time>2022-03-22T14:51:12Z</time>
      </trkpt>
      <trkpt lat="46.47547" lon="5.40409">
        <ele>517</ele>
        <time>2022-03-22T14:51:13Z</time>
      </trkpt>
      <trkpt lat="46.47538" lon="5.40382">
        <ele>516</ele>
        <time>2022-03-22T14:51:15Z</time>
      </trkpt>
      <trkpt lat="46.47535" lon="5.4037">
        <ele>515.4</ele>
        <time>2022-03-22T14:51:16Z</time>
      </trkpt>
      <trkpt lat="46.47532" lon="5.40355">
        <ele>515.2</ele>
        <time>2022-03-22T14:51:17Z</time>
      </trkpt>
      <trkpt lat="46.47533" lon="5.40339">
        <ele>515</ele>
        <time>2022-03-22T14:51:18Z</time>
      </trkpt>
      <trkpt lat="46.47536" lon="5.40324">
        <ele>514.6</ele>
        <time>2022-03-22T14:51:19Z</time>
      </trkpt>
      <trkpt lat="46.47549" lon="5.40299">
        <ele>513.6</ele>
        <time>2022-03-22T14:51:21Z</time>
      </trkpt>
      <trkpt lat="46.47574" lon="5.40271">
        <ele>512.2</ele>
        <time>2022-03-22T14:51:24Z</time>
      </trkpt>
      <trkpt lat="46.47585" lon="5.40264">
        <ele>512</ele>
        <time>2022-03-22T14:51:25Z</time>
      </trkpt>
      <trkpt lat="46.47597" lon="5.40261">
        <ele>511.6</ele>
        <time>2022-03-22T14:51:26Z</time>
      </trkpt>
      <trkpt lat="46.47619" lon="5.40256">
        <ele>510.4</ele>
        <time>2022-03-22T14:51:28Z</time>
      </trkpt>
      <trkpt lat="46.4763" lon="5.40254">
        <ele>509.8</ele>
        <time>2022-03-22T14:51:29Z</time>
      </trkpt>
      <trkpt lat="46.47642" lon="5.40252">
        <ele>508.8</ele>
        <time>2022-03-22T14:51:30Z</time>
      </trkpt>
      <trkpt lat="46.47663" lon="5.4025">
        <ele>507.6</ele>
        <time>2022-03-22T14:51:32Z</time>
      </trkpt>
      <trkpt lat="46.47674" lon="5.4025">
        <ele>506.4</ele>
        <time>2022-03-22T14:51:33Z</time>
      </trkpt>
      <trkpt lat="46.47687" lon="5.40249">
        <ele>506</ele>
        <time>2022-03-22T14:51:34Z</time>
      </trkpt>
      <trkpt lat="46.47704" lon="5.40241">
        <ele>505.4</ele>
        <time>2022-03-22T14:51:36Z</time>
      </trkpt>
      <trkpt lat="46.47717" lon="5.40221">
        <ele>504</ele>
        <time>2022-03-22T14:51:38Z</time>
      </trkpt>
      <trkpt lat="46.47727" lon="5.40197">
        <ele>502.6</ele>
        <time>2022-03-22T14:51:40Z</time>
      </trkpt>
      <trkpt lat="46.47732" lon="5.40184">
        <ele>502.4</ele>
        <time>2022-03-22T14:51:41Z</time>
      </trkpt>
      <trkpt lat="46.47748" lon="5.40164">
        <ele>501.8</ele>
        <time>2022-03-22T14:51:43Z</time>
      </trkpt>
      <trkpt lat="46.47756" lon="5.40153">
        <ele>501.4</ele>
        <time>2022-03-22T14:51:44Z</time>
      </trkpt>
      <trkpt lat="46.47765" lon="5.40139">
        <ele>501.2</ele>
        <time>2022-03-22T14:51:45Z</time>
      </trkpt>
      <trkpt lat="46.47773" lon="5.40111">
        <ele>500</ele>
        <time>2022-03-22T14:51:47Z</time>
      </trkpt>
      <trkpt lat="46.47774" lon="5.40082">
        <ele>499</ele>
        <time>2022-03-22T14:51:49Z</time>
      </trkpt>
      <trkpt lat="46.47773" lon="5.40066">
        <ele>498.4</ele>
        <time>2022-03-22T14:51:50Z</time>
      </trkpt>
      <trkpt lat="46.47772" lon="5.40052">
        <ele>497.6</ele>
        <time>2022-03-22T14:51:51Z</time>
      </trkpt>
      <trkpt lat="46.47776" lon="5.40026">
        <ele>496.8</ele>
        <time>2022-03-22T14:51:53Z</time>
      </trkpt>
      <trkpt lat="46.47781" lon="5.40016">
        <ele>496.2</ele>
        <time>2022-03-22T14:51:54Z</time>
      </trkpt>
      <trkpt lat="46.47788" lon="5.40009">
        <ele>495.6</ele>
        <time>2022-03-22T14:51:55Z</time>
      </trkpt>
      <trkpt lat="46.47797" lon="5.40004">
        <ele>494.8</ele>
        <time>2022-03-22T14:51:56Z</time>
      </trkpt>
      <trkpt lat="46.47816" lon="5.39994">
        <ele>494</ele>
        <time>2022-03-22T14:51:58Z</time>
      </trkpt>
      <trkpt lat="46.47827" lon="5.39988">
        <ele>493.8</ele>
        <time>2022-03-22T14:51:59Z</time>
      </trkpt>
      <trkpt lat="46.47838" lon="5.39982">
        <ele>492.6</ele>
        <time>2022-03-22T14:52:00Z</time>
      </trkpt>
      <trkpt lat="46.47859" lon="5.39969">
        <ele>491.2</ele>
        <time>2022-03-22T14:52:02Z</time>
      </trkpt>
      <trkpt lat="46.4787" lon="5.39963">
        <ele>490.2</ele>
        <time>2022-03-22T14:52:03Z</time>
      </trkpt>
      <trkpt lat="46.47892" lon="5.39951">
        <ele>488.8</ele>
        <time>2022-03-22T14:52:05Z</time>
      </trkpt>
      <trkpt lat="46.47924" lon="5.39931">
        <ele>487.4</ele>
        <time>2022-03-22T14:52:08Z</time>
      </trkpt>
      <trkpt lat="46.47945" lon="5.3992">
        <ele>486.2</ele>
        <time>2022-03-22T14:52:10Z</time>
      </trkpt>
      <trkpt lat="46.47966" lon="5.39908">
        <ele>485</ele>
        <time>2022-03-22T14:52:12Z</time>
      </trkpt>
      <trkpt lat="46.47986" lon="5.39898">
        <ele>483.8</ele>
        <time>2022-03-22T14:52:14Z</time>
      </trkpt>
      <trkpt lat="46.48006" lon="5.3989">
        <ele>482.8</ele>
        <time>2022-03-22T14:52:16Z</time>
      </trkpt>
      <trkpt lat="46.48016" lon="5.39888">
        <ele>482.4</ele>
        <time>2022-03-22T14:52:17Z</time>
      </trkpt>
      <trkpt lat="46.48036" lon="5.39891">
        <ele>482</ele>
        <time>2022-03-22T14:52:19Z</time>
      </trkpt>
      <trkpt lat="46.48056" lon="5.39902">
        <ele>481.6</ele>
        <time>2022-03-22T14:52:21Z</time>
      </trkpt>
      <trkpt lat="46.48076" lon="5.39911">
        <ele>481.4</ele>
        <time>2022-03-22T14:52:23Z</time>
      </trkpt>
      <trkpt lat="46.48097" lon="5.39915">
        <ele>481.2</ele>
        <time>2022-03-22T14:52:25Z</time>
      </trkpt>
      <trkpt lat="46.48116" lon="5.39912">
        <ele>481</ele>
        <time>2022-03-22T14:52:27Z</time>
      </trkpt>
      <trkpt lat="46.48166" lon="5.39892">
        <ele>481</ele>
        <time>2022-03-22T14:52:32Z</time>
      </trkpt>
      <trkpt lat="46.48191" lon="5.39874">
        <ele>481.2</ele>
        <time>2022-03-22T14:52:35Z</time>
      </trkpt>
      <trkpt lat="46.48198" lon="5.39866">
        <ele>481.2</ele>
        <time>2022-03-22T14:52:36Z</time>
      </trkpt>
      <trkpt lat="46.48203" lon="5.39856">
        <ele>481</ele>
        <time>2022-03-22T14:52:37Z</time>
      </trkpt>
      <trkpt lat="46.48206" lon="5.39844">
        <ele>481</ele>
        <time>2022-03-22T14:52:38Z</time>
      </trkpt>
      <trkpt lat="46.48205" lon="5.39831">
        <ele>480.8</ele>
        <time>2022-03-22T14:52:39Z</time>
      </trkpt>
      <trkpt lat="46.48202" lon="5.39819">
        <ele>480.8</ele>
        <time>2022-03-22T14:52:40Z</time>
      </trkpt>
      <trkpt lat="46.48189" lon="5.39755">
        <ele>480.6</ele>
        <time>2022-03-22T14:52:45Z</time>
      </trkpt>
      <trkpt lat="46.48186" lon="5.39732">
        <ele>480.4</ele>
        <time>2022-03-22T14:52:47Z</time>
      </trkpt>
      <trkpt lat="46.48182" lon="5.39668">
        <ele>479.6</ele>
        <time>2022-03-22T14:52:52Z</time>
      </trkpt>
      <trkpt lat="46.48183" lon="5.39655">
        <ele>479.2</ele>
        <time>2022-03-22T14:52:53Z</time>
      </trkpt>
      <trkpt lat="46.48187" lon="5.39642">
        <ele>479</ele>
        <time>2022-03-22T14:52:54Z</time>
      </trkpt>
      <trkpt lat="46.48191" lon="5.3963">
        <ele>478.4</ele>
        <time>2022-03-22T14:52:55Z</time>
      </trkpt>
      <trkpt lat="46.48197" lon="5.39615">
        <ele>478</ele>
        <time>2022-03-22T14:52:56Z</time>
      </trkpt>
      <trkpt lat="46.48206" lon="5.39592">
        <ele>476.8</ele>
        <time>2022-03-22T14:52:58Z</time>
      </trkpt>
      <trkpt lat="46.48211" lon="5.39578">
        <ele>476.6</ele>
        <time>2022-03-22T14:52:59Z</time>
      </trkpt>
      <trkpt lat="46.48215" lon="5.39564">
        <ele>475.8</ele>
        <time>2022-03-22T14:53:00Z</time>
      </trkpt>
      <trkpt lat="46.4822" lon="5.39537">
        <ele>473.8</ele>
        <time>2022-03-22T14:53:02Z</time>
      </trkpt>
      <trkpt lat="46.48225" lon="5.39511">
        <ele>472.8</ele>
        <time>2022-03-22T14:53:04Z</time>
      </trkpt>
      <trkpt lat="46.48229" lon="5.39499">
        <ele>472</ele>
        <time>2022-03-22T14:53:05Z</time>
      </trkpt>
      <trkpt lat="46.48239" lon="5.39481">
        <ele>470.4</ele>
        <time>2022-03-22T14:53:07Z</time>
      </trkpt>
      <trkpt lat="46.48251" lon="5.39469">
        <ele>468.8</ele>
        <time>2022-03-22T14:53:09Z</time>
      </trkpt>
      <trkpt lat="46.48258" lon="5.39465">
        <ele>468.4</ele>
        <time>2022-03-22T14:53:10Z</time>
      </trkpt>
      <trkpt lat="46.48266" lon="5.39465">
        <ele>467</ele>
        <time>2022-03-22T14:53:11Z</time>
      </trkpt>
      <trkpt lat="46.48274" lon="5.39465">
        <ele>465</ele>
        <time>2022-03-22T14:53:12Z</time>
      </trkpt>
      <trkpt lat="46.48281" lon="5.39466">
        <ele>464.2</ele>
        <time>2022-03-22T14:53:13Z</time>
      </trkpt>
      <trkpt lat="46.48289" lon="5.39464">
        <ele>463.4</ele>
        <time>2022-03-22T14:53:14Z</time>
      </trkpt>
      <trkpt lat="46.48296" lon="5.39461">
        <ele>463.2</ele>
        <time>2022-03-22T14:53:15Z</time>
      </trkpt>
      <trkpt lat="46.48301" lon="5.39456">
        <ele>462.8</ele>
        <time>2022-03-22T14:53:16Z</time>
      </trkpt>
      <trkpt lat="46.48305" lon="5.39448">
        <ele>462.2</ele>
        <time>2022-03-22T14:53:17Z</time>
      </trkpt>
      <trkpt lat="46.48308" lon="5.39438">
        <ele>461.4</ele>
        <time>2022-03-22T14:53:18Z</time>
      </trkpt>
      <trkpt lat="46.48311" lon="5.39425">
        <ele>460.8</ele>
        <time>2022-03-22T14:53:19Z</time>
      </trkpt>
      <trkpt lat="46.48318" lon="5.39399">
        <ele>459.6</ele>
        <time>2022-03-22T14:53:21Z</time>
      </trkpt>
      <trkpt lat="46.48323" lon="5.39387">
        <ele>459.2</ele>
        <time>2022-03-22T14:53:22Z</time>
      </trkpt>
      <trkpt lat="46.48329" lon="5.39376">
        <ele>458.4</ele>
        <time>2022-03-22T14:53:23Z</time>
      </trkpt>
      <trkpt lat="46.48337" lon="5.39363">
        <ele>458.2</ele>
        <time>2022-03-22T14:53:24Z</time>
      </trkpt>
      <trkpt lat="46.48342" lon="5.39355">
        <ele>457.4</ele>
        <time>2022-03-22T14:53:25Z</time>
      </trkpt>
      <trkpt lat="46.48349" lon="5.39345">
        <ele>456.2</ele>
        <time>2022-03-22T14:53:26Z</time>
      </trkpt>
      <trkpt lat="46.48355" lon="5.39341">
        <ele>455.6</ele>
        <time>2022-03-22T14:53:27Z</time>
      </trkpt>
      <trkpt lat="46.48363" lon="5.39337">
        <ele>454.8</ele>
        <time>2022-03-22T14:53:28Z</time>
      </trkpt>
      <trkpt lat="46.48371" lon="5.39333">
        <ele>454.4</ele>
        <time>2022-03-22T14:53:29Z</time>
      </trkpt>
      <trkpt lat="46.4838" lon="5.39332">
        <ele>453.4</ele>
        <time>2022-03-22T14:53:30Z</time>
      </trkpt>
      <trkpt lat="46.4839" lon="5.39333">
        <ele>452.6</ele>
        <time>2022-03-22T14:53:31Z</time>
      </trkpt>
      <trkpt lat="46.484" lon="5.39335">
        <ele>451.6</ele>
        <time>2022-03-22T14:53:32Z</time>
      </trkpt>
      <trkpt lat="46.48423" lon="5.39336">
        <ele>450</ele>
        <time>2022-03-22T14:53:34Z</time>
      </trkpt>
      <trkpt lat="46.48434" lon="5.39335">
        <ele>449.2</ele>
        <time>2022-03-22T14:53:35Z</time>
      </trkpt>
      <trkpt lat="46.48446" lon="5.39331">
        <ele>448.8</ele>
        <time>2022-03-22T14:53:36Z</time>
      </trkpt>
      <trkpt lat="46.48457" lon="5.39327">
        <ele>447.4</ele>
        <time>2022-03-22T14:53:37Z</time>
      </trkpt>
      <trkpt lat="46.48481" lon="5.39319">
        <ele>445.8</ele>
        <time>2022-03-22T14:53:39Z</time>
      </trkpt>
      <trkpt lat="46.48493" lon="5.39317">
        <ele>445.2</ele>
        <time>2022-03-22T14:53:40Z</time>
      </trkpt>
      <trkpt lat="46.48506" lon="5.39314">
        <ele>444.6</ele>
        <time>2022-03-22T14:53:41Z</time>
      </trkpt>
      <trkpt lat="46.48542" lon="5.39304">
        <ele>442.4</ele>
        <time>2022-03-22T14:53:44Z</time>
      </trkpt>
      <trkpt lat="46.48569" lon="5.39298">
        <ele>440.8</ele>
        <time>2022-03-22T14:53:46Z</time>
      </trkpt>
      <trkpt lat="46.48595" lon="5.39295">
        <ele>439.2</ele>
        <time>2022-03-22T14:53:48Z</time>
      </trkpt>
      <trkpt lat="46.48621" lon="5.39289">
        <ele>437.6</ele>
        <time>2022-03-22T14:53:50Z</time>
      </trkpt>
      <trkpt lat="46.48634" lon="5.39286">
        <ele>436.2</ele>
        <time>2022-03-22T14:53:51Z</time>
      </trkpt>
      <trkpt lat="46.48646" lon="5.39284">
        <ele>435.4</ele>
        <time>2022-03-22T14:53:52Z</time>
      </trkpt>
      <trkpt lat="46.48658" lon="5.39284">
        <ele>434.2</ele>
        <time>2022-03-22T14:53:53Z</time>
      </trkpt>
      <trkpt lat="46.48681" lon="5.39287">
        <ele>431.6</ele>
        <time>2022-03-22T14:53:55Z</time>
      </trkpt>
      <trkpt lat="46.487" lon="5.39295">
        <ele>429.8</ele>
        <time>2022-03-22T14:53:57Z</time>
      </trkpt>
      <trkpt lat="46.48715" lon="5.39304">
        <ele>428.2</ele>
        <time>2022-03-22T14:53:59Z</time>
      </trkpt>
      <trkpt lat="46.48722" lon="5.39309">
        <ele>426.6</ele>
        <time>2022-03-22T14:54:00Z</time>
      </trkpt>
      <trkpt lat="46.48735" lon="5.3931">
        <ele>424.4</ele>
        <time>2022-03-22T14:54:02Z</time>
      </trkpt>
      <trkpt lat="46.48742" lon="5.39301">
        <ele>423</ele>
        <time>2022-03-22T14:54:04Z</time>
      </trkpt>
      <trkpt lat="46.48744" lon="5.39296">
        <ele>422</ele>
        <time>2022-03-22T14:54:05Z</time>
      </trkpt>
      <trkpt lat="46.48741" lon="5.39289">
        <ele>421.6</ele>
        <time>2022-03-22T14:54:06Z</time>
      </trkpt>
      <trkpt lat="46.48736" lon="5.39281">
        <ele>420.8</ele>
        <time>2022-03-22T14:54:07Z</time>
      </trkpt>
      <trkpt lat="46.48725" lon="5.39265">
        <ele>419.6</ele>
        <time>2022-03-22T14:54:09Z</time>
      </trkpt>
      <trkpt lat="46.48714" lon="5.39251">
        <ele>418</ele>
        <time>2022-03-22T14:54:11Z</time>
      </trkpt>
      <trkpt lat="46.48704" lon="5.39238">
        <ele>416.8</ele>
        <time>2022-03-22T14:54:13Z</time>
      </trkpt>
      <trkpt lat="46.48698" lon="5.3923">
        <ele>415.2</ele>
        <time>2022-03-22T14:54:15Z</time>
      </trkpt>
      <trkpt lat="46.48695" lon="5.39226">
        <ele>414.4</ele>
        <time>2022-03-22T14:54:16Z</time>
      </trkpt>
      <trkpt lat="46.48692" lon="5.39222">
        <ele>414</ele>
        <time>2022-03-22T14:54:17Z</time>
      </trkpt>
      <trkpt lat="46.48688" lon="5.39217">
        <ele>413.2</ele>
        <time>2022-03-22T14:54:19Z</time>
      </trkpt>
      <trkpt lat="46.48688" lon="5.39217">
        <ele>412.6</ele>
        <time>2022-03-22T14:54:20Z</time>
      </trkpt>
      <trkpt lat="46.48688" lon="5.39217">
        <ele>412.2</ele>
        <time>2022-03-22T14:54:21Z</time>
      </trkpt>
      <trkpt lat="46.48686" lon="5.39214">
        <ele>411.4</ele>
        <time>2022-03-22T14:54:23Z</time>
      </trkpt>
      <trkpt lat="46.48678" lon="5.39204">
        <ele>410.8</ele>
        <time>2022-03-22T14:54:26Z</time>
      </trkpt>
      <trkpt lat="46.4867" lon="5.39193">
        <ele>410.6</ele>
        <time>2022-03-22T14:54:28Z</time>
      </trkpt>
      <trkpt lat="46.48665" lon="5.39186">
        <ele>410.6</ele>
        <time>2022-03-22T14:54:29Z</time>
      </trkpt>
      <trkpt lat="46.4866" lon="5.39179">
        <ele>410.2</ele>
        <time>2022-03-22T14:54:30Z</time>
      </trkpt>
      <trkpt lat="46.48644" lon="5.39156">
        <ele>409.8</ele>
        <time>2022-03-22T14:54:33Z</time>
      </trkpt>
      <trkpt lat="46.48639" lon="5.39149">
        <ele>409.6</ele>
        <time>2022-03-22T14:54:34Z</time>
      </trkpt>
      <trkpt lat="46.48633" lon="5.39143">
        <ele>408.8</ele>
        <time>2022-03-22T14:54:35Z</time>
      </trkpt>
      <trkpt lat="46.48603" lon="5.39118">
        <ele>407.2</ele>
        <time>2022-03-22T14:54:39Z</time>
      </trkpt>
      <trkpt lat="46.4859" lon="5.39108">
        <ele>405.8</ele>
        <time>2022-03-22T14:54:41Z</time>
      </trkpt>
      <trkpt lat="46.48581" lon="5.39101">
        <ele>404</ele>
        <time>2022-03-22T14:54:43Z</time>
      </trkpt>
      <trkpt lat="46.48575" lon="5.39096">
        <ele>402.6</ele>
        <time>2022-03-22T14:54:45Z</time>
      </trkpt>
      <trkpt lat="46.4857" lon="5.39093">
        <ele>401.4</ele>
        <time>2022-03-22T14:54:47Z</time>
      </trkpt>
      <trkpt lat="46.48567" lon="5.3909">
        <ele>400.2</ele>
        <time>2022-03-22T14:54:49Z</time>
      </trkpt>
      <trkpt lat="46.48558" lon="5.39084">
        <ele>399.2</ele>
        <time>2022-03-22T14:54:52Z</time>
      </trkpt>
      <trkpt lat="46.48537" lon="5.39073">
        <ele>398</ele>
        <time>2022-03-22T14:54:56Z</time>
      </trkpt>
      <trkpt lat="46.48526" lon="5.39066">
        <ele>397.4</ele>
        <time>2022-03-22T14:54:58Z</time>
      </trkpt>
      <trkpt lat="46.48519" lon="5.3906">
        <ele>397</ele>
        <time>2022-03-22T14:54:59Z</time>
      </trkpt>
      <trkpt lat="46.48511" lon="5.39051">
        <ele>396.6</ele>
        <time>2022-03-22T14:55:00Z</time>
      </trkpt>
      <trkpt lat="46.48501" lon="5.3903">
        <ele>395.8</ele>
        <time>2022-03-22T14:55:02Z</time>
      </trkpt>
      <trkpt lat="46.48498" lon="5.3902">
        <ele>395.4</ele>
        <time>2022-03-22T14:55:03Z</time>
      </trkpt>
      <trkpt lat="46.48492" lon="5.38995">
        <ele>394.6</ele>
        <time>2022-03-22T14:55:05Z</time>
      </trkpt>
      <trkpt lat="46.48484" lon="5.3897">
        <ele>393.4</ele>
        <time>2022-03-22T14:55:07Z</time>
      </trkpt>
      <trkpt lat="46.4848" lon="5.3896">
        <ele>393.2</ele>
        <time>2022-03-22T14:55:08Z</time>
      </trkpt>
      <trkpt lat="46.48475" lon="5.3895">
        <ele>392</ele>
        <time>2022-03-22T14:55:09Z</time>
      </trkpt>
      <trkpt lat="46.48465" lon="5.38933">
        <ele>390.8</ele>
        <time>2022-03-22T14:55:11Z</time>
      </trkpt>
      <trkpt lat="46.4846" lon="5.38926">
        <ele>390.4</ele>
        <time>2022-03-22T14:55:12Z</time>
      </trkpt>
      <trkpt lat="46.48454" lon="5.38907">
        <ele>389</ele>
        <time>2022-03-22T14:55:14Z</time>
      </trkpt>
      <trkpt lat="46.48453" lon="5.38897">
        <ele>388.4</ele>
        <time>2022-03-22T14:55:15Z</time>
      </trkpt>
      <trkpt lat="46.48453" lon="5.38886">
        <ele>387.6</ele>
        <time>2022-03-22T14:55:16Z</time>
      </trkpt>
      <trkpt lat="46.4846" lon="5.38866">
        <ele>386.6</ele>
        <time>2022-03-22T14:55:18Z</time>
      </trkpt>
      <trkpt lat="46.48465" lon="5.38859">
        <ele>386.4</ele>
        <time>2022-03-22T14:55:19Z</time>
      </trkpt>
      <trkpt lat="46.48472" lon="5.38853">
        <ele>385.8</ele>
        <time>2022-03-22T14:55:20Z</time>
      </trkpt>
      <trkpt lat="46.48479" lon="5.38847">
        <ele>385.6</ele>
        <time>2022-03-22T14:55:21Z</time>
      </trkpt>
      <trkpt lat="46.48486" lon="5.38842">
        <ele>385.4</ele>
        <time>2022-03-22T14:55:22Z</time>
      </trkpt>
      <trkpt lat="46.48502" lon="5.38833">
        <ele>384.6</ele>
        <time>2022-03-22T14:55:24Z</time>
      </trkpt>
      <trkpt lat="46.48509" lon="5.3883">
        <ele>384</ele>
        <time>2022-03-22T14:55:25Z</time>
      </trkpt>
      <trkpt lat="46.48515" lon="5.38826">
        <ele>383.8</ele>
        <time>2022-03-22T14:55:26Z</time>
      </trkpt>
      <trkpt lat="46.48521" lon="5.38823">
        <ele>383</ele>
        <time>2022-03-22T14:55:27Z</time>
      </trkpt>
      <trkpt lat="46.48531" lon="5.38817">
        <ele>381.6</ele>
        <time>2022-03-22T14:55:29Z</time>
      </trkpt>
      <trkpt lat="46.48537" lon="5.38813">
        <ele>380.8</ele>
        <time>2022-03-22T14:55:30Z</time>
      </trkpt>
      <trkpt lat="46.48543" lon="5.38809">
        <ele>380.4</ele>
        <time>2022-03-22T14:55:31Z</time>
      </trkpt>
      <trkpt lat="46.48549" lon="5.38804">
        <ele>379.4</ele>
        <time>2022-03-22T14:55:32Z</time>
      </trkpt>
      <trkpt lat="46.48568" lon="5.38789">
        <ele>378.2</ele>
        <time>2022-03-22T14:55:35Z</time>
      </trkpt>
      <trkpt lat="46.48574" lon="5.38785">
        <ele>377.8</ele>
        <time>2022-03-22T14:55:36Z</time>
      </trkpt>
      <trkpt lat="46.48581" lon="5.38782">
        <ele>377</ele>
        <time>2022-03-22T14:55:37Z</time>
      </trkpt>
      <trkpt lat="46.48587" lon="5.38782">
        <ele>376.8</ele>
        <time>2022-03-22T14:55:38Z</time>
      </trkpt>
      <trkpt lat="46.48593" lon="5.38784">
        <ele>376.2</ele>
        <time>2022-03-22T14:55:39Z</time>
      </trkpt>
      <trkpt lat="46.48598" lon="5.38787">
        <ele>376</ele>
        <time>2022-03-22T14:55:40Z</time>
      </trkpt>
      <trkpt lat="46.48602" lon="5.38788">
        <ele>375.2</ele>
        <time>2022-03-22T14:55:41Z</time>
      </trkpt>
      <trkpt lat="46.48605" lon="5.38788">
        <ele>374.8</ele>
        <time>2022-03-22T14:55:42Z</time>
      </trkpt>
      <trkpt lat="46.48608" lon="5.38787">
        <ele>374</ele>
        <time>2022-03-22T14:55:43Z</time>
      </trkpt>
      <trkpt lat="46.48611" lon="5.38784">
        <ele>373.6</ele>
        <time>2022-03-22T14:55:44Z</time>
      </trkpt>
      <trkpt lat="46.48618" lon="5.38774">
        <ele>372.2</ele>
        <time>2022-03-22T14:55:46Z</time>
      </trkpt>
      <trkpt lat="46.48621" lon="5.38766">
        <ele>372</ele>
        <time>2022-03-22T14:55:47Z</time>
      </trkpt>
      <trkpt lat="46.48634" lon="5.38741">
        <ele>371</ele>
        <time>2022-03-22T14:55:50Z</time>
      </trkpt>
      <trkpt lat="46.48637" lon="5.3873">
        <ele>370.6</ele>
        <time>2022-03-22T14:55:51Z</time>
      </trkpt>
      <trkpt lat="46.48642" lon="5.38706">
        <ele>370</ele>
        <time>2022-03-22T14:55:53Z</time>
      </trkpt>
      <trkpt lat="46.48643" lon="5.38693">
        <ele>369.6</ele>
        <time>2022-03-22T14:55:54Z</time>
      </trkpt>
      <trkpt lat="46.48643" lon="5.38679">
        <ele>369.2</ele>
        <time>2022-03-22T14:55:55Z</time>
      </trkpt>
      <trkpt lat="46.48641" lon="5.38666">
        <ele>368.8</ele>
        <time>2022-03-22T14:55:56Z</time>
      </trkpt>
      <trkpt lat="46.48639" lon="5.38652">
        <ele>368.6</ele>
        <time>2022-03-22T14:55:57Z</time>
      </trkpt>
      <trkpt lat="46.48634" lon="5.38625">
        <ele>367.6</ele>
        <time>2022-03-22T14:55:59Z</time>
      </trkpt>
      <trkpt lat="46.48623" lon="5.38582">
        <ele>366</ele>
        <time>2022-03-22T14:56:02Z</time>
      </trkpt>
      <trkpt lat="46.48614" lon="5.38553">
        <ele>364.8</ele>
        <time>2022-03-22T14:56:04Z</time>
      </trkpt>
      <trkpt lat="46.48606" lon="5.38523">
        <ele>363.6</ele>
        <time>2022-03-22T14:56:06Z</time>
      </trkpt>
      <trkpt lat="46.48597" lon="5.38494">
        <ele>362.2</ele>
        <time>2022-03-22T14:56:08Z</time>
      </trkpt>
    </trkseg>
  </trk>
</gpx>